<?xml version="1.0" encoding="UTF-8" standalone="no" ?>
<gpx xmlns="http://www.topografix.com/GPX/1/1" xmlns:xsi="http://www.w3.org/2001/XMLSchema-instance" xsi:schemaLocation="http://www.topografix.com/GPX/1/1 http://www.topografix.com/GPX/1/1/gpx.xsd" version="1.1" creator="VisuGPX - https://www.visugpx.com">
  <metadata>
    <name>78 - 91 De Courcelle-sur-Yvette à La Verrière</name>
    <desc><![CDATA[Trace AlpineQuest 14/06/2022 06:27:41]]></desc>
  </metadata>
  <trk>
    <name><![CDATA[De Courcelle-sur-Yvette à La Verrière]]></name>
    <desc><![CDATA[Trace AlpineQuest 14/06/2022 06:27:41]]></desc>
    <extensions>
      <line xmlns="http://www.topografix.com/GPX/gpx_style/0/2">
        <color>0000FF</color>
        <width>4</width>
      </line>
    </extensions>
    <trkseg>
      <trkpt lat="48.7009" lon="2.09932">
        <ele>85.1</ele>
        <time>2022-06-14T04:27:41Z</time>
      </trkpt>
      <trkpt lat="48.70098" lon="2.09929">
        <ele>84.5</ele>
        <time>2022-06-14T04:27:47Z</time>
      </trkpt>
      <trkpt lat="48.70105" lon="2.09929">
        <ele>84</ele>
        <time>2022-06-14T04:28:02Z</time>
      </trkpt>
      <trkpt lat="48.7011" lon="2.09937">
        <ele>83.4</ele>
        <time>2022-06-14T04:28:08Z</time>
      </trkpt>
      <trkpt lat="48.70114" lon="2.09946">
        <ele>83</ele>
        <time>2022-06-14T04:28:15Z</time>
      </trkpt>
      <trkpt lat="48.70122" lon="2.09951">
        <ele>82.3</ele>
        <time>2022-06-14T04:28:20Z</time>
      </trkpt>
      <trkpt lat="48.70126" lon="2.09959">
        <ele>81.9</ele>
        <time>2022-06-14T04:28:25Z</time>
      </trkpt>
      <trkpt lat="48.7013" lon="2.09968">
        <ele>81.5</ele>
        <time>2022-06-14T04:28:31Z</time>
      </trkpt>
      <trkpt lat="48.70132" lon="2.09977">
        <ele>81.3</ele>
        <time>2022-06-14T04:28:37Z</time>
      </trkpt>
      <trkpt lat="48.7014" lon="2.09986">
        <ele>80.7</ele>
        <time>2022-06-14T04:28:42Z</time>
      </trkpt>
      <trkpt lat="48.70149" lon="2.09998">
        <ele>80.1</ele>
        <time>2022-06-14T04:28:47Z</time>
      </trkpt>
      <trkpt lat="48.70151" lon="2.1001">
        <ele>80</ele>
        <time>2022-06-14T04:28:52Z</time>
      </trkpt>
      <trkpt lat="48.70155" lon="2.10022">
        <ele>79.9</ele>
        <time>2022-06-14T04:28:57Z</time>
      </trkpt>
      <trkpt lat="48.70161" lon="2.10026">
        <ele>79.6</ele>
        <time>2022-06-14T04:29:03Z</time>
      </trkpt>
      <trkpt lat="48.7017" lon="2.10027">
        <ele>79.1</ele>
        <time>2022-06-14T04:29:08Z</time>
      </trkpt>
      <trkpt lat="48.70177" lon="2.10034">
        <ele>78.6</ele>
        <time>2022-06-14T04:29:14Z</time>
      </trkpt>
      <trkpt lat="48.70182" lon="2.10042">
        <ele>78.3</ele>
        <time>2022-06-14T04:29:20Z</time>
      </trkpt>
      <trkpt lat="48.70187" lon="2.10052">
        <ele>78</ele>
        <time>2022-06-14T04:29:25Z</time>
      </trkpt>
      <trkpt lat="48.70191" lon="2.10061">
        <ele>77.8</ele>
        <time>2022-06-14T04:29:30Z</time>
      </trkpt>
      <trkpt lat="48.70195" lon="2.1007">
        <ele>77.5</ele>
        <time>2022-06-14T04:29:35Z</time>
      </trkpt>
      <trkpt lat="48.70198" lon="2.10082">
        <ele>77.4</ele>
        <time>2022-06-14T04:29:40Z</time>
      </trkpt>
      <trkpt lat="48.70203" lon="2.10091">
        <ele>76.8</ele>
        <time>2022-06-14T04:29:45Z</time>
      </trkpt>
      <trkpt lat="48.70209" lon="2.10098">
        <ele>76.1</ele>
        <time>2022-06-14T04:29:50Z</time>
      </trkpt>
      <trkpt lat="48.70217" lon="2.10103">
        <ele>75.3</ele>
        <time>2022-06-14T04:29:55Z</time>
      </trkpt>
      <trkpt lat="48.70223" lon="2.1011">
        <ele>74.6</ele>
        <time>2022-06-14T04:30:00Z</time>
      </trkpt>
      <trkpt lat="48.70228" lon="2.10118">
        <ele>74</ele>
        <time>2022-06-14T04:30:05Z</time>
      </trkpt>
      <trkpt lat="48.70225" lon="2.10129">
        <ele>74</ele>
        <time>2022-06-14T04:30:13Z</time>
      </trkpt>
      <trkpt lat="48.70223" lon="2.1014">
        <ele>73.9</ele>
        <time>2022-06-14T04:30:19Z</time>
      </trkpt>
      <trkpt lat="48.70218" lon="2.1015">
        <ele>74.1</ele>
        <time>2022-06-14T04:30:24Z</time>
      </trkpt>
      <trkpt lat="48.70221" lon="2.10166">
        <ele>73.5</ele>
        <time>2022-06-14T04:30:29Z</time>
      </trkpt>
      <trkpt lat="48.70231" lon="2.10178">
        <ele>72.2</ele>
        <time>2022-06-14T04:30:34Z</time>
      </trkpt>
      <trkpt lat="48.70235" lon="2.10188">
        <ele>71.6</ele>
        <time>2022-06-14T04:30:39Z</time>
      </trkpt>
      <trkpt lat="48.70237" lon="2.10199">
        <ele>71.1</ele>
        <time>2022-06-14T04:30:44Z</time>
      </trkpt>
      <trkpt lat="48.70239" lon="2.10208">
        <ele>70.7</ele>
        <time>2022-06-14T04:30:50Z</time>
      </trkpt>
      <trkpt lat="48.70245" lon="2.10215">
        <ele>70.1</ele>
        <time>2022-06-14T04:31:10Z</time>
      </trkpt>
      <trkpt lat="48.70251" lon="2.10223">
        <ele>69.7</ele>
        <time>2022-06-14T04:31:15Z</time>
      </trkpt>
      <trkpt lat="48.70252" lon="2.10236">
        <ele>69.4</ele>
        <time>2022-06-14T04:31:20Z</time>
      </trkpt>
      <trkpt lat="48.70252" lon="2.10247">
        <ele>69.1</ele>
        <time>2022-06-14T04:31:25Z</time>
      </trkpt>
      <trkpt lat="48.7025" lon="2.10257">
        <ele>69.2</ele>
        <time>2022-06-14T04:31:30Z</time>
      </trkpt>
      <trkpt lat="48.70247" lon="2.10267">
        <ele>69.5</ele>
        <time>2022-06-14T04:31:35Z</time>
      </trkpt>
      <trkpt lat="48.70244" lon="2.10279">
        <ele>69.8</ele>
        <time>2022-06-14T04:31:40Z</time>
      </trkpt>
      <trkpt lat="48.70239" lon="2.10288">
        <ele>70.1</ele>
        <time>2022-06-14T04:31:45Z</time>
      </trkpt>
      <trkpt lat="48.70239" lon="2.10301">
        <ele>70.3</ele>
        <time>2022-06-14T04:31:50Z</time>
      </trkpt>
      <trkpt lat="48.70241" lon="2.10312">
        <ele>70.5</ele>
        <time>2022-06-14T04:31:55Z</time>
      </trkpt>
      <trkpt lat="48.70242" lon="2.10323">
        <ele>70.7</ele>
        <time>2022-06-14T04:32:00Z</time>
      </trkpt>
      <trkpt lat="48.70243" lon="2.10334">
        <ele>70.9</ele>
        <time>2022-06-14T04:32:06Z</time>
      </trkpt>
      <trkpt lat="48.70244" lon="2.10344">
        <ele>70.7</ele>
        <time>2022-06-14T04:32:12Z</time>
      </trkpt>
      <trkpt lat="48.70239" lon="2.10352">
        <ele>70.5</ele>
        <time>2022-06-14T04:32:17Z</time>
      </trkpt>
      <trkpt lat="48.7023" lon="2.10357">
        <ele>70.4</ele>
        <time>2022-06-14T04:32:22Z</time>
      </trkpt>
      <trkpt lat="48.70218" lon="2.10365">
        <ele>70.3</ele>
        <time>2022-06-14T04:32:27Z</time>
      </trkpt>
      <trkpt lat="48.70208" lon="2.10367">
        <ele>70.3</ele>
        <time>2022-06-14T04:32:32Z</time>
      </trkpt>
      <trkpt lat="48.70202" lon="2.1037">
        <ele>70.3</ele>
        <time>2022-06-14T04:32:37Z</time>
      </trkpt>
      <trkpt lat="48.70195" lon="2.10371">
        <ele>70.3</ele>
        <time>2022-06-14T04:32:43Z</time>
      </trkpt>
      <trkpt lat="48.70191" lon="2.10379">
        <ele>70.4</ele>
        <time>2022-06-14T04:32:52Z</time>
      </trkpt>
      <trkpt lat="48.70192" lon="2.10392">
        <ele>70.4</ele>
        <time>2022-06-14T04:32:57Z</time>
      </trkpt>
      <trkpt lat="48.70193" lon="2.10403">
        <ele>70.4</ele>
        <time>2022-06-14T04:33:03Z</time>
      </trkpt>
      <trkpt lat="48.70196" lon="2.10412">
        <ele>70.3</ele>
        <time>2022-06-14T04:33:12Z</time>
      </trkpt>
      <trkpt lat="48.70201" lon="2.10421">
        <ele>70.2</ele>
        <time>2022-06-14T04:33:17Z</time>
      </trkpt>
      <trkpt lat="48.70205" lon="2.1043">
        <ele>70.2</ele>
        <time>2022-06-14T04:33:22Z</time>
      </trkpt>
      <trkpt lat="48.70208" lon="2.1044">
        <ele>70.1</ele>
        <time>2022-06-14T04:33:27Z</time>
      </trkpt>
      <trkpt lat="48.70212" lon="2.10449">
        <ele>70.1</ele>
        <time>2022-06-14T04:33:33Z</time>
      </trkpt>
      <trkpt lat="48.70215" lon="2.10462">
        <ele>70.2</ele>
        <time>2022-06-14T04:33:38Z</time>
      </trkpt>
      <trkpt lat="48.70217" lon="2.10478">
        <ele>70.2</ele>
        <time>2022-06-14T04:33:43Z</time>
      </trkpt>
      <trkpt lat="48.70218" lon="2.1049">
        <ele>70.3</ele>
        <time>2022-06-14T04:33:48Z</time>
      </trkpt>
      <trkpt lat="48.70221" lon="2.105">
        <ele>70.3</ele>
        <time>2022-06-14T04:33:54Z</time>
      </trkpt>
      <trkpt lat="48.70225" lon="2.10511">
        <ele>70.2</ele>
        <time>2022-06-14T04:33:59Z</time>
      </trkpt>
      <trkpt lat="48.70224" lon="2.10525">
        <ele>70</ele>
        <time>2022-06-14T04:34:04Z</time>
      </trkpt>
      <trkpt lat="48.70226" lon="2.10538">
        <ele>69.8</ele>
        <time>2022-06-14T04:34:10Z</time>
      </trkpt>
      <trkpt lat="48.70228" lon="2.10551">
        <ele>69.5</ele>
        <time>2022-06-14T04:34:15Z</time>
      </trkpt>
      <trkpt lat="48.70227" lon="2.10561">
        <ele>69.4</ele>
        <time>2022-06-14T04:34:20Z</time>
      </trkpt>
      <trkpt lat="48.70227" lon="2.10571">
        <ele>69.3</ele>
        <time>2022-06-14T04:34:25Z</time>
      </trkpt>
      <trkpt lat="48.70232" lon="2.10583">
        <ele>68.9</ele>
        <time>2022-06-14T04:34:30Z</time>
      </trkpt>
      <trkpt lat="48.70235" lon="2.10593">
        <ele>68.7</ele>
        <time>2022-06-14T04:34:35Z</time>
      </trkpt>
      <trkpt lat="48.70239" lon="2.10605">
        <ele>68.5</ele>
        <time>2022-06-14T04:34:40Z</time>
      </trkpt>
      <trkpt lat="48.70244" lon="2.10612">
        <ele>68.3</ele>
        <time>2022-06-14T04:34:45Z</time>
      </trkpt>
      <trkpt lat="48.70251" lon="2.10621">
        <ele>68</ele>
        <time>2022-06-14T04:34:50Z</time>
      </trkpt>
      <trkpt lat="48.70249" lon="2.10635">
        <ele>68</ele>
        <time>2022-06-14T04:34:55Z</time>
      </trkpt>
      <trkpt lat="48.70253" lon="2.10645">
        <ele>68.1</ele>
        <time>2022-06-14T04:35:00Z</time>
      </trkpt>
      <trkpt lat="48.70255" lon="2.10657">
        <ele>68.1</ele>
        <time>2022-06-14T04:35:06Z</time>
      </trkpt>
      <trkpt lat="48.70259" lon="2.10668">
        <ele>68.2</ele>
        <time>2022-06-14T04:35:11Z</time>
      </trkpt>
      <trkpt lat="48.70264" lon="2.10676">
        <ele>68.5</ele>
        <time>2022-06-14T04:35:24Z</time>
      </trkpt>
      <trkpt lat="48.70271" lon="2.10678">
        <ele>68.7</ele>
        <time>2022-06-14T04:35:33Z</time>
      </trkpt>
      <trkpt lat="48.70264" lon="2.10674">
        <ele>68.5</ele>
        <time>2022-06-14T04:35:49Z</time>
      </trkpt>
      <trkpt lat="48.70256" lon="2.10677">
        <ele>68.4</ele>
        <time>2022-06-14T04:35:54Z</time>
      </trkpt>
      <trkpt lat="48.70254" lon="2.10687">
        <ele>68.6</ele>
        <time>2022-06-14T04:35:59Z</time>
      </trkpt>
      <trkpt lat="48.70255" lon="2.10698">
        <ele>68.8</ele>
        <time>2022-06-14T04:36:05Z</time>
      </trkpt>
      <trkpt lat="48.70256" lon="2.10711">
        <ele>69.1</ele>
        <time>2022-06-14T04:36:10Z</time>
      </trkpt>
      <trkpt lat="48.70258" lon="2.10725">
        <ele>69.5</ele>
        <time>2022-06-14T04:36:15Z</time>
      </trkpt>
      <trkpt lat="48.70265" lon="2.10737">
        <ele>69.7</ele>
        <time>2022-06-14T04:36:20Z</time>
      </trkpt>
      <trkpt lat="48.70266" lon="2.10751">
        <ele>70</ele>
        <time>2022-06-14T04:36:25Z</time>
      </trkpt>
      <trkpt lat="48.70262" lon="2.10762">
        <ele>70</ele>
        <time>2022-06-14T04:36:30Z</time>
      </trkpt>
      <trkpt lat="48.70262" lon="2.10772">
        <ele>69.9</ele>
        <time>2022-06-14T04:36:36Z</time>
      </trkpt>
      <trkpt lat="48.70259" lon="2.10784">
        <ele>69.9</ele>
        <time>2022-06-14T04:36:41Z</time>
      </trkpt>
      <trkpt lat="48.70255" lon="2.10795">
        <ele>69.9</ele>
        <time>2022-06-14T04:36:46Z</time>
      </trkpt>
      <trkpt lat="48.70251" lon="2.10807">
        <ele>70</ele>
        <time>2022-06-14T04:36:51Z</time>
      </trkpt>
      <trkpt lat="48.70251" lon="2.10822">
        <ele>70</ele>
        <time>2022-06-14T04:36:56Z</time>
      </trkpt>
      <trkpt lat="48.70246" lon="2.10833">
        <ele>70.2</ele>
        <time>2022-06-14T04:37:01Z</time>
      </trkpt>
      <trkpt lat="48.70241" lon="2.10843">
        <ele>70.7</ele>
        <time>2022-06-14T04:37:06Z</time>
      </trkpt>
      <trkpt lat="48.70236" lon="2.10852">
        <ele>71.1</ele>
        <time>2022-06-14T04:37:11Z</time>
      </trkpt>
      <trkpt lat="48.70232" lon="2.10863">
        <ele>71.5</ele>
        <time>2022-06-14T04:37:16Z</time>
      </trkpt>
      <trkpt lat="48.7023" lon="2.10877">
        <ele>71.9</ele>
        <time>2022-06-14T04:37:21Z</time>
      </trkpt>
      <trkpt lat="48.70225" lon="2.10885">
        <ele>72.3</ele>
        <time>2022-06-14T04:37:26Z</time>
      </trkpt>
      <trkpt lat="48.70223" lon="2.10895">
        <ele>72.5</ele>
        <time>2022-06-14T04:37:31Z</time>
      </trkpt>
      <trkpt lat="48.7022" lon="2.10903">
        <ele>72.8</ele>
        <time>2022-06-14T04:37:36Z</time>
      </trkpt>
      <trkpt lat="48.70216" lon="2.10913">
        <ele>73.2</ele>
        <time>2022-06-14T04:37:42Z</time>
      </trkpt>
      <trkpt lat="48.70213" lon="2.10924">
        <ele>73.5</ele>
        <time>2022-06-14T04:37:47Z</time>
      </trkpt>
      <trkpt lat="48.70211" lon="2.10937">
        <ele>73.9</ele>
        <time>2022-06-14T04:37:52Z</time>
      </trkpt>
      <trkpt lat="48.70209" lon="2.10948">
        <ele>74.2</ele>
        <time>2022-06-14T04:37:57Z</time>
      </trkpt>
      <trkpt lat="48.70205" lon="2.1096">
        <ele>74.7</ele>
        <time>2022-06-14T04:38:02Z</time>
      </trkpt>
      <trkpt lat="48.702" lon="2.10972">
        <ele>75.1</ele>
        <time>2022-06-14T04:38:07Z</time>
      </trkpt>
      <trkpt lat="48.70199" lon="2.10984">
        <ele>75.5</ele>
        <time>2022-06-14T04:38:12Z</time>
      </trkpt>
      <trkpt lat="48.70199" lon="2.10998">
        <ele>75.8</ele>
        <time>2022-06-14T04:38:17Z</time>
      </trkpt>
      <trkpt lat="48.70195" lon="2.11006">
        <ele>76.1</ele>
        <time>2022-06-14T04:38:22Z</time>
      </trkpt>
      <trkpt lat="48.70196" lon="2.11017">
        <ele>76.2</ele>
        <time>2022-06-14T04:38:28Z</time>
      </trkpt>
      <trkpt lat="48.70202" lon="2.11023">
        <ele>76</ele>
        <time>2022-06-14T04:38:35Z</time>
      </trkpt>
      <trkpt lat="48.70209" lon="2.11027">
        <ele>75.6</ele>
        <time>2022-06-14T04:38:42Z</time>
      </trkpt>
      <trkpt lat="48.70213" lon="2.11037">
        <ele>75.4</ele>
        <time>2022-06-14T04:38:47Z</time>
      </trkpt>
      <trkpt lat="48.70217" lon="2.11048">
        <ele>75.2</ele>
        <time>2022-06-14T04:38:53Z</time>
      </trkpt>
      <trkpt lat="48.70224" lon="2.11057">
        <ele>74.6</ele>
        <time>2022-06-14T04:38:59Z</time>
      </trkpt>
      <trkpt lat="48.7023" lon="2.11062">
        <ele>74.1</ele>
        <time>2022-06-14T04:39:06Z</time>
      </trkpt>
      <trkpt lat="48.70238" lon="2.11071">
        <ele>73.3</ele>
        <time>2022-06-14T04:39:11Z</time>
      </trkpt>
      <trkpt lat="48.70244" lon="2.11085">
        <ele>72.5</ele>
        <time>2022-06-14T04:39:16Z</time>
      </trkpt>
      <trkpt lat="48.70244" lon="2.11098">
        <ele>72.2</ele>
        <time>2022-06-14T04:39:21Z</time>
      </trkpt>
      <trkpt lat="48.70243" lon="2.11109">
        <ele>72</ele>
        <time>2022-06-14T04:39:26Z</time>
      </trkpt>
      <trkpt lat="48.70244" lon="2.11122">
        <ele>71.6</ele>
        <time>2022-06-14T04:39:31Z</time>
      </trkpt>
      <trkpt lat="48.70247" lon="2.11136">
        <ele>71</ele>
        <time>2022-06-14T04:39:36Z</time>
      </trkpt>
      <trkpt lat="48.70255" lon="2.11138">
        <ele>70.7</ele>
        <time>2022-06-14T04:39:46Z</time>
      </trkpt>
      <trkpt lat="48.70262" lon="2.11136">
        <ele>70.8</ele>
        <time>2022-06-14T04:39:51Z</time>
      </trkpt>
      <trkpt lat="48.70267" lon="2.11129">
        <ele>71</ele>
        <time>2022-06-14T04:39:56Z</time>
      </trkpt>
      <trkpt lat="48.70274" lon="2.11125">
        <ele>71.1</ele>
        <time>2022-06-14T04:40:03Z</time>
      </trkpt>
      <trkpt lat="48.70285" lon="2.1113">
        <ele>71.1</ele>
        <time>2022-06-14T04:40:08Z</time>
      </trkpt>
      <trkpt lat="48.7029" lon="2.11138">
        <ele>70.9</ele>
        <time>2022-06-14T04:40:13Z</time>
      </trkpt>
      <trkpt lat="48.70293" lon="2.1115">
        <ele>70.5</ele>
        <time>2022-06-14T04:40:18Z</time>
      </trkpt>
      <trkpt lat="48.70289" lon="2.11163">
        <ele>70.1</ele>
        <time>2022-06-14T04:40:23Z</time>
      </trkpt>
      <trkpt lat="48.70289" lon="2.11177">
        <ele>69.8</ele>
        <time>2022-06-14T04:40:28Z</time>
      </trkpt>
      <trkpt lat="48.70291" lon="2.11188">
        <ele>69.5</ele>
        <time>2022-06-14T04:40:34Z</time>
      </trkpt>
      <trkpt lat="48.70289" lon="2.11203">
        <ele>69.1</ele>
        <time>2022-06-14T04:40:39Z</time>
      </trkpt>
      <trkpt lat="48.70288" lon="2.11213">
        <ele>68.9</ele>
        <time>2022-06-14T04:40:44Z</time>
      </trkpt>
      <trkpt lat="48.70286" lon="2.11225">
        <ele>68.6</ele>
        <time>2022-06-14T04:40:49Z</time>
      </trkpt>
      <trkpt lat="48.70281" lon="2.11235">
        <ele>68.4</ele>
        <time>2022-06-14T04:40:54Z</time>
      </trkpt>
      <trkpt lat="48.70279" lon="2.11245">
        <ele>68.1</ele>
        <time>2022-06-14T04:41:25Z</time>
      </trkpt>
      <trkpt lat="48.70278" lon="2.11256">
        <ele>68</ele>
        <time>2022-06-14T04:41:38Z</time>
      </trkpt>
      <trkpt lat="48.70271" lon="2.11265">
        <ele>68</ele>
        <time>2022-06-14T04:41:43Z</time>
      </trkpt>
      <trkpt lat="48.70261" lon="2.11271">
        <ele>68</ele>
        <time>2022-06-14T04:41:48Z</time>
      </trkpt>
      <trkpt lat="48.70258" lon="2.11281">
        <ele>68</ele>
        <time>2022-06-14T04:41:53Z</time>
      </trkpt>
      <trkpt lat="48.70258" lon="2.11292">
        <ele>68</ele>
        <time>2022-06-14T04:41:59Z</time>
      </trkpt>
      <trkpt lat="48.70258" lon="2.11303">
        <ele>67.9</ele>
        <time>2022-06-14T04:42:06Z</time>
      </trkpt>
      <trkpt lat="48.70254" lon="2.11314">
        <ele>68</ele>
        <time>2022-06-14T04:42:11Z</time>
      </trkpt>
      <trkpt lat="48.7025" lon="2.11327">
        <ele>68</ele>
        <time>2022-06-14T04:42:16Z</time>
      </trkpt>
      <trkpt lat="48.70246" lon="2.11336">
        <ele>68.2</ele>
        <time>2022-06-14T04:42:21Z</time>
      </trkpt>
      <trkpt lat="48.70245" lon="2.11346">
        <ele>68.2</ele>
        <time>2022-06-14T04:42:26Z</time>
      </trkpt>
      <trkpt lat="48.70244" lon="2.11356">
        <ele>68.2</ele>
        <time>2022-06-14T04:42:31Z</time>
      </trkpt>
      <trkpt lat="48.70243" lon="2.11366">
        <ele>68.2</ele>
        <time>2022-06-14T04:42:36Z</time>
      </trkpt>
      <trkpt lat="48.70242" lon="2.11378">
        <ele>68.2</ele>
        <time>2022-06-14T04:42:41Z</time>
      </trkpt>
      <trkpt lat="48.70239" lon="2.1139">
        <ele>68.3</ele>
        <time>2022-06-14T04:42:46Z</time>
      </trkpt>
      <trkpt lat="48.70237" lon="2.11399">
        <ele>68.3</ele>
        <time>2022-06-14T04:42:51Z</time>
      </trkpt>
      <trkpt lat="48.70235" lon="2.1141">
        <ele>68.2</ele>
        <time>2022-06-14T04:42:57Z</time>
      </trkpt>
      <trkpt lat="48.70233" lon="2.11419">
        <ele>68.2</ele>
        <time>2022-06-14T04:43:02Z</time>
      </trkpt>
      <trkpt lat="48.70228" lon="2.11427">
        <ele>68.3</ele>
        <time>2022-06-14T04:43:10Z</time>
      </trkpt>
      <trkpt lat="48.70224" lon="2.11435">
        <ele>68.3</ele>
        <time>2022-06-14T04:43:16Z</time>
      </trkpt>
      <trkpt lat="48.7022" lon="2.11448">
        <ele>68.4</ele>
        <time>2022-06-14T04:43:21Z</time>
      </trkpt>
      <trkpt lat="48.70218" lon="2.11459">
        <ele>68.4</ele>
        <time>2022-06-14T04:43:26Z</time>
      </trkpt>
      <trkpt lat="48.70214" lon="2.11466">
        <ele>68.4</ele>
        <time>2022-06-14T04:43:32Z</time>
      </trkpt>
      <trkpt lat="48.70206" lon="2.11467">
        <ele>68.5</ele>
        <time>2022-06-14T04:43:38Z</time>
      </trkpt>
      <trkpt lat="48.70199" lon="2.11467">
        <ele>68.6</ele>
        <time>2022-06-14T04:43:44Z</time>
      </trkpt>
      <trkpt lat="48.70192" lon="2.11469">
        <ele>68.7</ele>
        <time>2022-06-14T04:43:50Z</time>
      </trkpt>
      <trkpt lat="48.70184" lon="2.11467">
        <ele>68.8</ele>
        <time>2022-06-14T04:43:59Z</time>
      </trkpt>
      <trkpt lat="48.7017" lon="2.11467">
        <ele>69</ele>
        <time>2022-06-14T04:44:04Z</time>
      </trkpt>
      <trkpt lat="48.7016" lon="2.11463">
        <ele>69.7</ele>
        <time>2022-06-14T04:44:09Z</time>
      </trkpt>
      <trkpt lat="48.70153" lon="2.11459">
        <ele>70.5</ele>
        <time>2022-06-14T04:44:14Z</time>
      </trkpt>
      <trkpt lat="48.70145" lon="2.11457">
        <ele>71.3</ele>
        <time>2022-06-14T04:44:19Z</time>
      </trkpt>
      <trkpt lat="48.70137" lon="2.11452">
        <ele>72.2</ele>
        <time>2022-06-14T04:44:24Z</time>
      </trkpt>
      <trkpt lat="48.70127" lon="2.11449">
        <ele>73.3</ele>
        <time>2022-06-14T04:44:29Z</time>
      </trkpt>
      <trkpt lat="48.70119" lon="2.11445">
        <ele>74.1</ele>
        <time>2022-06-14T04:44:34Z</time>
      </trkpt>
      <trkpt lat="48.70116" lon="2.11454">
        <ele>74.5</ele>
        <time>2022-06-14T04:44:40Z</time>
      </trkpt>
      <trkpt lat="48.70112" lon="2.11464">
        <ele>74.9</ele>
        <time>2022-06-14T04:44:45Z</time>
      </trkpt>
      <trkpt lat="48.70108" lon="2.11473">
        <ele>75.3</ele>
        <time>2022-06-14T04:44:50Z</time>
      </trkpt>
      <trkpt lat="48.70107" lon="2.11485">
        <ele>75.4</ele>
        <time>2022-06-14T04:44:55Z</time>
      </trkpt>
      <trkpt lat="48.7011" lon="2.11496">
        <ele>75.1</ele>
        <time>2022-06-14T04:45:00Z</time>
      </trkpt>
      <trkpt lat="48.70108" lon="2.11506">
        <ele>75.4</ele>
        <time>2022-06-14T04:45:05Z</time>
      </trkpt>
      <trkpt lat="48.70105" lon="2.11518">
        <ele>75.8</ele>
        <time>2022-06-14T04:45:10Z</time>
      </trkpt>
      <trkpt lat="48.70102" lon="2.11529">
        <ele>76.2</ele>
        <time>2022-06-14T04:45:15Z</time>
      </trkpt>
      <trkpt lat="48.70102" lon="2.1154">
        <ele>76.2</ele>
        <time>2022-06-14T04:45:20Z</time>
      </trkpt>
      <trkpt lat="48.70104" lon="2.1155">
        <ele>76.1</ele>
        <time>2022-06-14T04:45:25Z</time>
      </trkpt>
      <trkpt lat="48.70102" lon="2.11565">
        <ele>76.4</ele>
        <time>2022-06-14T04:45:30Z</time>
      </trkpt>
      <trkpt lat="48.70099" lon="2.11576">
        <ele>76.9</ele>
        <time>2022-06-14T04:45:35Z</time>
      </trkpt>
      <trkpt lat="48.70097" lon="2.11587">
        <ele>77.1</ele>
        <time>2022-06-14T04:45:40Z</time>
      </trkpt>
      <trkpt lat="48.70093" lon="2.11597">
        <ele>77.3</ele>
        <time>2022-06-14T04:45:45Z</time>
      </trkpt>
      <trkpt lat="48.70089" lon="2.11607">
        <ele>77.4</ele>
        <time>2022-06-14T04:45:50Z</time>
      </trkpt>
      <trkpt lat="48.70086" lon="2.11618">
        <ele>77.4</ele>
        <time>2022-06-14T04:45:56Z</time>
      </trkpt>
      <trkpt lat="48.70082" lon="2.1163">
        <ele>77.5</ele>
        <time>2022-06-14T04:46:01Z</time>
      </trkpt>
      <trkpt lat="48.7008" lon="2.11643">
        <ele>77.2</ele>
        <time>2022-06-14T04:46:06Z</time>
      </trkpt>
      <trkpt lat="48.70078" lon="2.11656">
        <ele>77</ele>
        <time>2022-06-14T04:46:11Z</time>
      </trkpt>
      <trkpt lat="48.70075" lon="2.11666">
        <ele>76.9</ele>
        <time>2022-06-14T04:46:16Z</time>
      </trkpt>
      <trkpt lat="48.70072" lon="2.11675">
        <ele>77.1</ele>
        <time>2022-06-14T04:46:22Z</time>
      </trkpt>
      <trkpt lat="48.70069" lon="2.11686">
        <ele>77.3</ele>
        <time>2022-06-14T04:46:27Z</time>
      </trkpt>
      <trkpt lat="48.70064" lon="2.11698">
        <ele>77.7</ele>
        <time>2022-06-14T04:46:32Z</time>
      </trkpt>
      <trkpt lat="48.70063" lon="2.11709">
        <ele>77.7</ele>
        <time>2022-06-14T04:46:37Z</time>
      </trkpt>
      <trkpt lat="48.7006" lon="2.1172">
        <ele>77.9</ele>
        <time>2022-06-14T04:46:43Z</time>
      </trkpt>
      <trkpt lat="48.70058" lon="2.11731">
        <ele>78</ele>
        <time>2022-06-14T04:46:49Z</time>
      </trkpt>
      <trkpt lat="48.70061" lon="2.11745">
        <ele>77.5</ele>
        <time>2022-06-14T04:46:54Z</time>
      </trkpt>
      <trkpt lat="48.70066" lon="2.11753">
        <ele>76.8</ele>
        <time>2022-06-14T04:46:59Z</time>
      </trkpt>
      <trkpt lat="48.70068" lon="2.11764">
        <ele>76.4</ele>
        <time>2022-06-14T04:47:04Z</time>
      </trkpt>
      <trkpt lat="48.70074" lon="2.1177">
        <ele>75.6</ele>
        <time>2022-06-14T04:47:11Z</time>
      </trkpt>
      <trkpt lat="48.7008" lon="2.11768">
        <ele>74.9</ele>
        <time>2022-06-14T04:47:38Z</time>
      </trkpt>
      <trkpt lat="48.70087" lon="2.11763">
        <ele>74.2</ele>
        <time>2022-06-14T04:47:44Z</time>
      </trkpt>
      <trkpt lat="48.70093" lon="2.11763">
        <ele>73.4</ele>
        <time>2022-06-14T04:47:50Z</time>
      </trkpt>
      <trkpt lat="48.70101" lon="2.1176">
        <ele>72.5</ele>
        <time>2022-06-14T04:47:55Z</time>
      </trkpt>
      <trkpt lat="48.70109" lon="2.11757">
        <ele>71.5</ele>
        <time>2022-06-14T04:48:25Z</time>
      </trkpt>
      <trkpt lat="48.7012" lon="2.11754">
        <ele>70.1</ele>
        <time>2022-06-14T04:48:30Z</time>
      </trkpt>
      <trkpt lat="48.70128" lon="2.11755">
        <ele>69</ele>
        <time>2022-06-14T04:48:35Z</time>
      </trkpt>
      <trkpt lat="48.70138" lon="2.11753">
        <ele>67.7</ele>
        <time>2022-06-14T04:48:40Z</time>
      </trkpt>
      <trkpt lat="48.70145" lon="2.11753">
        <ele>66.8</ele>
        <time>2022-06-14T04:48:45Z</time>
      </trkpt>
      <trkpt lat="48.70151" lon="2.11751">
        <ele>66.1</ele>
        <time>2022-06-14T04:48:50Z</time>
      </trkpt>
      <trkpt lat="48.7016" lon="2.11751">
        <ele>64.9</ele>
        <time>2022-06-14T04:48:55Z</time>
      </trkpt>
      <trkpt lat="48.70166" lon="2.11756">
        <ele>64</ele>
        <time>2022-06-14T04:49:00Z</time>
      </trkpt>
      <trkpt lat="48.70172" lon="2.11762">
        <ele>64</ele>
        <time>2022-06-14T04:49:05Z</time>
      </trkpt>
      <trkpt lat="48.70179" lon="2.11758">
        <ele>64.2</ele>
        <time>2022-06-14T04:49:20Z</time>
      </trkpt>
      <trkpt lat="48.70185" lon="2.11754">
        <ele>64.4</ele>
        <time>2022-06-14T04:49:31Z</time>
      </trkpt>
      <trkpt lat="48.70191" lon="2.11749">
        <ele>64.6</ele>
        <time>2022-06-14T04:50:00Z</time>
      </trkpt>
      <trkpt lat="48.70198" lon="2.11746">
        <ele>64.9</ele>
        <time>2022-06-14T04:50:08Z</time>
      </trkpt>
      <trkpt lat="48.70207" lon="2.11747">
        <ele>65</ele>
        <time>2022-06-14T04:50:13Z</time>
      </trkpt>
      <trkpt lat="48.70217" lon="2.11747">
        <ele>65.3</ele>
        <time>2022-06-14T04:50:18Z</time>
      </trkpt>
      <trkpt lat="48.70219" lon="2.11738">
        <ele>65.5</ele>
        <time>2022-06-14T04:50:30Z</time>
      </trkpt>
      <trkpt lat="48.70219" lon="2.11728">
        <ele>65.7</ele>
        <time>2022-06-14T04:50:37Z</time>
      </trkpt>
      <trkpt lat="48.70224" lon="2.1172">
        <ele>66</ele>
        <time>2022-06-14T04:50:45Z</time>
      </trkpt>
      <trkpt lat="48.70218" lon="2.11718">
        <ele>65.9</ele>
        <time>2022-06-14T04:50:57Z</time>
      </trkpt>
      <trkpt lat="48.70211" lon="2.11722">
        <ele>65.7</ele>
        <time>2022-06-14T04:51:03Z</time>
      </trkpt>
      <trkpt lat="48.70205" lon="2.11727">
        <ele>65.5</ele>
        <time>2022-06-14T04:51:08Z</time>
      </trkpt>
      <trkpt lat="48.70199" lon="2.11733">
        <ele>65.2</ele>
        <time>2022-06-14T04:51:14Z</time>
      </trkpt>
      <trkpt lat="48.70194" lon="2.11742">
        <ele>64.9</ele>
        <time>2022-06-14T04:51:20Z</time>
      </trkpt>
      <trkpt lat="48.70187" lon="2.11752">
        <ele>64.5</ele>
        <time>2022-06-14T04:51:25Z</time>
      </trkpt>
      <trkpt lat="48.7018" lon="2.1176">
        <ele>64.2</ele>
        <time>2022-06-14T04:51:30Z</time>
      </trkpt>
      <trkpt lat="48.70179" lon="2.11771">
        <ele>64</ele>
        <time>2022-06-14T04:51:38Z</time>
      </trkpt>
      <trkpt lat="48.70184" lon="2.1178">
        <ele>63.9</ele>
        <time>2022-06-14T04:51:43Z</time>
      </trkpt>
      <trkpt lat="48.7019" lon="2.1179">
        <ele>63.8</ele>
        <time>2022-06-14T04:51:48Z</time>
      </trkpt>
      <trkpt lat="48.70194" lon="2.11802">
        <ele>63.6</ele>
        <time>2022-06-14T04:51:53Z</time>
      </trkpt>
      <trkpt lat="48.70198" lon="2.11812">
        <ele>63.4</ele>
        <time>2022-06-14T04:51:58Z</time>
      </trkpt>
      <trkpt lat="48.70201" lon="2.11824">
        <ele>63.2</ele>
        <time>2022-06-14T04:52:12Z</time>
      </trkpt>
      <trkpt lat="48.702" lon="2.11834">
        <ele>63</ele>
        <time>2022-06-14T04:52:28Z</time>
      </trkpt>
      <trkpt lat="48.70202" lon="2.11846">
        <ele>63.1</ele>
        <time>2022-06-14T04:52:33Z</time>
      </trkpt>
      <trkpt lat="48.70206" lon="2.11855">
        <ele>63.1</ele>
        <time>2022-06-14T04:52:38Z</time>
      </trkpt>
      <trkpt lat="48.70214" lon="2.11863">
        <ele>63.2</ele>
        <time>2022-06-14T04:52:43Z</time>
      </trkpt>
      <trkpt lat="48.7022" lon="2.11869">
        <ele>63.2</ele>
        <time>2022-06-14T04:52:48Z</time>
      </trkpt>
      <trkpt lat="48.70226" lon="2.11878">
        <ele>63.2</ele>
        <time>2022-06-14T04:52:53Z</time>
      </trkpt>
      <trkpt lat="48.70233" lon="2.11886">
        <ele>63.1</ele>
        <time>2022-06-14T04:52:58Z</time>
      </trkpt>
      <trkpt lat="48.70236" lon="2.11898">
        <ele>63.1</ele>
        <time>2022-06-14T04:53:03Z</time>
      </trkpt>
      <trkpt lat="48.70241" lon="2.11909">
        <ele>63.1</ele>
        <time>2022-06-14T04:53:08Z</time>
      </trkpt>
      <trkpt lat="48.70245" lon="2.11921">
        <ele>63.1</ele>
        <time>2022-06-14T04:53:13Z</time>
      </trkpt>
      <trkpt lat="48.70246" lon="2.11932">
        <ele>63.2</ele>
        <time>2022-06-14T04:53:18Z</time>
      </trkpt>
      <trkpt lat="48.7025" lon="2.11941">
        <ele>63.3</ele>
        <time>2022-06-14T04:53:23Z</time>
      </trkpt>
      <trkpt lat="48.70257" lon="2.11951">
        <ele>63.6</ele>
        <time>2022-06-14T04:53:28Z</time>
      </trkpt>
      <trkpt lat="48.70259" lon="2.11962">
        <ele>63.8</ele>
        <time>2022-06-14T04:53:33Z</time>
      </trkpt>
      <trkpt lat="48.70262" lon="2.11972">
        <ele>64</ele>
        <time>2022-06-14T04:53:38Z</time>
      </trkpt>
      <trkpt lat="48.70266" lon="2.11981">
        <ele>64.1</ele>
        <time>2022-06-14T04:53:43Z</time>
      </trkpt>
      <trkpt lat="48.70272" lon="2.11987">
        <ele>64.2</ele>
        <time>2022-06-14T04:53:48Z</time>
      </trkpt>
      <trkpt lat="48.70271" lon="2.11998">
        <ele>64.2</ele>
        <time>2022-06-14T04:54:24Z</time>
      </trkpt>
      <trkpt lat="48.70278" lon="2.12006">
        <ele>64.3</ele>
        <time>2022-06-14T04:54:29Z</time>
      </trkpt>
      <trkpt lat="48.70281" lon="2.12014">
        <ele>64.3</ele>
        <time>2022-06-14T04:54:34Z</time>
      </trkpt>
      <trkpt lat="48.70287" lon="2.12024">
        <ele>64.3</ele>
        <time>2022-06-14T04:54:39Z</time>
      </trkpt>
      <trkpt lat="48.70289" lon="2.12033">
        <ele>64.3</ele>
        <time>2022-06-14T04:54:44Z</time>
      </trkpt>
      <trkpt lat="48.70292" lon="2.12045">
        <ele>64.2</ele>
        <time>2022-06-14T04:54:49Z</time>
      </trkpt>
      <trkpt lat="48.70293" lon="2.12057">
        <ele>64.2</ele>
        <time>2022-06-14T04:54:54Z</time>
      </trkpt>
      <trkpt lat="48.70291" lon="2.12069">
        <ele>64.1</ele>
        <time>2022-06-14T04:54:59Z</time>
      </trkpt>
      <trkpt lat="48.70287" lon="2.12081">
        <ele>63.9</ele>
        <time>2022-06-14T04:55:04Z</time>
      </trkpt>
      <trkpt lat="48.70289" lon="2.12093">
        <ele>63.9</ele>
        <time>2022-06-14T04:55:09Z</time>
      </trkpt>
      <trkpt lat="48.70289" lon="2.12107">
        <ele>63.9</ele>
        <time>2022-06-14T04:55:14Z</time>
      </trkpt>
      <trkpt lat="48.7029" lon="2.12119">
        <ele>64</ele>
        <time>2022-06-14T04:55:19Z</time>
      </trkpt>
      <trkpt lat="48.7029" lon="2.12129">
        <ele>64</ele>
        <time>2022-06-14T04:55:24Z</time>
      </trkpt>
      <trkpt lat="48.70292" lon="2.12141">
        <ele>64</ele>
        <time>2022-06-14T04:55:29Z</time>
      </trkpt>
      <trkpt lat="48.70294" lon="2.12151">
        <ele>64.1</ele>
        <time>2022-06-14T04:55:34Z</time>
      </trkpt>
      <trkpt lat="48.70297" lon="2.12164">
        <ele>64.1</ele>
        <time>2022-06-14T04:55:39Z</time>
      </trkpt>
      <trkpt lat="48.70299" lon="2.12175">
        <ele>64</ele>
        <time>2022-06-14T04:55:44Z</time>
      </trkpt>
      <trkpt lat="48.70304" lon="2.12185">
        <ele>63.9</ele>
        <time>2022-06-14T04:55:49Z</time>
      </trkpt>
      <trkpt lat="48.70307" lon="2.12196">
        <ele>63.7</ele>
        <time>2022-06-14T04:55:54Z</time>
      </trkpt>
      <trkpt lat="48.7031" lon="2.12206">
        <ele>63.5</ele>
        <time>2022-06-14T04:55:59Z</time>
      </trkpt>
      <trkpt lat="48.70314" lon="2.12218">
        <ele>63.3</ele>
        <time>2022-06-14T04:56:05Z</time>
      </trkpt>
      <trkpt lat="48.70317" lon="2.12227">
        <ele>63.2</ele>
        <time>2022-06-14T04:56:10Z</time>
      </trkpt>
      <trkpt lat="48.70324" lon="2.12228">
        <ele>63.3</ele>
        <time>2022-06-14T04:56:16Z</time>
      </trkpt>
      <trkpt lat="48.70331" lon="2.12225">
        <ele>63.5</ele>
        <time>2022-06-14T04:56:21Z</time>
      </trkpt>
      <trkpt lat="48.70339" lon="2.12223">
        <ele>64</ele>
        <time>2022-06-14T04:56:26Z</time>
      </trkpt>
      <trkpt lat="48.70347" lon="2.12222">
        <ele>64.4</ele>
        <time>2022-06-14T04:56:32Z</time>
      </trkpt>
      <trkpt lat="48.70353" lon="2.12224">
        <ele>64.7</ele>
        <time>2022-06-14T04:56:39Z</time>
      </trkpt>
      <trkpt lat="48.70354" lon="2.12234">
        <ele>64.6</ele>
        <time>2022-06-14T04:56:46Z</time>
      </trkpt>
      <trkpt lat="48.70357" lon="2.12225">
        <ele>64.9</ele>
        <time>2022-06-14T04:58:07Z</time>
      </trkpt>
      <trkpt lat="48.70354" lon="2.12216">
        <ele>65</ele>
        <time>2022-06-14T04:58:12Z</time>
      </trkpt>
      <trkpt lat="48.70353" lon="2.12201">
        <ele>65.2</ele>
        <time>2022-06-14T04:58:17Z</time>
      </trkpt>
      <trkpt lat="48.70351" lon="2.1219">
        <ele>65.3</ele>
        <time>2022-06-14T04:58:26Z</time>
      </trkpt>
      <trkpt lat="48.7035" lon="2.12179">
        <ele>65.5</ele>
        <time>2022-06-14T04:58:31Z</time>
      </trkpt>
      <trkpt lat="48.70352" lon="2.12169">
        <ele>65.8</ele>
        <time>2022-06-14T04:58:36Z</time>
      </trkpt>
      <trkpt lat="48.70353" lon="2.12159">
        <ele>66</ele>
        <time>2022-06-14T04:58:44Z</time>
      </trkpt>
      <trkpt lat="48.7036" lon="2.12159">
        <ele>66.4</ele>
        <time>2022-06-14T04:58:54Z</time>
      </trkpt>
      <trkpt lat="48.70368" lon="2.12158">
        <ele>66.8</ele>
        <time>2022-06-14T04:59:00Z</time>
      </trkpt>
      <trkpt lat="48.70375" lon="2.12154">
        <ele>67.2</ele>
        <time>2022-06-14T04:59:05Z</time>
      </trkpt>
      <trkpt lat="48.70381" lon="2.12151">
        <ele>67.6</ele>
        <time>2022-06-14T04:59:12Z</time>
      </trkpt>
      <trkpt lat="48.70388" lon="2.12153">
        <ele>67.9</ele>
        <time>2022-06-14T04:59:21Z</time>
      </trkpt>
      <trkpt lat="48.70395" lon="2.1215">
        <ele>68.4</ele>
        <time>2022-06-14T04:59:27Z</time>
      </trkpt>
      <trkpt lat="48.70402" lon="2.12147">
        <ele>68.9</ele>
        <time>2022-06-14T04:59:37Z</time>
      </trkpt>
      <trkpt lat="48.70407" lon="2.12139">
        <ele>69.4</ele>
        <time>2022-06-14T04:59:48Z</time>
      </trkpt>
      <trkpt lat="48.70411" lon="2.1213">
        <ele>70</ele>
        <time>2022-06-14T04:59:56Z</time>
      </trkpt>
      <trkpt lat="48.70417" lon="2.12122">
        <ele>70.6</ele>
        <time>2022-06-14T05:00:01Z</time>
      </trkpt>
      <trkpt lat="48.70421" lon="2.12114">
        <ele>71.4</ele>
        <time>2022-06-14T05:00:06Z</time>
      </trkpt>
      <trkpt lat="48.70425" lon="2.12105">
        <ele>72.1</ele>
        <time>2022-06-14T05:00:12Z</time>
      </trkpt>
      <trkpt lat="48.7043" lon="2.12097">
        <ele>73</ele>
        <time>2022-06-14T05:00:18Z</time>
      </trkpt>
      <trkpt lat="48.70435" lon="2.1209">
        <ele>73.8</ele>
        <time>2022-06-14T05:00:24Z</time>
      </trkpt>
      <trkpt lat="48.70442" lon="2.1208">
        <ele>74.8</ele>
        <time>2022-06-14T05:00:29Z</time>
      </trkpt>
      <trkpt lat="48.70446" lon="2.12072">
        <ele>75.5</ele>
        <time>2022-06-14T05:00:34Z</time>
      </trkpt>
      <trkpt lat="48.70452" lon="2.12063">
        <ele>76.3</ele>
        <time>2022-06-14T05:00:39Z</time>
      </trkpt>
      <trkpt lat="48.70457" lon="2.12054">
        <ele>77.1</ele>
        <time>2022-06-14T05:00:44Z</time>
      </trkpt>
      <trkpt lat="48.70459" lon="2.12044">
        <ele>77.5</ele>
        <time>2022-06-14T05:00:50Z</time>
      </trkpt>
      <trkpt lat="48.70461" lon="2.12034">
        <ele>77.9</ele>
        <time>2022-06-14T05:00:56Z</time>
      </trkpt>
      <trkpt lat="48.70463" lon="2.12024">
        <ele>78.3</ele>
        <time>2022-06-14T05:01:01Z</time>
      </trkpt>
      <trkpt lat="48.70465" lon="2.12014">
        <ele>78.8</ele>
        <time>2022-06-14T05:01:06Z</time>
      </trkpt>
      <trkpt lat="48.70461" lon="2.12002">
        <ele>78.7</ele>
        <time>2022-06-14T05:01:11Z</time>
      </trkpt>
      <trkpt lat="48.70466" lon="2.11992">
        <ele>79.4</ele>
        <time>2022-06-14T05:01:16Z</time>
      </trkpt>
      <trkpt lat="48.7047" lon="2.11982">
        <ele>80.1</ele>
        <time>2022-06-14T05:01:21Z</time>
      </trkpt>
      <trkpt lat="48.70474" lon="2.11974">
        <ele>80.8</ele>
        <time>2022-06-14T05:01:26Z</time>
      </trkpt>
      <trkpt lat="48.70474" lon="2.11962">
        <ele>81.2</ele>
        <time>2022-06-14T05:01:31Z</time>
      </trkpt>
      <trkpt lat="48.70473" lon="2.11947">
        <ele>81.6</ele>
        <time>2022-06-14T05:01:36Z</time>
      </trkpt>
      <trkpt lat="48.70476" lon="2.11937">
        <ele>82.3</ele>
        <time>2022-06-14T05:01:41Z</time>
      </trkpt>
      <trkpt lat="48.70475" lon="2.11926">
        <ele>82.6</ele>
        <time>2022-06-14T05:01:46Z</time>
      </trkpt>
      <trkpt lat="48.70473" lon="2.11914">
        <ele>82.8</ele>
        <time>2022-06-14T05:01:52Z</time>
      </trkpt>
      <trkpt lat="48.70478" lon="2.11904">
        <ele>83.3</ele>
        <time>2022-06-14T05:01:57Z</time>
      </trkpt>
      <trkpt lat="48.70479" lon="2.11894">
        <ele>83.6</ele>
        <time>2022-06-14T05:02:02Z</time>
      </trkpt>
      <trkpt lat="48.70484" lon="2.11887">
        <ele>84.1</ele>
        <time>2022-06-14T05:02:11Z</time>
      </trkpt>
      <trkpt lat="48.70491" lon="2.11881">
        <ele>84.7</ele>
        <time>2022-06-14T05:02:16Z</time>
      </trkpt>
      <trkpt lat="48.70498" lon="2.11886">
        <ele>85.2</ele>
        <time>2022-06-14T05:02:21Z</time>
      </trkpt>
      <trkpt lat="48.70502" lon="2.11896">
        <ele>85.4</ele>
        <time>2022-06-14T05:02:26Z</time>
      </trkpt>
      <trkpt lat="48.70508" lon="2.11903">
        <ele>85.8</ele>
        <time>2022-06-14T05:02:31Z</time>
      </trkpt>
      <trkpt lat="48.70513" lon="2.1191">
        <ele>86.2</ele>
        <time>2022-06-14T05:02:36Z</time>
      </trkpt>
      <trkpt lat="48.7052" lon="2.11919">
        <ele>86.6</ele>
        <time>2022-06-14T05:02:41Z</time>
      </trkpt>
      <trkpt lat="48.70525" lon="2.11926">
        <ele>86.8</ele>
        <time>2022-06-14T05:02:46Z</time>
      </trkpt>
      <trkpt lat="48.70529" lon="2.11935">
        <ele>86.9</ele>
        <time>2022-06-14T05:02:51Z</time>
      </trkpt>
      <trkpt lat="48.70534" lon="2.11944">
        <ele>87</ele>
        <time>2022-06-14T05:02:56Z</time>
      </trkpt>
      <trkpt lat="48.70541" lon="2.11945">
        <ele>87.6</ele>
        <time>2022-06-14T05:03:05Z</time>
      </trkpt>
      <trkpt lat="48.70548" lon="2.11941">
        <ele>88.3</ele>
        <time>2022-06-14T05:03:10Z</time>
      </trkpt>
      <trkpt lat="48.70555" lon="2.11938">
        <ele>89</ele>
        <time>2022-06-14T05:03:16Z</time>
      </trkpt>
      <trkpt lat="48.7056" lon="2.11927">
        <ele>89.8</ele>
        <time>2022-06-14T05:03:24Z</time>
      </trkpt>
      <trkpt lat="48.70567" lon="2.11929">
        <ele>90.3</ele>
        <time>2022-06-14T05:03:31Z</time>
      </trkpt>
      <trkpt lat="48.70574" lon="2.11929">
        <ele>90.9</ele>
        <time>2022-06-14T05:03:36Z</time>
      </trkpt>
      <trkpt lat="48.70581" lon="2.11928">
        <ele>91.5</ele>
        <time>2022-06-14T05:03:41Z</time>
      </trkpt>
      <trkpt lat="48.70588" lon="2.11925">
        <ele>92.3</ele>
        <time>2022-06-14T05:03:46Z</time>
      </trkpt>
      <trkpt lat="48.70595" lon="2.11928">
        <ele>92.9</ele>
        <time>2022-06-14T05:03:52Z</time>
      </trkpt>
      <trkpt lat="48.70597" lon="2.11937">
        <ele>92.9</ele>
        <time>2022-06-14T05:04:05Z</time>
      </trkpt>
      <trkpt lat="48.70599" lon="2.11947">
        <ele>92.8</ele>
        <time>2022-06-14T05:04:11Z</time>
      </trkpt>
      <trkpt lat="48.706" lon="2.11957">
        <ele>92.7</ele>
        <time>2022-06-14T05:04:19Z</time>
      </trkpt>
      <trkpt lat="48.70608" lon="2.11967">
        <ele>93.3</ele>
        <time>2022-06-14T05:04:24Z</time>
      </trkpt>
      <trkpt lat="48.70615" lon="2.11967">
        <ele>94.1</ele>
        <time>2022-06-14T05:04:35Z</time>
      </trkpt>
      <trkpt lat="48.70622" lon="2.1197">
        <ele>94.7</ele>
        <time>2022-06-14T05:04:42Z</time>
      </trkpt>
      <trkpt lat="48.70628" lon="2.11977">
        <ele>95.2</ele>
        <time>2022-06-14T05:04:48Z</time>
      </trkpt>
      <trkpt lat="48.70634" lon="2.11974">
        <ele>95.9</ele>
        <time>2022-06-14T05:05:00Z</time>
      </trkpt>
      <trkpt lat="48.70635" lon="2.11964">
        <ele>96.2</ele>
        <time>2022-06-14T05:05:12Z</time>
      </trkpt>
      <trkpt lat="48.7064" lon="2.11956">
        <ele>96.8</ele>
        <time>2022-06-14T05:05:29Z</time>
      </trkpt>
      <trkpt lat="48.70646" lon="2.11949">
        <ele>97.5</ele>
        <time>2022-06-14T05:05:35Z</time>
      </trkpt>
      <trkpt lat="48.70653" lon="2.11944">
        <ele>98.3</ele>
        <time>2022-06-14T05:05:40Z</time>
      </trkpt>
      <trkpt lat="48.70659" lon="2.11939">
        <ele>99</ele>
        <time>2022-06-14T05:05:45Z</time>
      </trkpt>
      <trkpt lat="48.70665" lon="2.11932">
        <ele>99.7</ele>
        <time>2022-06-14T05:05:50Z</time>
      </trkpt>
      <trkpt lat="48.70671" lon="2.11926">
        <ele>100.5</ele>
        <time>2022-06-14T05:05:56Z</time>
      </trkpt>
      <trkpt lat="48.70676" lon="2.1192">
        <ele>101.4</ele>
        <time>2022-06-14T05:06:05Z</time>
      </trkpt>
      <trkpt lat="48.70682" lon="2.11915">
        <ele>102.4</ele>
        <time>2022-06-14T05:06:11Z</time>
      </trkpt>
      <trkpt lat="48.70689" lon="2.1191">
        <ele>103.6</ele>
        <time>2022-06-14T05:06:17Z</time>
      </trkpt>
      <trkpt lat="48.70694" lon="2.11905">
        <ele>104.5</ele>
        <time>2022-06-14T05:06:22Z</time>
      </trkpt>
      <trkpt lat="48.70701" lon="2.11901">
        <ele>105.7</ele>
        <time>2022-06-14T05:06:28Z</time>
      </trkpt>
      <trkpt lat="48.70708" lon="2.11899">
        <ele>107</ele>
        <time>2022-06-14T05:06:34Z</time>
      </trkpt>
      <trkpt lat="48.70715" lon="2.11901">
        <ele>108.1</ele>
        <time>2022-06-14T05:06:39Z</time>
      </trkpt>
      <trkpt lat="48.70722" lon="2.11904">
        <ele>109.1</ele>
        <time>2022-06-14T05:06:45Z</time>
      </trkpt>
      <trkpt lat="48.70727" lon="2.1191">
        <ele>109.7</ele>
        <time>2022-06-14T05:06:52Z</time>
      </trkpt>
      <trkpt lat="48.70736" lon="2.11917">
        <ele>110.8</ele>
        <time>2022-06-14T05:07:07Z</time>
      </trkpt>
      <trkpt lat="48.70741" lon="2.11908">
        <ele>112.1</ele>
        <time>2022-06-14T05:07:15Z</time>
      </trkpt>
      <trkpt lat="48.70731" lon="2.11905">
        <ele>110.6</ele>
        <time>2022-06-14T05:07:38Z</time>
      </trkpt>
      <trkpt lat="48.70724" lon="2.11906">
        <ele>109.4</ele>
        <time>2022-06-14T05:07:47Z</time>
      </trkpt>
      <trkpt lat="48.70731" lon="2.119">
        <ele>110.8</ele>
        <time>2022-06-14T05:09:14Z</time>
      </trkpt>
      <trkpt lat="48.70737" lon="2.11894">
        <ele>112.1</ele>
        <time>2022-06-14T05:09:19Z</time>
      </trkpt>
      <trkpt lat="48.70742" lon="2.11887">
        <ele>113.4</ele>
        <time>2022-06-14T05:09:26Z</time>
      </trkpt>
      <trkpt lat="48.70746" lon="2.11876">
        <ele>114.7</ele>
        <time>2022-06-14T05:09:32Z</time>
      </trkpt>
      <trkpt lat="48.70749" lon="2.11864">
        <ele>116</ele>
        <time>2022-06-14T05:09:37Z</time>
      </trkpt>
      <trkpt lat="48.7075" lon="2.11851">
        <ele>116.9</ele>
        <time>2022-06-14T05:09:42Z</time>
      </trkpt>
      <trkpt lat="48.7075" lon="2.11841">
        <ele>117.5</ele>
        <time>2022-06-14T05:09:47Z</time>
      </trkpt>
      <trkpt lat="48.70757" lon="2.11841">
        <ele>118.7</ele>
        <time>2022-06-14T05:10:05Z</time>
      </trkpt>
      <trkpt lat="48.70763" lon="2.11835">
        <ele>120.1</ele>
        <time>2022-06-14T05:10:14Z</time>
      </trkpt>
      <trkpt lat="48.70765" lon="2.11825">
        <ele>121.4</ele>
        <time>2022-06-14T05:10:21Z</time>
      </trkpt>
      <trkpt lat="48.70768" lon="2.11815">
        <ele>122.9</ele>
        <time>2022-06-14T05:10:26Z</time>
      </trkpt>
      <trkpt lat="48.70768" lon="2.11804">
        <ele>124</ele>
        <time>2022-06-14T05:10:31Z</time>
      </trkpt>
      <trkpt lat="48.70773" lon="2.11792">
        <ele>126.1</ele>
        <time>2022-06-14T05:10:36Z</time>
      </trkpt>
      <trkpt lat="48.70778" lon="2.11782">
        <ele>127.8</ele>
        <time>2022-06-14T05:10:41Z</time>
      </trkpt>
      <trkpt lat="48.70784" lon="2.11769">
        <ele>130</ele>
        <time>2022-06-14T05:10:46Z</time>
      </trkpt>
      <trkpt lat="48.70786" lon="2.11759">
        <ele>131.3</ele>
        <time>2022-06-14T05:10:51Z</time>
      </trkpt>
      <trkpt lat="48.7079" lon="2.11748">
        <ele>132.9</ele>
        <time>2022-06-14T05:10:58Z</time>
      </trkpt>
      <trkpt lat="48.70794" lon="2.11739">
        <ele>134.4</ele>
        <time>2022-06-14T05:11:03Z</time>
      </trkpt>
      <trkpt lat="48.70796" lon="2.11728">
        <ele>135.8</ele>
        <time>2022-06-14T05:11:09Z</time>
      </trkpt>
      <trkpt lat="48.70802" lon="2.11723">
        <ele>137.3</ele>
        <time>2022-06-14T05:11:23Z</time>
      </trkpt>
      <trkpt lat="48.70804" lon="2.11713">
        <ele>138.7</ele>
        <time>2022-06-14T05:11:33Z</time>
      </trkpt>
      <trkpt lat="48.70809" lon="2.11705">
        <ele>140.5</ele>
        <time>2022-06-14T05:11:39Z</time>
      </trkpt>
      <trkpt lat="48.70811" lon="2.11695">
        <ele>142</ele>
        <time>2022-06-14T05:11:46Z</time>
      </trkpt>
      <trkpt lat="48.70811" lon="2.11685">
        <ele>143.1</ele>
        <time>2022-06-14T05:11:52Z</time>
      </trkpt>
      <trkpt lat="48.70812" lon="2.11674">
        <ele>144.6</ele>
        <time>2022-06-14T05:11:57Z</time>
      </trkpt>
      <trkpt lat="48.70812" lon="2.11659">
        <ele>145.6</ele>
        <time>2022-06-14T05:12:02Z</time>
      </trkpt>
      <trkpt lat="48.70814" lon="2.11644">
        <ele>146.4</ele>
        <time>2022-06-14T05:12:07Z</time>
      </trkpt>
      <trkpt lat="48.70816" lon="2.11633">
        <ele>147.1</ele>
        <time>2022-06-14T05:12:12Z</time>
      </trkpt>
      <trkpt lat="48.70817" lon="2.11622">
        <ele>147.7</ele>
        <time>2022-06-14T05:12:17Z</time>
      </trkpt>
      <trkpt lat="48.7082" lon="2.11612">
        <ele>148.7</ele>
        <time>2022-06-14T05:12:23Z</time>
      </trkpt>
      <trkpt lat="48.70821" lon="2.11601">
        <ele>149.2</ele>
        <time>2022-06-14T05:12:28Z</time>
      </trkpt>
      <trkpt lat="48.70822" lon="2.11591">
        <ele>149.8</ele>
        <time>2022-06-14T05:12:34Z</time>
      </trkpt>
      <trkpt lat="48.70821" lon="2.1158">
        <ele>149.8</ele>
        <time>2022-06-14T05:12:40Z</time>
      </trkpt>
      <trkpt lat="48.70819" lon="2.1157">
        <ele>149.6</ele>
        <time>2022-06-14T05:12:46Z</time>
      </trkpt>
      <trkpt lat="48.70817" lon="2.11561">
        <ele>149.4</ele>
        <time>2022-06-14T05:13:00Z</time>
      </trkpt>
      <trkpt lat="48.70813" lon="2.11551">
        <ele>148.7</ele>
        <time>2022-06-14T05:13:12Z</time>
      </trkpt>
      <trkpt lat="48.70811" lon="2.1154">
        <ele>148.6</ele>
        <time>2022-06-14T05:13:21Z</time>
      </trkpt>
      <trkpt lat="48.70809" lon="2.1153">
        <ele>148.4</ele>
        <time>2022-06-14T05:13:27Z</time>
      </trkpt>
      <trkpt lat="48.70807" lon="2.11521">
        <ele>148.3</ele>
        <time>2022-06-14T05:13:33Z</time>
      </trkpt>
      <trkpt lat="48.70807" lon="2.11511">
        <ele>148.6</ele>
        <time>2022-06-14T05:13:38Z</time>
      </trkpt>
      <trkpt lat="48.70806" lon="2.11499">
        <ele>148.8</ele>
        <time>2022-06-14T05:13:44Z</time>
      </trkpt>
      <trkpt lat="48.70803" lon="2.11486">
        <ele>148.2</ele>
        <time>2022-06-14T05:13:49Z</time>
      </trkpt>
      <trkpt lat="48.70801" lon="2.11475">
        <ele>147.9</ele>
        <time>2022-06-14T05:13:54Z</time>
      </trkpt>
      <trkpt lat="48.70802" lon="2.11461">
        <ele>148.3</ele>
        <time>2022-06-14T05:13:59Z</time>
      </trkpt>
      <trkpt lat="48.70806" lon="2.11445">
        <ele>149.4</ele>
        <time>2022-06-14T05:14:04Z</time>
      </trkpt>
      <trkpt lat="48.7081" lon="2.11437">
        <ele>150.6</ele>
        <time>2022-06-14T05:14:09Z</time>
      </trkpt>
      <trkpt lat="48.70817" lon="2.11431">
        <ele>152.4</ele>
        <time>2022-06-14T05:14:14Z</time>
      </trkpt>
      <trkpt lat="48.70822" lon="2.11423">
        <ele>153.9</ele>
        <time>2022-06-14T05:14:19Z</time>
      </trkpt>
      <trkpt lat="48.70826" lon="2.11412">
        <ele>155.2</ele>
        <time>2022-06-14T05:14:24Z</time>
      </trkpt>
      <trkpt lat="48.70831" lon="2.11402">
        <ele>156.7</ele>
        <time>2022-06-14T05:14:29Z</time>
      </trkpt>
      <trkpt lat="48.70836" lon="2.11394">
        <ele>157.6</ele>
        <time>2022-06-14T05:14:35Z</time>
      </trkpt>
      <trkpt lat="48.70844" lon="2.11389">
        <ele>157.9</ele>
        <time>2022-06-14T05:14:40Z</time>
      </trkpt>
      <trkpt lat="48.70849" lon="2.11378">
        <ele>158.3</ele>
        <time>2022-06-14T05:14:45Z</time>
      </trkpt>
      <trkpt lat="48.70851" lon="2.11368">
        <ele>158.6</ele>
        <time>2022-06-14T05:14:50Z</time>
      </trkpt>
      <trkpt lat="48.70853" lon="2.11356">
        <ele>158.9</ele>
        <time>2022-06-14T05:14:55Z</time>
      </trkpt>
      <trkpt lat="48.70857" lon="2.11345">
        <ele>159.3</ele>
        <time>2022-06-14T05:15:00Z</time>
      </trkpt>
      <trkpt lat="48.70864" lon="2.11336">
        <ele>159.7</ele>
        <time>2022-06-14T05:15:05Z</time>
      </trkpt>
      <trkpt lat="48.70869" lon="2.11326">
        <ele>159.7</ele>
        <time>2022-06-14T05:15:10Z</time>
      </trkpt>
      <trkpt lat="48.70876" lon="2.11317">
        <ele>159.7</ele>
        <time>2022-06-14T05:15:15Z</time>
      </trkpt>
      <trkpt lat="48.70881" lon="2.11311">
        <ele>159.8</ele>
        <time>2022-06-14T05:15:20Z</time>
      </trkpt>
      <trkpt lat="48.70886" lon="2.11303">
        <ele>159.8</ele>
        <time>2022-06-14T05:15:26Z</time>
      </trkpt>
      <trkpt lat="48.70894" lon="2.11295">
        <ele>159.9</ele>
        <time>2022-06-14T05:15:31Z</time>
      </trkpt>
      <trkpt lat="48.70901" lon="2.11286">
        <ele>159.9</ele>
        <time>2022-06-14T05:15:36Z</time>
      </trkpt>
      <trkpt lat="48.70906" lon="2.11276">
        <ele>160</ele>
        <time>2022-06-14T05:15:41Z</time>
      </trkpt>
      <trkpt lat="48.70911" lon="2.11269">
        <ele>160</ele>
        <time>2022-06-14T05:15:46Z</time>
      </trkpt>
      <trkpt lat="48.70918" lon="2.11262">
        <ele>160.1</ele>
        <time>2022-06-14T05:15:51Z</time>
      </trkpt>
      <trkpt lat="48.70923" lon="2.11254">
        <ele>160</ele>
        <time>2022-06-14T05:15:58Z</time>
      </trkpt>
      <trkpt lat="48.70936" lon="2.11248">
        <ele>159.8</ele>
        <time>2022-06-14T05:16:29Z</time>
      </trkpt>
      <trkpt lat="48.70943" lon="2.11244">
        <ele>159.7</ele>
        <time>2022-06-14T05:16:36Z</time>
      </trkpt>
      <trkpt lat="48.70949" lon="2.11237">
        <ele>159.7</ele>
        <time>2022-06-14T05:16:42Z</time>
      </trkpt>
      <trkpt lat="48.70956" lon="2.11228">
        <ele>159.8</ele>
        <time>2022-06-14T05:16:47Z</time>
      </trkpt>
      <trkpt lat="48.70962" lon="2.11223">
        <ele>159.8</ele>
        <time>2022-06-14T05:16:53Z</time>
      </trkpt>
      <trkpt lat="48.70968" lon="2.11218">
        <ele>159.9</ele>
        <time>2022-06-14T05:16:58Z</time>
      </trkpt>
      <trkpt lat="48.70975" lon="2.11211">
        <ele>160</ele>
        <time>2022-06-14T05:17:03Z</time>
      </trkpt>
      <trkpt lat="48.70981" lon="2.11204">
        <ele>160.1</ele>
        <time>2022-06-14T05:17:08Z</time>
      </trkpt>
      <trkpt lat="48.70986" lon="2.11198">
        <ele>160.2</ele>
        <time>2022-06-14T05:17:13Z</time>
      </trkpt>
      <trkpt lat="48.70993" lon="2.11188">
        <ele>160.4</ele>
        <time>2022-06-14T05:17:18Z</time>
      </trkpt>
      <trkpt lat="48.70998" lon="2.1118">
        <ele>160.7</ele>
        <time>2022-06-14T05:17:23Z</time>
      </trkpt>
      <trkpt lat="48.71006" lon="2.11172">
        <ele>160.7</ele>
        <time>2022-06-14T05:17:28Z</time>
      </trkpt>
      <trkpt lat="48.71011" lon="2.11165">
        <ele>160.7</ele>
        <time>2022-06-14T05:17:33Z</time>
      </trkpt>
      <trkpt lat="48.71017" lon="2.11158">
        <ele>160.6</ele>
        <time>2022-06-14T05:17:39Z</time>
      </trkpt>
      <trkpt lat="48.71023" lon="2.11149">
        <ele>160.6</ele>
        <time>2022-06-14T05:17:44Z</time>
      </trkpt>
      <trkpt lat="48.71027" lon="2.1114">
        <ele>160.6</ele>
        <time>2022-06-14T05:17:51Z</time>
      </trkpt>
      <trkpt lat="48.7104" lon="2.11135">
        <ele>160.4</ele>
        <time>2022-06-14T05:18:04Z</time>
      </trkpt>
      <trkpt lat="48.71043" lon="2.11126">
        <ele>160.5</ele>
        <time>2022-06-14T05:18:09Z</time>
      </trkpt>
      <trkpt lat="48.71048" lon="2.11116">
        <ele>160.5</ele>
        <time>2022-06-14T05:18:15Z</time>
      </trkpt>
      <trkpt lat="48.71055" lon="2.11107">
        <ele>160.6</ele>
        <time>2022-06-14T05:18:20Z</time>
      </trkpt>
      <trkpt lat="48.7106" lon="2.11098">
        <ele>160.7</ele>
        <time>2022-06-14T05:18:26Z</time>
      </trkpt>
      <trkpt lat="48.71065" lon="2.11089">
        <ele>160.9</ele>
        <time>2022-06-14T05:18:33Z</time>
      </trkpt>
      <trkpt lat="48.71071" lon="2.11082">
        <ele>161</ele>
        <time>2022-06-14T05:18:38Z</time>
      </trkpt>
      <trkpt lat="48.71077" lon="2.11076">
        <ele>161.2</ele>
        <time>2022-06-14T05:18:44Z</time>
      </trkpt>
      <trkpt lat="48.71086" lon="2.11067">
        <ele>161.4</ele>
        <time>2022-06-14T05:18:49Z</time>
      </trkpt>
      <trkpt lat="48.71089" lon="2.11057">
        <ele>161.6</ele>
        <time>2022-06-14T05:18:54Z</time>
      </trkpt>
      <trkpt lat="48.71094" lon="2.11047">
        <ele>161.8</ele>
        <time>2022-06-14T05:18:59Z</time>
      </trkpt>
      <trkpt lat="48.711" lon="2.11035">
        <ele>162</ele>
        <time>2022-06-14T05:19:04Z</time>
      </trkpt>
      <trkpt lat="48.71106" lon="2.11024">
        <ele>162.2</ele>
        <time>2022-06-14T05:19:09Z</time>
      </trkpt>
      <trkpt lat="48.7111" lon="2.11015">
        <ele>162.4</ele>
        <time>2022-06-14T05:19:14Z</time>
      </trkpt>
      <trkpt lat="48.71113" lon="2.11002">
        <ele>162.6</ele>
        <time>2022-06-14T05:19:19Z</time>
      </trkpt>
      <trkpt lat="48.71118" lon="2.10995">
        <ele>162.7</ele>
        <time>2022-06-14T05:19:26Z</time>
      </trkpt>
      <trkpt lat="48.71125" lon="2.10991">
        <ele>162.7</ele>
        <time>2022-06-14T05:19:33Z</time>
      </trkpt>
      <trkpt lat="48.71131" lon="2.10985">
        <ele>162.8</ele>
        <time>2022-06-14T05:19:38Z</time>
      </trkpt>
      <trkpt lat="48.71138" lon="2.10982">
        <ele>162.8</ele>
        <time>2022-06-14T05:19:44Z</time>
      </trkpt>
      <trkpt lat="48.71147" lon="2.1098">
        <ele>162.8</ele>
        <time>2022-06-14T05:19:49Z</time>
      </trkpt>
      <trkpt lat="48.71154" lon="2.10976">
        <ele>162.9</ele>
        <time>2022-06-14T05:19:57Z</time>
      </trkpt>
      <trkpt lat="48.71161" lon="2.10977">
        <ele>162.9</ele>
        <time>2022-06-14T05:20:03Z</time>
      </trkpt>
      <trkpt lat="48.71169" lon="2.10979">
        <ele>162.7</ele>
        <time>2022-06-14T05:20:20Z</time>
      </trkpt>
      <trkpt lat="48.71176" lon="2.10975">
        <ele>162.8</ele>
        <time>2022-06-14T05:20:25Z</time>
      </trkpt>
      <trkpt lat="48.71182" lon="2.10969">
        <ele>162.9</ele>
        <time>2022-06-14T05:20:31Z</time>
      </trkpt>
      <trkpt lat="48.71188" lon="2.10964">
        <ele>163</ele>
        <time>2022-06-14T05:20:36Z</time>
      </trkpt>
      <trkpt lat="48.71195" lon="2.10962">
        <ele>163</ele>
        <time>2022-06-14T05:20:41Z</time>
      </trkpt>
      <trkpt lat="48.71203" lon="2.10961">
        <ele>163</ele>
        <time>2022-06-14T05:20:46Z</time>
      </trkpt>
      <trkpt lat="48.7121" lon="2.1096">
        <ele>162.9</ele>
        <time>2022-06-14T05:20:51Z</time>
      </trkpt>
      <trkpt lat="48.71222" lon="2.10958">
        <ele>162.8</ele>
        <time>2022-06-14T05:20:56Z</time>
      </trkpt>
      <trkpt lat="48.7123" lon="2.10957">
        <ele>162.8</ele>
        <time>2022-06-14T05:21:01Z</time>
      </trkpt>
      <trkpt lat="48.71237" lon="2.10957">
        <ele>162.7</ele>
        <time>2022-06-14T05:21:06Z</time>
      </trkpt>
      <trkpt lat="48.71244" lon="2.10954">
        <ele>162.7</ele>
        <time>2022-06-14T05:21:12Z</time>
      </trkpt>
      <trkpt lat="48.71253" lon="2.10951">
        <ele>162.7</ele>
        <time>2022-06-14T05:21:17Z</time>
      </trkpt>
      <trkpt lat="48.71262" lon="2.10948">
        <ele>162.7</ele>
        <time>2022-06-14T05:21:22Z</time>
      </trkpt>
      <trkpt lat="48.71271" lon="2.10944">
        <ele>162.7</ele>
        <time>2022-06-14T05:21:27Z</time>
      </trkpt>
      <trkpt lat="48.71282" lon="2.10941">
        <ele>162.6</ele>
        <time>2022-06-14T05:21:32Z</time>
      </trkpt>
      <trkpt lat="48.7129" lon="2.10938">
        <ele>162.5</ele>
        <time>2022-06-14T05:21:37Z</time>
      </trkpt>
      <trkpt lat="48.71297" lon="2.10936">
        <ele>162.4</ele>
        <time>2022-06-14T05:21:42Z</time>
      </trkpt>
      <trkpt lat="48.71307" lon="2.10933">
        <ele>162.3</ele>
        <time>2022-06-14T05:21:47Z</time>
      </trkpt>
      <trkpt lat="48.71315" lon="2.10932">
        <ele>162.2</ele>
        <time>2022-06-14T05:21:52Z</time>
      </trkpt>
      <trkpt lat="48.71322" lon="2.10929">
        <ele>162.1</ele>
        <time>2022-06-14T05:21:57Z</time>
      </trkpt>
      <trkpt lat="48.71329" lon="2.10926">
        <ele>162</ele>
        <time>2022-06-14T05:22:03Z</time>
      </trkpt>
      <trkpt lat="48.71335" lon="2.10923">
        <ele>161.9</ele>
        <time>2022-06-14T05:22:11Z</time>
      </trkpt>
      <trkpt lat="48.71342" lon="2.10927">
        <ele>161.9</ele>
        <time>2022-06-14T05:22:17Z</time>
      </trkpt>
      <trkpt lat="48.71348" lon="2.10933">
        <ele>161.9</ele>
        <time>2022-06-14T05:22:24Z</time>
      </trkpt>
      <trkpt lat="48.71355" lon="2.10935">
        <ele>161.9</ele>
        <time>2022-06-14T05:22:43Z</time>
      </trkpt>
      <trkpt lat="48.7136" lon="2.10942">
        <ele>161.7</ele>
        <time>2022-06-14T05:22:50Z</time>
      </trkpt>
      <trkpt lat="48.71365" lon="2.10948">
        <ele>161.6</ele>
        <time>2022-06-14T05:22:55Z</time>
      </trkpt>
      <trkpt lat="48.71372" lon="2.10955">
        <ele>161.4</ele>
        <time>2022-06-14T05:23:01Z</time>
      </trkpt>
      <trkpt lat="48.71381" lon="2.1096">
        <ele>161.2</ele>
        <time>2022-06-14T05:23:06Z</time>
      </trkpt>
      <trkpt lat="48.71389" lon="2.10966">
        <ele>160.9</ele>
        <time>2022-06-14T05:23:11Z</time>
      </trkpt>
      <trkpt lat="48.71394" lon="2.10973">
        <ele>160.6</ele>
        <time>2022-06-14T05:23:16Z</time>
      </trkpt>
      <trkpt lat="48.71397" lon="2.10982">
        <ele>160.2</ele>
        <time>2022-06-14T05:23:21Z</time>
      </trkpt>
      <trkpt lat="48.71402" lon="2.10991">
        <ele>159.7</ele>
        <time>2022-06-14T05:23:27Z</time>
      </trkpt>
      <trkpt lat="48.71408" lon="2.10997">
        <ele>159.3</ele>
        <time>2022-06-14T05:23:36Z</time>
      </trkpt>
      <trkpt lat="48.71415" lon="2.11001">
        <ele>159</ele>
        <time>2022-06-14T05:23:45Z</time>
      </trkpt>
      <trkpt lat="48.71422" lon="2.11002">
        <ele>158.1</ele>
        <time>2022-06-14T05:23:53Z</time>
      </trkpt>
      <trkpt lat="48.71429" lon="2.11004">
        <ele>156.9</ele>
        <time>2022-06-14T05:24:00Z</time>
      </trkpt>
      <trkpt lat="48.71436" lon="2.11009">
        <ele>155.5</ele>
        <time>2022-06-14T05:24:10Z</time>
      </trkpt>
      <trkpt lat="48.71441" lon="2.11015">
        <ele>154.3</ele>
        <time>2022-06-14T05:24:19Z</time>
      </trkpt>
      <trkpt lat="48.71448" lon="2.11011">
        <ele>153.4</ele>
        <time>2022-06-14T05:24:41Z</time>
      </trkpt>
      <trkpt lat="48.71453" lon="2.11004">
        <ele>153.1</ele>
        <time>2022-06-14T05:24:54Z</time>
      </trkpt>
      <trkpt lat="48.71446" lon="2.11004">
        <ele>154.2</ele>
        <time>2022-06-14T05:25:09Z</time>
      </trkpt>
      <trkpt lat="48.71446" lon="2.11015">
        <ele>153.5</ele>
        <time>2022-06-14T05:25:19Z</time>
      </trkpt>
      <trkpt lat="48.71449" lon="2.11024">
        <ele>152.4</ele>
        <time>2022-06-14T05:25:24Z</time>
      </trkpt>
      <trkpt lat="48.71454" lon="2.11031">
        <ele>151.1</ele>
        <time>2022-06-14T05:25:43Z</time>
      </trkpt>
      <trkpt lat="48.71461" lon="2.11033">
        <ele>149.6</ele>
        <time>2022-06-14T05:25:48Z</time>
      </trkpt>
      <trkpt lat="48.71468" lon="2.11036">
        <ele>148.1</ele>
        <time>2022-06-14T05:25:53Z</time>
      </trkpt>
      <trkpt lat="48.71474" lon="2.11038">
        <ele>146.8</ele>
        <time>2022-06-14T05:25:59Z</time>
      </trkpt>
      <trkpt lat="48.71467" lon="2.11039">
        <ele>148</ele>
        <time>2022-06-14T05:26:11Z</time>
      </trkpt>
      <trkpt lat="48.71459" lon="2.11037">
        <ele>149.7</ele>
        <time>2022-06-14T05:26:16Z</time>
      </trkpt>
      <trkpt lat="48.71452" lon="2.11036">
        <ele>151.1</ele>
        <time>2022-06-14T05:26:23Z</time>
      </trkpt>
      <trkpt lat="48.71452" lon="2.11025">
        <ele>151.8</ele>
        <time>2022-06-14T05:26:35Z</time>
      </trkpt>
      <trkpt lat="48.71454" lon="2.11014">
        <ele>152.2</ele>
        <time>2022-06-14T05:26:40Z</time>
      </trkpt>
      <trkpt lat="48.71456" lon="2.11002">
        <ele>152.7</ele>
        <time>2022-06-14T05:26:45Z</time>
      </trkpt>
      <trkpt lat="48.71456" lon="2.1099">
        <ele>153.5</ele>
        <time>2022-06-14T05:26:50Z</time>
      </trkpt>
      <trkpt lat="48.71454" lon="2.10979">
        <ele>154.4</ele>
        <time>2022-06-14T05:26:55Z</time>
      </trkpt>
      <trkpt lat="48.71454" lon="2.10969">
        <ele>155</ele>
        <time>2022-06-14T05:27:03Z</time>
      </trkpt>
      <trkpt lat="48.71456" lon="2.10958">
        <ele>155.4</ele>
        <time>2022-06-14T05:27:09Z</time>
      </trkpt>
      <trkpt lat="48.71455" lon="2.10948">
        <ele>156.1</ele>
        <time>2022-06-14T05:27:14Z</time>
      </trkpt>
      <trkpt lat="48.71454" lon="2.10939">
        <ele>156.8</ele>
        <time>2022-06-14T05:27:19Z</time>
      </trkpt>
      <trkpt lat="48.71454" lon="2.10927">
        <ele>157.5</ele>
        <time>2022-06-14T05:27:25Z</time>
      </trkpt>
      <trkpt lat="48.71456" lon="2.10917">
        <ele>157.8</ele>
        <time>2022-06-14T05:27:31Z</time>
      </trkpt>
      <trkpt lat="48.71457" lon="2.10905">
        <ele>158</ele>
        <time>2022-06-14T05:27:36Z</time>
      </trkpt>
      <trkpt lat="48.71458" lon="2.10891">
        <ele>158.2</ele>
        <time>2022-06-14T05:27:41Z</time>
      </trkpt>
      <trkpt lat="48.71455" lon="2.10882">
        <ele>158.7</ele>
        <time>2022-06-14T05:27:47Z</time>
      </trkpt>
      <trkpt lat="48.71453" lon="2.1087">
        <ele>159.3</ele>
        <time>2022-06-14T05:27:53Z</time>
      </trkpt>
      <trkpt lat="48.71453" lon="2.10857">
        <ele>159.5</ele>
        <time>2022-06-14T05:27:58Z</time>
      </trkpt>
      <trkpt lat="48.71452" lon="2.10845">
        <ele>159.9</ele>
        <time>2022-06-14T05:28:03Z</time>
      </trkpt>
      <trkpt lat="48.7145" lon="2.10834">
        <ele>160.4</ele>
        <time>2022-06-14T05:28:09Z</time>
      </trkpt>
      <trkpt lat="48.71447" lon="2.10823">
        <ele>160.6</ele>
        <time>2022-06-14T05:28:15Z</time>
      </trkpt>
      <trkpt lat="48.71447" lon="2.1081">
        <ele>160.4</ele>
        <time>2022-06-14T05:28:20Z</time>
      </trkpt>
      <trkpt lat="48.71447" lon="2.10794">
        <ele>160.1</ele>
        <time>2022-06-14T05:28:25Z</time>
      </trkpt>
      <trkpt lat="48.71448" lon="2.10782">
        <ele>159.8</ele>
        <time>2022-06-14T05:28:30Z</time>
      </trkpt>
      <trkpt lat="48.71448" lon="2.10771">
        <ele>159.7</ele>
        <time>2022-06-14T05:28:35Z</time>
      </trkpt>
      <trkpt lat="48.71449" lon="2.10761">
        <ele>159.4</ele>
        <time>2022-06-14T05:28:40Z</time>
      </trkpt>
      <trkpt lat="48.71451" lon="2.1075">
        <ele>159.1</ele>
        <time>2022-06-14T05:28:45Z</time>
      </trkpt>
      <trkpt lat="48.7145" lon="2.10739">
        <ele>158.8</ele>
        <time>2022-06-14T05:28:51Z</time>
      </trkpt>
      <trkpt lat="48.7145" lon="2.10727">
        <ele>158.4</ele>
        <time>2022-06-14T05:28:56Z</time>
      </trkpt>
      <trkpt lat="48.71449" lon="2.10716">
        <ele>158.1</ele>
        <time>2022-06-14T05:29:01Z</time>
      </trkpt>
      <trkpt lat="48.71445" lon="2.10708">
        <ele>158.1</ele>
        <time>2022-06-14T05:29:07Z</time>
      </trkpt>
      <trkpt lat="48.71447" lon="2.10693">
        <ele>157.5</ele>
        <time>2022-06-14T05:29:12Z</time>
      </trkpt>
      <trkpt lat="48.71446" lon="2.10681">
        <ele>157.1</ele>
        <time>2022-06-14T05:29:17Z</time>
      </trkpt>
      <trkpt lat="48.71445" lon="2.1067">
        <ele>156.8</ele>
        <time>2022-06-14T05:29:23Z</time>
      </trkpt>
      <trkpt lat="48.71444" lon="2.10659">
        <ele>156.4</ele>
        <time>2022-06-14T05:29:28Z</time>
      </trkpt>
      <trkpt lat="48.71444" lon="2.10647">
        <ele>156.1</ele>
        <time>2022-06-14T05:29:33Z</time>
      </trkpt>
      <trkpt lat="48.71447" lon="2.10634">
        <ele>155.5</ele>
        <time>2022-06-14T05:29:38Z</time>
      </trkpt>
      <trkpt lat="48.71451" lon="2.10622">
        <ele>155</ele>
        <time>2022-06-14T05:29:43Z</time>
      </trkpt>
      <trkpt lat="48.71453" lon="2.1061">
        <ele>154.5</ele>
        <time>2022-06-14T05:29:49Z</time>
      </trkpt>
      <trkpt lat="48.71456" lon="2.10599">
        <ele>154.1</ele>
        <time>2022-06-14T05:29:55Z</time>
      </trkpt>
      <trkpt lat="48.71457" lon="2.10588">
        <ele>153.7</ele>
        <time>2022-06-14T05:30:00Z</time>
      </trkpt>
      <trkpt lat="48.71459" lon="2.10576">
        <ele>153.4</ele>
        <time>2022-06-14T05:30:05Z</time>
      </trkpt>
      <trkpt lat="48.71463" lon="2.10566">
        <ele>153.2</ele>
        <time>2022-06-14T05:30:10Z</time>
      </trkpt>
      <trkpt lat="48.71466" lon="2.10555">
        <ele>153.1</ele>
        <time>2022-06-14T05:30:16Z</time>
      </trkpt>
      <trkpt lat="48.71468" lon="2.10546">
        <ele>153</ele>
        <time>2022-06-14T05:30:21Z</time>
      </trkpt>
      <trkpt lat="48.7147" lon="2.10535">
        <ele>152.9</ele>
        <time>2022-06-14T05:30:26Z</time>
      </trkpt>
      <trkpt lat="48.71475" lon="2.10523">
        <ele>152.7</ele>
        <time>2022-06-14T05:30:31Z</time>
      </trkpt>
      <trkpt lat="48.71479" lon="2.10514">
        <ele>152.5</ele>
        <time>2022-06-14T05:30:36Z</time>
      </trkpt>
      <trkpt lat="48.71481" lon="2.10505">
        <ele>152.5</ele>
        <time>2022-06-14T05:30:41Z</time>
      </trkpt>
      <trkpt lat="48.71486" lon="2.10495">
        <ele>152.3</ele>
        <time>2022-06-14T05:30:46Z</time>
      </trkpt>
      <trkpt lat="48.71488" lon="2.10485">
        <ele>152.3</ele>
        <time>2022-06-14T05:30:52Z</time>
      </trkpt>
      <trkpt lat="48.71493" lon="2.10475">
        <ele>152.2</ele>
        <time>2022-06-14T05:30:57Z</time>
      </trkpt>
      <trkpt lat="48.71498" lon="2.10466">
        <ele>152.1</ele>
        <time>2022-06-14T05:31:03Z</time>
      </trkpt>
      <trkpt lat="48.71502" lon="2.10456">
        <ele>152</ele>
        <time>2022-06-14T05:31:08Z</time>
      </trkpt>
      <trkpt lat="48.71504" lon="2.10446">
        <ele>152</ele>
        <time>2022-06-14T05:31:13Z</time>
      </trkpt>
      <trkpt lat="48.71506" lon="2.10434">
        <ele>151.9</ele>
        <time>2022-06-14T05:31:18Z</time>
      </trkpt>
      <trkpt lat="48.71507" lon="2.10424">
        <ele>151.9</ele>
        <time>2022-06-14T05:31:23Z</time>
      </trkpt>
      <trkpt lat="48.71511" lon="2.10416">
        <ele>151.9</ele>
        <time>2022-06-14T05:31:28Z</time>
      </trkpt>
      <trkpt lat="48.71513" lon="2.10404">
        <ele>152</ele>
        <time>2022-06-14T05:31:34Z</time>
      </trkpt>
      <trkpt lat="48.71515" lon="2.10394">
        <ele>152</ele>
        <time>2022-06-14T05:31:39Z</time>
      </trkpt>
      <trkpt lat="48.71519" lon="2.10385">
        <ele>152.1</ele>
        <time>2022-06-14T05:31:47Z</time>
      </trkpt>
      <trkpt lat="48.71526" lon="2.10378">
        <ele>152</ele>
        <time>2022-06-14T05:31:52Z</time>
      </trkpt>
      <trkpt lat="48.71531" lon="2.1037">
        <ele>152</ele>
        <time>2022-06-14T05:31:57Z</time>
      </trkpt>
      <trkpt lat="48.71532" lon="2.1036">
        <ele>152</ele>
        <time>2022-06-14T05:32:02Z</time>
      </trkpt>
      <trkpt lat="48.71533" lon="2.10348">
        <ele>152.1</ele>
        <time>2022-06-14T05:32:07Z</time>
      </trkpt>
      <trkpt lat="48.71534" lon="2.10335">
        <ele>152.2</ele>
        <time>2022-06-14T05:32:12Z</time>
      </trkpt>
      <trkpt lat="48.71535" lon="2.10325">
        <ele>152.3</ele>
        <time>2022-06-14T05:32:17Z</time>
      </trkpt>
      <trkpt lat="48.71536" lon="2.10314">
        <ele>152.6</ele>
        <time>2022-06-14T05:32:22Z</time>
      </trkpt>
      <trkpt lat="48.71538" lon="2.10303">
        <ele>152.8</ele>
        <time>2022-06-14T05:32:28Z</time>
      </trkpt>
      <trkpt lat="48.71542" lon="2.10293">
        <ele>153</ele>
        <time>2022-06-14T05:32:34Z</time>
      </trkpt>
      <trkpt lat="48.71544" lon="2.10283">
        <ele>153.2</ele>
        <time>2022-06-14T05:32:39Z</time>
      </trkpt>
      <trkpt lat="48.71544" lon="2.10269">
        <ele>153.5</ele>
        <time>2022-06-14T05:32:51Z</time>
      </trkpt>
      <trkpt lat="48.71547" lon="2.10259">
        <ele>153.8</ele>
        <time>2022-06-14T05:32:57Z</time>
      </trkpt>
      <trkpt lat="48.71549" lon="2.10249">
        <ele>154</ele>
        <time>2022-06-14T05:33:02Z</time>
      </trkpt>
      <trkpt lat="48.71546" lon="2.10239">
        <ele>153.9</ele>
        <time>2022-06-14T05:33:07Z</time>
      </trkpt>
      <trkpt lat="48.71546" lon="2.10229">
        <ele>153.7</ele>
        <time>2022-06-14T05:33:12Z</time>
      </trkpt>
      <trkpt lat="48.71546" lon="2.10217">
        <ele>153.6</ele>
        <time>2022-06-14T05:33:17Z</time>
      </trkpt>
      <trkpt lat="48.71547" lon="2.10206">
        <ele>153.5</ele>
        <time>2022-06-14T05:33:22Z</time>
      </trkpt>
      <trkpt lat="48.71547" lon="2.10194">
        <ele>153.3</ele>
        <time>2022-06-14T05:33:27Z</time>
      </trkpt>
      <trkpt lat="48.71547" lon="2.10182">
        <ele>153.2</ele>
        <time>2022-06-14T05:33:32Z</time>
      </trkpt>
      <trkpt lat="48.71547" lon="2.10172">
        <ele>153.1</ele>
        <time>2022-06-14T05:33:38Z</time>
      </trkpt>
      <trkpt lat="48.7155" lon="2.10163">
        <ele>153</ele>
        <time>2022-06-14T05:33:46Z</time>
      </trkpt>
      <trkpt lat="48.71553" lon="2.10154">
        <ele>153</ele>
        <time>2022-06-14T05:33:51Z</time>
      </trkpt>
      <trkpt lat="48.7155" lon="2.10144">
        <ele>153</ele>
        <time>2022-06-14T05:33:56Z</time>
      </trkpt>
      <trkpt lat="48.71548" lon="2.10134">
        <ele>153</ele>
        <time>2022-06-14T05:34:01Z</time>
      </trkpt>
      <trkpt lat="48.71552" lon="2.10127">
        <ele>153</ele>
        <time>2022-06-14T05:34:07Z</time>
      </trkpt>
      <trkpt lat="48.71557" lon="2.10135">
        <ele>153</ele>
        <time>2022-06-14T05:34:14Z</time>
      </trkpt>
      <trkpt lat="48.71563" lon="2.1014">
        <ele>153</ele>
        <time>2022-06-14T05:34:19Z</time>
      </trkpt>
      <trkpt lat="48.71569" lon="2.10147">
        <ele>153</ele>
        <time>2022-06-14T05:34:25Z</time>
      </trkpt>
      <trkpt lat="48.71578" lon="2.10152">
        <ele>153</ele>
        <time>2022-06-14T05:34:41Z</time>
      </trkpt>
      <trkpt lat="48.71583" lon="2.1016">
        <ele>153</ele>
        <time>2022-06-14T05:34:46Z</time>
      </trkpt>
      <trkpt lat="48.71585" lon="2.10172">
        <ele>153.1</ele>
        <time>2022-06-14T05:34:52Z</time>
      </trkpt>
      <trkpt lat="48.71587" lon="2.10183">
        <ele>153.2</ele>
        <time>2022-06-14T05:34:58Z</time>
      </trkpt>
      <trkpt lat="48.71586" lon="2.10195">
        <ele>153.4</ele>
        <time>2022-06-14T05:35:03Z</time>
      </trkpt>
      <trkpt lat="48.71586" lon="2.10206">
        <ele>153.5</ele>
        <time>2022-06-14T05:35:08Z</time>
      </trkpt>
      <trkpt lat="48.71586" lon="2.10217">
        <ele>153.6</ele>
        <time>2022-06-14T05:35:13Z</time>
      </trkpt>
      <trkpt lat="48.71581" lon="2.10226">
        <ele>153.7</ele>
        <time>2022-06-14T05:35:21Z</time>
      </trkpt>
      <trkpt lat="48.71575" lon="2.1023">
        <ele>153.8</ele>
        <time>2022-06-14T05:35:26Z</time>
      </trkpt>
      <trkpt lat="48.71572" lon="2.10244">
        <ele>153.9</ele>
        <time>2022-06-14T05:35:31Z</time>
      </trkpt>
      <trkpt lat="48.71569" lon="2.10255">
        <ele>153.8</ele>
        <time>2022-06-14T05:35:36Z</time>
      </trkpt>
      <trkpt lat="48.71569" lon="2.10267">
        <ele>153.5</ele>
        <time>2022-06-14T05:35:46Z</time>
      </trkpt>
      <trkpt lat="48.71567" lon="2.10278">
        <ele>153.1</ele>
        <time>2022-06-14T05:35:51Z</time>
      </trkpt>
      <trkpt lat="48.71567" lon="2.1029">
        <ele>152.7</ele>
        <time>2022-06-14T05:35:56Z</time>
      </trkpt>
      <trkpt lat="48.71565" lon="2.10302">
        <ele>152.4</ele>
        <time>2022-06-14T05:36:01Z</time>
      </trkpt>
      <trkpt lat="48.71563" lon="2.10313">
        <ele>152.1</ele>
        <time>2022-06-14T05:36:06Z</time>
      </trkpt>
      <trkpt lat="48.71559" lon="2.10321">
        <ele>151.9</ele>
        <time>2022-06-14T05:36:12Z</time>
      </trkpt>
      <trkpt lat="48.71557" lon="2.10331">
        <ele>151.7</ele>
        <time>2022-06-14T05:36:17Z</time>
      </trkpt>
      <trkpt lat="48.71551" lon="2.1034">
        <ele>151.7</ele>
        <time>2022-06-14T05:37:09Z</time>
      </trkpt>
      <trkpt lat="48.71552" lon="2.10351">
        <ele>151.7</ele>
        <time>2022-06-14T05:37:14Z</time>
      </trkpt>
      <trkpt lat="48.71555" lon="2.10363">
        <ele>151.6</ele>
        <time>2022-06-14T05:37:22Z</time>
      </trkpt>
      <trkpt lat="48.71552" lon="2.10372">
        <ele>151.6</ele>
        <time>2022-06-14T05:37:27Z</time>
      </trkpt>
      <trkpt lat="48.7155" lon="2.10382">
        <ele>151.6</ele>
        <time>2022-06-14T05:37:39Z</time>
      </trkpt>
      <trkpt lat="48.71544" lon="2.10385">
        <ele>151.7</ele>
        <time>2022-06-14T05:37:46Z</time>
      </trkpt>
      <trkpt lat="48.71537" lon="2.10387">
        <ele>151.8</ele>
        <time>2022-06-14T05:37:51Z</time>
      </trkpt>
      <trkpt lat="48.71539" lon="2.10397">
        <ele>151.7</ele>
        <time>2022-06-14T05:37:59Z</time>
      </trkpt>
      <trkpt lat="48.71542" lon="2.10407">
        <ele>151.6</ele>
        <time>2022-06-14T05:38:06Z</time>
      </trkpt>
      <trkpt lat="48.71545" lon="2.10417">
        <ele>151.5</ele>
        <time>2022-06-14T05:38:12Z</time>
      </trkpt>
      <trkpt lat="48.7155" lon="2.1043">
        <ele>151.5</ele>
        <time>2022-06-14T05:38:17Z</time>
      </trkpt>
      <trkpt lat="48.71555" lon="2.10441">
        <ele>151.5</ele>
        <time>2022-06-14T05:38:22Z</time>
      </trkpt>
      <trkpt lat="48.71554" lon="2.10454">
        <ele>151.6</ele>
        <time>2022-06-14T05:38:27Z</time>
      </trkpt>
      <trkpt lat="48.71556" lon="2.10469">
        <ele>151.8</ele>
        <time>2022-06-14T05:38:32Z</time>
      </trkpt>
      <trkpt lat="48.71555" lon="2.10483">
        <ele>151.9</ele>
        <time>2022-06-14T05:38:37Z</time>
      </trkpt>
      <trkpt lat="48.71553" lon="2.10497">
        <ele>152</ele>
        <time>2022-06-14T05:38:42Z</time>
      </trkpt>
      <trkpt lat="48.71551" lon="2.10507">
        <ele>151.9</ele>
        <time>2022-06-14T05:38:47Z</time>
      </trkpt>
      <trkpt lat="48.71551" lon="2.10519">
        <ele>151.9</ele>
        <time>2022-06-14T05:38:52Z</time>
      </trkpt>
      <trkpt lat="48.71553" lon="2.10529">
        <ele>151.8</ele>
        <time>2022-06-14T05:38:57Z</time>
      </trkpt>
      <trkpt lat="48.71551" lon="2.10539">
        <ele>151.7</ele>
        <time>2022-06-14T05:39:02Z</time>
      </trkpt>
      <trkpt lat="48.71548" lon="2.1055">
        <ele>151.7</ele>
        <time>2022-06-14T05:39:07Z</time>
      </trkpt>
      <trkpt lat="48.71546" lon="2.1056">
        <ele>151.6</ele>
        <time>2022-06-14T05:39:12Z</time>
      </trkpt>
      <trkpt lat="48.71543" lon="2.10571">
        <ele>151.6</ele>
        <time>2022-06-14T05:39:18Z</time>
      </trkpt>
      <trkpt lat="48.71545" lon="2.10585">
        <ele>151.5</ele>
        <time>2022-06-14T05:39:23Z</time>
      </trkpt>
      <trkpt lat="48.71544" lon="2.10599">
        <ele>152</ele>
        <time>2022-06-14T05:39:28Z</time>
      </trkpt>
      <trkpt lat="48.71543" lon="2.10612">
        <ele>152.5</ele>
        <time>2022-06-14T05:39:33Z</time>
      </trkpt>
      <trkpt lat="48.7154" lon="2.10624">
        <ele>153</ele>
        <time>2022-06-14T05:39:38Z</time>
      </trkpt>
      <trkpt lat="48.71538" lon="2.10636">
        <ele>153.4</ele>
        <time>2022-06-14T05:39:43Z</time>
      </trkpt>
      <trkpt lat="48.71536" lon="2.10648">
        <ele>153.8</ele>
        <time>2022-06-14T05:39:48Z</time>
      </trkpt>
      <trkpt lat="48.71535" lon="2.10661">
        <ele>154.2</ele>
        <time>2022-06-14T05:39:53Z</time>
      </trkpt>
      <trkpt lat="48.71533" lon="2.10673">
        <ele>154.4</ele>
        <time>2022-06-14T05:39:58Z</time>
      </trkpt>
      <trkpt lat="48.71531" lon="2.10689">
        <ele>154.5</ele>
        <time>2022-06-14T05:40:03Z</time>
      </trkpt>
      <trkpt lat="48.71534" lon="2.107">
        <ele>154.6</ele>
        <time>2022-06-14T05:40:08Z</time>
      </trkpt>
      <trkpt lat="48.71536" lon="2.10712">
        <ele>154.7</ele>
        <time>2022-06-14T05:40:13Z</time>
      </trkpt>
      <trkpt lat="48.7154" lon="2.10725">
        <ele>154.8</ele>
        <time>2022-06-14T05:40:18Z</time>
      </trkpt>
      <trkpt lat="48.71544" lon="2.10736">
        <ele>154.9</ele>
        <time>2022-06-14T05:40:23Z</time>
      </trkpt>
      <trkpt lat="48.71547" lon="2.10747">
        <ele>155</ele>
        <time>2022-06-14T05:40:28Z</time>
      </trkpt>
      <trkpt lat="48.71553" lon="2.10761">
        <ele>154.5</ele>
        <time>2022-06-14T05:40:33Z</time>
      </trkpt>
      <trkpt lat="48.71554" lon="2.10771">
        <ele>154</ele>
        <time>2022-06-14T05:40:39Z</time>
      </trkpt>
      <trkpt lat="48.71555" lon="2.10783">
        <ele>153.4</ele>
        <time>2022-06-14T05:40:52Z</time>
      </trkpt>
      <trkpt lat="48.71559" lon="2.10792">
        <ele>152.9</ele>
        <time>2022-06-14T05:40:57Z</time>
      </trkpt>
      <trkpt lat="48.71564" lon="2.10803">
        <ele>152.1</ele>
        <time>2022-06-14T05:41:02Z</time>
      </trkpt>
      <trkpt lat="48.71564" lon="2.1082">
        <ele>151.1</ele>
        <time>2022-06-14T05:41:07Z</time>
      </trkpt>
      <trkpt lat="48.71566" lon="2.10831">
        <ele>150.4</ele>
        <time>2022-06-14T05:41:12Z</time>
      </trkpt>
      <trkpt lat="48.71565" lon="2.10844">
        <ele>149.6</ele>
        <time>2022-06-14T05:41:17Z</time>
      </trkpt>
      <trkpt lat="48.71567" lon="2.10857">
        <ele>148.6</ele>
        <time>2022-06-14T05:41:22Z</time>
      </trkpt>
      <trkpt lat="48.71566" lon="2.10867">
        <ele>148.1</ele>
        <time>2022-06-14T05:41:27Z</time>
      </trkpt>
      <trkpt lat="48.71565" lon="2.10878">
        <ele>147.5</ele>
        <time>2022-06-14T05:41:32Z</time>
      </trkpt>
      <trkpt lat="48.71566" lon="2.10891">
        <ele>146.5</ele>
        <time>2022-06-14T05:41:37Z</time>
      </trkpt>
      <trkpt lat="48.71569" lon="2.10901">
        <ele>145.6</ele>
        <time>2022-06-14T05:41:42Z</time>
      </trkpt>
      <trkpt lat="48.71564" lon="2.1091">
        <ele>145.5</ele>
        <time>2022-06-14T05:41:54Z</time>
      </trkpt>
      <trkpt lat="48.71558" lon="2.10911">
        <ele>146.1</ele>
        <time>2022-06-14T05:41:59Z</time>
      </trkpt>
      <trkpt lat="48.71554" lon="2.10921">
        <ele>146.1</ele>
        <time>2022-06-14T05:42:05Z</time>
      </trkpt>
      <trkpt lat="48.71557" lon="2.10931">
        <ele>145.5</ele>
        <time>2022-06-14T05:42:11Z</time>
      </trkpt>
      <trkpt lat="48.71561" lon="2.10939">
        <ele>145</ele>
        <time>2022-06-14T05:42:17Z</time>
      </trkpt>
      <trkpt lat="48.71567" lon="2.10945">
        <ele>144.4</ele>
        <time>2022-06-14T05:42:33Z</time>
      </trkpt>
      <trkpt lat="48.71568" lon="2.10956">
        <ele>144.1</ele>
        <time>2022-06-14T05:42:39Z</time>
      </trkpt>
      <trkpt lat="48.71572" lon="2.10964">
        <ele>143.8</ele>
        <time>2022-06-14T05:42:47Z</time>
      </trkpt>
      <trkpt lat="48.71574" lon="2.10975">
        <ele>143.5</ele>
        <time>2022-06-14T05:42:52Z</time>
      </trkpt>
      <trkpt lat="48.71576" lon="2.10986">
        <ele>143.4</ele>
        <time>2022-06-14T05:42:57Z</time>
      </trkpt>
      <trkpt lat="48.71574" lon="2.10997">
        <ele>143.4</ele>
        <time>2022-06-14T05:43:03Z</time>
      </trkpt>
      <trkpt lat="48.71571" lon="2.11007">
        <ele>143.5</ele>
        <time>2022-06-14T05:43:09Z</time>
      </trkpt>
      <trkpt lat="48.71569" lon="2.11026">
        <ele>143.5</ele>
        <time>2022-06-14T05:43:14Z</time>
      </trkpt>
      <trkpt lat="48.7157" lon="2.11038">
        <ele>143.6</ele>
        <time>2022-06-14T05:43:19Z</time>
      </trkpt>
      <trkpt lat="48.71567" lon="2.11048">
        <ele>143.5</ele>
        <time>2022-06-14T05:43:28Z</time>
      </trkpt>
      <trkpt lat="48.71563" lon="2.11057">
        <ele>143.3</ele>
        <time>2022-06-14T05:43:34Z</time>
      </trkpt>
      <trkpt lat="48.71569" lon="2.11064">
        <ele>143.6</ele>
        <time>2022-06-14T05:43:43Z</time>
      </trkpt>
      <trkpt lat="48.71574" lon="2.1107">
        <ele>144</ele>
        <time>2022-06-14T05:43:49Z</time>
      </trkpt>
      <trkpt lat="48.7158" lon="2.11078">
        <ele>144.6</ele>
        <time>2022-06-14T05:43:55Z</time>
      </trkpt>
      <trkpt lat="48.71587" lon="2.11087">
        <ele>145.6</ele>
        <time>2022-06-14T05:44:00Z</time>
      </trkpt>
      <trkpt lat="48.71593" lon="2.11096">
        <ele>146.6</ele>
        <time>2022-06-14T05:44:06Z</time>
      </trkpt>
      <trkpt lat="48.71599" lon="2.11102">
        <ele>147.6</ele>
        <time>2022-06-14T05:44:12Z</time>
      </trkpt>
      <trkpt lat="48.71606" lon="2.11102">
        <ele>148.9</ele>
        <time>2022-06-14T05:44:19Z</time>
      </trkpt>
      <trkpt lat="48.71612" lon="2.11099">
        <ele>150</ele>
        <time>2022-06-14T05:44:26Z</time>
      </trkpt>
      <trkpt lat="48.7162" lon="2.11094">
        <ele>151.5</ele>
        <time>2022-06-14T05:44:33Z</time>
      </trkpt>
      <trkpt lat="48.71626" lon="2.11094">
        <ele>152.6</ele>
        <time>2022-06-14T05:44:42Z</time>
      </trkpt>
      <trkpt lat="48.71631" lon="2.11103">
        <ele>153.3</ele>
        <time>2022-06-14T05:44:57Z</time>
      </trkpt>
      <trkpt lat="48.71641" lon="2.11109">
        <ele>155.1</ele>
        <time>2022-06-14T05:45:02Z</time>
      </trkpt>
      <trkpt lat="48.71642" lon="2.11122">
        <ele>155.1</ele>
        <time>2022-06-14T05:45:07Z</time>
      </trkpt>
      <trkpt lat="48.71642" lon="2.11136">
        <ele>154.9</ele>
        <time>2022-06-14T05:45:12Z</time>
      </trkpt>
      <trkpt lat="48.71643" lon="2.11147">
        <ele>155</ele>
        <time>2022-06-14T05:45:17Z</time>
      </trkpt>
      <trkpt lat="48.71644" lon="2.11157">
        <ele>155</ele>
        <time>2022-06-14T05:45:22Z</time>
      </trkpt>
      <trkpt lat="48.71646" lon="2.11167">
        <ele>155.3</ele>
        <time>2022-06-14T05:45:28Z</time>
      </trkpt>
      <trkpt lat="48.71651" lon="2.11177">
        <ele>156.2</ele>
        <time>2022-06-14T05:45:34Z</time>
      </trkpt>
      <trkpt lat="48.71658" lon="2.11183">
        <ele>157.6</ele>
        <time>2022-06-14T05:46:01Z</time>
      </trkpt>
      <trkpt lat="48.71659" lon="2.11195">
        <ele>157.9</ele>
        <time>2022-06-14T05:46:07Z</time>
      </trkpt>
      <trkpt lat="48.71659" lon="2.11205">
        <ele>158</ele>
        <time>2022-06-14T05:46:13Z</time>
      </trkpt>
      <trkpt lat="48.71661" lon="2.11215">
        <ele>158.4</ele>
        <time>2022-06-14T05:46:21Z</time>
      </trkpt>
      <trkpt lat="48.71667" lon="2.11219">
        <ele>159.6</ele>
        <time>2022-06-14T05:46:27Z</time>
      </trkpt>
      <trkpt lat="48.71663" lon="2.11228">
        <ele>159</ele>
        <time>2022-06-14T05:46:45Z</time>
      </trkpt>
      <trkpt lat="48.71659" lon="2.11237">
        <ele>158.2</ele>
        <time>2022-06-14T05:46:51Z</time>
      </trkpt>
      <trkpt lat="48.71661" lon="2.11249">
        <ele>158.8</ele>
        <time>2022-06-14T05:46:57Z</time>
      </trkpt>
      <trkpt lat="48.7166" lon="2.1126">
        <ele>158.7</ele>
        <time>2022-06-14T05:47:02Z</time>
      </trkpt>
      <trkpt lat="48.71659" lon="2.11273">
        <ele>158.6</ele>
        <time>2022-06-14T05:47:07Z</time>
      </trkpt>
      <trkpt lat="48.71657" lon="2.11286">
        <ele>158.2</ele>
        <time>2022-06-14T05:47:12Z</time>
      </trkpt>
      <trkpt lat="48.71658" lon="2.11295">
        <ele>158.6</ele>
        <time>2022-06-14T05:47:17Z</time>
      </trkpt>
      <trkpt lat="48.71654" lon="2.11306">
        <ele>157.7</ele>
        <time>2022-06-14T05:47:23Z</time>
      </trkpt>
      <trkpt lat="48.71654" lon="2.11318">
        <ele>157.8</ele>
        <time>2022-06-14T05:47:28Z</time>
      </trkpt>
      <trkpt lat="48.71651" lon="2.11329">
        <ele>157.2</ele>
        <time>2022-06-14T05:47:33Z</time>
      </trkpt>
      <trkpt lat="48.71648" lon="2.11343">
        <ele>156.5</ele>
        <time>2022-06-14T05:47:38Z</time>
      </trkpt>
      <trkpt lat="48.71647" lon="2.11353">
        <ele>156.2</ele>
        <time>2022-06-14T05:47:43Z</time>
      </trkpt>
      <trkpt lat="48.71641" lon="2.11362">
        <ele>154.7</ele>
        <time>2022-06-14T05:47:48Z</time>
      </trkpt>
      <trkpt lat="48.71636" lon="2.11377">
        <ele>153.5</ele>
        <time>2022-06-14T05:47:53Z</time>
      </trkpt>
      <trkpt lat="48.71631" lon="2.11387">
        <ele>152.3</ele>
        <time>2022-06-14T05:47:58Z</time>
      </trkpt>
      <trkpt lat="48.71625" lon="2.11397">
        <ele>151</ele>
        <time>2022-06-14T05:48:03Z</time>
      </trkpt>
      <trkpt lat="48.71619" lon="2.11405">
        <ele>149.7</ele>
        <time>2022-06-14T05:48:08Z</time>
      </trkpt>
      <trkpt lat="48.71614" lon="2.11413">
        <ele>148.6</ele>
        <time>2022-06-14T05:48:13Z</time>
      </trkpt>
      <trkpt lat="48.71608" lon="2.11421">
        <ele>147.3</ele>
        <time>2022-06-14T05:48:18Z</time>
      </trkpt>
      <trkpt lat="48.71598" lon="2.1143">
        <ele>144.9</ele>
        <time>2022-06-14T05:48:23Z</time>
      </trkpt>
      <trkpt lat="48.71591" lon="2.11435">
        <ele>143.3</ele>
        <time>2022-06-14T05:48:28Z</time>
      </trkpt>
      <trkpt lat="48.71585" lon="2.11443">
        <ele>141.7</ele>
        <time>2022-06-14T05:48:33Z</time>
      </trkpt>
      <trkpt lat="48.71577" lon="2.11452">
        <ele>139.5</ele>
        <time>2022-06-14T05:48:38Z</time>
      </trkpt>
      <trkpt lat="48.71569" lon="2.11458">
        <ele>137.3</ele>
        <time>2022-06-14T05:48:43Z</time>
      </trkpt>
      <trkpt lat="48.71563" lon="2.11467">
        <ele>135.5</ele>
        <time>2022-06-14T05:48:48Z</time>
      </trkpt>
      <trkpt lat="48.71556" lon="2.11476">
        <ele>133.3</ele>
        <time>2022-06-14T05:48:53Z</time>
      </trkpt>
      <trkpt lat="48.7155" lon="2.11481">
        <ele>131.5</ele>
        <time>2022-06-14T05:48:58Z</time>
      </trkpt>
      <trkpt lat="48.71544" lon="2.11477">
        <ele>130.1</ele>
        <time>2022-06-14T05:49:06Z</time>
      </trkpt>
      <trkpt lat="48.71538" lon="2.1147">
        <ele>128.8</ele>
        <time>2022-06-14T05:49:15Z</time>
      </trkpt>
      <trkpt lat="48.7153" lon="2.11465">
        <ele>126.9</ele>
        <time>2022-06-14T05:49:20Z</time>
      </trkpt>
      <trkpt lat="48.71526" lon="2.11456">
        <ele>126.3</ele>
        <time>2022-06-14T05:49:25Z</time>
      </trkpt>
      <trkpt lat="48.71522" lon="2.11445">
        <ele>125.8</ele>
        <time>2022-06-14T05:49:30Z</time>
      </trkpt>
      <trkpt lat="48.71516" lon="2.11434">
        <ele>124.9</ele>
        <time>2022-06-14T05:49:35Z</time>
      </trkpt>
      <trkpt lat="48.71509" lon="2.11431">
        <ele>123.4</ele>
        <time>2022-06-14T05:49:40Z</time>
      </trkpt>
      <trkpt lat="48.71505" lon="2.11423">
        <ele>122.8</ele>
        <time>2022-06-14T05:49:45Z</time>
      </trkpt>
      <trkpt lat="48.71498" lon="2.11431">
        <ele>121.3</ele>
        <time>2022-06-14T05:50:06Z</time>
      </trkpt>
      <trkpt lat="48.71497" lon="2.11441">
        <ele>120.8</ele>
        <time>2022-06-14T05:50:20Z</time>
      </trkpt>
      <trkpt lat="48.71489" lon="2.11453">
        <ele>120.6</ele>
        <time>2022-06-14T05:50:48Z</time>
      </trkpt>
      <trkpt lat="48.71488" lon="2.11463">
        <ele>120.1</ele>
        <time>2022-06-14T05:51:00Z</time>
      </trkpt>
      <trkpt lat="48.71487" lon="2.11474">
        <ele>119.4</ele>
        <time>2022-06-14T05:51:10Z</time>
      </trkpt>
      <trkpt lat="48.71481" lon="2.11479">
        <ele>119.4</ele>
        <time>2022-06-14T05:51:18Z</time>
      </trkpt>
      <trkpt lat="48.71467" lon="2.11482">
        <ele>120</ele>
        <time>2022-06-14T05:51:38Z</time>
      </trkpt>
      <trkpt lat="48.71471" lon="2.11474">
        <ele>120.4</ele>
        <time>2022-06-14T05:51:49Z</time>
      </trkpt>
      <trkpt lat="48.71466" lon="2.11466">
        <ele>121.3</ele>
        <time>2022-06-14T05:52:00Z</time>
      </trkpt>
      <trkpt lat="48.71464" lon="2.11457">
        <ele>122.2</ele>
        <time>2022-06-14T05:52:09Z</time>
      </trkpt>
      <trkpt lat="48.71461" lon="2.11448">
        <ele>123.2</ele>
        <time>2022-06-14T05:52:15Z</time>
      </trkpt>
      <trkpt lat="48.71454" lon="2.11443">
        <ele>124.1</ele>
        <time>2022-06-14T05:52:25Z</time>
      </trkpt>
      <trkpt lat="48.71448" lon="2.1144">
        <ele>124.9</ele>
        <time>2022-06-14T05:52:30Z</time>
      </trkpt>
      <trkpt lat="48.71441" lon="2.1144">
        <ele>125.5</ele>
        <time>2022-06-14T05:52:38Z</time>
      </trkpt>
      <trkpt lat="48.71434" lon="2.1144">
        <ele>126</ele>
        <time>2022-06-14T05:52:44Z</time>
      </trkpt>
      <trkpt lat="48.71429" lon="2.11433">
        <ele>127.2</ele>
        <time>2022-06-14T05:52:55Z</time>
      </trkpt>
      <trkpt lat="48.71423" lon="2.11426">
        <ele>128.4</ele>
        <time>2022-06-14T05:53:00Z</time>
      </trkpt>
      <trkpt lat="48.71424" lon="2.1144">
        <ele>126.9</ele>
        <time>2022-06-14T05:53:18Z</time>
      </trkpt>
      <trkpt lat="48.71431" lon="2.11444">
        <ele>125.9</ele>
        <time>2022-06-14T05:53:23Z</time>
      </trkpt>
      <trkpt lat="48.71435" lon="2.11451">
        <ele>124.9</ele>
        <time>2022-06-14T05:53:28Z</time>
      </trkpt>
      <trkpt lat="48.71432" lon="2.1146">
        <ele>124.2</ele>
        <time>2022-06-14T05:53:40Z</time>
      </trkpt>
      <trkpt lat="48.71434" lon="2.1147">
        <ele>123.1</ele>
        <time>2022-06-14T05:53:45Z</time>
      </trkpt>
      <trkpt lat="48.71438" lon="2.11479">
        <ele>122</ele>
        <time>2022-06-14T05:53:50Z</time>
      </trkpt>
      <trkpt lat="48.71443" lon="2.11489">
        <ele>120.8</ele>
        <time>2022-06-14T05:53:55Z</time>
      </trkpt>
      <trkpt lat="48.71446" lon="2.115">
        <ele>119.6</ele>
        <time>2022-06-14T05:54:00Z</time>
      </trkpt>
      <trkpt lat="48.71447" lon="2.11511">
        <ele>118.7</ele>
        <time>2022-06-14T05:54:05Z</time>
      </trkpt>
      <trkpt lat="48.71449" lon="2.11524">
        <ele>117.6</ele>
        <time>2022-06-14T05:54:10Z</time>
      </trkpt>
      <trkpt lat="48.71449" lon="2.11534">
        <ele>116.8</ele>
        <time>2022-06-14T05:54:17Z</time>
      </trkpt>
      <trkpt lat="48.71456" lon="2.11539">
        <ele>116.1</ele>
        <time>2022-06-14T05:54:23Z</time>
      </trkpt>
      <trkpt lat="48.7146" lon="2.11548">
        <ele>115.2</ele>
        <time>2022-06-14T05:54:28Z</time>
      </trkpt>
      <trkpt lat="48.71463" lon="2.11559">
        <ele>114.1</ele>
        <time>2022-06-14T05:54:33Z</time>
      </trkpt>
      <trkpt lat="48.71461" lon="2.11575">
        <ele>113</ele>
        <time>2022-06-14T05:54:38Z</time>
      </trkpt>
      <trkpt lat="48.71457" lon="2.11593">
        <ele>111.8</ele>
        <time>2022-06-14T05:54:43Z</time>
      </trkpt>
      <trkpt lat="48.71458" lon="2.11611">
        <ele>110.2</ele>
        <time>2022-06-14T05:54:48Z</time>
      </trkpt>
      <trkpt lat="48.71457" lon="2.11629">
        <ele>108.7</ele>
        <time>2022-06-14T05:54:53Z</time>
      </trkpt>
      <trkpt lat="48.71457" lon="2.11642">
        <ele>107.7</ele>
        <time>2022-06-14T05:54:58Z</time>
      </trkpt>
      <trkpt lat="48.7146" lon="2.11654">
        <ele>106.5</ele>
        <time>2022-06-14T05:55:03Z</time>
      </trkpt>
      <trkpt lat="48.71466" lon="2.11662">
        <ele>105.4</ele>
        <time>2022-06-14T05:55:13Z</time>
      </trkpt>
      <trkpt lat="48.71469" lon="2.11672">
        <ele>104.2</ele>
        <time>2022-06-14T05:55:20Z</time>
      </trkpt>
      <trkpt lat="48.71473" lon="2.11685">
        <ele>102.4</ele>
        <time>2022-06-14T05:55:25Z</time>
      </trkpt>
      <trkpt lat="48.71475" lon="2.11697">
        <ele>100.9</ele>
        <time>2022-06-14T05:55:30Z</time>
      </trkpt>
      <trkpt lat="48.71479" lon="2.11711">
        <ele>98.9</ele>
        <time>2022-06-14T05:55:35Z</time>
      </trkpt>
      <trkpt lat="48.71482" lon="2.1172">
        <ele>97.7</ele>
        <time>2022-06-14T05:55:40Z</time>
      </trkpt>
      <trkpt lat="48.71487" lon="2.11728">
        <ele>96.4</ele>
        <time>2022-06-14T05:55:45Z</time>
      </trkpt>
      <trkpt lat="48.71492" lon="2.11738">
        <ele>94.9</ele>
        <time>2022-06-14T05:55:50Z</time>
      </trkpt>
      <trkpt lat="48.71497" lon="2.1175">
        <ele>93.2</ele>
        <time>2022-06-14T05:55:55Z</time>
      </trkpt>
      <trkpt lat="48.715" lon="2.1176">
        <ele>92.6</ele>
        <time>2022-06-14T05:56:00Z</time>
      </trkpt>
      <trkpt lat="48.71504" lon="2.1177">
        <ele>92.7</ele>
        <time>2022-06-14T05:56:06Z</time>
      </trkpt>
      <trkpt lat="48.71507" lon="2.11779">
        <ele>92.6</ele>
        <time>2022-06-14T05:56:11Z</time>
      </trkpt>
      <trkpt lat="48.71498" lon="2.11783">
        <ele>91.9</ele>
        <time>2022-06-14T05:56:16Z</time>
      </trkpt>
      <trkpt lat="48.71491" lon="2.11789">
        <ele>92.1</ele>
        <time>2022-06-14T05:56:24Z</time>
      </trkpt>
      <trkpt lat="48.71493" lon="2.11779">
        <ele>92.4</ele>
        <time>2022-06-14T05:57:35Z</time>
      </trkpt>
      <trkpt lat="48.71498" lon="2.11787">
        <ele>91.8</ele>
        <time>2022-06-14T05:57:41Z</time>
      </trkpt>
      <trkpt lat="48.71501" lon="2.11797">
        <ele>91.4</ele>
        <time>2022-06-14T05:57:46Z</time>
      </trkpt>
      <trkpt lat="48.71502" lon="2.11807">
        <ele>91</ele>
        <time>2022-06-14T05:57:54Z</time>
      </trkpt>
      <trkpt lat="48.715" lon="2.11817">
        <ele>90.6</ele>
        <time>2022-06-14T05:58:01Z</time>
      </trkpt>
      <trkpt lat="48.71498" lon="2.11828">
        <ele>90.3</ele>
        <time>2022-06-14T05:58:06Z</time>
      </trkpt>
      <trkpt lat="48.71499" lon="2.1184">
        <ele>89.8</ele>
        <time>2022-06-14T05:58:11Z</time>
      </trkpt>
      <trkpt lat="48.71501" lon="2.11852">
        <ele>89.3</ele>
        <time>2022-06-14T05:58:16Z</time>
      </trkpt>
      <trkpt lat="48.71505" lon="2.11864">
        <ele>88.9</ele>
        <time>2022-06-14T05:58:21Z</time>
      </trkpt>
      <trkpt lat="48.71509" lon="2.11874">
        <ele>88.5</ele>
        <time>2022-06-14T05:58:26Z</time>
      </trkpt>
      <trkpt lat="48.71511" lon="2.11887">
        <ele>88</ele>
        <time>2022-06-14T05:58:31Z</time>
      </trkpt>
      <trkpt lat="48.71511" lon="2.11897">
        <ele>87.6</ele>
        <time>2022-06-14T05:59:07Z</time>
      </trkpt>
      <trkpt lat="48.71514" lon="2.11907">
        <ele>87.2</ele>
        <time>2022-06-14T05:59:12Z</time>
      </trkpt>
      <trkpt lat="48.71513" lon="2.11919">
        <ele>86.8</ele>
        <time>2022-06-14T05:59:17Z</time>
      </trkpt>
      <trkpt lat="48.71515" lon="2.11931">
        <ele>86.4</ele>
        <time>2022-06-14T05:59:22Z</time>
      </trkpt>
      <trkpt lat="48.71521" lon="2.11937">
        <ele>86.1</ele>
        <time>2022-06-14T05:59:30Z</time>
      </trkpt>
      <trkpt lat="48.7152" lon="2.1195">
        <ele>85.8</ele>
        <time>2022-06-14T05:59:51Z</time>
      </trkpt>
      <trkpt lat="48.71524" lon="2.1196">
        <ele>85.5</ele>
        <time>2022-06-14T05:59:56Z</time>
      </trkpt>
      <trkpt lat="48.71525" lon="2.11972">
        <ele>85.1</ele>
        <time>2022-06-14T06:00:02Z</time>
      </trkpt>
      <trkpt lat="48.71526" lon="2.11982">
        <ele>84.8</ele>
        <time>2022-06-14T06:00:07Z</time>
      </trkpt>
      <trkpt lat="48.71529" lon="2.11994">
        <ele>84.5</ele>
        <time>2022-06-14T06:00:12Z</time>
      </trkpt>
      <trkpt lat="48.71527" lon="2.12008">
        <ele>84.2</ele>
        <time>2022-06-14T06:00:17Z</time>
      </trkpt>
      <trkpt lat="48.71531" lon="2.12019">
        <ele>84.1</ele>
        <time>2022-06-14T06:00:22Z</time>
      </trkpt>
      <trkpt lat="48.71535" lon="2.12032">
        <ele>84</ele>
        <time>2022-06-14T06:00:27Z</time>
      </trkpt>
      <trkpt lat="48.71536" lon="2.12045">
        <ele>83.9</ele>
        <time>2022-06-14T06:00:32Z</time>
      </trkpt>
      <trkpt lat="48.71538" lon="2.12058">
        <ele>83.8</ele>
        <time>2022-06-14T06:00:37Z</time>
      </trkpt>
      <trkpt lat="48.71537" lon="2.12067">
        <ele>83.6</ele>
        <time>2022-06-14T06:00:42Z</time>
      </trkpt>
      <trkpt lat="48.71538" lon="2.12079">
        <ele>83.5</ele>
        <time>2022-06-14T06:00:47Z</time>
      </trkpt>
      <trkpt lat="48.71539" lon="2.12093">
        <ele>83.3</ele>
        <time>2022-06-14T06:00:52Z</time>
      </trkpt>
      <trkpt lat="48.71539" lon="2.12104">
        <ele>83.2</ele>
        <time>2022-06-14T06:00:57Z</time>
      </trkpt>
      <trkpt lat="48.7154" lon="2.12116">
        <ele>83.1</ele>
        <time>2022-06-14T06:01:02Z</time>
      </trkpt>
      <trkpt lat="48.71543" lon="2.12126">
        <ele>83</ele>
        <time>2022-06-14T06:01:07Z</time>
      </trkpt>
      <trkpt lat="48.71546" lon="2.12137">
        <ele>83</ele>
        <time>2022-06-14T06:01:13Z</time>
      </trkpt>
      <trkpt lat="48.71552" lon="2.12146">
        <ele>83.1</ele>
        <time>2022-06-14T06:01:18Z</time>
      </trkpt>
      <trkpt lat="48.71558" lon="2.12155">
        <ele>83.2</ele>
        <time>2022-06-14T06:01:23Z</time>
      </trkpt>
      <trkpt lat="48.71564" lon="2.12165">
        <ele>83.3</ele>
        <time>2022-06-14T06:01:28Z</time>
      </trkpt>
      <trkpt lat="48.7157" lon="2.12172">
        <ele>83.9</ele>
        <time>2022-06-14T06:01:33Z</time>
      </trkpt>
      <trkpt lat="48.71575" lon="2.12183">
        <ele>85</ele>
        <time>2022-06-14T06:01:38Z</time>
      </trkpt>
      <trkpt lat="48.7158" lon="2.12191">
        <ele>85.9</ele>
        <time>2022-06-14T06:01:44Z</time>
      </trkpt>
      <trkpt lat="48.71585" lon="2.12197">
        <ele>86.6</ele>
        <time>2022-06-14T06:02:15Z</time>
      </trkpt>
      <trkpt lat="48.71592" lon="2.12204">
        <ele>87.2</ele>
        <time>2022-06-14T06:02:20Z</time>
      </trkpt>
      <trkpt lat="48.71598" lon="2.12215">
        <ele>88.2</ele>
        <time>2022-06-14T06:02:25Z</time>
      </trkpt>
      <trkpt lat="48.716" lon="2.12226">
        <ele>89.1</ele>
        <time>2022-06-14T06:02:31Z</time>
      </trkpt>
      <trkpt lat="48.71601" lon="2.12239">
        <ele>90.3</ele>
        <time>2022-06-14T06:02:46Z</time>
      </trkpt>
      <trkpt lat="48.71608" lon="2.12236">
        <ele>90.1</ele>
        <time>2022-06-14T06:03:01Z</time>
      </trkpt>
      <trkpt lat="48.71617" lon="2.12233">
        <ele>89.9</ele>
        <time>2022-06-14T06:03:06Z</time>
      </trkpt>
      <trkpt lat="48.71627" lon="2.12231">
        <ele>89.8</ele>
        <time>2022-06-14T06:03:11Z</time>
      </trkpt>
      <trkpt lat="48.71635" lon="2.12232">
        <ele>90</ele>
        <time>2022-06-14T06:03:16Z</time>
      </trkpt>
      <trkpt lat="48.71645" lon="2.12228">
        <ele>89.7</ele>
        <time>2022-06-14T06:03:21Z</time>
      </trkpt>
      <trkpt lat="48.71652" lon="2.12225">
        <ele>89.5</ele>
        <time>2022-06-14T06:03:26Z</time>
      </trkpt>
      <trkpt lat="48.71659" lon="2.12222">
        <ele>89.3</ele>
        <time>2022-06-14T06:03:31Z</time>
      </trkpt>
      <trkpt lat="48.71666" lon="2.12217">
        <ele>88.8</ele>
        <time>2022-06-14T06:03:36Z</time>
      </trkpt>
      <trkpt lat="48.71671" lon="2.1221">
        <ele>88.1</ele>
        <time>2022-06-14T06:03:41Z</time>
      </trkpt>
      <trkpt lat="48.71678" lon="2.12203">
        <ele>87.4</ele>
        <time>2022-06-14T06:03:46Z</time>
      </trkpt>
      <trkpt lat="48.71684" lon="2.12196">
        <ele>86.6</ele>
        <time>2022-06-14T06:03:53Z</time>
      </trkpt>
      <trkpt lat="48.71685" lon="2.12183">
        <ele>85.3</ele>
        <time>2022-06-14T06:03:58Z</time>
      </trkpt>
      <trkpt lat="48.71686" lon="2.12173">
        <ele>84.4</ele>
        <time>2022-06-14T06:04:31Z</time>
      </trkpt>
      <trkpt lat="48.71692" lon="2.12164">
        <ele>83.6</ele>
        <time>2022-06-14T06:04:36Z</time>
      </trkpt>
      <trkpt lat="48.71695" lon="2.12155">
        <ele>83.4</ele>
        <time>2022-06-14T06:04:41Z</time>
      </trkpt>
      <trkpt lat="48.717" lon="2.12146">
        <ele>83.1</ele>
        <time>2022-06-14T06:04:46Z</time>
      </trkpt>
      <trkpt lat="48.71704" lon="2.12137">
        <ele>82.8</ele>
        <time>2022-06-14T06:04:52Z</time>
      </trkpt>
      <trkpt lat="48.71711" lon="2.12136">
        <ele>82.7</ele>
        <time>2022-06-14T06:05:17Z</time>
      </trkpt>
      <trkpt lat="48.71717" lon="2.12127">
        <ele>82.4</ele>
        <time>2022-06-14T06:05:23Z</time>
      </trkpt>
      <trkpt lat="48.71722" lon="2.12119">
        <ele>82.2</ele>
        <time>2022-06-14T06:05:28Z</time>
      </trkpt>
      <trkpt lat="48.71725" lon="2.12111">
        <ele>82</ele>
        <time>2022-06-14T06:05:34Z</time>
      </trkpt>
      <trkpt lat="48.7173" lon="2.12103">
        <ele>81.7</ele>
        <time>2022-06-14T06:05:40Z</time>
      </trkpt>
      <trkpt lat="48.71737" lon="2.12096">
        <ele>81.5</ele>
        <time>2022-06-14T06:05:45Z</time>
      </trkpt>
      <trkpt lat="48.71743" lon="2.12089">
        <ele>81.2</ele>
        <time>2022-06-14T06:05:50Z</time>
      </trkpt>
      <trkpt lat="48.71752" lon="2.12085">
        <ele>81.1</ele>
        <time>2022-06-14T06:05:55Z</time>
      </trkpt>
      <trkpt lat="48.71756" lon="2.12078">
        <ele>81.3</ele>
        <time>2022-06-14T06:06:06Z</time>
      </trkpt>
      <trkpt lat="48.71763" lon="2.12074">
        <ele>81.7</ele>
        <time>2022-06-14T06:06:13Z</time>
      </trkpt>
      <trkpt lat="48.71771" lon="2.12075">
        <ele>81.9</ele>
        <time>2022-06-14T06:06:20Z</time>
      </trkpt>
      <trkpt lat="48.71777" lon="2.12078">
        <ele>82.1</ele>
        <time>2022-06-14T06:06:29Z</time>
      </trkpt>
      <trkpt lat="48.71781" lon="2.12086">
        <ele>82.2</ele>
        <time>2022-06-14T06:07:11Z</time>
      </trkpt>
      <trkpt lat="48.71786" lon="2.12096">
        <ele>82.5</ele>
        <time>2022-06-14T06:07:17Z</time>
      </trkpt>
      <trkpt lat="48.7179" lon="2.12103">
        <ele>82.7</ele>
        <time>2022-06-14T06:07:24Z</time>
      </trkpt>
      <trkpt lat="48.71795" lon="2.12111">
        <ele>82.9</ele>
        <time>2022-06-14T06:07:32Z</time>
      </trkpt>
      <trkpt lat="48.718" lon="2.1212">
        <ele>83.2</ele>
        <time>2022-06-14T06:07:39Z</time>
      </trkpt>
      <trkpt lat="48.71802" lon="2.1213">
        <ele>83.3</ele>
        <time>2022-06-14T06:07:45Z</time>
      </trkpt>
      <trkpt lat="48.71803" lon="2.12144">
        <ele>83.4</ele>
        <time>2022-06-14T06:07:50Z</time>
      </trkpt>
      <trkpt lat="48.71803" lon="2.12156">
        <ele>83.5</ele>
        <time>2022-06-14T06:07:55Z</time>
      </trkpt>
      <trkpt lat="48.71808" lon="2.12167">
        <ele>83.7</ele>
        <time>2022-06-14T06:08:00Z</time>
      </trkpt>
      <trkpt lat="48.7181" lon="2.12177">
        <ele>84.4</ele>
        <time>2022-06-14T06:08:06Z</time>
      </trkpt>
      <trkpt lat="48.71814" lon="2.12188">
        <ele>85.2</ele>
        <time>2022-06-14T06:08:11Z</time>
      </trkpt>
      <trkpt lat="48.71818" lon="2.12196">
        <ele>85.8</ele>
        <time>2022-06-14T06:08:19Z</time>
      </trkpt>
      <trkpt lat="48.71821" lon="2.12204">
        <ele>86.3</ele>
        <time>2022-06-14T06:09:15Z</time>
      </trkpt>
      <trkpt lat="48.71826" lon="2.12212">
        <ele>86.8</ele>
        <time>2022-06-14T06:09:20Z</time>
      </trkpt>
      <trkpt lat="48.71832" lon="2.12219">
        <ele>87.2</ele>
        <time>2022-06-14T06:09:25Z</time>
      </trkpt>
      <trkpt lat="48.71837" lon="2.12227">
        <ele>87.7</ele>
        <time>2022-06-14T06:09:31Z</time>
      </trkpt>
      <trkpt lat="48.71842" lon="2.12234">
        <ele>88.3</ele>
        <time>2022-06-14T06:09:36Z</time>
      </trkpt>
      <trkpt lat="48.7185" lon="2.12241">
        <ele>88.9</ele>
        <time>2022-06-14T06:09:41Z</time>
      </trkpt>
      <trkpt lat="48.71856" lon="2.1225">
        <ele>89.5</ele>
        <time>2022-06-14T06:09:46Z</time>
      </trkpt>
      <trkpt lat="48.71862" lon="2.12257">
        <ele>91</ele>
        <time>2022-06-14T06:09:51Z</time>
      </trkpt>
      <trkpt lat="48.71867" lon="2.12264">
        <ele>92.5</ele>
        <time>2022-06-14T06:09:56Z</time>
      </trkpt>
      <trkpt lat="48.71872" lon="2.12273">
        <ele>94.2</ele>
        <time>2022-06-14T06:10:01Z</time>
      </trkpt>
      <trkpt lat="48.71876" lon="2.12282">
        <ele>96</ele>
        <time>2022-06-14T06:10:06Z</time>
      </trkpt>
      <trkpt lat="48.71881" lon="2.12289">
        <ele>97.3</ele>
        <time>2022-06-14T06:10:11Z</time>
      </trkpt>
      <trkpt lat="48.71888" lon="2.1229">
        <ele>97.5</ele>
        <time>2022-06-14T06:10:16Z</time>
      </trkpt>
      <trkpt lat="48.71895" lon="2.12295">
        <ele>98.5</ele>
        <time>2022-06-14T06:10:21Z</time>
      </trkpt>
      <trkpt lat="48.71899" lon="2.12303">
        <ele>99.9</ele>
        <time>2022-06-14T06:10:26Z</time>
      </trkpt>
      <trkpt lat="48.71906" lon="2.12301">
        <ele>99.5</ele>
        <time>2022-06-14T06:10:31Z</time>
      </trkpt>
      <trkpt lat="48.71914" lon="2.12302">
        <ele>99.7</ele>
        <time>2022-06-14T06:10:36Z</time>
      </trkpt>
      <trkpt lat="48.71922" lon="2.12306">
        <ele>100.2</ele>
        <time>2022-06-14T06:10:41Z</time>
      </trkpt>
      <trkpt lat="48.71928" lon="2.1231">
        <ele>100.6</ele>
        <time>2022-06-14T06:10:46Z</time>
      </trkpt>
      <trkpt lat="48.71936" lon="2.12314">
        <ele>100.9</ele>
        <time>2022-06-14T06:10:51Z</time>
      </trkpt>
      <trkpt lat="48.71944" lon="2.12318">
        <ele>101.1</ele>
        <time>2022-06-14T06:10:56Z</time>
      </trkpt>
      <trkpt lat="48.7195" lon="2.12324">
        <ele>101.7</ele>
        <time>2022-06-14T06:11:01Z</time>
      </trkpt>
      <trkpt lat="48.71958" lon="2.12328">
        <ele>101.8</ele>
        <time>2022-06-14T06:11:06Z</time>
      </trkpt>
      <trkpt lat="48.71965" lon="2.12333">
        <ele>102.1</ele>
        <time>2022-06-14T06:11:11Z</time>
      </trkpt>
      <trkpt lat="48.71971" lon="2.12337">
        <ele>102.5</ele>
        <time>2022-06-14T06:11:16Z</time>
      </trkpt>
      <trkpt lat="48.71978" lon="2.12341">
        <ele>102.8</ele>
        <time>2022-06-14T06:11:22Z</time>
      </trkpt>
      <trkpt lat="48.71985" lon="2.12348">
        <ele>103.7</ele>
        <time>2022-06-14T06:11:27Z</time>
      </trkpt>
      <trkpt lat="48.71992" lon="2.12356">
        <ele>104.7</ele>
        <time>2022-06-14T06:11:32Z</time>
      </trkpt>
      <trkpt lat="48.71998" lon="2.12361">
        <ele>105.1</ele>
        <time>2022-06-14T06:11:39Z</time>
      </trkpt>
      <trkpt lat="48.72004" lon="2.12365">
        <ele>105.3</ele>
        <time>2022-06-14T06:12:07Z</time>
      </trkpt>
      <trkpt lat="48.7201" lon="2.12373">
        <ele>106.1</ele>
        <time>2022-06-14T06:12:13Z</time>
      </trkpt>
      <trkpt lat="48.72015" lon="2.1238">
        <ele>106.8</ele>
        <time>2022-06-14T06:12:18Z</time>
      </trkpt>
      <trkpt lat="48.72018" lon="2.12389">
        <ele>108.1</ele>
        <time>2022-06-14T06:12:24Z</time>
      </trkpt>
      <trkpt lat="48.72024" lon="2.12398">
        <ele>109</ele>
        <time>2022-06-14T06:12:29Z</time>
      </trkpt>
      <trkpt lat="48.72032" lon="2.12406">
        <ele>109.4</ele>
        <time>2022-06-14T06:12:34Z</time>
      </trkpt>
      <trkpt lat="48.7204" lon="2.1241">
        <ele>109.1</ele>
        <time>2022-06-14T06:12:39Z</time>
      </trkpt>
      <trkpt lat="48.72046" lon="2.12409">
        <ele>108.3</ele>
        <time>2022-06-14T06:12:57Z</time>
      </trkpt>
      <trkpt lat="48.72054" lon="2.12408">
        <ele>107.2</ele>
        <time>2022-06-14T06:13:03Z</time>
      </trkpt>
      <trkpt lat="48.72061" lon="2.12408">
        <ele>106.3</ele>
        <time>2022-06-14T06:13:08Z</time>
      </trkpt>
      <trkpt lat="48.72068" lon="2.12408">
        <ele>105.5</ele>
        <time>2022-06-14T06:13:14Z</time>
      </trkpt>
      <trkpt lat="48.72078" lon="2.12407">
        <ele>104.2</ele>
        <time>2022-06-14T06:13:19Z</time>
      </trkpt>
      <trkpt lat="48.72086" lon="2.12404">
        <ele>103.2</ele>
        <time>2022-06-14T06:13:24Z</time>
      </trkpt>
      <trkpt lat="48.72093" lon="2.12402">
        <ele>103.1</ele>
        <time>2022-06-14T06:13:41Z</time>
      </trkpt>
      <trkpt lat="48.72099" lon="2.12409">
        <ele>104.2</ele>
        <time>2022-06-14T06:13:48Z</time>
      </trkpt>
      <trkpt lat="48.72107" lon="2.12411">
        <ele>104.7</ele>
        <time>2022-06-14T06:13:55Z</time>
      </trkpt>
      <trkpt lat="48.72115" lon="2.1241">
        <ele>104.7</ele>
        <time>2022-06-14T06:14:00Z</time>
      </trkpt>
      <trkpt lat="48.72124" lon="2.12409">
        <ele>104.8</ele>
        <time>2022-06-14T06:14:05Z</time>
      </trkpt>
      <trkpt lat="48.72131" lon="2.12409">
        <ele>104.9</ele>
        <time>2022-06-14T06:14:11Z</time>
      </trkpt>
      <trkpt lat="48.72137" lon="2.12413">
        <ele>105.7</ele>
        <time>2022-06-14T06:14:17Z</time>
      </trkpt>
      <trkpt lat="48.72143" lon="2.12417">
        <ele>106.5</ele>
        <time>2022-06-14T06:14:23Z</time>
      </trkpt>
      <trkpt lat="48.7215" lon="2.12419">
        <ele>107</ele>
        <time>2022-06-14T06:14:32Z</time>
      </trkpt>
      <trkpt lat="48.72155" lon="2.12428">
        <ele>108.9</ele>
        <time>2022-06-14T06:15:25Z</time>
      </trkpt>
      <trkpt lat="48.72161" lon="2.12435">
        <ele>110.4</ele>
        <time>2022-06-14T06:15:31Z</time>
      </trkpt>
      <trkpt lat="48.72169" lon="2.12434">
        <ele>110.2</ele>
        <time>2022-06-14T06:15:36Z</time>
      </trkpt>
      <trkpt lat="48.72178" lon="2.1243">
        <ele>108.7</ele>
        <time>2022-06-14T06:15:41Z</time>
      </trkpt>
      <trkpt lat="48.72186" lon="2.12425">
        <ele>107.3</ele>
        <time>2022-06-14T06:15:46Z</time>
      </trkpt>
      <trkpt lat="48.72192" lon="2.12422">
        <ele>106.4</ele>
        <time>2022-06-14T06:15:51Z</time>
      </trkpt>
      <trkpt lat="48.72203" lon="2.1243">
        <ele>107</ele>
        <time>2022-06-14T06:17:54Z</time>
      </trkpt>
      <trkpt lat="48.72209" lon="2.12435">
        <ele>107.3</ele>
        <time>2022-06-14T06:18:00Z</time>
      </trkpt>
      <trkpt lat="48.72216" lon="2.12437">
        <ele>107.1</ele>
        <time>2022-06-14T06:18:07Z</time>
      </trkpt>
      <trkpt lat="48.72223" lon="2.12446">
        <ele>107.8</ele>
        <time>2022-06-14T06:18:12Z</time>
      </trkpt>
      <trkpt lat="48.72227" lon="2.12454">
        <ele>108.6</ele>
        <time>2022-06-14T06:18:17Z</time>
      </trkpt>
      <trkpt lat="48.72232" lon="2.12463">
        <ele>109.4</ele>
        <time>2022-06-14T06:18:23Z</time>
      </trkpt>
      <trkpt lat="48.72237" lon="2.1247">
        <ele>109.8</ele>
        <time>2022-06-14T06:18:28Z</time>
      </trkpt>
      <trkpt lat="48.72248" lon="2.12473">
        <ele>109</ele>
        <time>2022-06-14T06:18:33Z</time>
      </trkpt>
      <trkpt lat="48.72254" lon="2.12475">
        <ele>108.7</ele>
        <time>2022-06-14T06:18:38Z</time>
      </trkpt>
      <trkpt lat="48.72261" lon="2.12476">
        <ele>108.3</ele>
        <time>2022-06-14T06:18:49Z</time>
      </trkpt>
      <trkpt lat="48.72268" lon="2.12473">
        <ele>107.5</ele>
        <time>2022-06-14T06:18:56Z</time>
      </trkpt>
      <trkpt lat="48.72274" lon="2.12467">
        <ele>106.4</ele>
        <time>2022-06-14T06:19:02Z</time>
      </trkpt>
      <trkpt lat="48.7228" lon="2.12457">
        <ele>104.9</ele>
        <time>2022-06-14T06:19:14Z</time>
      </trkpt>
      <trkpt lat="48.72285" lon="2.12449">
        <ele>103.7</ele>
        <time>2022-06-14T06:19:21Z</time>
      </trkpt>
      <trkpt lat="48.7229" lon="2.12443">
        <ele>102.8</ele>
        <time>2022-06-14T06:19:26Z</time>
      </trkpt>
      <trkpt lat="48.72298" lon="2.12436">
        <ele>101.6</ele>
        <time>2022-06-14T06:19:31Z</time>
      </trkpt>
      <trkpt lat="48.72304" lon="2.12429">
        <ele>100.6</ele>
        <time>2022-06-14T06:19:36Z</time>
      </trkpt>
      <trkpt lat="48.72311" lon="2.12423">
        <ele>99.7</ele>
        <time>2022-06-14T06:19:41Z</time>
      </trkpt>
      <trkpt lat="48.7232" lon="2.12413">
        <ele>98.6</ele>
        <time>2022-06-14T06:19:46Z</time>
      </trkpt>
      <trkpt lat="48.72316" lon="2.12404">
        <ele>98.7</ele>
        <time>2022-06-14T06:19:52Z</time>
      </trkpt>
      <trkpt lat="48.72314" lon="2.12394">
        <ele>98.6</ele>
        <time>2022-06-14T06:19:59Z</time>
      </trkpt>
      <trkpt lat="48.7231" lon="2.12386">
        <ele>98.6</ele>
        <time>2022-06-14T06:20:04Z</time>
      </trkpt>
      <trkpt lat="48.72305" lon="2.12376">
        <ele>98.4</ele>
        <time>2022-06-14T06:20:09Z</time>
      </trkpt>
      <trkpt lat="48.72299" lon="2.12367">
        <ele>98</ele>
        <time>2022-06-14T06:20:14Z</time>
      </trkpt>
      <trkpt lat="48.72293" lon="2.12358">
        <ele>97.6</ele>
        <time>2022-06-14T06:20:19Z</time>
      </trkpt>
      <trkpt lat="48.72288" lon="2.12346">
        <ele>96.9</ele>
        <time>2022-06-14T06:20:24Z</time>
      </trkpt>
      <trkpt lat="48.72286" lon="2.12335">
        <ele>96.2</ele>
        <time>2022-06-14T06:20:29Z</time>
      </trkpt>
      <trkpt lat="48.72286" lon="2.12324">
        <ele>97.1</ele>
        <time>2022-06-14T06:20:34Z</time>
      </trkpt>
      <trkpt lat="48.72279" lon="2.12316">
        <ele>97.4</ele>
        <time>2022-06-14T06:20:39Z</time>
      </trkpt>
      <trkpt lat="48.72273" lon="2.12306">
        <ele>97.9</ele>
        <time>2022-06-14T06:20:44Z</time>
      </trkpt>
      <trkpt lat="48.72269" lon="2.12295">
        <ele>98.7</ele>
        <time>2022-06-14T06:20:49Z</time>
      </trkpt>
      <trkpt lat="48.72262" lon="2.12288">
        <ele>98.8</ele>
        <time>2022-06-14T06:20:54Z</time>
      </trkpt>
      <trkpt lat="48.72256" lon="2.12281">
        <ele>98.9</ele>
        <time>2022-06-14T06:20:59Z</time>
      </trkpt>
      <trkpt lat="48.72249" lon="2.12277">
        <ele>98.7</ele>
        <time>2022-06-14T06:21:05Z</time>
      </trkpt>
      <trkpt lat="48.72244" lon="2.1227">
        <ele>99</ele>
        <time>2022-06-14T06:21:17Z</time>
      </trkpt>
      <trkpt lat="48.72235" lon="2.12274">
        <ele>98.3</ele>
        <time>2022-06-14T06:21:22Z</time>
      </trkpt>
      <trkpt lat="48.7223" lon="2.12268">
        <ele>98.5</ele>
        <time>2022-06-14T06:21:27Z</time>
      </trkpt>
      <trkpt lat="48.72224" lon="2.12262">
        <ele>98.6</ele>
        <time>2022-06-14T06:21:34Z</time>
      </trkpt>
      <trkpt lat="48.72216" lon="2.12258">
        <ele>98.4</ele>
        <time>2022-06-14T06:21:52Z</time>
      </trkpt>
      <trkpt lat="48.72211" lon="2.12251">
        <ele>98.6</ele>
        <time>2022-06-14T06:21:58Z</time>
      </trkpt>
      <trkpt lat="48.72205" lon="2.12246">
        <ele>99.2</ele>
        <time>2022-06-14T06:22:03Z</time>
      </trkpt>
      <trkpt lat="48.72198" lon="2.12242">
        <ele>99.7</ele>
        <time>2022-06-14T06:22:08Z</time>
      </trkpt>
      <trkpt lat="48.72192" lon="2.1224">
        <ele>99.8</ele>
        <time>2022-06-14T06:22:25Z</time>
      </trkpt>
      <trkpt lat="48.72187" lon="2.12247">
        <ele>97.9</ele>
        <time>2022-06-14T06:22:30Z</time>
      </trkpt>
      <trkpt lat="48.72175" lon="2.12247">
        <ele>97.1</ele>
        <time>2022-06-14T06:22:35Z</time>
      </trkpt>
      <trkpt lat="48.72166" lon="2.12244">
        <ele>97.2</ele>
        <time>2022-06-14T06:22:40Z</time>
      </trkpt>
      <trkpt lat="48.72159" lon="2.12241">
        <ele>97.4</ele>
        <time>2022-06-14T06:22:47Z</time>
      </trkpt>
      <trkpt lat="48.72151" lon="2.1224">
        <ele>97.1</ele>
        <time>2022-06-14T06:22:52Z</time>
      </trkpt>
      <trkpt lat="48.72145" lon="2.12238">
        <ele>97.1</ele>
        <time>2022-06-14T06:22:57Z</time>
      </trkpt>
      <trkpt lat="48.72135" lon="2.12239">
        <ele>96.4</ele>
        <time>2022-06-14T06:23:02Z</time>
      </trkpt>
      <trkpt lat="48.72128" lon="2.1224">
        <ele>95.8</ele>
        <time>2022-06-14T06:23:07Z</time>
      </trkpt>
      <trkpt lat="48.72121" lon="2.12241">
        <ele>95.2</ele>
        <time>2022-06-14T06:23:16Z</time>
      </trkpt>
      <trkpt lat="48.72112" lon="2.12245">
        <ele>94.1</ele>
        <time>2022-06-14T06:23:21Z</time>
      </trkpt>
      <trkpt lat="48.72103" lon="2.12242">
        <ele>94.1</ele>
        <time>2022-06-14T06:23:26Z</time>
      </trkpt>
      <trkpt lat="48.72095" lon="2.12244">
        <ele>93.4</ele>
        <time>2022-06-14T06:23:31Z</time>
      </trkpt>
      <trkpt lat="48.72087" lon="2.12243">
        <ele>93</ele>
        <time>2022-06-14T06:23:38Z</time>
      </trkpt>
      <trkpt lat="48.7208" lon="2.1224">
        <ele>93.1</ele>
        <time>2022-06-14T06:23:44Z</time>
      </trkpt>
      <trkpt lat="48.72076" lon="2.12231">
        <ele>94</ele>
        <time>2022-06-14T06:23:52Z</time>
      </trkpt>
      <trkpt lat="48.72065" lon="2.12234">
        <ele>93.3</ele>
        <time>2022-06-14T06:23:57Z</time>
      </trkpt>
      <trkpt lat="48.72056" lon="2.12232">
        <ele>93.2</ele>
        <time>2022-06-14T06:24:02Z</time>
      </trkpt>
      <trkpt lat="48.72048" lon="2.12229">
        <ele>93.1</ele>
        <time>2022-06-14T06:24:07Z</time>
      </trkpt>
      <trkpt lat="48.7204" lon="2.12228">
        <ele>92.9</ele>
        <time>2022-06-14T06:24:12Z</time>
      </trkpt>
      <trkpt lat="48.72031" lon="2.12222">
        <ele>92.8</ele>
        <time>2022-06-14T06:24:17Z</time>
      </trkpt>
      <trkpt lat="48.72023" lon="2.12221">
        <ele>92.5</ele>
        <time>2022-06-14T06:24:22Z</time>
      </trkpt>
      <trkpt lat="48.72014" lon="2.12219">
        <ele>92.1</ele>
        <time>2022-06-14T06:24:27Z</time>
      </trkpt>
      <trkpt lat="48.72005" lon="2.12214">
        <ele>91.7</ele>
        <time>2022-06-14T06:24:32Z</time>
      </trkpt>
      <trkpt lat="48.71999" lon="2.12208">
        <ele>91.5</ele>
        <time>2022-06-14T06:24:37Z</time>
      </trkpt>
      <trkpt lat="48.71989" lon="2.12205">
        <ele>91.3</ele>
        <time>2022-06-14T06:24:42Z</time>
      </trkpt>
      <trkpt lat="48.7198" lon="2.12201">
        <ele>91.2</ele>
        <time>2022-06-14T06:24:47Z</time>
      </trkpt>
      <trkpt lat="48.71976" lon="2.12193">
        <ele>91.1</ele>
        <time>2022-06-14T06:24:52Z</time>
      </trkpt>
      <trkpt lat="48.71971" lon="2.12187">
        <ele>91</ele>
        <time>2022-06-14T06:24:57Z</time>
      </trkpt>
      <trkpt lat="48.71962" lon="2.12185">
        <ele>90.7</ele>
        <time>2022-06-14T06:25:17Z</time>
      </trkpt>
      <trkpt lat="48.71956" lon="2.1218">
        <ele>90.5</ele>
        <time>2022-06-14T06:25:29Z</time>
      </trkpt>
      <trkpt lat="48.71949" lon="2.12177">
        <ele>90.3</ele>
        <time>2022-06-14T06:25:34Z</time>
      </trkpt>
      <trkpt lat="48.71941" lon="2.12177">
        <ele>90</ele>
        <time>2022-06-14T06:25:39Z</time>
      </trkpt>
      <trkpt lat="48.71932" lon="2.1217">
        <ele>89.6</ele>
        <time>2022-06-14T06:25:44Z</time>
      </trkpt>
      <trkpt lat="48.7193" lon="2.1216">
        <ele>89.3</ele>
        <time>2022-06-14T06:25:50Z</time>
      </trkpt>
      <trkpt lat="48.71927" lon="2.1217">
        <ele>89.4</ele>
        <time>2022-06-14T06:26:07Z</time>
      </trkpt>
      <trkpt lat="48.71921" lon="2.12177">
        <ele>89.4</ele>
        <time>2022-06-14T06:26:12Z</time>
      </trkpt>
      <trkpt lat="48.71915" lon="2.12183">
        <ele>89.3</ele>
        <time>2022-06-14T06:26:17Z</time>
      </trkpt>
      <trkpt lat="48.71912" lon="2.12194">
        <ele>89.4</ele>
        <time>2022-06-14T06:26:25Z</time>
      </trkpt>
      <trkpt lat="48.71906" lon="2.122">
        <ele>89.3</ele>
        <time>2022-06-14T06:26:30Z</time>
      </trkpt>
      <trkpt lat="48.71902" lon="2.12209">
        <ele>89.4</ele>
        <time>2022-06-14T06:26:41Z</time>
      </trkpt>
      <trkpt lat="48.71906" lon="2.12199">
        <ele>89.3</ele>
        <time>2022-06-14T06:26:48Z</time>
      </trkpt>
      <trkpt lat="48.71912" lon="2.12191">
        <ele>89.4</ele>
        <time>2022-06-14T06:26:53Z</time>
      </trkpt>
      <trkpt lat="48.71916" lon="2.12181">
        <ele>89.3</ele>
        <time>2022-06-14T06:26:59Z</time>
      </trkpt>
      <trkpt lat="48.71922" lon="2.12176">
        <ele>89.4</ele>
        <time>2022-06-14T06:27:05Z</time>
      </trkpt>
      <trkpt lat="48.71927" lon="2.12166">
        <ele>89.3</ele>
        <time>2022-06-14T06:27:11Z</time>
      </trkpt>
      <trkpt lat="48.71928" lon="2.12155">
        <ele>89</ele>
        <time>2022-06-14T06:27:22Z</time>
      </trkpt>
      <trkpt lat="48.71929" lon="2.12144">
        <ele>88.7</ele>
        <time>2022-06-14T06:27:30Z</time>
      </trkpt>
      <trkpt lat="48.71929" lon="2.12131">
        <ele>88.3</ele>
        <time>2022-06-14T06:27:42Z</time>
      </trkpt>
      <trkpt lat="48.71934" lon="2.12124">
        <ele>88.3</ele>
        <time>2022-06-14T06:27:52Z</time>
      </trkpt>
      <trkpt lat="48.71939" lon="2.12119">
        <ele>88.4</ele>
        <time>2022-06-14T06:28:42Z</time>
      </trkpt>
      <trkpt lat="48.71941" lon="2.12109">
        <ele>88.2</ele>
        <time>2022-06-14T06:28:53Z</time>
      </trkpt>
      <trkpt lat="48.71945" lon="2.12098">
        <ele>88.1</ele>
        <time>2022-06-14T06:29:07Z</time>
      </trkpt>
      <trkpt lat="48.7195" lon="2.12091">
        <ele>88.2</ele>
        <time>2022-06-14T06:29:14Z</time>
      </trkpt>
      <trkpt lat="48.71954" lon="2.1208">
        <ele>88.1</ele>
        <time>2022-06-14T06:29:19Z</time>
      </trkpt>
      <trkpt lat="48.71959" lon="2.12073">
        <ele>88.2</ele>
        <time>2022-06-14T06:29:24Z</time>
      </trkpt>
      <trkpt lat="48.71965" lon="2.12066">
        <ele>88.2</ele>
        <time>2022-06-14T06:29:29Z</time>
      </trkpt>
      <trkpt lat="48.7197" lon="2.12059">
        <ele>88.2</ele>
        <time>2022-06-14T06:29:35Z</time>
      </trkpt>
      <trkpt lat="48.71974" lon="2.1205">
        <ele>87.9</ele>
        <time>2022-06-14T06:29:40Z</time>
      </trkpt>
      <trkpt lat="48.71979" lon="2.1204">
        <ele>87.7</ele>
        <time>2022-06-14T06:29:45Z</time>
      </trkpt>
      <trkpt lat="48.71983" lon="2.1203">
        <ele>87.3</ele>
        <time>2022-06-14T06:29:50Z</time>
      </trkpt>
      <trkpt lat="48.71986" lon="2.12021">
        <ele>86.9</ele>
        <time>2022-06-14T06:29:55Z</time>
      </trkpt>
      <trkpt lat="48.71991" lon="2.12009">
        <ele>86.4</ele>
        <time>2022-06-14T06:30:00Z</time>
      </trkpt>
      <trkpt lat="48.71995" lon="2.11997">
        <ele>85.9</ele>
        <time>2022-06-14T06:30:05Z</time>
      </trkpt>
      <trkpt lat="48.72" lon="2.11987">
        <ele>85.8</ele>
        <time>2022-06-14T06:30:10Z</time>
      </trkpt>
      <trkpt lat="48.72004" lon="2.11978">
        <ele>86.4</ele>
        <time>2022-06-14T06:30:15Z</time>
      </trkpt>
      <trkpt lat="48.72007" lon="2.11969">
        <ele>86.8</ele>
        <time>2022-06-14T06:30:21Z</time>
      </trkpt>
      <trkpt lat="48.7201" lon="2.11958">
        <ele>87.1</ele>
        <time>2022-06-14T06:30:27Z</time>
      </trkpt>
      <trkpt lat="48.72016" lon="2.11945">
        <ele>87.8</ele>
        <time>2022-06-14T06:30:32Z</time>
      </trkpt>
      <trkpt lat="48.72019" lon="2.11936">
        <ele>88</ele>
        <time>2022-06-14T06:30:37Z</time>
      </trkpt>
      <trkpt lat="48.72023" lon="2.11928">
        <ele>88.4</ele>
        <time>2022-06-14T06:30:45Z</time>
      </trkpt>
      <trkpt lat="48.72029" lon="2.1192">
        <ele>88.9</ele>
        <time>2022-06-14T06:30:50Z</time>
      </trkpt>
      <trkpt lat="48.72036" lon="2.11919">
        <ele>89.8</ele>
        <time>2022-06-14T06:31:14Z</time>
      </trkpt>
      <trkpt lat="48.7203" lon="2.11912">
        <ele>89</ele>
        <time>2022-06-14T06:31:30Z</time>
      </trkpt>
      <trkpt lat="48.7203" lon="2.11901">
        <ele>89</ele>
        <time>2022-06-14T06:31:57Z</time>
      </trkpt>
      <trkpt lat="48.72033" lon="2.11891">
        <ele>89.4</ele>
        <time>2022-06-14T06:32:02Z</time>
      </trkpt>
      <trkpt lat="48.72034" lon="2.11878">
        <ele>89.5</ele>
        <time>2022-06-14T06:32:07Z</time>
      </trkpt>
      <trkpt lat="48.72042" lon="2.11875">
        <ele>90.3</ele>
        <time>2022-06-14T06:32:12Z</time>
      </trkpt>
      <trkpt lat="48.72046" lon="2.11867">
        <ele>90.6</ele>
        <time>2022-06-14T06:32:18Z</time>
      </trkpt>
      <trkpt lat="48.72049" lon="2.11856">
        <ele>90.8</ele>
        <time>2022-06-14T06:32:23Z</time>
      </trkpt>
      <trkpt lat="48.72052" lon="2.11846">
        <ele>90.9</ele>
        <time>2022-06-14T06:32:29Z</time>
      </trkpt>
      <trkpt lat="48.72052" lon="2.11836">
        <ele>90.8</ele>
        <time>2022-06-14T06:32:36Z</time>
      </trkpt>
      <trkpt lat="48.7205" lon="2.11827">
        <ele>90.6</ele>
        <time>2022-06-14T06:32:44Z</time>
      </trkpt>
      <trkpt lat="48.72047" lon="2.11818">
        <ele>90.5</ele>
        <time>2022-06-14T06:32:58Z</time>
      </trkpt>
      <trkpt lat="48.72045" lon="2.11807">
        <ele>90.4</ele>
        <time>2022-06-14T06:33:05Z</time>
      </trkpt>
      <trkpt lat="48.72042" lon="2.11795">
        <ele>90.3</ele>
        <time>2022-06-14T06:33:10Z</time>
      </trkpt>
      <trkpt lat="48.72044" lon="2.11785">
        <ele>90.4</ele>
        <time>2022-06-14T06:33:16Z</time>
      </trkpt>
      <trkpt lat="48.72048" lon="2.11772">
        <ele>90.8</ele>
        <time>2022-06-14T06:33:22Z</time>
      </trkpt>
      <trkpt lat="48.7205" lon="2.11763">
        <ele>90.9</ele>
        <time>2022-06-14T06:33:27Z</time>
      </trkpt>
      <trkpt lat="48.72052" lon="2.11748">
        <ele>91.1</ele>
        <time>2022-06-14T06:33:48Z</time>
      </trkpt>
      <trkpt lat="48.7205" lon="2.11737">
        <ele>91</ele>
        <time>2022-06-14T06:33:53Z</time>
      </trkpt>
      <trkpt lat="48.72051" lon="2.11727">
        <ele>91</ele>
        <time>2022-06-14T06:33:59Z</time>
      </trkpt>
      <trkpt lat="48.7205" lon="2.11716">
        <ele>90.9</ele>
        <time>2022-06-14T06:34:05Z</time>
      </trkpt>
      <trkpt lat="48.72052" lon="2.11706">
        <ele>91</ele>
        <time>2022-06-14T06:34:10Z</time>
      </trkpt>
      <trkpt lat="48.72054" lon="2.11696">
        <ele>91</ele>
        <time>2022-06-14T06:34:16Z</time>
      </trkpt>
      <trkpt lat="48.72056" lon="2.11684">
        <ele>91.1</ele>
        <time>2022-06-14T06:34:22Z</time>
      </trkpt>
      <trkpt lat="48.72059" lon="2.11673">
        <ele>91.2</ele>
        <time>2022-06-14T06:34:27Z</time>
      </trkpt>
      <trkpt lat="48.72061" lon="2.11663">
        <ele>91.2</ele>
        <time>2022-06-14T06:34:33Z</time>
      </trkpt>
      <trkpt lat="48.72064" lon="2.11653">
        <ele>91.1</ele>
        <time>2022-06-14T06:34:38Z</time>
      </trkpt>
      <trkpt lat="48.72067" lon="2.11642">
        <ele>91.1</ele>
        <time>2022-06-14T06:34:45Z</time>
      </trkpt>
      <trkpt lat="48.7207" lon="2.11634">
        <ele>91</ele>
        <time>2022-06-14T06:34:54Z</time>
      </trkpt>
      <trkpt lat="48.72075" lon="2.11627">
        <ele>90.9</ele>
        <time>2022-06-14T06:35:00Z</time>
      </trkpt>
      <trkpt lat="48.7208" lon="2.11617">
        <ele>90.8</ele>
        <time>2022-06-14T06:35:05Z</time>
      </trkpt>
      <trkpt lat="48.72085" lon="2.1161">
        <ele>90.8</ele>
        <time>2022-06-14T06:35:10Z</time>
      </trkpt>
      <trkpt lat="48.72088" lon="2.11601">
        <ele>90.9</ele>
        <time>2022-06-14T06:35:15Z</time>
      </trkpt>
      <trkpt lat="48.72094" lon="2.1159">
        <ele>91.2</ele>
        <time>2022-06-14T06:35:20Z</time>
      </trkpt>
      <trkpt lat="48.72097" lon="2.1158">
        <ele>91.3</ele>
        <time>2022-06-14T06:35:25Z</time>
      </trkpt>
      <trkpt lat="48.72101" lon="2.11571">
        <ele>91.7</ele>
        <time>2022-06-14T06:35:31Z</time>
      </trkpt>
      <trkpt lat="48.72108" lon="2.11566">
        <ele>92.4</ele>
        <time>2022-06-14T06:35:36Z</time>
      </trkpt>
      <trkpt lat="48.72117" lon="2.11557">
        <ele>93.2</ele>
        <time>2022-06-14T06:35:41Z</time>
      </trkpt>
      <trkpt lat="48.7212" lon="2.11546">
        <ele>93.4</ele>
        <time>2022-06-14T06:35:46Z</time>
      </trkpt>
      <trkpt lat="48.72124" lon="2.11538">
        <ele>93.7</ele>
        <time>2022-06-14T06:35:51Z</time>
      </trkpt>
      <trkpt lat="48.72127" lon="2.11528">
        <ele>93.8</ele>
        <time>2022-06-14T06:35:56Z</time>
      </trkpt>
      <trkpt lat="48.72128" lon="2.11514">
        <ele>93.8</ele>
        <time>2022-06-14T06:36:01Z</time>
      </trkpt>
      <trkpt lat="48.72129" lon="2.11504">
        <ele>93.8</ele>
        <time>2022-06-14T06:36:07Z</time>
      </trkpt>
      <trkpt lat="48.72127" lon="2.11494">
        <ele>93.6</ele>
        <time>2022-06-14T06:36:14Z</time>
      </trkpt>
      <trkpt lat="48.72132" lon="2.11489">
        <ele>93.8</ele>
        <time>2022-06-14T06:36:49Z</time>
      </trkpt>
      <trkpt lat="48.72136" lon="2.1148">
        <ele>93.9</ele>
        <time>2022-06-14T06:36:56Z</time>
      </trkpt>
      <trkpt lat="48.72139" lon="2.11468">
        <ele>93.8</ele>
        <time>2022-06-14T06:37:01Z</time>
      </trkpt>
      <trkpt lat="48.72142" lon="2.11458">
        <ele>93.8</ele>
        <time>2022-06-14T06:37:07Z</time>
      </trkpt>
      <trkpt lat="48.72144" lon="2.11447">
        <ele>93.6</ele>
        <time>2022-06-14T06:37:13Z</time>
      </trkpt>
      <trkpt lat="48.7215" lon="2.11439">
        <ele>93.5</ele>
        <time>2022-06-14T06:37:21Z</time>
      </trkpt>
      <trkpt lat="48.72157" lon="2.11431">
        <ele>93.4</ele>
        <time>2022-06-14T06:37:26Z</time>
      </trkpt>
      <trkpt lat="48.72165" lon="2.1142">
        <ele>93.1</ele>
        <time>2022-06-14T06:37:31Z</time>
      </trkpt>
      <trkpt lat="48.72167" lon="2.1141">
        <ele>92.9</ele>
        <time>2022-06-14T06:37:36Z</time>
      </trkpt>
      <trkpt lat="48.72174" lon="2.11408">
        <ele>93.4</ele>
        <time>2022-06-14T06:37:42Z</time>
      </trkpt>
      <trkpt lat="48.72179" lon="2.11401">
        <ele>93.6</ele>
        <time>2022-06-14T06:38:07Z</time>
      </trkpt>
      <trkpt lat="48.72185" lon="2.11397">
        <ele>94</ele>
        <time>2022-06-14T06:38:13Z</time>
      </trkpt>
      <trkpt lat="48.72191" lon="2.11392">
        <ele>94.2</ele>
        <time>2022-06-14T06:38:18Z</time>
      </trkpt>
      <trkpt lat="48.72195" lon="2.11384">
        <ele>94.1</ele>
        <time>2022-06-14T06:38:25Z</time>
      </trkpt>
      <trkpt lat="48.72201" lon="2.11378">
        <ele>94.2</ele>
        <time>2022-06-14T06:38:30Z</time>
      </trkpt>
      <trkpt lat="48.72204" lon="2.11368">
        <ele>93.8</ele>
        <time>2022-06-14T06:38:36Z</time>
      </trkpt>
      <trkpt lat="48.72209" lon="2.11358">
        <ele>93.5</ele>
        <time>2022-06-14T06:38:41Z</time>
      </trkpt>
      <trkpt lat="48.72214" lon="2.1135">
        <ele>93.2</ele>
        <time>2022-06-14T06:38:46Z</time>
      </trkpt>
      <trkpt lat="48.7222" lon="2.1134">
        <ele>92.7</ele>
        <time>2022-06-14T06:38:53Z</time>
      </trkpt>
      <trkpt lat="48.72228" lon="2.11328">
        <ele>92.2</ele>
        <time>2022-06-14T06:38:58Z</time>
      </trkpt>
      <trkpt lat="48.72236" lon="2.11315">
        <ele>91.7</ele>
        <time>2022-06-14T06:39:03Z</time>
      </trkpt>
      <trkpt lat="48.72242" lon="2.11305">
        <ele>91.2</ele>
        <time>2022-06-14T06:39:08Z</time>
      </trkpt>
      <trkpt lat="48.72245" lon="2.11296">
        <ele>90.7</ele>
        <time>2022-06-14T06:39:13Z</time>
      </trkpt>
      <trkpt lat="48.72251" lon="2.11288">
        <ele>90.4</ele>
        <time>2022-06-14T06:39:20Z</time>
      </trkpt>
      <trkpt lat="48.7226" lon="2.11282">
        <ele>90.9</ele>
        <time>2022-06-14T06:39:25Z</time>
      </trkpt>
      <trkpt lat="48.72269" lon="2.11275">
        <ele>91.3</ele>
        <time>2022-06-14T06:39:30Z</time>
      </trkpt>
      <trkpt lat="48.72268" lon="2.11264">
        <ele>90.4</ele>
        <time>2022-06-14T06:39:40Z</time>
      </trkpt>
      <trkpt lat="48.72263" lon="2.11272">
        <ele>90.5</ele>
        <time>2022-06-14T06:39:50Z</time>
      </trkpt>
      <trkpt lat="48.72259" lon="2.11264">
        <ele>89.6</ele>
        <time>2022-06-14T06:40:07Z</time>
      </trkpt>
      <trkpt lat="48.72262" lon="2.11254">
        <ele>89.1</ele>
        <time>2022-06-14T06:40:17Z</time>
      </trkpt>
      <trkpt lat="48.72269" lon="2.11255">
        <ele>89.8</ele>
        <time>2022-06-14T06:40:32Z</time>
      </trkpt>
      <trkpt lat="48.72275" lon="2.11258">
        <ele>90.5</ele>
        <time>2022-06-14T06:40:37Z</time>
      </trkpt>
      <trkpt lat="48.7228" lon="2.11266">
        <ele>91.5</ele>
        <time>2022-06-14T06:40:44Z</time>
      </trkpt>
      <trkpt lat="48.72286" lon="2.11263">
        <ele>91.8</ele>
        <time>2022-06-14T06:40:49Z</time>
      </trkpt>
      <trkpt lat="48.72282" lon="2.11253">
        <ele>90.6</ele>
        <time>2022-06-14T06:40:56Z</time>
      </trkpt>
      <trkpt lat="48.72278" lon="2.11245">
        <ele>90.1</ele>
        <time>2022-06-14T06:41:04Z</time>
      </trkpt>
      <trkpt lat="48.72278" lon="2.11235">
        <ele>90.3</ele>
        <time>2022-06-14T06:41:09Z</time>
      </trkpt>
      <trkpt lat="48.7228" lon="2.11223">
        <ele>90.7</ele>
        <time>2022-06-14T06:41:14Z</time>
      </trkpt>
      <trkpt lat="48.7228" lon="2.11213">
        <ele>90.9</ele>
        <time>2022-06-14T06:41:19Z</time>
      </trkpt>
      <trkpt lat="48.72282" lon="2.11201">
        <ele>91.2</ele>
        <time>2022-06-14T06:41:24Z</time>
      </trkpt>
      <trkpt lat="48.72277" lon="2.11195">
        <ele>91.1</ele>
        <time>2022-06-14T06:41:31Z</time>
      </trkpt>
      <trkpt lat="48.72269" lon="2.11191">
        <ele>90.8</ele>
        <time>2022-06-14T06:41:37Z</time>
      </trkpt>
      <trkpt lat="48.72263" lon="2.11186">
        <ele>90.8</ele>
        <time>2022-06-14T06:41:42Z</time>
      </trkpt>
      <trkpt lat="48.72256" lon="2.11183">
        <ele>90.6</ele>
        <time>2022-06-14T06:41:50Z</time>
      </trkpt>
      <trkpt lat="48.72263" lon="2.11181">
        <ele>90.9</ele>
        <time>2022-06-14T06:42:21Z</time>
      </trkpt>
      <trkpt lat="48.72269" lon="2.11188">
        <ele>90.9</ele>
        <time>2022-06-14T06:42:27Z</time>
      </trkpt>
      <trkpt lat="48.72276" lon="2.1119">
        <ele>91.1</ele>
        <time>2022-06-14T06:42:32Z</time>
      </trkpt>
      <trkpt lat="48.72282" lon="2.11195">
        <ele>91.3</ele>
        <time>2022-06-14T06:42:39Z</time>
      </trkpt>
      <trkpt lat="48.72282" lon="2.11205">
        <ele>91.1</ele>
        <time>2022-06-14T06:42:44Z</time>
      </trkpt>
      <trkpt lat="48.72281" lon="2.11217">
        <ele>90.8</ele>
        <time>2022-06-14T06:42:49Z</time>
      </trkpt>
      <trkpt lat="48.72279" lon="2.11228">
        <ele>90.5</ele>
        <time>2022-06-14T06:42:54Z</time>
      </trkpt>
      <trkpt lat="48.72278" lon="2.11239">
        <ele>90.2</ele>
        <time>2022-06-14T06:42:59Z</time>
      </trkpt>
      <trkpt lat="48.72282" lon="2.11249">
        <ele>90.3</ele>
        <time>2022-06-14T06:43:05Z</time>
      </trkpt>
      <trkpt lat="48.72288" lon="2.11256">
        <ele>91.3</ele>
        <time>2022-06-14T06:43:13Z</time>
      </trkpt>
      <trkpt lat="48.72294" lon="2.11253">
        <ele>91.5</ele>
        <time>2022-06-14T06:43:20Z</time>
      </trkpt>
      <trkpt lat="48.72296" lon="2.11244">
        <ele>91.4</ele>
        <time>2022-06-14T06:43:29Z</time>
      </trkpt>
      <trkpt lat="48.723" lon="2.11233">
        <ele>91.7</ele>
        <time>2022-06-14T06:43:37Z</time>
      </trkpt>
      <trkpt lat="48.72301" lon="2.11224">
        <ele>91.8</ele>
        <time>2022-06-14T06:43:42Z</time>
      </trkpt>
      <trkpt lat="48.72306" lon="2.11216">
        <ele>92.2</ele>
        <time>2022-06-14T06:43:51Z</time>
      </trkpt>
      <trkpt lat="48.72308" lon="2.11207">
        <ele>92.3</ele>
        <time>2022-06-14T06:43:56Z</time>
      </trkpt>
      <trkpt lat="48.72312" lon="2.11197">
        <ele>92.5</ele>
        <time>2022-06-14T06:44:01Z</time>
      </trkpt>
      <trkpt lat="48.72317" lon="2.1119">
        <ele>92.7</ele>
        <time>2022-06-14T06:44:06Z</time>
      </trkpt>
      <trkpt lat="48.72323" lon="2.11183">
        <ele>92.9</ele>
        <time>2022-06-14T06:44:11Z</time>
      </trkpt>
      <trkpt lat="48.72331" lon="2.11175">
        <ele>93</ele>
        <time>2022-06-14T06:44:16Z</time>
      </trkpt>
      <trkpt lat="48.7234" lon="2.11171">
        <ele>94.2</ele>
        <time>2022-06-14T06:44:21Z</time>
      </trkpt>
      <trkpt lat="48.72348" lon="2.11168">
        <ele>95.5</ele>
        <time>2022-06-14T06:44:26Z</time>
      </trkpt>
      <trkpt lat="48.72356" lon="2.11168">
        <ele>96.8</ele>
        <time>2022-06-14T06:44:32Z</time>
      </trkpt>
      <trkpt lat="48.72364" lon="2.11166">
        <ele>98.1</ele>
        <time>2022-06-14T06:44:37Z</time>
      </trkpt>
      <trkpt lat="48.72373" lon="2.11164">
        <ele>99.6</ele>
        <time>2022-06-14T06:44:42Z</time>
      </trkpt>
      <trkpt lat="48.7238" lon="2.11159">
        <ele>100.6</ele>
        <time>2022-06-14T06:44:47Z</time>
      </trkpt>
      <trkpt lat="48.72388" lon="2.11154">
        <ele>101.6</ele>
        <time>2022-06-14T06:44:52Z</time>
      </trkpt>
      <trkpt lat="48.72396" lon="2.11153">
        <ele>102.8</ele>
        <time>2022-06-14T06:44:57Z</time>
      </trkpt>
      <trkpt lat="48.72404" lon="2.11152">
        <ele>104</ele>
        <time>2022-06-14T06:45:02Z</time>
      </trkpt>
      <trkpt lat="48.7241" lon="2.11147">
        <ele>104.6</ele>
        <time>2022-06-14T06:45:07Z</time>
      </trkpt>
      <trkpt lat="48.72418" lon="2.11139">
        <ele>105.2</ele>
        <time>2022-06-14T06:45:12Z</time>
      </trkpt>
      <trkpt lat="48.72425" lon="2.11131">
        <ele>105.3</ele>
        <time>2022-06-14T06:45:17Z</time>
      </trkpt>
      <trkpt lat="48.72431" lon="2.11124">
        <ele>105.5</ele>
        <time>2022-06-14T06:45:22Z</time>
      </trkpt>
      <trkpt lat="48.72438" lon="2.11116">
        <ele>105.6</ele>
        <time>2022-06-14T06:45:27Z</time>
      </trkpt>
      <trkpt lat="48.72443" lon="2.11108">
        <ele>105.5</ele>
        <time>2022-06-14T06:45:32Z</time>
      </trkpt>
      <trkpt lat="48.72449" lon="2.11102">
        <ele>105.6</ele>
        <time>2022-06-14T06:45:37Z</time>
      </trkpt>
      <trkpt lat="48.72456" lon="2.11095">
        <ele>105.7</ele>
        <time>2022-06-14T06:45:42Z</time>
      </trkpt>
      <trkpt lat="48.7246" lon="2.11086">
        <ele>105.4</ele>
        <time>2022-06-14T06:45:47Z</time>
      </trkpt>
      <trkpt lat="48.72469" lon="2.11078">
        <ele>105.8</ele>
        <time>2022-06-14T06:45:52Z</time>
      </trkpt>
      <trkpt lat="48.72475" lon="2.11073">
        <ele>106.1</ele>
        <time>2022-06-14T06:45:57Z</time>
      </trkpt>
      <trkpt lat="48.72488" lon="2.1106">
        <ele>106.5</ele>
        <time>2022-06-14T06:46:18Z</time>
      </trkpt>
      <trkpt lat="48.72494" lon="2.11053">
        <ele>106.7</ele>
        <time>2022-06-14T06:46:25Z</time>
      </trkpt>
      <trkpt lat="48.72501" lon="2.11046">
        <ele>106.8</ele>
        <time>2022-06-14T06:46:30Z</time>
      </trkpt>
      <trkpt lat="48.72507" lon="2.1104">
        <ele>106.7</ele>
        <time>2022-06-14T06:46:35Z</time>
      </trkpt>
      <trkpt lat="48.72513" lon="2.11036">
        <ele>106.7</ele>
        <time>2022-06-14T06:46:40Z</time>
      </trkpt>
      <trkpt lat="48.72518" lon="2.11029">
        <ele>106.4</ele>
        <time>2022-06-14T06:46:45Z</time>
      </trkpt>
      <trkpt lat="48.7252" lon="2.11017">
        <ele>105.6</ele>
        <time>2022-06-14T06:47:11Z</time>
      </trkpt>
      <trkpt lat="48.72527" lon="2.11012">
        <ele>105.3</ele>
        <time>2022-06-14T06:47:28Z</time>
      </trkpt>
      <trkpt lat="48.72535" lon="2.11006">
        <ele>105</ele>
        <time>2022-06-14T06:47:58Z</time>
      </trkpt>
      <trkpt lat="48.72531" lon="2.11015">
        <ele>105.7</ele>
        <time>2022-06-14T06:48:18Z</time>
      </trkpt>
      <trkpt lat="48.72523" lon="2.11015">
        <ele>105.5</ele>
        <time>2022-06-14T06:48:24Z</time>
      </trkpt>
      <trkpt lat="48.7252" lon="2.11">
        <ele>104.2</ele>
        <time>2022-06-14T06:48:29Z</time>
      </trkpt>
      <trkpt lat="48.72514" lon="2.10992">
        <ele>103.6</ele>
        <time>2022-06-14T06:48:34Z</time>
      </trkpt>
      <trkpt lat="48.72508" lon="2.10984">
        <ele>103.1</ele>
        <time>2022-06-14T06:48:39Z</time>
      </trkpt>
      <trkpt lat="48.72502" lon="2.10979">
        <ele>102.7</ele>
        <time>2022-06-14T06:48:44Z</time>
      </trkpt>
      <trkpt lat="48.72496" lon="2.10973">
        <ele>102.2</ele>
        <time>2022-06-14T06:48:49Z</time>
      </trkpt>
      <trkpt lat="48.72493" lon="2.10965">
        <ele>101.5</ele>
        <time>2022-06-14T06:48:56Z</time>
      </trkpt>
      <trkpt lat="48.72487" lon="2.10957">
        <ele>100.8</ele>
        <time>2022-06-14T06:49:01Z</time>
      </trkpt>
      <trkpt lat="48.72481" lon="2.10949">
        <ele>100.1</ele>
        <time>2022-06-14T06:49:06Z</time>
      </trkpt>
      <trkpt lat="48.72475" lon="2.10942">
        <ele>99.6</ele>
        <time>2022-06-14T06:49:12Z</time>
      </trkpt>
      <trkpt lat="48.72466" lon="2.10935">
        <ele>98.9</ele>
        <time>2022-06-14T06:49:17Z</time>
      </trkpt>
      <trkpt lat="48.72467" lon="2.10924">
        <ele>98.5</ele>
        <time>2022-06-14T06:49:30Z</time>
      </trkpt>
      <trkpt lat="48.72473" lon="2.10919">
        <ele>98.5</ele>
        <time>2022-06-14T06:49:57Z</time>
      </trkpt>
      <trkpt lat="48.7248" lon="2.10914">
        <ele>98.6</ele>
        <time>2022-06-14T06:50:04Z</time>
      </trkpt>
      <trkpt lat="48.72488" lon="2.10912">
        <ele>98.8</ele>
        <time>2022-06-14T06:50:09Z</time>
      </trkpt>
      <trkpt lat="48.72496" lon="2.10915">
        <ele>98.9</ele>
        <time>2022-06-14T06:50:14Z</time>
      </trkpt>
      <trkpt lat="48.72503" lon="2.10918">
        <ele>99</ele>
        <time>2022-06-14T06:50:20Z</time>
      </trkpt>
      <trkpt lat="48.72508" lon="2.10912">
        <ele>98.8</ele>
        <time>2022-06-14T06:50:27Z</time>
      </trkpt>
      <trkpt lat="48.72508" lon="2.10902">
        <ele>98.9</ele>
        <time>2022-06-14T06:50:37Z</time>
      </trkpt>
      <trkpt lat="48.72515" lon="2.10898">
        <ele>98.7</ele>
        <time>2022-06-14T06:50:48Z</time>
      </trkpt>
      <trkpt lat="48.72521" lon="2.10892">
        <ele>98.5</ele>
        <time>2022-06-14T06:50:58Z</time>
      </trkpt>
      <trkpt lat="48.72528" lon="2.1089">
        <ele>98.2</ele>
        <time>2022-06-14T06:51:06Z</time>
      </trkpt>
      <trkpt lat="48.72534" lon="2.10886">
        <ele>98</ele>
        <time>2022-06-14T06:51:14Z</time>
      </trkpt>
      <trkpt lat="48.72541" lon="2.10884">
        <ele>97.6</ele>
        <time>2022-06-14T06:51:21Z</time>
      </trkpt>
      <trkpt lat="48.72543" lon="2.10874">
        <ele>97.4</ele>
        <time>2022-06-14T06:51:51Z</time>
      </trkpt>
      <trkpt lat="48.7255" lon="2.10872">
        <ele>97</ele>
        <time>2022-06-14T06:51:56Z</time>
      </trkpt>
      <trkpt lat="48.72557" lon="2.1087">
        <ele>96.7</ele>
        <time>2022-06-14T06:52:01Z</time>
      </trkpt>
      <trkpt lat="48.72567" lon="2.10867">
        <ele>96.1</ele>
        <time>2022-06-14T06:52:06Z</time>
      </trkpt>
      <trkpt lat="48.72574" lon="2.10864">
        <ele>95.6</ele>
        <time>2022-06-14T06:52:11Z</time>
      </trkpt>
      <trkpt lat="48.7258" lon="2.10858">
        <ele>95.1</ele>
        <time>2022-06-14T06:52:17Z</time>
      </trkpt>
      <trkpt lat="48.72586" lon="2.1085">
        <ele>94.6</ele>
        <time>2022-06-14T06:52:22Z</time>
      </trkpt>
      <trkpt lat="48.72592" lon="2.10845">
        <ele>94.4</ele>
        <time>2022-06-14T06:52:28Z</time>
      </trkpt>
      <trkpt lat="48.72596" lon="2.10837">
        <ele>94</ele>
        <time>2022-06-14T06:52:35Z</time>
      </trkpt>
      <trkpt lat="48.72602" lon="2.1083">
        <ele>94</ele>
        <time>2022-06-14T06:52:41Z</time>
      </trkpt>
      <trkpt lat="48.72609" lon="2.10829">
        <ele>93.9</ele>
        <time>2022-06-14T06:52:51Z</time>
      </trkpt>
      <trkpt lat="48.72616" lon="2.10827">
        <ele>93.9</ele>
        <time>2022-06-14T06:52:58Z</time>
      </trkpt>
      <trkpt lat="48.72622" lon="2.10823">
        <ele>93.9</ele>
        <time>2022-06-14T06:53:07Z</time>
      </trkpt>
      <trkpt lat="48.72629" lon="2.1082">
        <ele>93.8</ele>
        <time>2022-06-14T06:53:12Z</time>
      </trkpt>
      <trkpt lat="48.72637" lon="2.10816">
        <ele>93.7</ele>
        <time>2022-06-14T06:53:17Z</time>
      </trkpt>
      <trkpt lat="48.72644" lon="2.10809">
        <ele>93.5</ele>
        <time>2022-06-14T06:53:22Z</time>
      </trkpt>
      <trkpt lat="48.7265" lon="2.10806">
        <ele>93.3</ele>
        <time>2022-06-14T06:53:27Z</time>
      </trkpt>
      <trkpt lat="48.72657" lon="2.108">
        <ele>93</ele>
        <time>2022-06-14T06:53:32Z</time>
      </trkpt>
      <trkpt lat="48.72664" lon="2.10791">
        <ele>92.6</ele>
        <time>2022-06-14T06:53:37Z</time>
      </trkpt>
      <trkpt lat="48.72669" lon="2.10785">
        <ele>92.4</ele>
        <time>2022-06-14T06:53:42Z</time>
      </trkpt>
      <trkpt lat="48.72677" lon="2.1078">
        <ele>92.4</ele>
        <time>2022-06-14T06:53:47Z</time>
      </trkpt>
      <trkpt lat="48.72683" lon="2.1078">
        <ele>92.5</ele>
        <time>2022-06-14T06:53:55Z</time>
      </trkpt>
      <trkpt lat="48.7269" lon="2.10783">
        <ele>92.6</ele>
        <time>2022-06-14T06:54:00Z</time>
      </trkpt>
      <trkpt lat="48.72696" lon="2.10781">
        <ele>92.6</ele>
        <time>2022-06-14T06:54:05Z</time>
      </trkpt>
      <trkpt lat="48.72695" lon="2.10769">
        <ele>92.4</ele>
        <time>2022-06-14T06:54:12Z</time>
      </trkpt>
      <trkpt lat="48.72698" lon="2.10759">
        <ele>92.2</ele>
        <time>2022-06-14T06:54:19Z</time>
      </trkpt>
      <trkpt lat="48.72703" lon="2.10752">
        <ele>92</ele>
        <time>2022-06-14T06:54:27Z</time>
      </trkpt>
      <trkpt lat="48.72707" lon="2.10742">
        <ele>92.1</ele>
        <time>2022-06-14T06:55:04Z</time>
      </trkpt>
      <trkpt lat="48.72713" lon="2.10738">
        <ele>92.2</ele>
        <time>2022-06-14T06:55:12Z</time>
      </trkpt>
      <trkpt lat="48.72719" lon="2.10743">
        <ele>92.1</ele>
        <time>2022-06-14T06:55:17Z</time>
      </trkpt>
      <trkpt lat="48.72724" lon="2.1075">
        <ele>92</ele>
        <time>2022-06-14T06:55:25Z</time>
      </trkpt>
      <trkpt lat="48.72731" lon="2.10747">
        <ele>92.1</ele>
        <time>2022-06-14T06:55:31Z</time>
      </trkpt>
      <trkpt lat="48.7273" lon="2.10736">
        <ele>92.3</ele>
        <time>2022-06-14T06:55:37Z</time>
      </trkpt>
      <trkpt lat="48.72731" lon="2.10726">
        <ele>92.5</ele>
        <time>2022-06-14T06:55:49Z</time>
      </trkpt>
      <trkpt lat="48.72734" lon="2.10716">
        <ele>92.7</ele>
        <time>2022-06-14T06:55:54Z</time>
      </trkpt>
      <trkpt lat="48.72737" lon="2.10705">
        <ele>93</ele>
        <time>2022-06-14T06:56:00Z</time>
      </trkpt>
      <trkpt lat="48.72742" lon="2.10697">
        <ele>93.2</ele>
        <time>2022-06-14T06:56:06Z</time>
      </trkpt>
      <trkpt lat="48.72747" lon="2.10691">
        <ele>93.4</ele>
        <time>2022-06-14T06:56:12Z</time>
      </trkpt>
      <trkpt lat="48.72753" lon="2.10684">
        <ele>93.6</ele>
        <time>2022-06-14T06:56:20Z</time>
      </trkpt>
      <trkpt lat="48.72758" lon="2.10671">
        <ele>94</ele>
        <time>2022-06-14T06:56:25Z</time>
      </trkpt>
      <trkpt lat="48.7276" lon="2.10661">
        <ele>94.5</ele>
        <time>2022-06-14T06:56:30Z</time>
      </trkpt>
      <trkpt lat="48.72764" lon="2.10651">
        <ele>95.1</ele>
        <time>2022-06-14T06:56:36Z</time>
      </trkpt>
      <trkpt lat="48.72759" lon="2.10642">
        <ele>95.6</ele>
        <time>2022-06-14T06:56:42Z</time>
      </trkpt>
      <trkpt lat="48.7276" lon="2.10632">
        <ele>96.2</ele>
        <time>2022-06-14T06:56:49Z</time>
      </trkpt>
      <trkpt lat="48.72767" lon="2.1063">
        <ele>96.5</ele>
        <time>2022-06-14T06:56:56Z</time>
      </trkpt>
      <trkpt lat="48.72773" lon="2.10623">
        <ele>97</ele>
        <time>2022-06-14T06:57:03Z</time>
      </trkpt>
      <trkpt lat="48.72779" lon="2.10619">
        <ele>97.4</ele>
        <time>2022-06-14T06:57:08Z</time>
      </trkpt>
      <trkpt lat="48.72785" lon="2.10614">
        <ele>97.8</ele>
        <time>2022-06-14T06:57:30Z</time>
      </trkpt>
      <trkpt lat="48.72788" lon="2.10605">
        <ele>98.5</ele>
        <time>2022-06-14T06:57:35Z</time>
      </trkpt>
      <trkpt lat="48.72792" lon="2.10597">
        <ele>99.1</ele>
        <time>2022-06-14T06:57:40Z</time>
      </trkpt>
      <trkpt lat="48.7279" lon="2.10586">
        <ele>99.8</ele>
        <time>2022-06-14T06:57:47Z</time>
      </trkpt>
      <trkpt lat="48.72791" lon="2.10576">
        <ele>100.6</ele>
        <time>2022-06-14T06:57:52Z</time>
      </trkpt>
      <trkpt lat="48.72793" lon="2.10567">
        <ele>101.4</ele>
        <time>2022-06-14T06:57:58Z</time>
      </trkpt>
      <trkpt lat="48.72797" lon="2.10559">
        <ele>102.1</ele>
        <time>2022-06-14T06:58:06Z</time>
      </trkpt>
      <trkpt lat="48.72795" lon="2.10549">
        <ele>102.9</ele>
        <time>2022-06-14T06:58:13Z</time>
      </trkpt>
      <trkpt lat="48.72794" lon="2.10537">
        <ele>103.9</ele>
        <time>2022-06-14T06:58:18Z</time>
      </trkpt>
      <trkpt lat="48.72791" lon="2.10528">
        <ele>104.7</ele>
        <time>2022-06-14T06:58:25Z</time>
      </trkpt>
      <trkpt lat="48.7278" lon="2.1052">
        <ele>105.5</ele>
        <time>2022-06-14T06:58:55Z</time>
      </trkpt>
      <trkpt lat="48.72787" lon="2.10522">
        <ele>105.2</ele>
        <time>2022-06-14T06:59:04Z</time>
      </trkpt>
      <trkpt lat="48.72788" lon="2.10511">
        <ele>106.1</ele>
        <time>2022-06-14T06:59:17Z</time>
      </trkpt>
      <trkpt lat="48.72786" lon="2.10502">
        <ele>107</ele>
        <time>2022-06-14T06:59:23Z</time>
      </trkpt>
      <trkpt lat="48.72787" lon="2.1049">
        <ele>107.6</ele>
        <time>2022-06-14T06:59:29Z</time>
      </trkpt>
      <trkpt lat="48.72791" lon="2.10481">
        <ele>107.8</ele>
        <time>2022-06-14T06:59:36Z</time>
      </trkpt>
      <trkpt lat="48.72794" lon="2.10471">
        <ele>108.1</ele>
        <time>2022-06-14T06:59:45Z</time>
      </trkpt>
      <trkpt lat="48.7279" lon="2.10463">
        <ele>108.6</ele>
        <time>2022-06-14T06:59:54Z</time>
      </trkpt>
      <trkpt lat="48.72795" lon="2.1047">
        <ele>108.1</ele>
        <time>2022-06-14T07:00:10Z</time>
      </trkpt>
      <trkpt lat="48.72794" lon="2.10483">
        <ele>107.6</ele>
        <time>2022-06-14T07:00:15Z</time>
      </trkpt>
      <trkpt lat="48.72795" lon="2.10493">
        <ele>107.2</ele>
        <time>2022-06-14T07:00:20Z</time>
      </trkpt>
      <trkpt lat="48.72798" lon="2.10503">
        <ele>106.6</ele>
        <time>2022-06-14T07:00:25Z</time>
      </trkpt>
      <trkpt lat="48.72796" lon="2.10518">
        <ele>105.4</ele>
        <time>2022-06-14T07:00:30Z</time>
      </trkpt>
      <trkpt lat="48.72798" lon="2.10528">
        <ele>104.6</ele>
        <time>2022-06-14T07:00:35Z</time>
      </trkpt>
      <trkpt lat="48.728" lon="2.1054">
        <ele>103.6</ele>
        <time>2022-06-14T07:00:40Z</time>
      </trkpt>
      <trkpt lat="48.728" lon="2.10551">
        <ele>102.8</ele>
        <time>2022-06-14T07:00:45Z</time>
      </trkpt>
      <trkpt lat="48.72792" lon="2.10553">
        <ele>102.6</ele>
        <time>2022-06-14T07:01:00Z</time>
      </trkpt>
      <trkpt lat="48.72787" lon="2.10546">
        <ele>103.1</ele>
        <time>2022-06-14T07:01:11Z</time>
      </trkpt>
      <trkpt lat="48.72791" lon="2.10537">
        <ele>103.9</ele>
        <time>2022-06-14T07:01:17Z</time>
      </trkpt>
      <trkpt lat="48.72788" lon="2.10528">
        <ele>104.7</ele>
        <time>2022-06-14T07:01:25Z</time>
      </trkpt>
      <trkpt lat="48.72786" lon="2.10517">
        <ele>105.7</ele>
        <time>2022-06-14T07:01:49Z</time>
      </trkpt>
      <trkpt lat="48.72788" lon="2.10506">
        <ele>106.6</ele>
        <time>2022-06-14T07:01:54Z</time>
      </trkpt>
      <trkpt lat="48.72789" lon="2.10495">
        <ele>107.3</ele>
        <time>2022-06-14T07:02:00Z</time>
      </trkpt>
      <trkpt lat="48.7279" lon="2.10483">
        <ele>107.8</ele>
        <time>2022-06-14T07:02:05Z</time>
      </trkpt>
      <trkpt lat="48.72787" lon="2.10472">
        <ele>108.4</ele>
        <time>2022-06-14T07:02:10Z</time>
      </trkpt>
      <trkpt lat="48.72788" lon="2.10461">
        <ele>108.8</ele>
        <time>2022-06-14T07:02:16Z</time>
      </trkpt>
      <trkpt lat="48.72787" lon="2.10451">
        <ele>109.3</ele>
        <time>2022-06-14T07:02:22Z</time>
      </trkpt>
      <trkpt lat="48.72788" lon="2.10439">
        <ele>109.8</ele>
        <time>2022-06-14T07:02:28Z</time>
      </trkpt>
      <trkpt lat="48.72789" lon="2.10426">
        <ele>110.3</ele>
        <time>2022-06-14T07:02:33Z</time>
      </trkpt>
      <trkpt lat="48.72789" lon="2.10411">
        <ele>110.9</ele>
        <time>2022-06-14T07:02:38Z</time>
      </trkpt>
      <trkpt lat="48.72783" lon="2.10406">
        <ele>111.6</ele>
        <time>2022-06-14T07:02:47Z</time>
      </trkpt>
      <trkpt lat="48.7279" lon="2.10402">
        <ele>111.1</ele>
        <time>2022-06-14T07:02:58Z</time>
      </trkpt>
      <trkpt lat="48.72791" lon="2.10412">
        <ele>110.7</ele>
        <time>2022-06-14T07:03:05Z</time>
      </trkpt>
      <trkpt lat="48.72789" lon="2.10422">
        <ele>110.5</ele>
        <time>2022-06-14T07:03:11Z</time>
      </trkpt>
      <trkpt lat="48.72786" lon="2.10431">
        <ele>110.3</ele>
        <time>2022-06-14T07:03:17Z</time>
      </trkpt>
      <trkpt lat="48.72789" lon="2.10445">
        <ele>109.5</ele>
        <time>2022-06-14T07:03:22Z</time>
      </trkpt>
      <trkpt lat="48.72796" lon="2.10449">
        <ele>108.9</ele>
        <time>2022-06-14T07:03:27Z</time>
      </trkpt>
      <trkpt lat="48.72803" lon="2.10458">
        <ele>108.1</ele>
        <time>2022-06-14T07:03:32Z</time>
      </trkpt>
      <trkpt lat="48.7281" lon="2.10468">
        <ele>107.5</ele>
        <time>2022-06-14T07:03:37Z</time>
      </trkpt>
      <trkpt lat="48.72818" lon="2.10473">
        <ele>107</ele>
        <time>2022-06-14T07:03:42Z</time>
      </trkpt>
      <trkpt lat="48.72824" lon="2.10477">
        <ele>106.7</ele>
        <time>2022-06-14T07:03:48Z</time>
      </trkpt>
      <trkpt lat="48.72835" lon="2.10483">
        <ele>106.1</ele>
        <time>2022-06-14T07:03:53Z</time>
      </trkpt>
      <trkpt lat="48.72841" lon="2.10488">
        <ele>105.5</ele>
        <time>2022-06-14T07:03:59Z</time>
      </trkpt>
      <trkpt lat="48.72846" lon="2.10495">
        <ele>105.1</ele>
        <time>2022-06-14T07:04:08Z</time>
      </trkpt>
      <trkpt lat="48.72848" lon="2.10505">
        <ele>104.7</ele>
        <time>2022-06-14T07:04:29Z</time>
      </trkpt>
      <trkpt lat="48.72838" lon="2.10508">
        <ele>105.2</ele>
        <time>2022-06-14T07:05:05Z</time>
      </trkpt>
      <trkpt lat="48.72835" lon="2.10497">
        <ele>105.9</ele>
        <time>2022-06-14T07:05:55Z</time>
      </trkpt>
      <trkpt lat="48.72828" lon="2.10493">
        <ele>106.2</ele>
        <time>2022-06-14T07:06:02Z</time>
      </trkpt>
      <trkpt lat="48.72834" lon="2.10488">
        <ele>106.1</ele>
        <time>2022-06-14T07:07:35Z</time>
      </trkpt>
      <trkpt lat="48.72826" lon="2.10487">
        <ele>106.4</ele>
        <time>2022-06-14T07:07:55Z</time>
      </trkpt>
      <trkpt lat="48.72821" lon="2.10482">
        <ele>106.7</ele>
        <time>2022-06-14T07:08:00Z</time>
      </trkpt>
      <trkpt lat="48.72815" lon="2.10475">
        <ele>107.1</ele>
        <time>2022-06-14T07:08:05Z</time>
      </trkpt>
      <trkpt lat="48.7281" lon="2.10467">
        <ele>107.5</ele>
        <time>2022-06-14T07:08:11Z</time>
      </trkpt>
      <trkpt lat="48.72806" lon="2.10458">
        <ele>108</ele>
        <time>2022-06-14T07:08:20Z</time>
      </trkpt>
      <trkpt lat="48.72801" lon="2.1045">
        <ele>108.5</ele>
        <time>2022-06-14T07:08:28Z</time>
      </trkpt>
      <trkpt lat="48.728" lon="2.10439">
        <ele>109</ele>
        <time>2022-06-14T07:08:34Z</time>
      </trkpt>
      <trkpt lat="48.72801" lon="2.10427">
        <ele>109.4</ele>
        <time>2022-06-14T07:08:39Z</time>
      </trkpt>
      <trkpt lat="48.728" lon="2.10415">
        <ele>109.8</ele>
        <time>2022-06-14T07:08:44Z</time>
      </trkpt>
      <trkpt lat="48.728" lon="2.10399">
        <ele>110.3</ele>
        <time>2022-06-14T07:08:49Z</time>
      </trkpt>
      <trkpt lat="48.728" lon="2.10389">
        <ele>110.5</ele>
        <time>2022-06-14T07:08:54Z</time>
      </trkpt>
      <trkpt lat="48.72801" lon="2.10375">
        <ele>110.8</ele>
        <time>2022-06-14T07:08:59Z</time>
      </trkpt>
      <trkpt lat="48.728" lon="2.10365">
        <ele>111.2</ele>
        <time>2022-06-14T07:09:04Z</time>
      </trkpt>
      <trkpt lat="48.72801" lon="2.10353">
        <ele>111.4</ele>
        <time>2022-06-14T07:09:09Z</time>
      </trkpt>
      <trkpt lat="48.72803" lon="2.1034">
        <ele>111.5</ele>
        <time>2022-06-14T07:09:14Z</time>
      </trkpt>
      <trkpt lat="48.72804" lon="2.10327">
        <ele>111.5</ele>
        <time>2022-06-14T07:09:19Z</time>
      </trkpt>
      <trkpt lat="48.72803" lon="2.10317">
        <ele>111.7</ele>
        <time>2022-06-14T07:09:24Z</time>
      </trkpt>
      <trkpt lat="48.72804" lon="2.10304">
        <ele>111.5</ele>
        <time>2022-06-14T07:09:29Z</time>
      </trkpt>
      <trkpt lat="48.72803" lon="2.10292">
        <ele>111.7</ele>
        <time>2022-06-14T07:09:34Z</time>
      </trkpt>
      <trkpt lat="48.72803" lon="2.10282">
        <ele>111.7</ele>
        <time>2022-06-14T07:09:39Z</time>
      </trkpt>
      <trkpt lat="48.72802" lon="2.1027">
        <ele>111.9</ele>
        <time>2022-06-14T07:09:44Z</time>
      </trkpt>
      <trkpt lat="48.728" lon="2.10259">
        <ele>112.2</ele>
        <time>2022-06-14T07:09:49Z</time>
      </trkpt>
      <trkpt lat="48.728" lon="2.10249">
        <ele>112.2</ele>
        <time>2022-06-14T07:09:54Z</time>
      </trkpt>
      <trkpt lat="48.72797" lon="2.10239">
        <ele>112.4</ele>
        <time>2022-06-14T07:10:01Z</time>
      </trkpt>
      <trkpt lat="48.728" lon="2.10231">
        <ele>111.8</ele>
        <time>2022-06-14T07:10:24Z</time>
      </trkpt>
      <trkpt lat="48.72804" lon="2.10222">
        <ele>111.1</ele>
        <time>2022-06-14T07:11:01Z</time>
      </trkpt>
      <trkpt lat="48.72809" lon="2.10214">
        <ele>110.3</ele>
        <time>2022-06-14T07:11:06Z</time>
      </trkpt>
      <trkpt lat="48.72814" lon="2.10206">
        <ele>109.5</ele>
        <time>2022-06-14T07:11:11Z</time>
      </trkpt>
      <trkpt lat="48.72818" lon="2.10196">
        <ele>108.9</ele>
        <time>2022-06-14T07:11:16Z</time>
      </trkpt>
      <trkpt lat="48.72822" lon="2.10184">
        <ele>108.3</ele>
        <time>2022-06-14T07:11:21Z</time>
      </trkpt>
      <trkpt lat="48.72826" lon="2.10175">
        <ele>107.8</ele>
        <time>2022-06-14T07:11:27Z</time>
      </trkpt>
      <trkpt lat="48.72832" lon="2.10169">
        <ele>107.1</ele>
        <time>2022-06-14T07:11:33Z</time>
      </trkpt>
      <trkpt lat="48.72836" lon="2.1016">
        <ele>106.7</ele>
        <time>2022-06-14T07:11:38Z</time>
      </trkpt>
      <trkpt lat="48.72839" lon="2.10151">
        <ele>106.3</ele>
        <time>2022-06-14T07:11:48Z</time>
      </trkpt>
      <trkpt lat="48.72844" lon="2.10143">
        <ele>105.8</ele>
        <time>2022-06-14T07:11:53Z</time>
      </trkpt>
      <trkpt lat="48.72847" lon="2.10135">
        <ele>105.5</ele>
        <time>2022-06-14T07:11:58Z</time>
      </trkpt>
      <trkpt lat="48.72849" lon="2.10124">
        <ele>105.1</ele>
        <time>2022-06-14T07:12:04Z</time>
      </trkpt>
      <trkpt lat="48.72855" lon="2.10115">
        <ele>104.6</ele>
        <time>2022-06-14T07:12:09Z</time>
      </trkpt>
      <trkpt lat="48.72862" lon="2.10109">
        <ele>104.1</ele>
        <time>2022-06-14T07:12:14Z</time>
      </trkpt>
      <trkpt lat="48.72868" lon="2.10104">
        <ele>103.7</ele>
        <time>2022-06-14T07:12:19Z</time>
      </trkpt>
      <trkpt lat="48.72875" lon="2.10101">
        <ele>103.3</ele>
        <time>2022-06-14T07:12:24Z</time>
      </trkpt>
      <trkpt lat="48.72882" lon="2.10098">
        <ele>102.9</ele>
        <time>2022-06-14T07:12:29Z</time>
      </trkpt>
      <trkpt lat="48.72889" lon="2.10096">
        <ele>102.5</ele>
        <time>2022-06-14T07:12:34Z</time>
      </trkpt>
      <trkpt lat="48.72895" lon="2.10095">
        <ele>102.2</ele>
        <time>2022-06-14T07:12:39Z</time>
      </trkpt>
      <trkpt lat="48.72902" lon="2.10092">
        <ele>101.8</ele>
        <time>2022-06-14T07:12:45Z</time>
      </trkpt>
      <trkpt lat="48.72908" lon="2.10088">
        <ele>101.5</ele>
        <time>2022-06-14T07:12:51Z</time>
      </trkpt>
      <trkpt lat="48.72911" lon="2.10079">
        <ele>101.2</ele>
        <time>2022-06-14T07:12:58Z</time>
      </trkpt>
      <trkpt lat="48.72915" lon="2.10071">
        <ele>100.8</ele>
        <time>2022-06-14T07:13:05Z</time>
      </trkpt>
      <trkpt lat="48.72917" lon="2.10058">
        <ele>100.4</ele>
        <time>2022-06-14T07:13:38Z</time>
      </trkpt>
      <trkpt lat="48.72924" lon="2.10051">
        <ele>100.1</ele>
        <time>2022-06-14T07:13:43Z</time>
      </trkpt>
      <trkpt lat="48.72929" lon="2.10044">
        <ele>99.9</ele>
        <time>2022-06-14T07:13:48Z</time>
      </trkpt>
      <trkpt lat="48.72936" lon="2.1005">
        <ele>100</ele>
        <time>2022-06-14T07:13:54Z</time>
      </trkpt>
      <trkpt lat="48.72936" lon="2.1004">
        <ele>99.7</ele>
        <time>2022-06-14T07:14:16Z</time>
      </trkpt>
      <trkpt lat="48.72938" lon="2.10031">
        <ele>99.5</ele>
        <time>2022-06-14T07:14:27Z</time>
      </trkpt>
      <trkpt lat="48.72944" lon="2.10024">
        <ele>99.2</ele>
        <time>2022-06-14T07:14:36Z</time>
      </trkpt>
      <trkpt lat="48.72947" lon="2.10015">
        <ele>99</ele>
        <time>2022-06-14T07:15:15Z</time>
      </trkpt>
      <trkpt lat="48.72948" lon="2.10005">
        <ele>98.7</ele>
        <time>2022-06-14T07:15:21Z</time>
      </trkpt>
      <trkpt lat="48.72947" lon="2.09994">
        <ele>98.7</ele>
        <time>2022-06-14T07:15:30Z</time>
      </trkpt>
      <trkpt lat="48.72954" lon="2.09995">
        <ele>98.6</ele>
        <time>2022-06-14T07:15:39Z</time>
      </trkpt>
      <trkpt lat="48.7295" lon="2.09987">
        <ele>98.8</ele>
        <time>2022-06-14T07:16:06Z</time>
      </trkpt>
      <trkpt lat="48.72941" lon="2.09986">
        <ele>98.9</ele>
        <time>2022-06-14T07:16:13Z</time>
      </trkpt>
      <trkpt lat="48.7295" lon="2.09988">
        <ele>98.8</ele>
        <time>2022-06-14T07:16:41Z</time>
      </trkpt>
      <trkpt lat="48.72955" lon="2.09997">
        <ele>98.6</ele>
        <time>2022-06-14T07:16:46Z</time>
      </trkpt>
      <trkpt lat="48.72961" lon="2.09999">
        <ele>98.5</ele>
        <time>2022-06-14T07:16:52Z</time>
      </trkpt>
      <trkpt lat="48.72956" lon="2.09992">
        <ele>98.7</ele>
        <time>2022-06-14T07:17:17Z</time>
      </trkpt>
      <trkpt lat="48.72947" lon="2.09987">
        <ele>98.8</ele>
        <time>2022-06-14T07:17:23Z</time>
      </trkpt>
      <trkpt lat="48.72938" lon="2.09984">
        <ele>99</ele>
        <time>2022-06-14T07:17:28Z</time>
      </trkpt>
      <trkpt lat="48.72932" lon="2.09978">
        <ele>99.1</ele>
        <time>2022-06-14T07:17:33Z</time>
      </trkpt>
      <trkpt lat="48.72926" lon="2.0997">
        <ele>99.3</ele>
        <time>2022-06-14T07:17:38Z</time>
      </trkpt>
      <trkpt lat="48.7292" lon="2.09967">
        <ele>99.4</ele>
        <time>2022-06-14T07:17:43Z</time>
      </trkpt>
      <trkpt lat="48.72914" lon="2.0996">
        <ele>99.7</ele>
        <time>2022-06-14T07:17:48Z</time>
      </trkpt>
      <trkpt lat="48.72904" lon="2.09958">
        <ele>100.6</ele>
        <time>2022-06-14T07:17:53Z</time>
      </trkpt>
      <trkpt lat="48.72901" lon="2.09949">
        <ele>101</ele>
        <time>2022-06-14T07:18:36Z</time>
      </trkpt>
      <trkpt lat="48.72893" lon="2.09946">
        <ele>101.7</ele>
        <time>2022-06-14T07:18:41Z</time>
      </trkpt>
      <trkpt lat="48.72886" lon="2.09942">
        <ele>102.4</ele>
        <time>2022-06-14T07:18:46Z</time>
      </trkpt>
      <trkpt lat="48.72879" lon="2.09935">
        <ele>103.2</ele>
        <time>2022-06-14T07:18:51Z</time>
      </trkpt>
      <trkpt lat="48.72875" lon="2.09928">
        <ele>103.7</ele>
        <time>2022-06-14T07:18:56Z</time>
      </trkpt>
      <trkpt lat="48.72867" lon="2.09923">
        <ele>104.6</ele>
        <time>2022-06-14T07:19:01Z</time>
      </trkpt>
      <trkpt lat="48.7286" lon="2.09918">
        <ele>105.4</ele>
        <time>2022-06-14T07:19:06Z</time>
      </trkpt>
      <trkpt lat="48.72854" lon="2.09914">
        <ele>106.1</ele>
        <time>2022-06-14T07:19:11Z</time>
      </trkpt>
      <trkpt lat="48.72848" lon="2.09911">
        <ele>106.8</ele>
        <time>2022-06-14T07:19:16Z</time>
      </trkpt>
      <trkpt lat="48.72839" lon="2.09905">
        <ele>107.9</ele>
        <time>2022-06-14T07:19:21Z</time>
      </trkpt>
      <trkpt lat="48.72834" lon="2.09898">
        <ele>108.6</ele>
        <time>2022-06-14T07:19:26Z</time>
      </trkpt>
      <trkpt lat="48.72827" lon="2.09892">
        <ele>109.8</ele>
        <time>2022-06-14T07:19:31Z</time>
      </trkpt>
      <trkpt lat="48.72821" lon="2.09888">
        <ele>110.8</ele>
        <time>2022-06-14T07:19:36Z</time>
      </trkpt>
      <trkpt lat="48.72817" lon="2.09879">
        <ele>111.6</ele>
        <time>2022-06-14T07:19:42Z</time>
      </trkpt>
      <trkpt lat="48.7281" lon="2.09873">
        <ele>112.8</ele>
        <time>2022-06-14T07:19:47Z</time>
      </trkpt>
      <trkpt lat="48.72803" lon="2.0987">
        <ele>113.8</ele>
        <time>2022-06-14T07:20:07Z</time>
      </trkpt>
      <trkpt lat="48.72799" lon="2.09862">
        <ele>114.6</ele>
        <time>2022-06-14T07:20:13Z</time>
      </trkpt>
      <trkpt lat="48.72793" lon="2.09855">
        <ele>115.7</ele>
        <time>2022-06-14T07:20:19Z</time>
      </trkpt>
      <trkpt lat="48.72785" lon="2.09849">
        <ele>116.9</ele>
        <time>2022-06-14T07:20:24Z</time>
      </trkpt>
      <trkpt lat="48.72779" lon="2.09841">
        <ele>118</ele>
        <time>2022-06-14T07:20:30Z</time>
      </trkpt>
      <trkpt lat="48.7277" lon="2.09841">
        <ele>119.2</ele>
        <time>2022-06-14T07:20:35Z</time>
      </trkpt>
      <trkpt lat="48.72765" lon="2.09835">
        <ele>120</ele>
        <time>2022-06-14T07:20:41Z</time>
      </trkpt>
      <trkpt lat="48.72759" lon="2.09827">
        <ele>121</ele>
        <time>2022-06-14T07:20:47Z</time>
      </trkpt>
      <trkpt lat="48.72753" lon="2.09823">
        <ele>121.9</ele>
        <time>2022-06-14T07:20:57Z</time>
      </trkpt>
      <trkpt lat="48.72747" lon="2.09818">
        <ele>123.1</ele>
        <time>2022-06-14T07:21:03Z</time>
      </trkpt>
      <trkpt lat="48.72743" lon="2.0981">
        <ele>124.2</ele>
        <time>2022-06-14T07:21:09Z</time>
      </trkpt>
      <trkpt lat="48.72738" lon="2.09802">
        <ele>125.4</ele>
        <time>2022-06-14T07:21:14Z</time>
      </trkpt>
      <trkpt lat="48.72735" lon="2.0979">
        <ele>126.2</ele>
        <time>2022-06-14T07:21:19Z</time>
      </trkpt>
      <trkpt lat="48.72734" lon="2.09779">
        <ele>126.5</ele>
        <time>2022-06-14T07:21:25Z</time>
      </trkpt>
      <trkpt lat="48.72737" lon="2.09767">
        <ele>126</ele>
        <time>2022-06-14T07:21:30Z</time>
      </trkpt>
      <trkpt lat="48.72736" lon="2.09758">
        <ele>126.3</ele>
        <time>2022-06-14T07:21:39Z</time>
      </trkpt>
      <trkpt lat="48.72735" lon="2.09747">
        <ele>126.8</ele>
        <time>2022-06-14T07:21:44Z</time>
      </trkpt>
      <trkpt lat="48.72733" lon="2.09736">
        <ele>127.9</ele>
        <time>2022-06-14T07:21:51Z</time>
      </trkpt>
      <trkpt lat="48.72734" lon="2.09724">
        <ele>128.7</ele>
        <time>2022-06-14T07:21:59Z</time>
      </trkpt>
      <trkpt lat="48.72734" lon="2.09714">
        <ele>129.5</ele>
        <time>2022-06-14T07:22:06Z</time>
      </trkpt>
      <trkpt lat="48.72734" lon="2.09703">
        <ele>130.3</ele>
        <time>2022-06-14T07:22:13Z</time>
      </trkpt>
      <trkpt lat="48.72731" lon="2.09692">
        <ele>131.5</ele>
        <time>2022-06-14T07:22:19Z</time>
      </trkpt>
      <trkpt lat="48.7273" lon="2.09682">
        <ele>132.3</ele>
        <time>2022-06-14T07:22:29Z</time>
      </trkpt>
      <trkpt lat="48.72728" lon="2.09673">
        <ele>133.1</ele>
        <time>2022-06-14T07:22:39Z</time>
      </trkpt>
      <trkpt lat="48.72725" lon="2.09664">
        <ele>134</ele>
        <time>2022-06-14T07:22:45Z</time>
      </trkpt>
      <trkpt lat="48.7272" lon="2.09657">
        <ele>135</ele>
        <time>2022-06-14T07:22:51Z</time>
      </trkpt>
      <trkpt lat="48.72713" lon="2.0965">
        <ele>136.2</ele>
        <time>2022-06-14T07:23:02Z</time>
      </trkpt>
      <trkpt lat="48.72701" lon="2.09645">
        <ele>137.5</ele>
        <time>2022-06-14T07:23:07Z</time>
      </trkpt>
      <trkpt lat="48.72695" lon="2.09642">
        <ele>138.1</ele>
        <time>2022-06-14T07:23:12Z</time>
      </trkpt>
      <trkpt lat="48.72688" lon="2.09639">
        <ele>138.9</ele>
        <time>2022-06-14T07:23:17Z</time>
      </trkpt>
      <trkpt lat="48.72682" lon="2.09634">
        <ele>139.7</ele>
        <time>2022-06-14T07:23:22Z</time>
      </trkpt>
      <trkpt lat="48.72675" lon="2.09628">
        <ele>140.7</ele>
        <time>2022-06-14T07:23:27Z</time>
      </trkpt>
      <trkpt lat="48.72669" lon="2.09624">
        <ele>141.4</ele>
        <time>2022-06-14T07:23:32Z</time>
      </trkpt>
      <trkpt lat="48.72658" lon="2.09624">
        <ele>142.7</ele>
        <time>2022-06-14T07:23:37Z</time>
      </trkpt>
      <trkpt lat="48.72651" lon="2.09619">
        <ele>144</ele>
        <time>2022-06-14T07:23:42Z</time>
      </trkpt>
      <trkpt lat="48.72646" lon="2.09614">
        <ele>145</ele>
        <time>2022-06-14T07:23:47Z</time>
      </trkpt>
      <trkpt lat="48.72639" lon="2.0961">
        <ele>146.1</ele>
        <time>2022-06-14T07:23:52Z</time>
      </trkpt>
      <trkpt lat="48.72633" lon="2.09605">
        <ele>147</ele>
        <time>2022-06-14T07:23:57Z</time>
      </trkpt>
      <trkpt lat="48.72626" lon="2.09603">
        <ele>147.9</ele>
        <time>2022-06-14T07:24:02Z</time>
      </trkpt>
      <trkpt lat="48.72618" lon="2.096">
        <ele>149</ele>
        <time>2022-06-14T07:24:07Z</time>
      </trkpt>
      <trkpt lat="48.72611" lon="2.09594">
        <ele>150</ele>
        <time>2022-06-14T07:24:13Z</time>
      </trkpt>
      <trkpt lat="48.72604" lon="2.09589">
        <ele>150.8</ele>
        <time>2022-06-14T07:24:18Z</time>
      </trkpt>
      <trkpt lat="48.72597" lon="2.09586">
        <ele>151.6</ele>
        <time>2022-06-14T07:24:23Z</time>
      </trkpt>
      <trkpt lat="48.72589" lon="2.09583">
        <ele>152.5</ele>
        <time>2022-06-14T07:24:29Z</time>
      </trkpt>
      <trkpt lat="48.72584" lon="2.09576">
        <ele>153.2</ele>
        <time>2022-06-14T07:24:35Z</time>
      </trkpt>
      <trkpt lat="48.72577" lon="2.09575">
        <ele>153.6</ele>
        <time>2022-06-14T07:24:40Z</time>
      </trkpt>
      <trkpt lat="48.72573" lon="2.09565">
        <ele>154.1</ele>
        <time>2022-06-14T07:24:45Z</time>
      </trkpt>
      <trkpt lat="48.7257" lon="2.09556">
        <ele>154.5</ele>
        <time>2022-06-14T07:24:50Z</time>
      </trkpt>
      <trkpt lat="48.72571" lon="2.09546">
        <ele>154.8</ele>
        <time>2022-06-14T07:25:03Z</time>
      </trkpt>
      <trkpt lat="48.72573" lon="2.09535">
        <ele>155.1</ele>
        <time>2022-06-14T07:25:08Z</time>
      </trkpt>
      <trkpt lat="48.72576" lon="2.09526">
        <ele>155.3</ele>
        <time>2022-06-14T07:25:14Z</time>
      </trkpt>
      <trkpt lat="48.72584" lon="2.09522">
        <ele>155.2</ele>
        <time>2022-06-14T07:25:30Z</time>
      </trkpt>
      <trkpt lat="48.72598" lon="2.09524">
        <ele>154.2</ele>
        <time>2022-06-14T07:25:35Z</time>
      </trkpt>
      <trkpt lat="48.72608" lon="2.09527">
        <ele>153.5</ele>
        <time>2022-06-14T07:25:40Z</time>
      </trkpt>
      <trkpt lat="48.72614" lon="2.09532">
        <ele>152.8</ele>
        <time>2022-06-14T07:25:45Z</time>
      </trkpt>
      <trkpt lat="48.72621" lon="2.09532">
        <ele>152.3</ele>
        <time>2022-06-14T07:25:50Z</time>
      </trkpt>
      <trkpt lat="48.72628" lon="2.09528">
        <ele>152.1</ele>
        <time>2022-06-14T07:26:02Z</time>
      </trkpt>
      <trkpt lat="48.7263" lon="2.09518">
        <ele>152.6</ele>
        <time>2022-06-14T07:26:10Z</time>
      </trkpt>
      <trkpt lat="48.72632" lon="2.09508">
        <ele>153.2</ele>
        <time>2022-06-14T07:26:20Z</time>
      </trkpt>
      <trkpt lat="48.72628" lon="2.09499">
        <ele>153.9</ele>
        <time>2022-06-14T07:26:29Z</time>
      </trkpt>
      <trkpt lat="48.72632" lon="2.09488">
        <ele>154.4</ele>
        <time>2022-06-14T07:26:34Z</time>
      </trkpt>
      <trkpt lat="48.72636" lon="2.0948">
        <ele>154.8</ele>
        <time>2022-06-14T07:26:47Z</time>
      </trkpt>
      <trkpt lat="48.72639" lon="2.09471">
        <ele>155.3</ele>
        <time>2022-06-14T07:26:54Z</time>
      </trkpt>
      <trkpt lat="48.72644" lon="2.09463">
        <ele>155.8</ele>
        <time>2022-06-14T07:27:00Z</time>
      </trkpt>
      <trkpt lat="48.72651" lon="2.09454">
        <ele>156.4</ele>
        <time>2022-06-14T07:27:05Z</time>
      </trkpt>
      <trkpt lat="48.72655" lon="2.09447">
        <ele>157</ele>
        <time>2022-06-14T07:27:10Z</time>
      </trkpt>
      <trkpt lat="48.7266" lon="2.09438">
        <ele>157.9</ele>
        <time>2022-06-14T07:27:16Z</time>
      </trkpt>
      <trkpt lat="48.72664" lon="2.09429">
        <ele>158.8</ele>
        <time>2022-06-14T07:27:21Z</time>
      </trkpt>
      <trkpt lat="48.72669" lon="2.09422">
        <ele>159.4</ele>
        <time>2022-06-14T07:27:28Z</time>
      </trkpt>
      <trkpt lat="48.72677" lon="2.09417">
        <ele>159.5</ele>
        <time>2022-06-14T07:27:33Z</time>
      </trkpt>
      <trkpt lat="48.72684" lon="2.0941">
        <ele>159.2</ele>
        <time>2022-06-14T07:27:38Z</time>
      </trkpt>
      <trkpt lat="48.72689" lon="2.09402">
        <ele>159.1</ele>
        <time>2022-06-14T07:27:43Z</time>
      </trkpt>
      <trkpt lat="48.72694" lon="2.09393">
        <ele>159</ele>
        <time>2022-06-14T07:27:49Z</time>
      </trkpt>
      <trkpt lat="48.72697" lon="2.09385">
        <ele>158.9</ele>
        <time>2022-06-14T07:28:09Z</time>
      </trkpt>
      <trkpt lat="48.72695" lon="2.09375">
        <ele>159.1</ele>
        <time>2022-06-14T07:28:14Z</time>
      </trkpt>
      <trkpt lat="48.727" lon="2.09367">
        <ele>159</ele>
        <time>2022-06-14T07:28:21Z</time>
      </trkpt>
      <trkpt lat="48.72706" lon="2.09359">
        <ele>158.8</ele>
        <time>2022-06-14T07:28:27Z</time>
      </trkpt>
      <trkpt lat="48.7271" lon="2.09351">
        <ele>158.7</ele>
        <time>2022-06-14T07:28:32Z</time>
      </trkpt>
      <trkpt lat="48.72718" lon="2.09346">
        <ele>158.4</ele>
        <time>2022-06-14T07:28:37Z</time>
      </trkpt>
      <trkpt lat="48.72724" lon="2.09335">
        <ele>158.2</ele>
        <time>2022-06-14T07:28:42Z</time>
      </trkpt>
      <trkpt lat="48.72727" lon="2.09326">
        <ele>158.1</ele>
        <time>2022-06-14T07:28:50Z</time>
      </trkpt>
      <trkpt lat="48.72732" lon="2.09316">
        <ele>158</ele>
        <time>2022-06-14T07:28:55Z</time>
      </trkpt>
      <trkpt lat="48.72735" lon="2.09304">
        <ele>157.9</ele>
        <time>2022-06-14T07:29:00Z</time>
      </trkpt>
      <trkpt lat="48.72736" lon="2.0929">
        <ele>158</ele>
        <time>2022-06-14T07:29:05Z</time>
      </trkpt>
      <trkpt lat="48.72736" lon="2.0928">
        <ele>158.1</ele>
        <time>2022-06-14T07:29:10Z</time>
      </trkpt>
      <trkpt lat="48.72737" lon="2.0927">
        <ele>158.1</ele>
        <time>2022-06-14T07:29:15Z</time>
      </trkpt>
      <trkpt lat="48.72739" lon="2.09258">
        <ele>158.2</ele>
        <time>2022-06-14T07:29:20Z</time>
      </trkpt>
      <trkpt lat="48.72745" lon="2.09249">
        <ele>158.1</ele>
        <time>2022-06-14T07:29:25Z</time>
      </trkpt>
      <trkpt lat="48.7275" lon="2.09242">
        <ele>158</ele>
        <time>2022-06-14T07:29:30Z</time>
      </trkpt>
      <trkpt lat="48.72759" lon="2.09237">
        <ele>157.9</ele>
        <time>2022-06-14T07:29:35Z</time>
      </trkpt>
      <trkpt lat="48.72767" lon="2.09232">
        <ele>157.8</ele>
        <time>2022-06-14T07:29:40Z</time>
      </trkpt>
      <trkpt lat="48.72773" lon="2.09224">
        <ele>157.8</ele>
        <time>2022-06-14T07:29:46Z</time>
      </trkpt>
      <trkpt lat="48.72777" lon="2.09214">
        <ele>157.9</ele>
        <time>2022-06-14T07:29:52Z</time>
      </trkpt>
      <trkpt lat="48.7278" lon="2.09202">
        <ele>158.1</ele>
        <time>2022-06-14T07:29:57Z</time>
      </trkpt>
      <trkpt lat="48.72784" lon="2.09193">
        <ele>158.3</ele>
        <time>2022-06-14T07:30:02Z</time>
      </trkpt>
      <trkpt lat="48.72788" lon="2.09184">
        <ele>158.5</ele>
        <time>2022-06-14T07:30:07Z</time>
      </trkpt>
      <trkpt lat="48.72792" lon="2.09172">
        <ele>158.9</ele>
        <time>2022-06-14T07:30:12Z</time>
      </trkpt>
      <trkpt lat="48.72792" lon="2.09162">
        <ele>159.1</ele>
        <time>2022-06-14T07:30:17Z</time>
      </trkpt>
      <trkpt lat="48.72789" lon="2.09149">
        <ele>159.3</ele>
        <time>2022-06-14T07:30:22Z</time>
      </trkpt>
      <trkpt lat="48.72785" lon="2.0914">
        <ele>159.4</ele>
        <time>2022-06-14T07:30:28Z</time>
      </trkpt>
      <trkpt lat="48.7278" lon="2.09132">
        <ele>159.4</ele>
        <time>2022-06-14T07:30:33Z</time>
      </trkpt>
      <trkpt lat="48.72776" lon="2.09123">
        <ele>159.5</ele>
        <time>2022-06-14T07:30:38Z</time>
      </trkpt>
      <trkpt lat="48.72771" lon="2.09117">
        <ele>159.4</ele>
        <time>2022-06-14T07:30:43Z</time>
      </trkpt>
      <trkpt lat="48.72765" lon="2.09111">
        <ele>159.3</ele>
        <time>2022-06-14T07:30:48Z</time>
      </trkpt>
      <trkpt lat="48.72763" lon="2.09102">
        <ele>159.3</ele>
        <time>2022-06-14T07:30:54Z</time>
      </trkpt>
      <trkpt lat="48.72762" lon="2.09092">
        <ele>159.4</ele>
        <time>2022-06-14T07:30:59Z</time>
      </trkpt>
      <trkpt lat="48.72762" lon="2.09082">
        <ele>159.6</ele>
        <time>2022-06-14T07:31:04Z</time>
      </trkpt>
      <trkpt lat="48.72763" lon="2.09068">
        <ele>160.1</ele>
        <time>2022-06-14T07:31:09Z</time>
      </trkpt>
      <trkpt lat="48.72764" lon="2.09055">
        <ele>160.6</ele>
        <time>2022-06-14T07:31:14Z</time>
      </trkpt>
      <trkpt lat="48.72763" lon="2.09045">
        <ele>160.9</ele>
        <time>2022-06-14T07:31:19Z</time>
      </trkpt>
      <trkpt lat="48.72764" lon="2.09033">
        <ele>161.3</ele>
        <time>2022-06-14T07:31:24Z</time>
      </trkpt>
      <trkpt lat="48.72767" lon="2.09023">
        <ele>161.7</ele>
        <time>2022-06-14T07:31:29Z</time>
      </trkpt>
      <trkpt lat="48.72772" lon="2.09015">
        <ele>162.1</ele>
        <time>2022-06-14T07:31:34Z</time>
      </trkpt>
      <trkpt lat="48.72778" lon="2.09009">
        <ele>162.4</ele>
        <time>2022-06-14T07:31:39Z</time>
      </trkpt>
      <trkpt lat="48.72786" lon="2.09001">
        <ele>162.8</ele>
        <time>2022-06-14T07:31:44Z</time>
      </trkpt>
      <trkpt lat="48.72794" lon="2.08997">
        <ele>163.1</ele>
        <time>2022-06-14T07:31:49Z</time>
      </trkpt>
      <trkpt lat="48.72791" lon="2.08988">
        <ele>163.1</ele>
        <time>2022-06-14T07:31:57Z</time>
      </trkpt>
      <trkpt lat="48.72791" lon="2.08978">
        <ele>163.1</ele>
        <time>2022-06-14T07:32:08Z</time>
      </trkpt>
      <trkpt lat="48.72788" lon="2.08968">
        <ele>163.1</ele>
        <time>2022-06-14T07:33:27Z</time>
      </trkpt>
      <trkpt lat="48.72791" lon="2.08985">
        <ele>163.1</ele>
        <time>2022-06-14T07:33:35Z</time>
      </trkpt>
      <trkpt lat="48.72792" lon="2.08996">
        <ele>163</ele>
        <time>2022-06-14T07:33:40Z</time>
      </trkpt>
      <trkpt lat="48.72799" lon="2.08993">
        <ele>163.2</ele>
        <time>2022-06-14T07:33:48Z</time>
      </trkpt>
      <trkpt lat="48.72804" lon="2.08984">
        <ele>163.4</ele>
        <time>2022-06-14T07:33:53Z</time>
      </trkpt>
      <trkpt lat="48.72809" lon="2.08976">
        <ele>163.6</ele>
        <time>2022-06-14T07:34:01Z</time>
      </trkpt>
      <trkpt lat="48.72815" lon="2.0897">
        <ele>163.8</ele>
        <time>2022-06-14T07:34:07Z</time>
      </trkpt>
      <trkpt lat="48.72817" lon="2.08961">
        <ele>164</ele>
        <time>2022-06-14T07:34:14Z</time>
      </trkpt>
      <trkpt lat="48.72818" lon="2.08951">
        <ele>164.1</ele>
        <time>2022-06-14T07:34:20Z</time>
      </trkpt>
      <trkpt lat="48.72819" lon="2.0894">
        <ele>164.3</ele>
        <time>2022-06-14T07:34:26Z</time>
      </trkpt>
      <trkpt lat="48.72822" lon="2.08931">
        <ele>164.4</ele>
        <time>2022-06-14T07:34:33Z</time>
      </trkpt>
      <trkpt lat="48.72825" lon="2.08922">
        <ele>164.6</ele>
        <time>2022-06-14T07:34:38Z</time>
      </trkpt>
      <trkpt lat="48.72828" lon="2.08913">
        <ele>164.8</ele>
        <time>2022-06-14T07:34:44Z</time>
      </trkpt>
      <trkpt lat="48.72832" lon="2.08903">
        <ele>165</ele>
        <time>2022-06-14T07:34:49Z</time>
      </trkpt>
      <trkpt lat="48.72836" lon="2.08893">
        <ele>165.1</ele>
        <time>2022-06-14T07:34:55Z</time>
      </trkpt>
      <trkpt lat="48.7284" lon="2.08884">
        <ele>165.2</ele>
        <time>2022-06-14T07:35:00Z</time>
      </trkpt>
      <trkpt lat="48.72843" lon="2.08873">
        <ele>165.2</ele>
        <time>2022-06-14T07:35:06Z</time>
      </trkpt>
      <trkpt lat="48.72844" lon="2.08861">
        <ele>165.2</ele>
        <time>2022-06-14T07:35:11Z</time>
      </trkpt>
      <trkpt lat="48.72843" lon="2.08851">
        <ele>165.2</ele>
        <time>2022-06-14T07:35:16Z</time>
      </trkpt>
      <trkpt lat="48.72841" lon="2.08838">
        <ele>165.1</ele>
        <time>2022-06-14T07:35:21Z</time>
      </trkpt>
      <trkpt lat="48.7284" lon="2.08825">
        <ele>165</ele>
        <time>2022-06-14T07:35:26Z</time>
      </trkpt>
      <trkpt lat="48.7284" lon="2.08814">
        <ele>164.9</ele>
        <time>2022-06-14T07:35:31Z</time>
      </trkpt>
      <trkpt lat="48.72842" lon="2.08801">
        <ele>164.8</ele>
        <time>2022-06-14T07:35:37Z</time>
      </trkpt>
      <trkpt lat="48.72844" lon="2.0879">
        <ele>164.8</ele>
        <time>2022-06-14T07:35:42Z</time>
      </trkpt>
      <trkpt lat="48.72848" lon="2.0878">
        <ele>164.9</ele>
        <time>2022-06-14T07:35:47Z</time>
      </trkpt>
      <trkpt lat="48.72849" lon="2.08767">
        <ele>164.8</ele>
        <time>2022-06-14T07:35:52Z</time>
      </trkpt>
      <trkpt lat="48.72851" lon="2.08757">
        <ele>164.9</ele>
        <time>2022-06-14T07:35:57Z</time>
      </trkpt>
      <trkpt lat="48.72853" lon="2.08746">
        <ele>164.9</ele>
        <time>2022-06-14T07:36:07Z</time>
      </trkpt>
      <trkpt lat="48.72857" lon="2.08734">
        <ele>165.1</ele>
        <time>2022-06-14T07:36:12Z</time>
      </trkpt>
      <trkpt lat="48.72865" lon="2.08725">
        <ele>165.5</ele>
        <time>2022-06-14T07:36:17Z</time>
      </trkpt>
      <trkpt lat="48.72869" lon="2.08716">
        <ele>165.7</ele>
        <time>2022-06-14T07:36:22Z</time>
      </trkpt>
      <trkpt lat="48.72874" lon="2.08707">
        <ele>166</ele>
        <time>2022-06-14T07:36:28Z</time>
      </trkpt>
      <trkpt lat="48.72873" lon="2.08697">
        <ele>165.9</ele>
        <time>2022-06-14T07:36:33Z</time>
      </trkpt>
      <trkpt lat="48.72875" lon="2.08684">
        <ele>166</ele>
        <time>2022-06-14T07:36:39Z</time>
      </trkpt>
      <trkpt lat="48.72875" lon="2.08673">
        <ele>166</ele>
        <time>2022-06-14T07:36:46Z</time>
      </trkpt>
      <trkpt lat="48.72871" lon="2.08665">
        <ele>165.8</ele>
        <time>2022-06-14T07:36:55Z</time>
      </trkpt>
      <trkpt lat="48.72874" lon="2.08654">
        <ele>165.9</ele>
        <time>2022-06-14T07:37:25Z</time>
      </trkpt>
      <trkpt lat="48.72876" lon="2.08675">
        <ele>166</ele>
        <time>2022-06-14T07:38:18Z</time>
      </trkpt>
      <trkpt lat="48.72869" lon="2.08676">
        <ele>165.7</ele>
        <time>2022-06-14T07:38:49Z</time>
      </trkpt>
      <trkpt lat="48.7288" lon="2.0868">
        <ele>166.2</ele>
        <time>2022-06-14T07:39:55Z</time>
      </trkpt>
      <trkpt lat="48.72871" lon="2.08682">
        <ele>165.8</ele>
        <time>2022-06-14T07:40:22Z</time>
      </trkpt>
      <trkpt lat="48.72879" lon="2.08679">
        <ele>166.2</ele>
        <time>2022-06-14T07:40:35Z</time>
      </trkpt>
      <trkpt lat="48.72874" lon="2.08671">
        <ele>166</ele>
        <time>2022-06-14T07:41:18Z</time>
      </trkpt>
      <trkpt lat="48.72867" lon="2.08683">
        <ele>165.6</ele>
        <time>2022-06-14T07:42:07Z</time>
      </trkpt>
      <trkpt lat="48.72863" lon="2.08694">
        <ele>165.4</ele>
        <time>2022-06-14T07:42:12Z</time>
      </trkpt>
      <trkpt lat="48.72861" lon="2.08706">
        <ele>165.3</ele>
        <time>2022-06-14T07:42:17Z</time>
      </trkpt>
      <trkpt lat="48.72858" lon="2.08726">
        <ele>165.2</ele>
        <time>2022-06-14T07:42:22Z</time>
      </trkpt>
      <trkpt lat="48.7285" lon="2.08724">
        <ele>164.8</ele>
        <time>2022-06-14T07:42:28Z</time>
      </trkpt>
      <trkpt lat="48.72872" lon="2.08711">
        <ele>165.9</ele>
        <time>2022-06-14T07:42:33Z</time>
      </trkpt>
      <trkpt lat="48.72868" lon="2.08701">
        <ele>165.7</ele>
        <time>2022-06-14T07:42:38Z</time>
      </trkpt>
      <trkpt lat="48.72868" lon="2.08684">
        <ele>165.7</ele>
        <time>2022-06-14T07:42:43Z</time>
      </trkpt>
      <trkpt lat="48.72872" lon="2.08677">
        <ele>165.9</ele>
        <time>2022-06-14T07:42:51Z</time>
      </trkpt>
      <trkpt lat="48.72877" lon="2.08668">
        <ele>166.1</ele>
        <time>2022-06-14T07:42:56Z</time>
      </trkpt>
      <trkpt lat="48.72881" lon="2.08656">
        <ele>166.2</ele>
        <time>2022-06-14T07:43:15Z</time>
      </trkpt>
      <trkpt lat="48.72881" lon="2.08646">
        <ele>166.2</ele>
        <time>2022-06-14T07:43:54Z</time>
      </trkpt>
      <trkpt lat="48.72888" lon="2.08643">
        <ele>166.5</ele>
        <time>2022-06-14T07:44:00Z</time>
      </trkpt>
      <trkpt lat="48.72892" lon="2.08634">
        <ele>166.7</ele>
        <time>2022-06-14T07:44:06Z</time>
      </trkpt>
      <trkpt lat="48.72893" lon="2.08623">
        <ele>166.7</ele>
        <time>2022-06-14T07:44:18Z</time>
      </trkpt>
      <trkpt lat="48.7289" lon="2.08612">
        <ele>166.5</ele>
        <time>2022-06-14T07:44:25Z</time>
      </trkpt>
      <trkpt lat="48.72887" lon="2.08601">
        <ele>166.3</ele>
        <time>2022-06-14T07:44:31Z</time>
      </trkpt>
      <trkpt lat="48.72883" lon="2.08591">
        <ele>166</ele>
        <time>2022-06-14T07:44:37Z</time>
      </trkpt>
      <trkpt lat="48.72882" lon="2.0857">
        <ele>165.7</ele>
        <time>2022-06-14T07:45:00Z</time>
      </trkpt>
      <trkpt lat="48.72883" lon="2.08559">
        <ele>165.6</ele>
        <time>2022-06-14T07:45:05Z</time>
      </trkpt>
      <trkpt lat="48.72887" lon="2.0855">
        <ele>165.7</ele>
        <time>2022-06-14T07:45:12Z</time>
      </trkpt>
      <trkpt lat="48.72889" lon="2.0854">
        <ele>165.6</ele>
        <time>2022-06-14T07:45:17Z</time>
      </trkpt>
      <trkpt lat="48.7289" lon="2.08529">
        <ele>165.5</ele>
        <time>2022-06-14T07:45:23Z</time>
      </trkpt>
      <trkpt lat="48.72891" lon="2.08515">
        <ele>165.4</ele>
        <time>2022-06-14T07:45:28Z</time>
      </trkpt>
      <trkpt lat="48.72895" lon="2.08505">
        <ele>165.5</ele>
        <time>2022-06-14T07:45:33Z</time>
      </trkpt>
      <trkpt lat="48.72896" lon="2.08495">
        <ele>165.4</ele>
        <time>2022-06-14T07:45:38Z</time>
      </trkpt>
      <trkpt lat="48.72899" lon="2.08484">
        <ele>165.4</ele>
        <time>2022-06-14T07:45:43Z</time>
      </trkpt>
      <trkpt lat="48.72905" lon="2.08469">
        <ele>165.5</ele>
        <time>2022-06-14T07:45:48Z</time>
      </trkpt>
      <trkpt lat="48.7291" lon="2.08458">
        <ele>165.6</ele>
        <time>2022-06-14T07:45:53Z</time>
      </trkpt>
      <trkpt lat="48.72915" lon="2.08449">
        <ele>165.7</ele>
        <time>2022-06-14T07:45:58Z</time>
      </trkpt>
      <trkpt lat="48.72919" lon="2.08442">
        <ele>165.6</ele>
        <time>2022-06-14T07:46:03Z</time>
      </trkpt>
      <trkpt lat="48.72927" lon="2.0843">
        <ele>165.5</ele>
        <time>2022-06-14T07:46:08Z</time>
      </trkpt>
      <trkpt lat="48.72934" lon="2.08423">
        <ele>165.6</ele>
        <time>2022-06-14T07:46:13Z</time>
      </trkpt>
      <trkpt lat="48.7294" lon="2.08418">
        <ele>165.8</ele>
        <time>2022-06-14T07:46:19Z</time>
      </trkpt>
      <trkpt lat="48.72946" lon="2.08411">
        <ele>166</ele>
        <time>2022-06-14T07:46:24Z</time>
      </trkpt>
      <trkpt lat="48.72953" lon="2.08402">
        <ele>166.1</ele>
        <time>2022-06-14T07:46:29Z</time>
      </trkpt>
      <trkpt lat="48.72959" lon="2.08397">
        <ele>166.3</ele>
        <time>2022-06-14T07:46:34Z</time>
      </trkpt>
      <trkpt lat="48.72966" lon="2.0839">
        <ele>166.5</ele>
        <time>2022-06-14T07:46:40Z</time>
      </trkpt>
      <trkpt lat="48.72974" lon="2.08384">
        <ele>166.8</ele>
        <time>2022-06-14T07:46:45Z</time>
      </trkpt>
      <trkpt lat="48.72981" lon="2.08375">
        <ele>167.1</ele>
        <time>2022-06-14T07:46:50Z</time>
      </trkpt>
      <trkpt lat="48.72987" lon="2.08364">
        <ele>167.3</ele>
        <time>2022-06-14T07:46:55Z</time>
      </trkpt>
      <trkpt lat="48.72993" lon="2.08356">
        <ele>167.6</ele>
        <time>2022-06-14T07:47:00Z</time>
      </trkpt>
      <trkpt lat="48.72997" lon="2.08347">
        <ele>167.8</ele>
        <time>2022-06-14T07:47:05Z</time>
      </trkpt>
      <trkpt lat="48.73005" lon="2.08339">
        <ele>168</ele>
        <time>2022-06-14T07:47:10Z</time>
      </trkpt>
      <trkpt lat="48.73011" lon="2.08331">
        <ele>167.9</ele>
        <time>2022-06-14T07:47:15Z</time>
      </trkpt>
      <trkpt lat="48.73017" lon="2.08324">
        <ele>167.7</ele>
        <time>2022-06-14T07:47:20Z</time>
      </trkpt>
      <trkpt lat="48.73024" lon="2.08312">
        <ele>167.5</ele>
        <time>2022-06-14T07:47:25Z</time>
      </trkpt>
      <trkpt lat="48.73029" lon="2.08305">
        <ele>167.3</ele>
        <time>2022-06-14T07:47:30Z</time>
      </trkpt>
      <trkpt lat="48.73035" lon="2.08302">
        <ele>167.3</ele>
        <time>2022-06-14T07:47:37Z</time>
      </trkpt>
      <trkpt lat="48.73042" lon="2.08297">
        <ele>167.4</ele>
        <time>2022-06-14T07:47:44Z</time>
      </trkpt>
      <trkpt lat="48.73049" lon="2.08286">
        <ele>167.3</ele>
        <time>2022-06-14T07:47:49Z</time>
      </trkpt>
      <trkpt lat="48.73055" lon="2.08277">
        <ele>167.3</ele>
        <time>2022-06-14T07:47:54Z</time>
      </trkpt>
      <trkpt lat="48.73064" lon="2.08268">
        <ele>167.5</ele>
        <time>2022-06-14T07:47:59Z</time>
      </trkpt>
      <trkpt lat="48.73069" lon="2.08259">
        <ele>167.5</ele>
        <time>2022-06-14T07:48:05Z</time>
      </trkpt>
      <trkpt lat="48.73074" lon="2.08251">
        <ele>167.7</ele>
        <time>2022-06-14T07:48:10Z</time>
      </trkpt>
      <trkpt lat="48.7308" lon="2.08243">
        <ele>167.5</ele>
        <time>2022-06-14T07:48:17Z</time>
      </trkpt>
      <trkpt lat="48.73088" lon="2.08235">
        <ele>167.3</ele>
        <time>2022-06-14T07:48:22Z</time>
      </trkpt>
      <trkpt lat="48.73095" lon="2.08227">
        <ele>166.9</ele>
        <time>2022-06-14T07:48:27Z</time>
      </trkpt>
      <trkpt lat="48.73101" lon="2.08219">
        <ele>166.4</ele>
        <time>2022-06-14T07:48:32Z</time>
      </trkpt>
      <trkpt lat="48.73108" lon="2.08216">
        <ele>166.2</ele>
        <time>2022-06-14T07:48:37Z</time>
      </trkpt>
      <trkpt lat="48.73108" lon="2.08205">
        <ele>165.7</ele>
        <time>2022-06-14T07:48:50Z</time>
      </trkpt>
      <trkpt lat="48.73112" lon="2.08197">
        <ele>165.2</ele>
        <time>2022-06-14T07:48:58Z</time>
      </trkpt>
      <trkpt lat="48.73119" lon="2.08191">
        <ele>164.9</ele>
        <time>2022-06-14T07:49:04Z</time>
      </trkpt>
      <trkpt lat="48.73127" lon="2.08187">
        <ele>164.6</ele>
        <time>2022-06-14T07:49:09Z</time>
      </trkpt>
      <trkpt lat="48.73132" lon="2.08177">
        <ele>164</ele>
        <time>2022-06-14T07:49:14Z</time>
      </trkpt>
      <trkpt lat="48.73127" lon="2.08186">
        <ele>164.5</ele>
        <time>2022-06-14T07:49:31Z</time>
      </trkpt>
      <trkpt lat="48.73121" lon="2.08191">
        <ele>164.8</ele>
        <time>2022-06-14T07:49:37Z</time>
      </trkpt>
      <trkpt lat="48.73113" lon="2.08185">
        <ele>164.6</ele>
        <time>2022-06-14T07:49:42Z</time>
      </trkpt>
      <trkpt lat="48.73104" lon="2.08183">
        <ele>164.6</ele>
        <time>2022-06-14T07:49:47Z</time>
      </trkpt>
      <trkpt lat="48.73095" lon="2.0818">
        <ele>164.5</ele>
        <time>2022-06-14T07:49:52Z</time>
      </trkpt>
      <trkpt lat="48.73088" lon="2.08174">
        <ele>164.3</ele>
        <time>2022-06-14T07:49:57Z</time>
      </trkpt>
      <trkpt lat="48.73083" lon="2.08166">
        <ele>164</ele>
        <time>2022-06-14T07:50:02Z</time>
      </trkpt>
      <trkpt lat="48.73077" lon="2.08158">
        <ele>163.4</ele>
        <time>2022-06-14T07:50:07Z</time>
      </trkpt>
      <trkpt lat="48.7307" lon="2.08153">
        <ele>163</ele>
        <time>2022-06-14T07:50:12Z</time>
      </trkpt>
      <trkpt lat="48.73064" lon="2.08149">
        <ele>162.7</ele>
        <time>2022-06-14T07:50:17Z</time>
      </trkpt>
      <trkpt lat="48.73058" lon="2.08141">
        <ele>162.2</ele>
        <time>2022-06-14T07:50:22Z</time>
      </trkpt>
      <trkpt lat="48.73048" lon="2.08134">
        <ele>161.9</ele>
        <time>2022-06-14T07:50:27Z</time>
      </trkpt>
      <trkpt lat="48.7304" lon="2.0813">
        <ele>161.7</ele>
        <time>2022-06-14T07:50:32Z</time>
      </trkpt>
      <trkpt lat="48.73033" lon="2.08125">
        <ele>161.5</ele>
        <time>2022-06-14T07:50:37Z</time>
      </trkpt>
      <trkpt lat="48.73026" lon="2.08121">
        <ele>161.4</ele>
        <time>2022-06-14T07:50:43Z</time>
      </trkpt>
      <trkpt lat="48.73023" lon="2.08113">
        <ele>161.2</ele>
        <time>2022-06-14T07:50:51Z</time>
      </trkpt>
      <trkpt lat="48.73023" lon="2.08103">
        <ele>160.9</ele>
        <time>2022-06-14T07:50:58Z</time>
      </trkpt>
      <trkpt lat="48.7302" lon="2.08092">
        <ele>160.7</ele>
        <time>2022-06-14T07:51:04Z</time>
      </trkpt>
      <trkpt lat="48.73021" lon="2.08102">
        <ele>160.9</ele>
        <time>2022-06-14T07:51:37Z</time>
      </trkpt>
      <trkpt lat="48.73023" lon="2.08112">
        <ele>161.2</ele>
        <time>2022-06-14T07:51:43Z</time>
      </trkpt>
      <trkpt lat="48.73019" lon="2.08122">
        <ele>161.4</ele>
        <time>2022-06-14T07:51:50Z</time>
      </trkpt>
      <trkpt lat="48.73011" lon="2.08128">
        <ele>161.6</ele>
        <time>2022-06-14T07:51:55Z</time>
      </trkpt>
      <trkpt lat="48.73004" lon="2.08131">
        <ele>161.6</ele>
        <time>2022-06-14T07:52:00Z</time>
      </trkpt>
      <trkpt lat="48.72996" lon="2.08127">
        <ele>161.6</ele>
        <time>2022-06-14T07:52:05Z</time>
      </trkpt>
      <trkpt lat="48.72991" lon="2.08122">
        <ele>161.7</ele>
        <time>2022-06-14T07:52:12Z</time>
      </trkpt>
      <trkpt lat="48.72986" lon="2.08112">
        <ele>161.8</ele>
        <time>2022-06-14T07:52:23Z</time>
      </trkpt>
      <trkpt lat="48.72981" lon="2.08105">
        <ele>161.9</ele>
        <time>2022-06-14T07:52:29Z</time>
      </trkpt>
      <trkpt lat="48.72976" lon="2.08097">
        <ele>162</ele>
        <time>2022-06-14T07:52:35Z</time>
      </trkpt>
      <trkpt lat="48.72976" lon="2.08087">
        <ele>161.9</ele>
        <time>2022-06-14T07:52:40Z</time>
      </trkpt>
      <trkpt lat="48.72979" lon="2.08077">
        <ele>161.9</ele>
        <time>2022-06-14T07:52:45Z</time>
      </trkpt>
      <trkpt lat="48.72984" lon="2.08068">
        <ele>161.9</ele>
        <time>2022-06-14T07:52:50Z</time>
      </trkpt>
      <trkpt lat="48.72991" lon="2.08068">
        <ele>161.7</ele>
        <time>2022-06-14T07:52:55Z</time>
      </trkpt>
      <trkpt lat="48.72999" lon="2.08068">
        <ele>161.4</ele>
        <time>2022-06-14T07:53:06Z</time>
      </trkpt>
      <trkpt lat="48.73004" lon="2.08075">
        <ele>161.1</ele>
        <time>2022-06-14T07:53:24Z</time>
      </trkpt>
      <trkpt lat="48.72998" lon="2.08071">
        <ele>161.4</ele>
        <time>2022-06-14T07:53:42Z</time>
      </trkpt>
      <trkpt lat="48.72991" lon="2.08071">
        <ele>161.6</ele>
        <time>2022-06-14T07:53:49Z</time>
      </trkpt>
      <trkpt lat="48.72983" lon="2.08079">
        <ele>161.7</ele>
        <time>2022-06-14T07:53:54Z</time>
      </trkpt>
      <trkpt lat="48.7298" lon="2.08088">
        <ele>161.8</ele>
        <time>2022-06-14T07:53:59Z</time>
      </trkpt>
      <trkpt lat="48.72977" lon="2.081">
        <ele>162</ele>
        <time>2022-06-14T07:54:04Z</time>
      </trkpt>
      <trkpt lat="48.7297" lon="2.08109">
        <ele>162.3</ele>
        <time>2022-06-14T07:54:14Z</time>
      </trkpt>
      <trkpt lat="48.72964" lon="2.08112">
        <ele>162.5</ele>
        <time>2022-06-14T07:54:21Z</time>
      </trkpt>
      <trkpt lat="48.72957" lon="2.08114">
        <ele>162.7</ele>
        <time>2022-06-14T07:54:28Z</time>
      </trkpt>
      <trkpt lat="48.7295" lon="2.08117">
        <ele>163</ele>
        <time>2022-06-14T07:54:34Z</time>
      </trkpt>
      <trkpt lat="48.72942" lon="2.0812">
        <ele>163.2</ele>
        <time>2022-06-14T07:54:39Z</time>
      </trkpt>
      <trkpt lat="48.72934" lon="2.0812">
        <ele>163.5</ele>
        <time>2022-06-14T07:54:45Z</time>
      </trkpt>
      <trkpt lat="48.72928" lon="2.08123">
        <ele>163.7</ele>
        <time>2022-06-14T07:54:50Z</time>
      </trkpt>
      <trkpt lat="48.72921" lon="2.08127">
        <ele>163.9</ele>
        <time>2022-06-14T07:54:55Z</time>
      </trkpt>
      <trkpt lat="48.72912" lon="2.08129">
        <ele>164</ele>
        <time>2022-06-14T07:55:00Z</time>
      </trkpt>
      <trkpt lat="48.72902" lon="2.08128">
        <ele>164.1</ele>
        <time>2022-06-14T07:55:05Z</time>
      </trkpt>
      <trkpt lat="48.72895" lon="2.08129">
        <ele>164.1</ele>
        <time>2022-06-14T07:55:11Z</time>
      </trkpt>
      <trkpt lat="48.72888" lon="2.0812">
        <ele>164.2</ele>
        <time>2022-06-14T07:55:16Z</time>
      </trkpt>
      <trkpt lat="48.72881" lon="2.08114">
        <ele>164.2</ele>
        <time>2022-06-14T07:55:21Z</time>
      </trkpt>
      <trkpt lat="48.72873" lon="2.08111">
        <ele>164.2</ele>
        <time>2022-06-14T07:55:26Z</time>
      </trkpt>
      <trkpt lat="48.72868" lon="2.08104">
        <ele>164.1</ele>
        <time>2022-06-14T07:55:31Z</time>
      </trkpt>
      <trkpt lat="48.72865" lon="2.08092">
        <ele>164.1</ele>
        <time>2022-06-14T07:55:36Z</time>
      </trkpt>
      <trkpt lat="48.7287" lon="2.0808">
        <ele>164</ele>
        <time>2022-06-14T07:55:41Z</time>
      </trkpt>
      <trkpt lat="48.72872" lon="2.0807">
        <ele>164.1</ele>
        <time>2022-06-14T07:55:46Z</time>
      </trkpt>
      <trkpt lat="48.72871" lon="2.08057">
        <ele>164.2</ele>
        <time>2022-06-14T07:55:52Z</time>
      </trkpt>
      <trkpt lat="48.72877" lon="2.0804">
        <ele>164.2</ele>
        <time>2022-06-14T07:55:57Z</time>
      </trkpt>
      <trkpt lat="48.72879" lon="2.08021">
        <ele>164.3</ele>
        <time>2022-06-14T07:56:02Z</time>
      </trkpt>
      <trkpt lat="48.72885" lon="2.08012">
        <ele>164.3</ele>
        <time>2022-06-14T07:56:07Z</time>
      </trkpt>
      <trkpt lat="48.72888" lon="2.08002">
        <ele>164.3</ele>
        <time>2022-06-14T07:56:12Z</time>
      </trkpt>
      <trkpt lat="48.72893" lon="2.07993">
        <ele>164.3</ele>
        <time>2022-06-14T07:56:17Z</time>
      </trkpt>
      <trkpt lat="48.72899" lon="2.07985">
        <ele>164.2</ele>
        <time>2022-06-14T07:56:24Z</time>
      </trkpt>
      <trkpt lat="48.729" lon="2.07969">
        <ele>164.2</ele>
        <time>2022-06-14T07:56:29Z</time>
      </trkpt>
      <trkpt lat="48.72905" lon="2.07956">
        <ele>164.1</ele>
        <time>2022-06-14T07:56:34Z</time>
      </trkpt>
      <trkpt lat="48.72916" lon="2.07942">
        <ele>164</ele>
        <time>2022-06-14T07:56:39Z</time>
      </trkpt>
      <trkpt lat="48.72917" lon="2.0793">
        <ele>164</ele>
        <time>2022-06-14T07:56:46Z</time>
      </trkpt>
      <trkpt lat="48.7292" lon="2.07919">
        <ele>164</ele>
        <time>2022-06-14T07:56:53Z</time>
      </trkpt>
      <trkpt lat="48.72918" lon="2.07906">
        <ele>164</ele>
        <time>2022-06-14T07:56:58Z</time>
      </trkpt>
      <trkpt lat="48.72916" lon="2.07896">
        <ele>164</ele>
        <time>2022-06-14T07:57:04Z</time>
      </trkpt>
      <trkpt lat="48.72918" lon="2.07884">
        <ele>164</ele>
        <time>2022-06-14T07:57:09Z</time>
      </trkpt>
      <trkpt lat="48.72916" lon="2.07874">
        <ele>164</ele>
        <time>2022-06-14T07:57:14Z</time>
      </trkpt>
      <trkpt lat="48.72914" lon="2.07859">
        <ele>164</ele>
        <time>2022-06-14T07:57:19Z</time>
      </trkpt>
      <trkpt lat="48.72914" lon="2.07848">
        <ele>164</ele>
        <time>2022-06-14T07:57:24Z</time>
      </trkpt>
      <trkpt lat="48.7292" lon="2.07832">
        <ele>164</ele>
        <time>2022-06-14T07:57:29Z</time>
      </trkpt>
      <trkpt lat="48.72919" lon="2.07822">
        <ele>164</ele>
        <time>2022-06-14T07:57:35Z</time>
      </trkpt>
      <trkpt lat="48.72914" lon="2.07815">
        <ele>164</ele>
        <time>2022-06-14T07:57:42Z</time>
      </trkpt>
      <trkpt lat="48.7291" lon="2.07805">
        <ele>164.1</ele>
        <time>2022-06-14T07:58:02Z</time>
      </trkpt>
      <trkpt lat="48.72903" lon="2.07802">
        <ele>164.2</ele>
        <time>2022-06-14T07:58:07Z</time>
      </trkpt>
      <trkpt lat="48.72896" lon="2.07802">
        <ele>164.2</ele>
        <time>2022-06-14T07:58:12Z</time>
      </trkpt>
      <trkpt lat="48.72887" lon="2.078">
        <ele>164.4</ele>
        <time>2022-06-14T07:58:17Z</time>
      </trkpt>
      <trkpt lat="48.72882" lon="2.07793">
        <ele>164.4</ele>
        <time>2022-06-14T07:58:27Z</time>
      </trkpt>
      <trkpt lat="48.72874" lon="2.07792">
        <ele>164.5</ele>
        <time>2022-06-14T07:59:04Z</time>
      </trkpt>
      <trkpt lat="48.72866" lon="2.07789">
        <ele>164.6</ele>
        <time>2022-06-14T07:59:09Z</time>
      </trkpt>
      <trkpt lat="48.72859" lon="2.07782">
        <ele>164.7</ele>
        <time>2022-06-14T07:59:14Z</time>
      </trkpt>
      <trkpt lat="48.72852" lon="2.07781">
        <ele>164.8</ele>
        <time>2022-06-14T07:59:20Z</time>
      </trkpt>
      <trkpt lat="48.72846" lon="2.07777">
        <ele>164.8</ele>
        <time>2022-06-14T07:59:25Z</time>
      </trkpt>
      <trkpt lat="48.72837" lon="2.07773">
        <ele>165</ele>
        <time>2022-06-14T07:59:30Z</time>
      </trkpt>
      <trkpt lat="48.72834" lon="2.0776">
        <ele>165</ele>
        <time>2022-06-14T07:59:35Z</time>
      </trkpt>
      <trkpt lat="48.72824" lon="2.0776">
        <ele>164.9</ele>
        <time>2022-06-14T07:59:40Z</time>
      </trkpt>
      <trkpt lat="48.72818" lon="2.07754">
        <ele>164.8</ele>
        <time>2022-06-14T07:59:45Z</time>
      </trkpt>
      <trkpt lat="48.72812" lon="2.07743">
        <ele>164.8</ele>
        <time>2022-06-14T07:59:50Z</time>
      </trkpt>
      <trkpt lat="48.72807" lon="2.07734">
        <ele>164.7</ele>
        <time>2022-06-14T07:59:55Z</time>
      </trkpt>
      <trkpt lat="48.72801" lon="2.07728">
        <ele>164.7</ele>
        <time>2022-06-14T08:00:01Z</time>
      </trkpt>
      <trkpt lat="48.72793" lon="2.07725">
        <ele>164.7</ele>
        <time>2022-06-14T08:00:06Z</time>
      </trkpt>
      <trkpt lat="48.72784" lon="2.07721">
        <ele>164.6</ele>
        <time>2022-06-14T08:00:11Z</time>
      </trkpt>
      <trkpt lat="48.72778" lon="2.07716">
        <ele>164.6</ele>
        <time>2022-06-14T08:00:17Z</time>
      </trkpt>
      <trkpt lat="48.72772" lon="2.07705">
        <ele>164.7</ele>
        <time>2022-06-14T08:00:22Z</time>
      </trkpt>
      <trkpt lat="48.72761" lon="2.07696">
        <ele>164.7</ele>
        <time>2022-06-14T08:00:27Z</time>
      </trkpt>
      <trkpt lat="48.72755" lon="2.07697">
        <ele>164.7</ele>
        <time>2022-06-14T08:01:00Z</time>
      </trkpt>
      <trkpt lat="48.72748" lon="2.07691">
        <ele>164.7</ele>
        <time>2022-06-14T08:01:05Z</time>
      </trkpt>
      <trkpt lat="48.72744" lon="2.07681">
        <ele>164.8</ele>
        <time>2022-06-14T08:01:10Z</time>
      </trkpt>
      <trkpt lat="48.72738" lon="2.07673">
        <ele>164.9</ele>
        <time>2022-06-14T08:01:15Z</time>
      </trkpt>
      <trkpt lat="48.72731" lon="2.07667">
        <ele>165</ele>
        <time>2022-06-14T08:01:20Z</time>
      </trkpt>
      <trkpt lat="48.72724" lon="2.07664">
        <ele>165</ele>
        <time>2022-06-14T08:01:26Z</time>
      </trkpt>
      <trkpt lat="48.72716" lon="2.07654">
        <ele>164.8</ele>
        <time>2022-06-14T08:01:31Z</time>
      </trkpt>
      <trkpt lat="48.7271" lon="2.07647">
        <ele>164.7</ele>
        <time>2022-06-14T08:01:37Z</time>
      </trkpt>
      <trkpt lat="48.72699" lon="2.07639">
        <ele>164.5</ele>
        <time>2022-06-14T08:01:42Z</time>
      </trkpt>
      <trkpt lat="48.72693" lon="2.07633">
        <ele>164.3</ele>
        <time>2022-06-14T08:01:47Z</time>
      </trkpt>
      <trkpt lat="48.72685" lon="2.07628">
        <ele>164.2</ele>
        <time>2022-06-14T08:01:52Z</time>
      </trkpt>
      <trkpt lat="48.72682" lon="2.07618">
        <ele>163.9</ele>
        <time>2022-06-14T08:01:57Z</time>
      </trkpt>
      <trkpt lat="48.72674" lon="2.07612">
        <ele>163.7</ele>
        <time>2022-06-14T08:02:02Z</time>
      </trkpt>
      <trkpt lat="48.72665" lon="2.07606">
        <ele>163.5</ele>
        <time>2022-06-14T08:02:07Z</time>
      </trkpt>
      <trkpt lat="48.72658" lon="2.076">
        <ele>163</ele>
        <time>2022-06-14T08:02:12Z</time>
      </trkpt>
      <trkpt lat="48.7265" lon="2.07595">
        <ele>162.5</ele>
        <time>2022-06-14T08:02:17Z</time>
      </trkpt>
      <trkpt lat="48.72644" lon="2.07589">
        <ele>162</ele>
        <time>2022-06-14T08:02:22Z</time>
      </trkpt>
      <trkpt lat="48.72637" lon="2.07583">
        <ele>161.6</ele>
        <time>2022-06-14T08:02:27Z</time>
      </trkpt>
      <trkpt lat="48.7263" lon="2.07574">
        <ele>161.3</ele>
        <time>2022-06-14T08:02:32Z</time>
      </trkpt>
      <trkpt lat="48.72619" lon="2.0757">
        <ele>160.8</ele>
        <time>2022-06-14T08:02:37Z</time>
      </trkpt>
      <trkpt lat="48.72613" lon="2.07559">
        <ele>160.5</ele>
        <time>2022-06-14T08:02:42Z</time>
      </trkpt>
      <trkpt lat="48.72607" lon="2.07555">
        <ele>160.2</ele>
        <time>2022-06-14T08:02:47Z</time>
      </trkpt>
      <trkpt lat="48.72599" lon="2.07547">
        <ele>159.8</ele>
        <time>2022-06-14T08:02:52Z</time>
      </trkpt>
      <trkpt lat="48.72591" lon="2.07538">
        <ele>159.4</ele>
        <time>2022-06-14T08:02:57Z</time>
      </trkpt>
      <trkpt lat="48.72583" lon="2.07534">
        <ele>159</ele>
        <time>2022-06-14T08:03:02Z</time>
      </trkpt>
      <trkpt lat="48.72577" lon="2.07528">
        <ele>158.8</ele>
        <time>2022-06-14T08:03:08Z</time>
      </trkpt>
      <trkpt lat="48.7257" lon="2.07521">
        <ele>158.5</ele>
        <time>2022-06-14T08:03:13Z</time>
      </trkpt>
      <trkpt lat="48.72564" lon="2.07515">
        <ele>158.3</ele>
        <time>2022-06-14T08:03:18Z</time>
      </trkpt>
      <trkpt lat="48.72556" lon="2.07511">
        <ele>158</ele>
        <time>2022-06-14T08:03:23Z</time>
      </trkpt>
      <trkpt lat="48.72547" lon="2.07506">
        <ele>157.7</ele>
        <time>2022-06-14T08:03:28Z</time>
      </trkpt>
      <trkpt lat="48.72542" lon="2.07497">
        <ele>157.5</ele>
        <time>2022-06-14T08:03:33Z</time>
      </trkpt>
      <trkpt lat="48.72536" lon="2.0749">
        <ele>157.3</ele>
        <time>2022-06-14T08:03:38Z</time>
      </trkpt>
      <trkpt lat="48.72526" lon="2.07487">
        <ele>156.9</ele>
        <time>2022-06-14T08:03:43Z</time>
      </trkpt>
      <trkpt lat="48.72521" lon="2.07478">
        <ele>156.6</ele>
        <time>2022-06-14T08:03:48Z</time>
      </trkpt>
      <trkpt lat="48.72513" lon="2.07471">
        <ele>156.2</ele>
        <time>2022-06-14T08:03:53Z</time>
      </trkpt>
      <trkpt lat="48.72508" lon="2.07464">
        <ele>155.9</ele>
        <time>2022-06-14T08:03:59Z</time>
      </trkpt>
      <trkpt lat="48.72496" lon="2.07464">
        <ele>155.5</ele>
        <time>2022-06-14T08:04:04Z</time>
      </trkpt>
      <trkpt lat="48.72493" lon="2.07455">
        <ele>155.4</ele>
        <time>2022-06-14T08:04:09Z</time>
      </trkpt>
      <trkpt lat="48.72483" lon="2.07447">
        <ele>155.3</ele>
        <time>2022-06-14T08:04:14Z</time>
      </trkpt>
      <trkpt lat="48.72475" lon="2.07437">
        <ele>155.2</ele>
        <time>2022-06-14T08:04:19Z</time>
      </trkpt>
      <trkpt lat="48.72469" lon="2.07429">
        <ele>155.1</ele>
        <time>2022-06-14T08:04:26Z</time>
      </trkpt>
      <trkpt lat="48.72456" lon="2.07424">
        <ele>155</ele>
        <time>2022-06-14T08:04:31Z</time>
      </trkpt>
      <trkpt lat="48.72447" lon="2.07418">
        <ele>155</ele>
        <time>2022-06-14T08:04:36Z</time>
      </trkpt>
      <trkpt lat="48.72445" lon="2.07407">
        <ele>155.1</ele>
        <time>2022-06-14T08:04:41Z</time>
      </trkpt>
      <trkpt lat="48.7244" lon="2.074">
        <ele>155.2</ele>
        <time>2022-06-14T08:04:47Z</time>
      </trkpt>
      <trkpt lat="48.72433" lon="2.07397">
        <ele>155.1</ele>
        <time>2022-06-14T08:04:52Z</time>
      </trkpt>
      <trkpt lat="48.72427" lon="2.07389">
        <ele>155.1</ele>
        <time>2022-06-14T08:04:57Z</time>
      </trkpt>
      <trkpt lat="48.72419" lon="2.07379">
        <ele>155</ele>
        <time>2022-06-14T08:05:02Z</time>
      </trkpt>
      <trkpt lat="48.72412" lon="2.07373">
        <ele>155.1</ele>
        <time>2022-06-14T08:05:07Z</time>
      </trkpt>
      <trkpt lat="48.72409" lon="2.07364">
        <ele>155.1</ele>
        <time>2022-06-14T08:05:13Z</time>
      </trkpt>
      <trkpt lat="48.72408" lon="2.07352">
        <ele>155.1</ele>
        <time>2022-06-14T08:05:24Z</time>
      </trkpt>
      <trkpt lat="48.72404" lon="2.07342">
        <ele>155.2</ele>
        <time>2022-06-14T08:05:29Z</time>
      </trkpt>
      <trkpt lat="48.72399" lon="2.07333">
        <ele>155.2</ele>
        <time>2022-06-14T08:05:34Z</time>
      </trkpt>
      <trkpt lat="48.72398" lon="2.07321">
        <ele>155.3</ele>
        <time>2022-06-14T08:05:39Z</time>
      </trkpt>
      <trkpt lat="48.72396" lon="2.07308">
        <ele>155.4</ele>
        <time>2022-06-14T08:05:44Z</time>
      </trkpt>
      <trkpt lat="48.72395" lon="2.07297">
        <ele>155.5</ele>
        <time>2022-06-14T08:05:50Z</time>
      </trkpt>
      <trkpt lat="48.72392" lon="2.07286">
        <ele>155.5</ele>
        <time>2022-06-14T08:06:01Z</time>
      </trkpt>
      <trkpt lat="48.72385" lon="2.07281">
        <ele>155.5</ele>
        <time>2022-06-14T08:06:07Z</time>
      </trkpt>
      <trkpt lat="48.72379" lon="2.07274">
        <ele>155.5</ele>
        <time>2022-06-14T08:06:19Z</time>
      </trkpt>
      <trkpt lat="48.72372" lon="2.07267">
        <ele>155.5</ele>
        <time>2022-06-14T08:06:24Z</time>
      </trkpt>
      <trkpt lat="48.72366" lon="2.07257">
        <ele>155.4</ele>
        <time>2022-06-14T08:06:29Z</time>
      </trkpt>
      <trkpt lat="48.72358" lon="2.07252">
        <ele>155.3</ele>
        <time>2022-06-14T08:06:34Z</time>
      </trkpt>
      <trkpt lat="48.72353" lon="2.07241">
        <ele>155.2</ele>
        <time>2022-06-14T08:06:39Z</time>
      </trkpt>
      <trkpt lat="48.72347" lon="2.07235">
        <ele>155.3</ele>
        <time>2022-06-14T08:06:46Z</time>
      </trkpt>
      <trkpt lat="48.72341" lon="2.0723">
        <ele>155.4</ele>
        <time>2022-06-14T08:06:52Z</time>
      </trkpt>
      <trkpt lat="48.72332" lon="2.07223">
        <ele>155.7</ele>
        <time>2022-06-14T08:06:57Z</time>
      </trkpt>
      <trkpt lat="48.72325" lon="2.07217">
        <ele>156.1</ele>
        <time>2022-06-14T08:07:02Z</time>
      </trkpt>
      <trkpt lat="48.7232" lon="2.07224">
        <ele>156.1</ele>
        <time>2022-06-14T08:07:12Z</time>
      </trkpt>
      <trkpt lat="48.7232" lon="2.07214">
        <ele>156.3</ele>
        <time>2022-06-14T08:07:34Z</time>
      </trkpt>
      <trkpt lat="48.72316" lon="2.07206">
        <ele>156.7</ele>
        <time>2022-06-14T08:07:39Z</time>
      </trkpt>
      <trkpt lat="48.72313" lon="2.07196">
        <ele>157</ele>
        <time>2022-06-14T08:07:44Z</time>
      </trkpt>
      <trkpt lat="48.72309" lon="2.07185">
        <ele>157.4</ele>
        <time>2022-06-14T08:07:49Z</time>
      </trkpt>
      <trkpt lat="48.72301" lon="2.07176">
        <ele>157.9</ele>
        <time>2022-06-14T08:07:54Z</time>
      </trkpt>
      <trkpt lat="48.72294" lon="2.07167">
        <ele>158.4</ele>
        <time>2022-06-14T08:07:59Z</time>
      </trkpt>
      <trkpt lat="48.72286" lon="2.07157">
        <ele>157.8</ele>
        <time>2022-06-14T08:08:04Z</time>
      </trkpt>
      <trkpt lat="48.72279" lon="2.07149">
        <ele>157.5</ele>
        <time>2022-06-14T08:08:09Z</time>
      </trkpt>
      <trkpt lat="48.72274" lon="2.07139">
        <ele>156.9</ele>
        <time>2022-06-14T08:08:14Z</time>
      </trkpt>
      <trkpt lat="48.72268" lon="2.07132">
        <ele>156.7</ele>
        <time>2022-06-14T08:08:21Z</time>
      </trkpt>
      <trkpt lat="48.72262" lon="2.07126">
        <ele>156.7</ele>
        <time>2022-06-14T08:08:26Z</time>
      </trkpt>
      <trkpt lat="48.72254" lon="2.07117">
        <ele>156.7</ele>
        <time>2022-06-14T08:08:31Z</time>
      </trkpt>
      <trkpt lat="48.7225" lon="2.07107">
        <ele>156.4</ele>
        <time>2022-06-14T08:08:36Z</time>
      </trkpt>
      <trkpt lat="48.72242" lon="2.07099">
        <ele>156.2</ele>
        <time>2022-06-14T08:08:41Z</time>
      </trkpt>
      <trkpt lat="48.72234" lon="2.07088">
        <ele>155.8</ele>
        <time>2022-06-14T08:08:46Z</time>
      </trkpt>
      <trkpt lat="48.72228" lon="2.07083">
        <ele>155.7</ele>
        <time>2022-06-14T08:08:51Z</time>
      </trkpt>
      <trkpt lat="48.72222" lon="2.07077">
        <ele>154.9</ele>
        <time>2022-06-14T08:08:57Z</time>
      </trkpt>
      <trkpt lat="48.72215" lon="2.07068">
        <ele>153.5</ele>
        <time>2022-06-14T08:09:02Z</time>
      </trkpt>
      <trkpt lat="48.72209" lon="2.0706">
        <ele>152.4</ele>
        <time>2022-06-14T08:09:07Z</time>
      </trkpt>
      <trkpt lat="48.72202" lon="2.07056">
        <ele>152</ele>
        <time>2022-06-14T08:09:17Z</time>
      </trkpt>
      <trkpt lat="48.72195" lon="2.07049">
        <ele>151.2</ele>
        <time>2022-06-14T08:09:22Z</time>
      </trkpt>
      <trkpt lat="48.7219" lon="2.07042">
        <ele>150.3</ele>
        <time>2022-06-14T08:09:29Z</time>
      </trkpt>
      <trkpt lat="48.72184" lon="2.07037">
        <ele>149.8</ele>
        <time>2022-06-14T08:09:34Z</time>
      </trkpt>
      <trkpt lat="48.72176" lon="2.07035">
        <ele>149.9</ele>
        <time>2022-06-14T08:09:39Z</time>
      </trkpt>
      <trkpt lat="48.7217" lon="2.0703">
        <ele>149.5</ele>
        <time>2022-06-14T08:09:45Z</time>
      </trkpt>
      <trkpt lat="48.72164" lon="2.07025">
        <ele>148.7</ele>
        <time>2022-06-14T08:09:50Z</time>
      </trkpt>
      <trkpt lat="48.72157" lon="2.07017">
        <ele>146.7</ele>
        <time>2022-06-14T08:09:55Z</time>
      </trkpt>
      <trkpt lat="48.72151" lon="2.07009">
        <ele>144.9</ele>
        <time>2022-06-14T08:10:00Z</time>
      </trkpt>
      <trkpt lat="48.72147" lon="2.07002">
        <ele>143.4</ele>
        <time>2022-06-14T08:10:08Z</time>
      </trkpt>
      <trkpt lat="48.7214" lon="2.06996">
        <ele>141.8</ele>
        <time>2022-06-14T08:10:13Z</time>
      </trkpt>
      <trkpt lat="48.72135" lon="2.06988">
        <ele>140.1</ele>
        <time>2022-06-14T08:10:23Z</time>
      </trkpt>
      <trkpt lat="48.72128" lon="2.0698">
        <ele>138.3</ele>
        <time>2022-06-14T08:10:28Z</time>
      </trkpt>
      <trkpt lat="48.72122" lon="2.06974">
        <ele>136.8</ele>
        <time>2022-06-14T08:10:34Z</time>
      </trkpt>
      <trkpt lat="48.72115" lon="2.06973">
        <ele>136.1</ele>
        <time>2022-06-14T08:10:43Z</time>
      </trkpt>
      <trkpt lat="48.72108" lon="2.06966">
        <ele>134.5</ele>
        <time>2022-06-14T08:10:50Z</time>
      </trkpt>
      <trkpt lat="48.72105" lon="2.06958">
        <ele>133.1</ele>
        <time>2022-06-14T08:10:55Z</time>
      </trkpt>
      <trkpt lat="48.72098" lon="2.06951">
        <ele>131.6</ele>
        <time>2022-06-14T08:11:00Z</time>
      </trkpt>
      <trkpt lat="48.72091" lon="2.06946">
        <ele>130.4</ele>
        <time>2022-06-14T08:11:05Z</time>
      </trkpt>
      <trkpt lat="48.72084" lon="2.06944">
        <ele>129.7</ele>
        <time>2022-06-14T08:11:10Z</time>
      </trkpt>
      <trkpt lat="48.72077" lon="2.0694">
        <ele>128.3</ele>
        <time>2022-06-14T08:11:16Z</time>
      </trkpt>
      <trkpt lat="48.72071" lon="2.06943">
        <ele>128</ele>
        <time>2022-06-14T08:11:23Z</time>
      </trkpt>
      <trkpt lat="48.72064" lon="2.06939">
        <ele>126.6</ele>
        <time>2022-06-14T08:11:29Z</time>
      </trkpt>
      <trkpt lat="48.72059" lon="2.06934">
        <ele>125.4</ele>
        <time>2022-06-14T08:11:34Z</time>
      </trkpt>
      <trkpt lat="48.72051" lon="2.06927">
        <ele>123.7</ele>
        <time>2022-06-14T08:11:39Z</time>
      </trkpt>
      <trkpt lat="48.72045" lon="2.06922">
        <ele>122.4</ele>
        <time>2022-06-14T08:11:45Z</time>
      </trkpt>
      <trkpt lat="48.72037" lon="2.06919">
        <ele>121.2</ele>
        <time>2022-06-14T08:11:55Z</time>
      </trkpt>
      <trkpt lat="48.7203" lon="2.06915">
        <ele>120.1</ele>
        <time>2022-06-14T08:12:02Z</time>
      </trkpt>
      <trkpt lat="48.72025" lon="2.06907">
        <ele>118.8</ele>
        <time>2022-06-14T08:12:09Z</time>
      </trkpt>
      <trkpt lat="48.72018" lon="2.06907">
        <ele>118.1</ele>
        <time>2022-06-14T08:12:14Z</time>
      </trkpt>
      <trkpt lat="48.7201" lon="2.06911">
        <ele>117.6</ele>
        <time>2022-06-14T08:12:19Z</time>
      </trkpt>
      <trkpt lat="48.72002" lon="2.06913">
        <ele>116.9</ele>
        <time>2022-06-14T08:12:25Z</time>
      </trkpt>
      <trkpt lat="48.71996" lon="2.06913">
        <ele>116.1</ele>
        <time>2022-06-14T08:12:45Z</time>
      </trkpt>
      <trkpt lat="48.71989" lon="2.06914">
        <ele>115.2</ele>
        <time>2022-06-14T08:12:52Z</time>
      </trkpt>
      <trkpt lat="48.71982" lon="2.0691">
        <ele>113.8</ele>
        <time>2022-06-14T08:12:58Z</time>
      </trkpt>
      <trkpt lat="48.71976" lon="2.06908">
        <ele>112.8</ele>
        <time>2022-06-14T08:13:05Z</time>
      </trkpt>
      <trkpt lat="48.71969" lon="2.06906">
        <ele>111.6</ele>
        <time>2022-06-14T08:13:17Z</time>
      </trkpt>
      <trkpt lat="48.71965" lon="2.06898">
        <ele>110.3</ele>
        <time>2022-06-14T08:13:23Z</time>
      </trkpt>
      <trkpt lat="48.71964" lon="2.06887">
        <ele>109.2</ele>
        <time>2022-06-14T08:13:29Z</time>
      </trkpt>
      <trkpt lat="48.71963" lon="2.06877">
        <ele>108.1</ele>
        <time>2022-06-14T08:13:41Z</time>
      </trkpt>
      <trkpt lat="48.71958" lon="2.0687">
        <ele>106.7</ele>
        <time>2022-06-14T08:13:46Z</time>
      </trkpt>
      <trkpt lat="48.71953" lon="2.06862">
        <ele>105.3</ele>
        <time>2022-06-14T08:13:51Z</time>
      </trkpt>
      <trkpt lat="48.71951" lon="2.06853">
        <ele>104.1</ele>
        <time>2022-06-14T08:13:58Z</time>
      </trkpt>
      <trkpt lat="48.71946" lon="2.06845">
        <ele>102.6</ele>
        <time>2022-06-14T08:14:10Z</time>
      </trkpt>
      <trkpt lat="48.71941" lon="2.06839">
        <ele>101.3</ele>
        <time>2022-06-14T08:14:25Z</time>
      </trkpt>
      <trkpt lat="48.71934" lon="2.06836">
        <ele>100</ele>
        <time>2022-06-14T08:14:31Z</time>
      </trkpt>
      <trkpt lat="48.7193" lon="2.06828">
        <ele>98.6</ele>
        <time>2022-06-14T08:14:37Z</time>
      </trkpt>
      <trkpt lat="48.71926" lon="2.06818">
        <ele>97.1</ele>
        <time>2022-06-14T08:14:42Z</time>
      </trkpt>
      <trkpt lat="48.71919" lon="2.06811">
        <ele>95.5</ele>
        <time>2022-06-14T08:14:48Z</time>
      </trkpt>
      <trkpt lat="48.71912" lon="2.06808">
        <ele>94.6</ele>
        <time>2022-06-14T08:14:53Z</time>
      </trkpt>
      <trkpt lat="48.71906" lon="2.06811">
        <ele>94.5</ele>
        <time>2022-06-14T08:14:58Z</time>
      </trkpt>
      <trkpt lat="48.71899" lon="2.0681">
        <ele>94</ele>
        <time>2022-06-14T08:15:05Z</time>
      </trkpt>
      <trkpt lat="48.71895" lon="2.06802">
        <ele>93.1</ele>
        <time>2022-06-14T08:15:20Z</time>
      </trkpt>
      <trkpt lat="48.71899" lon="2.06794">
        <ele>92.6</ele>
        <time>2022-06-14T08:15:25Z</time>
      </trkpt>
      <trkpt lat="48.71897" lon="2.06784">
        <ele>91.7</ele>
        <time>2022-06-14T08:15:38Z</time>
      </trkpt>
      <trkpt lat="48.71901" lon="2.06774">
        <ele>91.1</ele>
        <time>2022-06-14T08:15:44Z</time>
      </trkpt>
      <trkpt lat="48.71905" lon="2.06762">
        <ele>90.3</ele>
        <time>2022-06-14T08:15:49Z</time>
      </trkpt>
      <trkpt lat="48.71905" lon="2.06751">
        <ele>89.4</ele>
        <time>2022-06-14T08:15:54Z</time>
      </trkpt>
      <trkpt lat="48.71907" lon="2.06739">
        <ele>88.8</ele>
        <time>2022-06-14T08:15:59Z</time>
      </trkpt>
      <trkpt lat="48.71912" lon="2.06726">
        <ele>88.4</ele>
        <time>2022-06-14T08:16:04Z</time>
      </trkpt>
      <trkpt lat="48.71914" lon="2.06714">
        <ele>87.7</ele>
        <time>2022-06-14T08:16:09Z</time>
      </trkpt>
      <trkpt lat="48.71917" lon="2.06704">
        <ele>87.3</ele>
        <time>2022-06-14T08:16:14Z</time>
      </trkpt>
      <trkpt lat="48.71923" lon="2.06697">
        <ele>87.6</ele>
        <time>2022-06-14T08:16:19Z</time>
      </trkpt>
      <trkpt lat="48.71929" lon="2.06686">
        <ele>87.6</ele>
        <time>2022-06-14T08:16:24Z</time>
      </trkpt>
      <trkpt lat="48.71935" lon="2.06677">
        <ele>87.7</ele>
        <time>2022-06-14T08:16:29Z</time>
      </trkpt>
      <trkpt lat="48.71938" lon="2.06667">
        <ele>87.3</ele>
        <time>2022-06-14T08:16:34Z</time>
      </trkpt>
      <trkpt lat="48.71941" lon="2.06658">
        <ele>87.3</ele>
        <time>2022-06-14T08:16:41Z</time>
      </trkpt>
      <trkpt lat="48.71941" lon="2.06648">
        <ele>87</ele>
        <time>2022-06-14T08:16:46Z</time>
      </trkpt>
      <trkpt lat="48.7194" lon="2.06638">
        <ele>86.6</ele>
        <time>2022-06-14T08:16:52Z</time>
      </trkpt>
      <trkpt lat="48.71937" lon="2.06628">
        <ele>86.1</ele>
        <time>2022-06-14T08:16:57Z</time>
      </trkpt>
      <trkpt lat="48.71935" lon="2.06618">
        <ele>85.6</ele>
        <time>2022-06-14T08:17:04Z</time>
      </trkpt>
      <trkpt lat="48.71931" lon="2.06608">
        <ele>85.1</ele>
        <time>2022-06-14T08:17:12Z</time>
      </trkpt>
      <trkpt lat="48.71926" lon="2.066">
        <ele>84.7</ele>
        <time>2022-06-14T08:17:19Z</time>
      </trkpt>
      <trkpt lat="48.71925" lon="2.06589">
        <ele>84.4</ele>
        <time>2022-06-14T08:17:28Z</time>
      </trkpt>
      <trkpt lat="48.71919" lon="2.06584">
        <ele>84.1</ele>
        <time>2022-06-14T08:17:34Z</time>
      </trkpt>
      <trkpt lat="48.71932" lon="2.06591">
        <ele>84.7</ele>
        <time>2022-06-14T08:18:04Z</time>
      </trkpt>
      <trkpt lat="48.71927" lon="2.06585">
        <ele>84.4</ele>
        <time>2022-06-14T08:18:20Z</time>
      </trkpt>
      <trkpt lat="48.71927" lon="2.06575">
        <ele>84.3</ele>
        <time>2022-06-14T08:18:26Z</time>
      </trkpt>
      <trkpt lat="48.71922" lon="2.06566">
        <ele>84.1</ele>
        <time>2022-06-14T08:18:31Z</time>
      </trkpt>
      <trkpt lat="48.71917" lon="2.0656">
        <ele>84</ele>
        <time>2022-06-14T08:18:36Z</time>
      </trkpt>
      <trkpt lat="48.71913" lon="2.06549">
        <ele>84.1</ele>
        <time>2022-06-14T08:19:01Z</time>
      </trkpt>
      <trkpt lat="48.71918" lon="2.06541">
        <ele>84</ele>
        <time>2022-06-14T08:19:09Z</time>
      </trkpt>
      <trkpt lat="48.71924" lon="2.06539">
        <ele>84.1</ele>
        <time>2022-06-14T08:19:16Z</time>
      </trkpt>
      <trkpt lat="48.71931" lon="2.06539">
        <ele>84.1</ele>
        <time>2022-06-14T08:19:24Z</time>
      </trkpt>
      <trkpt lat="48.71938" lon="2.06539">
        <ele>84.2</ele>
        <time>2022-06-14T08:19:31Z</time>
      </trkpt>
      <trkpt lat="48.71945" lon="2.0654">
        <ele>84.3</ele>
        <time>2022-06-14T08:19:36Z</time>
      </trkpt>
      <trkpt lat="48.71952" lon="2.06542">
        <ele>84.4</ele>
        <time>2022-06-14T08:19:41Z</time>
      </trkpt>
      <trkpt lat="48.71959" lon="2.06538">
        <ele>84.4</ele>
        <time>2022-06-14T08:19:51Z</time>
      </trkpt>
      <trkpt lat="48.71972" lon="2.06534">
        <ele>84.4</ele>
        <time>2022-06-14T08:21:28Z</time>
      </trkpt>
      <trkpt lat="48.71963" lon="2.06538">
        <ele>84.5</ele>
        <time>2022-06-14T08:21:48Z</time>
      </trkpt>
      <trkpt lat="48.71969" lon="2.06544">
        <ele>84.7</ele>
        <time>2022-06-14T08:22:14Z</time>
      </trkpt>
      <trkpt lat="48.71976" lon="2.06544">
        <ele>84.8</ele>
        <time>2022-06-14T08:22:20Z</time>
      </trkpt>
      <trkpt lat="48.71967" lon="2.06546">
        <ele>84.7</ele>
        <time>2022-06-14T08:23:02Z</time>
      </trkpt>
      <trkpt lat="48.71974" lon="2.06547">
        <ele>84.9</ele>
        <time>2022-06-14T08:23:17Z</time>
      </trkpt>
      <trkpt lat="48.7198" lon="2.06541">
        <ele>84.7</ele>
        <time>2022-06-14T08:23:42Z</time>
      </trkpt>
      <trkpt lat="48.71987" lon="2.0654">
        <ele>84.8</ele>
        <time>2022-06-14T08:23:50Z</time>
      </trkpt>
      <trkpt lat="48.71995" lon="2.0654">
        <ele>84.9</ele>
        <time>2022-06-14T08:24:01Z</time>
      </trkpt>
      <trkpt lat="48.72001" lon="2.06538">
        <ele>84.9</ele>
        <time>2022-06-14T08:24:07Z</time>
      </trkpt>
      <trkpt lat="48.72007" lon="2.06543">
        <ele>85.5</ele>
        <time>2022-06-14T08:24:12Z</time>
      </trkpt>
      <trkpt lat="48.72015" lon="2.06543">
        <ele>86</ele>
        <time>2022-06-14T08:24:21Z</time>
      </trkpt>
      <trkpt lat="48.72021" lon="2.06539">
        <ele>86.1</ele>
        <time>2022-06-14T08:24:28Z</time>
      </trkpt>
      <trkpt lat="48.72027" lon="2.06535">
        <ele>86.2</ele>
        <time>2022-06-14T08:24:55Z</time>
      </trkpt>
      <trkpt lat="48.72034" lon="2.06533">
        <ele>86.5</ele>
        <time>2022-06-14T08:25:00Z</time>
      </trkpt>
      <trkpt lat="48.72042" lon="2.06527">
        <ele>86.6</ele>
        <time>2022-06-14T08:25:05Z</time>
      </trkpt>
      <trkpt lat="48.7205" lon="2.06526">
        <ele>87</ele>
        <time>2022-06-14T08:25:10Z</time>
      </trkpt>
      <trkpt lat="48.72053" lon="2.06517">
        <ele>86.6</ele>
        <time>2022-06-14T08:25:25Z</time>
      </trkpt>
      <trkpt lat="48.72061" lon="2.06515">
        <ele>86.9</ele>
        <time>2022-06-14T08:25:33Z</time>
      </trkpt>
      <trkpt lat="48.72062" lon="2.06526">
        <ele>87.7</ele>
        <time>2022-06-14T08:25:45Z</time>
      </trkpt>
      <trkpt lat="48.72069" lon="2.06524">
        <ele>87.9</ele>
        <time>2022-06-14T08:25:57Z</time>
      </trkpt>
      <trkpt lat="48.72076" lon="2.06525">
        <ele>88.4</ele>
        <time>2022-06-14T08:26:02Z</time>
      </trkpt>
      <trkpt lat="48.72081" lon="2.06532">
        <ele>89.2</ele>
        <time>2022-06-14T08:26:09Z</time>
      </trkpt>
      <trkpt lat="48.72079" lon="2.0652">
        <ele>88.2</ele>
        <time>2022-06-14T08:26:18Z</time>
      </trkpt>
      <trkpt lat="48.72079" lon="2.0651">
        <ele>87.5</ele>
        <time>2022-06-14T08:26:23Z</time>
      </trkpt>
      <trkpt lat="48.72084" lon="2.06503">
        <ele>87.2</ele>
        <time>2022-06-14T08:26:30Z</time>
      </trkpt>
      <trkpt lat="48.7209" lon="2.06495">
        <ele>87.2</ele>
        <time>2022-06-14T08:26:35Z</time>
      </trkpt>
      <trkpt lat="48.72094" lon="2.06486">
        <ele>87.4</ele>
        <time>2022-06-14T08:26:41Z</time>
      </trkpt>
      <trkpt lat="48.72099" lon="2.06477">
        <ele>87.5</ele>
        <time>2022-06-14T08:26:46Z</time>
      </trkpt>
      <trkpt lat="48.72106" lon="2.0647">
        <ele>87.6</ele>
        <time>2022-06-14T08:26:55Z</time>
      </trkpt>
      <trkpt lat="48.72113" lon="2.06467">
        <ele>87.7</ele>
        <time>2022-06-14T08:27:02Z</time>
      </trkpt>
      <trkpt lat="48.72114" lon="2.06457">
        <ele>87.7</ele>
        <time>2022-06-14T08:27:11Z</time>
      </trkpt>
      <trkpt lat="48.7212" lon="2.06452">
        <ele>87.7</ele>
        <time>2022-06-14T08:27:21Z</time>
      </trkpt>
      <trkpt lat="48.72126" lon="2.06445">
        <ele>87.7</ele>
        <time>2022-06-14T08:28:27Z</time>
      </trkpt>
      <trkpt lat="48.7212" lon="2.0644">
        <ele>87.6</ele>
        <time>2022-06-14T08:28:32Z</time>
      </trkpt>
      <trkpt lat="48.72124" lon="2.06431">
        <ele>87.6</ele>
        <time>2022-06-14T08:28:39Z</time>
      </trkpt>
      <trkpt lat="48.72129" lon="2.06423">
        <ele>87.5</ele>
        <time>2022-06-14T08:28:50Z</time>
      </trkpt>
      <trkpt lat="48.72135" lon="2.06419">
        <ele>87.4</ele>
        <time>2022-06-14T08:28:59Z</time>
      </trkpt>
      <trkpt lat="48.72143" lon="2.06416">
        <ele>87.3</ele>
        <time>2022-06-14T08:29:19Z</time>
      </trkpt>
      <trkpt lat="48.7215" lon="2.0641">
        <ele>87.2</ele>
        <time>2022-06-14T08:29:28Z</time>
      </trkpt>
      <trkpt lat="48.72157" lon="2.06404">
        <ele>87.1</ele>
        <time>2022-06-14T08:29:33Z</time>
      </trkpt>
      <trkpt lat="48.72163" lon="2.06397">
        <ele>87.1</ele>
        <time>2022-06-14T08:29:40Z</time>
      </trkpt>
      <trkpt lat="48.72165" lon="2.06386">
        <ele>87</ele>
        <time>2022-06-14T08:29:45Z</time>
      </trkpt>
      <trkpt lat="48.72172" lon="2.06376">
        <ele>87.1</ele>
        <time>2022-06-14T08:29:50Z</time>
      </trkpt>
      <trkpt lat="48.72171" lon="2.06365">
        <ele>87</ele>
        <time>2022-06-14T08:29:55Z</time>
      </trkpt>
      <trkpt lat="48.72176" lon="2.06354">
        <ele>87.1</ele>
        <time>2022-06-14T08:30:00Z</time>
      </trkpt>
      <trkpt lat="48.72176" lon="2.06344">
        <ele>87</ele>
        <time>2022-06-14T08:30:06Z</time>
      </trkpt>
      <trkpt lat="48.72172" lon="2.06334">
        <ele>87</ele>
        <time>2022-06-14T08:30:11Z</time>
      </trkpt>
      <trkpt lat="48.72168" lon="2.06327">
        <ele>87.1</ele>
        <time>2022-06-14T08:30:16Z</time>
      </trkpt>
      <trkpt lat="48.72162" lon="2.0632">
        <ele>87.3</ele>
        <time>2022-06-14T08:30:21Z</time>
      </trkpt>
      <trkpt lat="48.72153" lon="2.06313">
        <ele>87.6</ele>
        <time>2022-06-14T08:30:40Z</time>
      </trkpt>
      <trkpt lat="48.72148" lon="2.06307">
        <ele>87.8</ele>
        <time>2022-06-14T08:30:45Z</time>
      </trkpt>
      <trkpt lat="48.72144" lon="2.063">
        <ele>87.9</ele>
        <time>2022-06-14T08:30:52Z</time>
      </trkpt>
      <trkpt lat="48.7214" lon="2.0629">
        <ele>88.2</ele>
        <time>2022-06-14T08:30:57Z</time>
      </trkpt>
      <trkpt lat="48.72135" lon="2.06282">
        <ele>88.4</ele>
        <time>2022-06-14T08:31:04Z</time>
      </trkpt>
      <trkpt lat="48.7213" lon="2.06271">
        <ele>88.6</ele>
        <time>2022-06-14T08:31:10Z</time>
      </trkpt>
      <trkpt lat="48.72125" lon="2.06261">
        <ele>88.9</ele>
        <time>2022-06-14T08:31:15Z</time>
      </trkpt>
      <trkpt lat="48.72119" lon="2.06249">
        <ele>89.2</ele>
        <time>2022-06-14T08:31:20Z</time>
      </trkpt>
      <trkpt lat="48.72114" lon="2.0624">
        <ele>89.4</ele>
        <time>2022-06-14T08:31:26Z</time>
      </trkpt>
      <trkpt lat="48.7211" lon="2.06229">
        <ele>89.6</ele>
        <time>2022-06-14T08:31:31Z</time>
      </trkpt>
      <trkpt lat="48.72104" lon="2.06221">
        <ele>89.9</ele>
        <time>2022-06-14T08:31:36Z</time>
      </trkpt>
      <trkpt lat="48.72098" lon="2.06214">
        <ele>90.1</ele>
        <time>2022-06-14T08:31:41Z</time>
      </trkpt>
      <trkpt lat="48.72095" lon="2.06202">
        <ele>90.3</ele>
        <time>2022-06-14T08:31:46Z</time>
      </trkpt>
      <trkpt lat="48.72092" lon="2.06189">
        <ele>90.5</ele>
        <time>2022-06-14T08:31:51Z</time>
      </trkpt>
      <trkpt lat="48.7209" lon="2.06178">
        <ele>90.7</ele>
        <time>2022-06-14T08:31:57Z</time>
      </trkpt>
      <trkpt lat="48.72084" lon="2.06168">
        <ele>91</ele>
        <time>2022-06-14T08:32:02Z</time>
      </trkpt>
      <trkpt lat="48.72078" lon="2.06158">
        <ele>91.3</ele>
        <time>2022-06-14T08:32:07Z</time>
      </trkpt>
      <trkpt lat="48.72073" lon="2.06146">
        <ele>91.8</ele>
        <time>2022-06-14T08:32:12Z</time>
      </trkpt>
      <trkpt lat="48.7207" lon="2.06136">
        <ele>92.2</ele>
        <time>2022-06-14T08:32:20Z</time>
      </trkpt>
      <trkpt lat="48.72065" lon="2.06125">
        <ele>92.7</ele>
        <time>2022-06-14T08:32:25Z</time>
      </trkpt>
      <trkpt lat="48.72063" lon="2.06113">
        <ele>93.1</ele>
        <time>2022-06-14T08:32:30Z</time>
      </trkpt>
      <trkpt lat="48.72062" lon="2.06103">
        <ele>93.4</ele>
        <time>2022-06-14T08:32:36Z</time>
      </trkpt>
      <trkpt lat="48.72059" lon="2.06089">
        <ele>94</ele>
        <time>2022-06-14T08:32:41Z</time>
      </trkpt>
      <trkpt lat="48.72054" lon="2.06079">
        <ele>94.6</ele>
        <time>2022-06-14T08:32:46Z</time>
      </trkpt>
      <trkpt lat="48.72049" lon="2.0607">
        <ele>95.2</ele>
        <time>2022-06-14T08:32:51Z</time>
      </trkpt>
      <trkpt lat="48.72044" lon="2.06061">
        <ele>95.8</ele>
        <time>2022-06-14T08:32:57Z</time>
      </trkpt>
      <trkpt lat="48.72038" lon="2.06052">
        <ele>96.5</ele>
        <time>2022-06-14T08:33:02Z</time>
      </trkpt>
      <trkpt lat="48.72034" lon="2.06044">
        <ele>97</ele>
        <time>2022-06-14T08:33:07Z</time>
      </trkpt>
      <trkpt lat="48.72032" lon="2.06033">
        <ele>97.5</ele>
        <time>2022-06-14T08:33:14Z</time>
      </trkpt>
      <trkpt lat="48.72031" lon="2.06023">
        <ele>98</ele>
        <time>2022-06-14T08:33:20Z</time>
      </trkpt>
      <trkpt lat="48.72028" lon="2.0601">
        <ele>98.6</ele>
        <time>2022-06-14T08:33:25Z</time>
      </trkpt>
      <trkpt lat="48.7203" lon="2.05999">
        <ele>99</ele>
        <time>2022-06-14T08:33:42Z</time>
      </trkpt>
      <trkpt lat="48.72025" lon="2.05989">
        <ele>100</ele>
        <time>2022-06-14T08:33:48Z</time>
      </trkpt>
      <trkpt lat="48.72018" lon="2.05982">
        <ele>100.9</ele>
        <time>2022-06-14T08:33:53Z</time>
      </trkpt>
      <trkpt lat="48.72018" lon="2.0597">
        <ele>102</ele>
        <time>2022-06-14T08:33:58Z</time>
      </trkpt>
      <trkpt lat="48.72017" lon="2.0596">
        <ele>102.9</ele>
        <time>2022-06-14T08:34:03Z</time>
      </trkpt>
      <trkpt lat="48.72012" lon="2.05951">
        <ele>104</ele>
        <time>2022-06-14T08:34:08Z</time>
      </trkpt>
      <trkpt lat="48.72009" lon="2.05941">
        <ele>105.1</ele>
        <time>2022-06-14T08:34:13Z</time>
      </trkpt>
      <trkpt lat="48.72008" lon="2.0593">
        <ele>106.2</ele>
        <time>2022-06-14T08:34:18Z</time>
      </trkpt>
      <trkpt lat="48.72006" lon="2.0592">
        <ele>107.3</ele>
        <time>2022-06-14T08:34:23Z</time>
      </trkpt>
      <trkpt lat="48.72003" lon="2.05908">
        <ele>108.7</ele>
        <time>2022-06-14T08:34:29Z</time>
      </trkpt>
      <trkpt lat="48.71999" lon="2.05899">
        <ele>109.9</ele>
        <time>2022-06-14T08:34:35Z</time>
      </trkpt>
      <trkpt lat="48.71996" lon="2.05889">
        <ele>111</ele>
        <time>2022-06-14T08:34:42Z</time>
      </trkpt>
      <trkpt lat="48.71992" lon="2.05879">
        <ele>112.2</ele>
        <time>2022-06-14T08:34:47Z</time>
      </trkpt>
      <trkpt lat="48.7199" lon="2.05869">
        <ele>113.4</ele>
        <time>2022-06-14T08:34:52Z</time>
      </trkpt>
      <trkpt lat="48.71999" lon="2.05867">
        <ele>113.4</ele>
        <time>2022-06-14T08:35:23Z</time>
      </trkpt>
      <trkpt lat="48.7199" lon="2.05856">
        <ele>114.8</ele>
        <time>2022-06-14T08:36:41Z</time>
      </trkpt>
      <trkpt lat="48.71988" lon="2.05845">
        <ele>116.1</ele>
        <time>2022-06-14T08:36:52Z</time>
      </trkpt>
      <trkpt lat="48.71986" lon="2.05836">
        <ele>117.2</ele>
        <time>2022-06-14T08:36:57Z</time>
      </trkpt>
      <trkpt lat="48.71979" lon="2.05826">
        <ele>119.1</ele>
        <time>2022-06-14T08:37:02Z</time>
      </trkpt>
      <trkpt lat="48.71977" lon="2.05816">
        <ele>121</ele>
        <time>2022-06-14T08:37:12Z</time>
      </trkpt>
      <trkpt lat="48.71971" lon="2.05803">
        <ele>123.5</ele>
        <time>2022-06-14T08:37:17Z</time>
      </trkpt>
      <trkpt lat="48.71968" lon="2.05794">
        <ele>125.1</ele>
        <time>2022-06-14T08:37:23Z</time>
      </trkpt>
      <trkpt lat="48.71963" lon="2.05785">
        <ele>126.6</ele>
        <time>2022-06-14T08:37:30Z</time>
      </trkpt>
      <trkpt lat="48.71965" lon="2.05775">
        <ele>128.4</ele>
        <time>2022-06-14T08:37:37Z</time>
      </trkpt>
      <trkpt lat="48.71967" lon="2.05765">
        <ele>130.2</ele>
        <time>2022-06-14T08:37:44Z</time>
      </trkpt>
      <trkpt lat="48.71962" lon="2.05756">
        <ele>131.6</ele>
        <time>2022-06-14T08:38:03Z</time>
      </trkpt>
      <trkpt lat="48.71962" lon="2.05746">
        <ele>133.1</ele>
        <time>2022-06-14T08:38:12Z</time>
      </trkpt>
      <trkpt lat="48.71961" lon="2.05736">
        <ele>134.1</ele>
        <time>2022-06-14T08:38:22Z</time>
      </trkpt>
      <trkpt lat="48.71965" lon="2.05728">
        <ele>135.2</ele>
        <time>2022-06-14T08:38:29Z</time>
      </trkpt>
      <trkpt lat="48.71963" lon="2.05718">
        <ele>136.2</ele>
        <time>2022-06-14T08:38:41Z</time>
      </trkpt>
      <trkpt lat="48.71958" lon="2.05712">
        <ele>136.6</ele>
        <time>2022-06-14T08:38:49Z</time>
      </trkpt>
      <trkpt lat="48.71954" lon="2.05703">
        <ele>137.4</ele>
        <time>2022-06-14T08:38:55Z</time>
      </trkpt>
      <trkpt lat="48.71948" lon="2.05708">
        <ele>136.5</ele>
        <time>2022-06-14T08:39:19Z</time>
      </trkpt>
      <trkpt lat="48.71943" lon="2.05702">
        <ele>136.9</ele>
        <time>2022-06-14T08:40:04Z</time>
      </trkpt>
      <trkpt lat="48.7194" lon="2.05693">
        <ele>137.7</ele>
        <time>2022-06-14T08:40:14Z</time>
      </trkpt>
      <trkpt lat="48.71946" lon="2.05686">
        <ele>138.7</ele>
        <time>2022-06-14T08:40:23Z</time>
      </trkpt>
      <trkpt lat="48.71951" lon="2.05679">
        <ele>139.8</ele>
        <time>2022-06-14T08:40:28Z</time>
      </trkpt>
      <trkpt lat="48.71956" lon="2.05672">
        <ele>140.8</ele>
        <time>2022-06-14T08:40:35Z</time>
      </trkpt>
      <trkpt lat="48.71962" lon="2.05669">
        <ele>141.5</ele>
        <time>2022-06-14T08:40:45Z</time>
      </trkpt>
      <trkpt lat="48.71969" lon="2.05667">
        <ele>142.1</ele>
        <time>2022-06-14T08:40:51Z</time>
      </trkpt>
      <trkpt lat="48.71975" lon="2.0566">
        <ele>142.9</ele>
        <time>2022-06-14T08:40:57Z</time>
      </trkpt>
      <trkpt lat="48.71982" lon="2.05652">
        <ele>143.8</ele>
        <time>2022-06-14T08:41:02Z</time>
      </trkpt>
      <trkpt lat="48.71989" lon="2.05643">
        <ele>144.8</ele>
        <time>2022-06-14T08:41:23Z</time>
      </trkpt>
      <trkpt lat="48.71995" lon="2.05634">
        <ele>145.7</ele>
        <time>2022-06-14T08:41:28Z</time>
      </trkpt>
      <trkpt lat="48.72003" lon="2.05631">
        <ele>145.6</ele>
        <time>2022-06-14T08:41:33Z</time>
      </trkpt>
      <trkpt lat="48.72013" lon="2.05629">
        <ele>143.8</ele>
        <time>2022-06-14T08:41:38Z</time>
      </trkpt>
      <trkpt lat="48.7202" lon="2.05628">
        <ele>142.5</ele>
        <time>2022-06-14T08:41:43Z</time>
      </trkpt>
      <trkpt lat="48.72026" lon="2.05623">
        <ele>141.9</ele>
        <time>2022-06-14T08:41:49Z</time>
      </trkpt>
      <trkpt lat="48.72033" lon="2.05624">
        <ele>140.5</ele>
        <time>2022-06-14T08:41:55Z</time>
      </trkpt>
      <trkpt lat="48.7204" lon="2.05626">
        <ele>138.9</ele>
        <time>2022-06-14T08:42:00Z</time>
      </trkpt>
      <trkpt lat="48.72042" lon="2.05615">
        <ele>140</ele>
        <time>2022-06-14T08:42:12Z</time>
      </trkpt>
      <trkpt lat="48.72042" lon="2.05604">
        <ele>141.3</ele>
        <time>2022-06-14T08:42:17Z</time>
      </trkpt>
      <trkpt lat="48.72047" lon="2.05595">
        <ele>141.8</ele>
        <time>2022-06-14T08:42:22Z</time>
      </trkpt>
      <trkpt lat="48.72051" lon="2.05585">
        <ele>142.6</ele>
        <time>2022-06-14T08:42:28Z</time>
      </trkpt>
      <trkpt lat="48.72055" lon="2.05577">
        <ele>143.1</ele>
        <time>2022-06-14T08:42:34Z</time>
      </trkpt>
      <trkpt lat="48.72056" lon="2.05566">
        <ele>144.2</ele>
        <time>2022-06-14T08:42:41Z</time>
      </trkpt>
      <trkpt lat="48.72061" lon="2.05558">
        <ele>144.5</ele>
        <time>2022-06-14T08:42:47Z</time>
      </trkpt>
      <trkpt lat="48.72066" lon="2.05551">
        <ele>144.9</ele>
        <time>2022-06-14T08:43:20Z</time>
      </trkpt>
      <trkpt lat="48.72069" lon="2.05542">
        <ele>145.7</ele>
        <time>2022-06-14T08:43:29Z</time>
      </trkpt>
      <trkpt lat="48.72073" lon="2.05534">
        <ele>146.3</ele>
        <time>2022-06-14T08:43:47Z</time>
      </trkpt>
      <trkpt lat="48.72077" lon="2.05526">
        <ele>147</ele>
        <time>2022-06-14T08:43:54Z</time>
      </trkpt>
      <trkpt lat="48.7208" lon="2.05516">
        <ele>148.1</ele>
        <time>2022-06-14T08:44:00Z</time>
      </trkpt>
      <trkpt lat="48.72082" lon="2.05506">
        <ele>149.3</ele>
        <time>2022-06-14T08:44:06Z</time>
      </trkpt>
      <trkpt lat="48.72084" lon="2.05495">
        <ele>150.3</ele>
        <time>2022-06-14T08:44:13Z</time>
      </trkpt>
      <trkpt lat="48.72085" lon="2.05484">
        <ele>151.2</ele>
        <time>2022-06-14T08:44:22Z</time>
      </trkpt>
      <trkpt lat="48.72094" lon="2.05482">
        <ele>150.4</ele>
        <time>2022-06-14T08:44:32Z</time>
      </trkpt>
      <trkpt lat="48.72098" lon="2.05473">
        <ele>150.9</ele>
        <time>2022-06-14T08:44:40Z</time>
      </trkpt>
      <trkpt lat="48.72105" lon="2.05472">
        <ele>150.4</ele>
        <time>2022-06-14T08:44:45Z</time>
      </trkpt>
      <trkpt lat="48.72112" lon="2.05475">
        <ele>149.3</ele>
        <time>2022-06-14T08:44:50Z</time>
      </trkpt>
      <trkpt lat="48.72121" lon="2.05474">
        <ele>148.6</ele>
        <time>2022-06-14T08:44:57Z</time>
      </trkpt>
      <trkpt lat="48.72126" lon="2.05467">
        <ele>149.2</ele>
        <time>2022-06-14T08:45:06Z</time>
      </trkpt>
      <trkpt lat="48.7212" lon="2.05468">
        <ele>149.5</ele>
        <time>2022-06-14T08:45:12Z</time>
      </trkpt>
      <trkpt lat="48.72116" lon="2.05457">
        <ele>151.3</ele>
        <time>2022-06-14T08:45:28Z</time>
      </trkpt>
      <trkpt lat="48.72109" lon="2.0546">
        <ele>151.5</ele>
        <time>2022-06-14T08:45:34Z</time>
      </trkpt>
      <trkpt lat="48.72102" lon="2.05461">
        <ele>151.9</ele>
        <time>2022-06-14T08:45:39Z</time>
      </trkpt>
      <trkpt lat="48.72094" lon="2.05457">
        <ele>152.9</ele>
        <time>2022-06-14T08:45:44Z</time>
      </trkpt>
      <trkpt lat="48.72086" lon="2.05446">
        <ele>154.4</ele>
        <time>2022-06-14T08:45:49Z</time>
      </trkpt>
      <trkpt lat="48.72079" lon="2.05439">
        <ele>155.1</ele>
        <time>2022-06-14T08:45:55Z</time>
      </trkpt>
      <trkpt lat="48.72072" lon="2.05435">
        <ele>155.5</ele>
        <time>2022-06-14T08:46:00Z</time>
      </trkpt>
      <trkpt lat="48.72071" lon="2.05425">
        <ele>156.2</ele>
        <time>2022-06-14T08:46:05Z</time>
      </trkpt>
      <trkpt lat="48.72063" lon="2.0542">
        <ele>156.5</ele>
        <time>2022-06-14T08:46:14Z</time>
      </trkpt>
      <trkpt lat="48.72056" lon="2.05407">
        <ele>157.3</ele>
        <time>2022-06-14T08:46:19Z</time>
      </trkpt>
      <trkpt lat="48.72047" lon="2.05405">
        <ele>157.3</ele>
        <time>2022-06-14T08:46:24Z</time>
      </trkpt>
      <trkpt lat="48.72041" lon="2.054">
        <ele>157.5</ele>
        <time>2022-06-14T08:46:33Z</time>
      </trkpt>
      <trkpt lat="48.72035" lon="2.05396">
        <ele>157.6</ele>
        <time>2022-06-14T08:46:41Z</time>
      </trkpt>
      <trkpt lat="48.7203" lon="2.05388">
        <ele>158</ele>
        <time>2022-06-14T08:46:46Z</time>
      </trkpt>
      <trkpt lat="48.72025" lon="2.05381">
        <ele>158.3</ele>
        <time>2022-06-14T08:46:54Z</time>
      </trkpt>
      <trkpt lat="48.72027" lon="2.05371">
        <ele>158.9</ele>
        <time>2022-06-14T08:47:03Z</time>
      </trkpt>
      <trkpt lat="48.72031" lon="2.05382">
        <ele>158.3</ele>
        <time>2022-06-14T08:47:14Z</time>
      </trkpt>
      <trkpt lat="48.72027" lon="2.05371">
        <ele>158.9</ele>
        <time>2022-06-14T08:47:23Z</time>
      </trkpt>
      <trkpt lat="48.72023" lon="2.05363">
        <ele>159.2</ele>
        <time>2022-06-14T08:47:28Z</time>
      </trkpt>
      <trkpt lat="48.72022" lon="2.05353">
        <ele>159.7</ele>
        <time>2022-06-14T08:47:34Z</time>
      </trkpt>
      <trkpt lat="48.72015" lon="2.05352">
        <ele>159.6</ele>
        <time>2022-06-14T08:47:43Z</time>
      </trkpt>
      <trkpt lat="48.72008" lon="2.05347">
        <ele>159.6</ele>
        <time>2022-06-14T08:47:49Z</time>
      </trkpt>
      <trkpt lat="48.72001" lon="2.05343">
        <ele>159.6</ele>
        <time>2022-06-14T08:47:54Z</time>
      </trkpt>
      <trkpt lat="48.71993" lon="2.05344">
        <ele>159.5</ele>
        <time>2022-06-14T08:48:04Z</time>
      </trkpt>
      <trkpt lat="48.71989" lon="2.05335">
        <ele>160</ele>
        <time>2022-06-14T08:48:10Z</time>
      </trkpt>
      <trkpt lat="48.71985" lon="2.05327">
        <ele>160.3</ele>
        <time>2022-06-14T08:48:16Z</time>
      </trkpt>
      <trkpt lat="48.7199" lon="2.0532">
        <ele>160.3</ele>
        <time>2022-06-14T08:48:22Z</time>
      </trkpt>
      <trkpt lat="48.71997" lon="2.05323">
        <ele>160.2</ele>
        <time>2022-06-14T08:48:28Z</time>
      </trkpt>
      <trkpt lat="48.72004" lon="2.05323">
        <ele>160.3</ele>
        <time>2022-06-14T08:48:33Z</time>
      </trkpt>
      <trkpt lat="48.72013" lon="2.05323">
        <ele>160.6</ele>
        <time>2022-06-14T08:48:38Z</time>
      </trkpt>
      <trkpt lat="48.72021" lon="2.05324">
        <ele>160.9</ele>
        <time>2022-06-14T08:48:44Z</time>
      </trkpt>
      <trkpt lat="48.72028" lon="2.05321">
        <ele>161.3</ele>
        <time>2022-06-14T08:48:50Z</time>
      </trkpt>
      <trkpt lat="48.72037" lon="2.05323">
        <ele>161.6</ele>
        <time>2022-06-14T08:48:55Z</time>
      </trkpt>
      <trkpt lat="48.72046" lon="2.05325">
        <ele>161.9</ele>
        <time>2022-06-14T08:49:00Z</time>
      </trkpt>
      <trkpt lat="48.72054" lon="2.05325">
        <ele>162.2</ele>
        <time>2022-06-14T08:49:05Z</time>
      </trkpt>
      <trkpt lat="48.72061" lon="2.05327">
        <ele>162.4</ele>
        <time>2022-06-14T08:49:11Z</time>
      </trkpt>
      <trkpt lat="48.72068" lon="2.05328">
        <ele>162.6</ele>
        <time>2022-06-14T08:49:19Z</time>
      </trkpt>
      <trkpt lat="48.72076" lon="2.05325">
        <ele>163</ele>
        <time>2022-06-14T08:49:24Z</time>
      </trkpt>
      <trkpt lat="48.72084" lon="2.05329">
        <ele>163.2</ele>
        <time>2022-06-14T08:49:29Z</time>
      </trkpt>
      <trkpt lat="48.72092" lon="2.05328">
        <ele>163.3</ele>
        <time>2022-06-14T08:49:34Z</time>
      </trkpt>
      <trkpt lat="48.72101" lon="2.05329">
        <ele>163.4</ele>
        <time>2022-06-14T08:49:39Z</time>
      </trkpt>
      <trkpt lat="48.72108" lon="2.05332">
        <ele>163.3</ele>
        <time>2022-06-14T08:49:45Z</time>
      </trkpt>
      <trkpt lat="48.72117" lon="2.05332">
        <ele>163.5</ele>
        <time>2022-06-14T08:49:50Z</time>
      </trkpt>
      <trkpt lat="48.72124" lon="2.05329">
        <ele>163.6</ele>
        <time>2022-06-14T08:49:55Z</time>
      </trkpt>
      <trkpt lat="48.72128" lon="2.0532">
        <ele>164</ele>
        <time>2022-06-14T08:50:02Z</time>
      </trkpt>
      <trkpt lat="48.72134" lon="2.05315">
        <ele>164.3</ele>
        <time>2022-06-14T08:50:07Z</time>
      </trkpt>
      <trkpt lat="48.72139" lon="2.05305">
        <ele>164.7</ele>
        <time>2022-06-14T08:50:13Z</time>
      </trkpt>
      <trkpt lat="48.72142" lon="2.05295">
        <ele>165.1</ele>
        <time>2022-06-14T08:50:19Z</time>
      </trkpt>
      <trkpt lat="48.72141" lon="2.05283">
        <ele>165.5</ele>
        <time>2022-06-14T08:50:25Z</time>
      </trkpt>
      <trkpt lat="48.72138" lon="2.0527">
        <ele>165.9</ele>
        <time>2022-06-14T08:50:30Z</time>
      </trkpt>
      <trkpt lat="48.72134" lon="2.0526">
        <ele>166.2</ele>
        <time>2022-06-14T08:50:35Z</time>
      </trkpt>
      <trkpt lat="48.72132" lon="2.05248">
        <ele>166.6</ele>
        <time>2022-06-14T08:50:40Z</time>
      </trkpt>
      <trkpt lat="48.72131" lon="2.05238">
        <ele>166.6</ele>
        <time>2022-06-14T08:50:45Z</time>
      </trkpt>
      <trkpt lat="48.72128" lon="2.05225">
        <ele>166.7</ele>
        <time>2022-06-14T08:50:50Z</time>
      </trkpt>
      <trkpt lat="48.72128" lon="2.05213">
        <ele>166.7</ele>
        <time>2022-06-14T08:50:55Z</time>
      </trkpt>
      <trkpt lat="48.72128" lon="2.05198">
        <ele>166.8</ele>
        <time>2022-06-14T08:51:00Z</time>
      </trkpt>
      <trkpt lat="48.72127" lon="2.05184">
        <ele>166.9</ele>
        <time>2022-06-14T08:51:07Z</time>
      </trkpt>
      <trkpt lat="48.72126" lon="2.05171">
        <ele>167</ele>
        <time>2022-06-14T08:51:12Z</time>
      </trkpt>
      <trkpt lat="48.72127" lon="2.05162">
        <ele>166.9</ele>
        <time>2022-06-14T08:51:17Z</time>
      </trkpt>
      <trkpt lat="48.72125" lon="2.0515">
        <ele>166.7</ele>
        <time>2022-06-14T08:51:22Z</time>
      </trkpt>
      <trkpt lat="48.72124" lon="2.05138">
        <ele>166.5</ele>
        <time>2022-06-14T08:51:27Z</time>
      </trkpt>
      <trkpt lat="48.72124" lon="2.05127">
        <ele>166.3</ele>
        <time>2022-06-14T08:51:32Z</time>
      </trkpt>
      <trkpt lat="48.72123" lon="2.05115">
        <ele>166</ele>
        <time>2022-06-14T08:51:37Z</time>
      </trkpt>
      <trkpt lat="48.72121" lon="2.05103">
        <ele>165.7</ele>
        <time>2022-06-14T08:51:43Z</time>
      </trkpt>
      <trkpt lat="48.72118" lon="2.05091">
        <ele>165.3</ele>
        <time>2022-06-14T08:51:48Z</time>
      </trkpt>
      <trkpt lat="48.72118" lon="2.0508">
        <ele>165</ele>
        <time>2022-06-14T08:51:53Z</time>
      </trkpt>
      <trkpt lat="48.72114" lon="2.05066">
        <ele>164.2</ele>
        <time>2022-06-14T08:51:58Z</time>
      </trkpt>
      <trkpt lat="48.72114" lon="2.05055">
        <ele>163.8</ele>
        <time>2022-06-14T08:52:04Z</time>
      </trkpt>
      <trkpt lat="48.72117" lon="2.05045">
        <ele>163.6</ele>
        <time>2022-06-14T08:52:10Z</time>
      </trkpt>
      <trkpt lat="48.72111" lon="2.05029">
        <ele>162.7</ele>
        <time>2022-06-14T08:52:15Z</time>
      </trkpt>
      <trkpt lat="48.72109" lon="2.05014">
        <ele>162</ele>
        <time>2022-06-14T08:52:20Z</time>
      </trkpt>
      <trkpt lat="48.72109" lon="2.05002">
        <ele>161.6</ele>
        <time>2022-06-14T08:52:25Z</time>
      </trkpt>
      <trkpt lat="48.7211" lon="2.04991">
        <ele>161.4</ele>
        <time>2022-06-14T08:52:30Z</time>
      </trkpt>
      <trkpt lat="48.72108" lon="2.04979">
        <ele>161</ele>
        <time>2022-06-14T08:52:35Z</time>
      </trkpt>
      <trkpt lat="48.72109" lon="2.04969">
        <ele>160.8</ele>
        <time>2022-06-14T08:52:41Z</time>
      </trkpt>
      <trkpt lat="48.72104" lon="2.04963">
        <ele>160.4</ele>
        <time>2022-06-14T08:53:02Z</time>
      </trkpt>
      <trkpt lat="48.72098" lon="2.04958">
        <ele>159.9</ele>
        <time>2022-06-14T08:53:11Z</time>
      </trkpt>
      <trkpt lat="48.72093" lon="2.0495">
        <ele>159.4</ele>
        <time>2022-06-14T08:53:18Z</time>
      </trkpt>
      <trkpt lat="48.72091" lon="2.04937">
        <ele>158.9</ele>
        <time>2022-06-14T08:53:23Z</time>
      </trkpt>
      <trkpt lat="48.7209" lon="2.04926">
        <ele>158.6</ele>
        <time>2022-06-14T08:53:28Z</time>
      </trkpt>
      <trkpt lat="48.72092" lon="2.04913">
        <ele>158.6</ele>
        <time>2022-06-14T08:53:33Z</time>
      </trkpt>
      <trkpt lat="48.72095" lon="2.04903">
        <ele>159</ele>
        <time>2022-06-14T08:53:38Z</time>
      </trkpt>
      <trkpt lat="48.72096" lon="2.04893">
        <ele>159.2</ele>
        <time>2022-06-14T08:53:43Z</time>
      </trkpt>
      <trkpt lat="48.7209" lon="2.04884">
        <ele>159.1</ele>
        <time>2022-06-14T08:53:52Z</time>
      </trkpt>
      <trkpt lat="48.72091" lon="2.04874">
        <ele>159.3</ele>
        <time>2022-06-14T08:54:00Z</time>
      </trkpt>
      <trkpt lat="48.72095" lon="2.04867">
        <ele>159.6</ele>
        <time>2022-06-14T08:54:08Z</time>
      </trkpt>
      <trkpt lat="48.72097" lon="2.04857">
        <ele>159.9</ele>
        <time>2022-06-14T08:54:13Z</time>
      </trkpt>
      <trkpt lat="48.72093" lon="2.04844">
        <ele>160</ele>
        <time>2022-06-14T08:54:18Z</time>
      </trkpt>
      <trkpt lat="48.72089" lon="2.04831">
        <ele>160.1</ele>
        <time>2022-06-14T08:54:23Z</time>
      </trkpt>
      <trkpt lat="48.72087" lon="2.0482">
        <ele>160.1</ele>
        <time>2022-06-14T08:54:28Z</time>
      </trkpt>
      <trkpt lat="48.72086" lon="2.04809">
        <ele>160.1</ele>
        <time>2022-06-14T08:54:33Z</time>
      </trkpt>
      <trkpt lat="48.72087" lon="2.04796">
        <ele>160.1</ele>
        <time>2022-06-14T08:54:38Z</time>
      </trkpt>
      <trkpt lat="48.72084" lon="2.04787">
        <ele>160</ele>
        <time>2022-06-14T08:54:43Z</time>
      </trkpt>
      <trkpt lat="48.7208" lon="2.04775">
        <ele>160</ele>
        <time>2022-06-14T08:54:48Z</time>
      </trkpt>
      <trkpt lat="48.72081" lon="2.04764">
        <ele>160</ele>
        <time>2022-06-14T08:54:53Z</time>
      </trkpt>
      <trkpt lat="48.72081" lon="2.04752">
        <ele>160</ele>
        <time>2022-06-14T08:55:00Z</time>
      </trkpt>
      <trkpt lat="48.7208" lon="2.0474">
        <ele>160.1</ele>
        <time>2022-06-14T08:55:05Z</time>
      </trkpt>
      <trkpt lat="48.72077" lon="2.04725">
        <ele>160.3</ele>
        <time>2022-06-14T08:55:10Z</time>
      </trkpt>
      <trkpt lat="48.72075" lon="2.04711">
        <ele>160.4</ele>
        <time>2022-06-14T08:55:15Z</time>
      </trkpt>
      <trkpt lat="48.72071" lon="2.04701">
        <ele>160.4</ele>
        <time>2022-06-14T08:55:21Z</time>
      </trkpt>
      <trkpt lat="48.72068" lon="2.04692">
        <ele>160.4</ele>
        <time>2022-06-14T08:55:27Z</time>
      </trkpt>
      <trkpt lat="48.72062" lon="2.04691">
        <ele>160.3</ele>
        <time>2022-06-14T08:55:34Z</time>
      </trkpt>
      <trkpt lat="48.72053" lon="2.04694">
        <ele>160.2</ele>
        <time>2022-06-14T08:55:39Z</time>
      </trkpt>
      <trkpt lat="48.72048" lon="2.04701">
        <ele>160.1</ele>
        <time>2022-06-14T08:55:46Z</time>
      </trkpt>
      <trkpt lat="48.72041" lon="2.04701">
        <ele>160</ele>
        <time>2022-06-14T08:55:54Z</time>
      </trkpt>
      <trkpt lat="48.72035" lon="2.04697">
        <ele>159.9</ele>
        <time>2022-06-14T08:56:01Z</time>
      </trkpt>
      <trkpt lat="48.72031" lon="2.04706">
        <ele>159.9</ele>
        <time>2022-06-14T08:56:11Z</time>
      </trkpt>
      <trkpt lat="48.72037" lon="2.04711">
        <ele>159.9</ele>
        <time>2022-06-14T08:56:52Z</time>
      </trkpt>
      <trkpt lat="48.72031" lon="2.04711">
        <ele>159.9</ele>
        <time>2022-06-14T08:57:02Z</time>
      </trkpt>
      <trkpt lat="48.72033" lon="2.04721">
        <ele>159.9</ele>
        <time>2022-06-14T08:57:45Z</time>
      </trkpt>
      <trkpt lat="48.72033" lon="2.04732">
        <ele>160</ele>
        <time>2022-06-14T08:58:18Z</time>
      </trkpt>
      <trkpt lat="48.72028" lon="2.04721">
        <ele>159.9</ele>
        <time>2022-06-14T08:58:55Z</time>
      </trkpt>
      <trkpt lat="48.72032" lon="2.04715">
        <ele>159.9</ele>
        <time>2022-06-14T08:59:03Z</time>
      </trkpt>
      <trkpt lat="48.72037" lon="2.04722">
        <ele>160</ele>
        <time>2022-06-14T09:00:13Z</time>
      </trkpt>
      <trkpt lat="48.72044" lon="2.04724">
        <ele>160</ele>
        <time>2022-06-14T09:00:20Z</time>
      </trkpt>
      <trkpt lat="48.72048" lon="2.04735">
        <ele>160</ele>
        <time>2022-06-14T09:00:26Z</time>
      </trkpt>
      <trkpt lat="48.7205" lon="2.04745">
        <ele>160</ele>
        <time>2022-06-14T09:00:33Z</time>
      </trkpt>
      <trkpt lat="48.72053" lon="2.04754">
        <ele>160</ele>
        <time>2022-06-14T09:00:38Z</time>
      </trkpt>
      <trkpt lat="48.72055" lon="2.04763">
        <ele>159.9</ele>
        <time>2022-06-14T09:00:45Z</time>
      </trkpt>
      <trkpt lat="48.72059" lon="2.04773">
        <ele>159.9</ele>
        <time>2022-06-14T09:00:50Z</time>
      </trkpt>
      <trkpt lat="48.72061" lon="2.04782">
        <ele>159.9</ele>
        <time>2022-06-14T09:01:00Z</time>
      </trkpt>
      <trkpt lat="48.72065" lon="2.04792">
        <ele>159.9</ele>
        <time>2022-06-14T09:01:07Z</time>
      </trkpt>
      <trkpt lat="48.72069" lon="2.04802">
        <ele>159.9</ele>
        <time>2022-06-14T09:01:16Z</time>
      </trkpt>
      <trkpt lat="48.72076" lon="2.04802">
        <ele>159.9</ele>
        <time>2022-06-14T09:01:21Z</time>
      </trkpt>
      <trkpt lat="48.72082" lon="2.04807">
        <ele>160</ele>
        <time>2022-06-14T09:01:30Z</time>
      </trkpt>
      <trkpt lat="48.72086" lon="2.04798">
        <ele>160.1</ele>
        <time>2022-06-14T09:01:36Z</time>
      </trkpt>
      <trkpt lat="48.72082" lon="2.0479">
        <ele>160</ele>
        <time>2022-06-14T09:01:45Z</time>
      </trkpt>
      <trkpt lat="48.72085" lon="2.04777">
        <ele>160</ele>
        <time>2022-06-14T09:02:03Z</time>
      </trkpt>
      <trkpt lat="48.72085" lon="2.04765">
        <ele>160</ele>
        <time>2022-06-14T09:02:10Z</time>
      </trkpt>
      <trkpt lat="48.72083" lon="2.04752">
        <ele>160</ele>
        <time>2022-06-14T09:02:15Z</time>
      </trkpt>
      <trkpt lat="48.7208" lon="2.04741">
        <ele>160.1</ele>
        <time>2022-06-14T09:02:21Z</time>
      </trkpt>
      <trkpt lat="48.7208" lon="2.04731">
        <ele>160.2</ele>
        <time>2022-06-14T09:02:27Z</time>
      </trkpt>
      <trkpt lat="48.72079" lon="2.04718">
        <ele>160.3</ele>
        <time>2022-06-14T09:02:32Z</time>
      </trkpt>
      <trkpt lat="48.72084" lon="2.04711">
        <ele>160.5</ele>
        <time>2022-06-14T09:02:41Z</time>
      </trkpt>
      <trkpt lat="48.7209" lon="2.04705">
        <ele>160.6</ele>
        <time>2022-06-14T09:02:46Z</time>
      </trkpt>
      <trkpt lat="48.72089" lon="2.04694">
        <ele>160.7</ele>
        <time>2022-06-14T09:02:56Z</time>
      </trkpt>
      <trkpt lat="48.72082" lon="2.04685">
        <ele>160.8</ele>
        <time>2022-06-14T09:03:01Z</time>
      </trkpt>
      <trkpt lat="48.72079" lon="2.04673">
        <ele>160.8</ele>
        <time>2022-06-14T09:03:06Z</time>
      </trkpt>
      <trkpt lat="48.72081" lon="2.04663">
        <ele>160.9</ele>
        <time>2022-06-14T09:03:11Z</time>
      </trkpt>
      <trkpt lat="48.72085" lon="2.0465">
        <ele>160.6</ele>
        <time>2022-06-14T09:03:16Z</time>
      </trkpt>
      <trkpt lat="48.72084" lon="2.04639">
        <ele>160.3</ele>
        <time>2022-06-14T09:03:21Z</time>
      </trkpt>
      <trkpt lat="48.72088" lon="2.04629">
        <ele>160.2</ele>
        <time>2022-06-14T09:03:26Z</time>
      </trkpt>
      <trkpt lat="48.72093" lon="2.0462">
        <ele>160.1</ele>
        <time>2022-06-14T09:03:31Z</time>
      </trkpt>
      <trkpt lat="48.72099" lon="2.04613">
        <ele>160.1</ele>
        <time>2022-06-14T09:03:36Z</time>
      </trkpt>
      <trkpt lat="48.72105" lon="2.04605">
        <ele>160.1</ele>
        <time>2022-06-14T09:03:41Z</time>
      </trkpt>
      <trkpt lat="48.72103" lon="2.04615">
        <ele>160.2</ele>
        <time>2022-06-14T09:04:00Z</time>
      </trkpt>
      <trkpt lat="48.72097" lon="2.04621">
        <ele>160.2</ele>
        <time>2022-06-14T09:04:06Z</time>
      </trkpt>
      <trkpt lat="48.72092" lon="2.04629">
        <ele>160.2</ele>
        <time>2022-06-14T09:04:12Z</time>
      </trkpt>
      <trkpt lat="48.7209" lon="2.0464">
        <ele>160.4</ele>
        <time>2022-06-14T09:04:17Z</time>
      </trkpt>
      <trkpt lat="48.7209" lon="2.04652">
        <ele>160.7</ele>
        <time>2022-06-14T09:04:22Z</time>
      </trkpt>
      <trkpt lat="48.72088" lon="2.04664">
        <ele>160.9</ele>
        <time>2022-06-14T09:04:27Z</time>
      </trkpt>
      <trkpt lat="48.72088" lon="2.04677">
        <ele>160.9</ele>
        <time>2022-06-14T09:04:32Z</time>
      </trkpt>
      <trkpt lat="48.72091" lon="2.0469">
        <ele>160.7</ele>
        <time>2022-06-14T09:04:37Z</time>
      </trkpt>
      <trkpt lat="48.72094" lon="2.04701">
        <ele>160.6</ele>
        <time>2022-06-14T09:04:42Z</time>
      </trkpt>
      <trkpt lat="48.72098" lon="2.04709">
        <ele>160.6</ele>
        <time>2022-06-14T09:04:47Z</time>
      </trkpt>
      <trkpt lat="48.72103" lon="2.04717">
        <ele>160.5</ele>
        <time>2022-06-14T09:04:52Z</time>
      </trkpt>
      <trkpt lat="48.72108" lon="2.04724">
        <ele>160.5</ele>
        <time>2022-06-14T09:04:57Z</time>
      </trkpt>
      <trkpt lat="48.72113" lon="2.04734">
        <ele>160.5</ele>
        <time>2022-06-14T09:05:02Z</time>
      </trkpt>
      <trkpt lat="48.72115" lon="2.04745">
        <ele>160.4</ele>
        <time>2022-06-14T09:05:07Z</time>
      </trkpt>
      <trkpt lat="48.72118" lon="2.04756">
        <ele>160.4</ele>
        <time>2022-06-14T09:05:12Z</time>
      </trkpt>
      <trkpt lat="48.72123" lon="2.04762">
        <ele>160.5</ele>
        <time>2022-06-14T09:05:19Z</time>
      </trkpt>
      <trkpt lat="48.72126" lon="2.04751">
        <ele>160.5</ele>
        <time>2022-06-14T09:05:24Z</time>
      </trkpt>
      <trkpt lat="48.72128" lon="2.0474">
        <ele>160.6</ele>
        <time>2022-06-14T09:05:34Z</time>
      </trkpt>
      <trkpt lat="48.72132" lon="2.0473">
        <ele>160.7</ele>
        <time>2022-06-14T09:05:40Z</time>
      </trkpt>
      <trkpt lat="48.72135" lon="2.0472">
        <ele>160.8</ele>
        <time>2022-06-14T09:05:45Z</time>
      </trkpt>
      <trkpt lat="48.72138" lon="2.04709">
        <ele>160.8</ele>
        <time>2022-06-14T09:05:50Z</time>
      </trkpt>
      <trkpt lat="48.7214" lon="2.04695">
        <ele>160.9</ele>
        <time>2022-06-14T09:05:55Z</time>
      </trkpt>
      <trkpt lat="48.72142" lon="2.04683">
        <ele>160.9</ele>
        <time>2022-06-14T09:06:00Z</time>
      </trkpt>
      <trkpt lat="48.72143" lon="2.04673">
        <ele>161</ele>
        <time>2022-06-14T09:06:06Z</time>
      </trkpt>
      <trkpt lat="48.72145" lon="2.04663">
        <ele>161</ele>
        <time>2022-06-14T09:06:11Z</time>
      </trkpt>
      <trkpt lat="48.72151" lon="2.04656">
        <ele>161.1</ele>
        <time>2022-06-14T09:06:17Z</time>
      </trkpt>
      <trkpt lat="48.72157" lon="2.04648">
        <ele>161.1</ele>
        <time>2022-06-14T09:06:22Z</time>
      </trkpt>
      <trkpt lat="48.72163" lon="2.04644">
        <ele>161.2</ele>
        <time>2022-06-14T09:06:27Z</time>
      </trkpt>
      <trkpt lat="48.72169" lon="2.04636">
        <ele>160.9</ele>
        <time>2022-06-14T09:06:32Z</time>
      </trkpt>
      <trkpt lat="48.72175" lon="2.0463">
        <ele>159.8</ele>
        <time>2022-06-14T09:06:37Z</time>
      </trkpt>
      <trkpt lat="48.72183" lon="2.04623">
        <ele>158.4</ele>
        <time>2022-06-14T09:06:43Z</time>
      </trkpt>
      <trkpt lat="48.7219" lon="2.04618">
        <ele>157.2</ele>
        <time>2022-06-14T09:06:48Z</time>
      </trkpt>
      <trkpt lat="48.72196" lon="2.04613">
        <ele>156.2</ele>
        <time>2022-06-14T09:06:53Z</time>
      </trkpt>
      <trkpt lat="48.72201" lon="2.04605">
        <ele>155.5</ele>
        <time>2022-06-14T09:07:01Z</time>
      </trkpt>
      <trkpt lat="48.72203" lon="2.04595">
        <ele>155.5</ele>
        <time>2022-06-14T09:07:06Z</time>
      </trkpt>
      <trkpt lat="48.72205" lon="2.04585">
        <ele>155.5</ele>
        <time>2022-06-14T09:07:18Z</time>
      </trkpt>
      <trkpt lat="48.72207" lon="2.04575">
        <ele>155.1</ele>
        <time>2022-06-14T09:07:24Z</time>
      </trkpt>
      <trkpt lat="48.72206" lon="2.04565">
        <ele>155.1</ele>
        <time>2022-06-14T09:07:31Z</time>
      </trkpt>
      <trkpt lat="48.72204" lon="2.04556">
        <ele>155.2</ele>
        <time>2022-06-14T09:07:36Z</time>
      </trkpt>
      <trkpt lat="48.722" lon="2.04544">
        <ele>155.6</ele>
        <time>2022-06-14T09:07:41Z</time>
      </trkpt>
      <trkpt lat="48.72199" lon="2.04535">
        <ele>155.6</ele>
        <time>2022-06-14T09:07:47Z</time>
      </trkpt>
      <trkpt lat="48.72193" lon="2.04523">
        <ele>156.4</ele>
        <time>2022-06-14T09:07:52Z</time>
      </trkpt>
      <trkpt lat="48.72185" lon="2.04511">
        <ele>157.4</ele>
        <time>2022-06-14T09:07:57Z</time>
      </trkpt>
      <trkpt lat="48.7218" lon="2.04504">
        <ele>158</ele>
        <time>2022-06-14T09:08:03Z</time>
      </trkpt>
      <trkpt lat="48.72178" lon="2.04495">
        <ele>158.3</ele>
        <time>2022-06-14T09:08:08Z</time>
      </trkpt>
      <trkpt lat="48.72178" lon="2.04482">
        <ele>158.5</ele>
        <time>2022-06-14T09:08:13Z</time>
      </trkpt>
      <trkpt lat="48.72179" lon="2.0447">
        <ele>158.5</ele>
        <time>2022-06-14T09:08:18Z</time>
      </trkpt>
      <trkpt lat="48.72181" lon="2.04459">
        <ele>158.4</ele>
        <time>2022-06-14T09:08:23Z</time>
      </trkpt>
      <trkpt lat="48.72175" lon="2.04455">
        <ele>159.1</ele>
        <time>2022-06-14T09:08:51Z</time>
      </trkpt>
      <trkpt lat="48.72175" lon="2.04445">
        <ele>159.2</ele>
        <time>2022-06-14T09:09:02Z</time>
      </trkpt>
      <trkpt lat="48.72169" lon="2.04433">
        <ele>159.8</ele>
        <time>2022-06-14T09:09:31Z</time>
      </trkpt>
      <trkpt lat="48.72175" lon="2.04434">
        <ele>159.3</ele>
        <time>2022-06-14T09:09:39Z</time>
      </trkpt>
      <trkpt lat="48.72182" lon="2.04429">
        <ele>158.9</ele>
        <time>2022-06-14T09:09:44Z</time>
      </trkpt>
      <trkpt lat="48.72189" lon="2.04433">
        <ele>158.2</ele>
        <time>2022-06-14T09:10:03Z</time>
      </trkpt>
      <trkpt lat="48.72195" lon="2.04437">
        <ele>157.6</ele>
        <time>2022-06-14T09:10:10Z</time>
      </trkpt>
      <trkpt lat="48.72203" lon="2.04445">
        <ele>156.6</ele>
        <time>2022-06-14T09:10:15Z</time>
      </trkpt>
      <trkpt lat="48.72209" lon="2.04451">
        <ele>155.8</ele>
        <time>2022-06-14T09:10:20Z</time>
      </trkpt>
      <trkpt lat="48.72218" lon="2.04454">
        <ele>154.7</ele>
        <time>2022-06-14T09:10:36Z</time>
      </trkpt>
      <trkpt lat="48.72224" lon="2.04459">
        <ele>153.8</ele>
        <time>2022-06-14T09:10:41Z</time>
      </trkpt>
      <trkpt lat="48.72231" lon="2.04456">
        <ele>153.2</ele>
        <time>2022-06-14T09:10:46Z</time>
      </trkpt>
      <trkpt lat="48.72237" lon="2.04454">
        <ele>152.8</ele>
        <time>2022-06-14T09:10:52Z</time>
      </trkpt>
      <trkpt lat="48.72243" lon="2.04449">
        <ele>152.6</ele>
        <time>2022-06-14T09:10:58Z</time>
      </trkpt>
      <trkpt lat="48.72249" lon="2.04442">
        <ele>152.7</ele>
        <time>2022-06-14T09:11:05Z</time>
      </trkpt>
      <trkpt lat="48.72254" lon="2.04435">
        <ele>152.7</ele>
        <time>2022-06-14T09:11:11Z</time>
      </trkpt>
      <trkpt lat="48.72261" lon="2.0443">
        <ele>152.3</ele>
        <time>2022-06-14T09:11:18Z</time>
      </trkpt>
      <trkpt lat="48.72267" lon="2.04422">
        <ele>152.5</ele>
        <time>2022-06-14T09:11:23Z</time>
      </trkpt>
      <trkpt lat="48.72274" lon="2.04419">
        <ele>152.1</ele>
        <time>2022-06-14T09:11:28Z</time>
      </trkpt>
      <trkpt lat="48.72282" lon="2.04416">
        <ele>151.6</ele>
        <time>2022-06-14T09:11:33Z</time>
      </trkpt>
      <trkpt lat="48.72288" lon="2.04414">
        <ele>151.2</ele>
        <time>2022-06-14T09:11:39Z</time>
      </trkpt>
      <trkpt lat="48.72295" lon="2.04411">
        <ele>150.9</ele>
        <time>2022-06-14T09:11:45Z</time>
      </trkpt>
      <trkpt lat="48.72301" lon="2.04411">
        <ele>150.2</ele>
        <time>2022-06-14T09:11:50Z</time>
      </trkpt>
      <trkpt lat="48.72309" lon="2.0441">
        <ele>149.5</ele>
        <time>2022-06-14T09:11:55Z</time>
      </trkpt>
      <trkpt lat="48.72316" lon="2.04411">
        <ele>148.6</ele>
        <time>2022-06-14T09:12:00Z</time>
      </trkpt>
      <trkpt lat="48.72323" lon="2.04411">
        <ele>147.9</ele>
        <time>2022-06-14T09:12:05Z</time>
      </trkpt>
      <trkpt lat="48.7233" lon="2.04407">
        <ele>147.7</ele>
        <time>2022-06-14T09:12:10Z</time>
      </trkpt>
      <trkpt lat="48.72337" lon="2.04403">
        <ele>147.3</ele>
        <time>2022-06-14T09:12:17Z</time>
      </trkpt>
      <trkpt lat="48.72343" lon="2.04399">
        <ele>146.8</ele>
        <time>2022-06-14T09:12:22Z</time>
      </trkpt>
      <trkpt lat="48.72349" lon="2.04393">
        <ele>146.4</ele>
        <time>2022-06-14T09:12:31Z</time>
      </trkpt>
      <trkpt lat="48.72354" lon="2.04385">
        <ele>146.4</ele>
        <time>2022-06-14T09:12:41Z</time>
      </trkpt>
      <trkpt lat="48.72359" lon="2.04377">
        <ele>146.2</ele>
        <time>2022-06-14T09:12:47Z</time>
      </trkpt>
      <trkpt lat="48.72363" lon="2.04366">
        <ele>146.5</ele>
        <time>2022-06-14T09:12:52Z</time>
      </trkpt>
      <trkpt lat="48.72366" lon="2.04353">
        <ele>147.1</ele>
        <time>2022-06-14T09:12:57Z</time>
      </trkpt>
      <trkpt lat="48.72369" lon="2.04343">
        <ele>147.3</ele>
        <time>2022-06-14T09:13:03Z</time>
      </trkpt>
      <trkpt lat="48.72369" lon="2.04332">
        <ele>148.2</ele>
        <time>2022-06-14T09:13:10Z</time>
      </trkpt>
      <trkpt lat="48.72371" lon="2.04317">
        <ele>148.2</ele>
        <time>2022-06-14T09:13:15Z</time>
      </trkpt>
      <trkpt lat="48.72374" lon="2.04303">
        <ele>147.9</ele>
        <time>2022-06-14T09:13:20Z</time>
      </trkpt>
      <trkpt lat="48.72376" lon="2.0429">
        <ele>147.8</ele>
        <time>2022-06-14T09:13:25Z</time>
      </trkpt>
      <trkpt lat="48.72379" lon="2.04279">
        <ele>147.4</ele>
        <time>2022-06-14T09:13:30Z</time>
      </trkpt>
      <trkpt lat="48.72382" lon="2.04268">
        <ele>146.9</ele>
        <time>2022-06-14T09:13:35Z</time>
      </trkpt>
      <trkpt lat="48.72387" lon="2.04258">
        <ele>145.9</ele>
        <time>2022-06-14T09:13:40Z</time>
      </trkpt>
      <trkpt lat="48.72392" lon="2.04248">
        <ele>145</ele>
        <time>2022-06-14T09:13:45Z</time>
      </trkpt>
      <trkpt lat="48.72398" lon="2.04243">
        <ele>144.1</ele>
        <time>2022-06-14T09:13:51Z</time>
      </trkpt>
      <trkpt lat="48.72405" lon="2.04239">
        <ele>142.8</ele>
        <time>2022-06-14T09:14:03Z</time>
      </trkpt>
      <trkpt lat="48.72413" lon="2.04239">
        <ele>140.7</ele>
        <time>2022-06-14T09:14:10Z</time>
      </trkpt>
      <trkpt lat="48.72419" lon="2.0424">
        <ele>139.1</ele>
        <time>2022-06-14T09:14:15Z</time>
      </trkpt>
      <trkpt lat="48.72425" lon="2.04235">
        <ele>138.6</ele>
        <time>2022-06-14T09:14:22Z</time>
      </trkpt>
      <trkpt lat="48.72432" lon="2.04238">
        <ele>136.7</ele>
        <time>2022-06-14T09:14:44Z</time>
      </trkpt>
      <trkpt lat="48.72438" lon="2.04243">
        <ele>134.7</ele>
        <time>2022-06-14T09:14:52Z</time>
      </trkpt>
      <trkpt lat="48.72444" lon="2.04244">
        <ele>133.3</ele>
        <time>2022-06-14T09:14:57Z</time>
      </trkpt>
      <trkpt lat="48.72451" lon="2.04243">
        <ele>132</ele>
        <time>2022-06-14T09:15:05Z</time>
      </trkpt>
      <trkpt lat="48.72458" lon="2.04241">
        <ele>130.8</ele>
        <time>2022-06-14T09:15:12Z</time>
      </trkpt>
      <trkpt lat="48.72464" lon="2.0424">
        <ele>129.7</ele>
        <time>2022-06-14T09:15:18Z</time>
      </trkpt>
      <trkpt lat="48.72471" lon="2.04234">
        <ele>129</ele>
        <time>2022-06-14T09:15:25Z</time>
      </trkpt>
      <trkpt lat="48.72477" lon="2.04229">
        <ele>128.4</ele>
        <time>2022-06-14T09:15:31Z</time>
      </trkpt>
      <trkpt lat="48.72474" lon="2.04219">
        <ele>130.4</ele>
        <time>2022-06-14T09:15:38Z</time>
      </trkpt>
      <trkpt lat="48.72472" lon="2.04209">
        <ele>132.1</ele>
        <time>2022-06-14T09:15:45Z</time>
      </trkpt>
      <trkpt lat="48.72465" lon="2.04204">
        <ele>134.4</ele>
        <time>2022-06-14T09:15:52Z</time>
      </trkpt>
      <trkpt lat="48.72459" lon="2.04199">
        <ele>136.4</ele>
        <time>2022-06-14T09:16:00Z</time>
      </trkpt>
      <trkpt lat="48.72459" lon="2.04188">
        <ele>137.9</ele>
        <time>2022-06-14T09:16:07Z</time>
      </trkpt>
      <trkpt lat="48.72461" lon="2.04178">
        <ele>138.8</ele>
        <time>2022-06-14T09:16:14Z</time>
      </trkpt>
      <trkpt lat="48.72465" lon="2.04171">
        <ele>138.8</ele>
        <time>2022-06-14T09:16:21Z</time>
      </trkpt>
      <trkpt lat="48.72472" lon="2.04166">
        <ele>137.8</ele>
        <time>2022-06-14T09:16:26Z</time>
      </trkpt>
      <trkpt lat="48.72477" lon="2.04159">
        <ele>137.9</ele>
        <time>2022-06-14T09:16:31Z</time>
      </trkpt>
      <trkpt lat="48.72485" lon="2.04155">
        <ele>136.7</ele>
        <time>2022-06-14T09:16:36Z</time>
      </trkpt>
      <trkpt lat="48.72493" lon="2.04151">
        <ele>135.6</ele>
        <time>2022-06-14T09:16:42Z</time>
      </trkpt>
      <trkpt lat="48.725" lon="2.04142">
        <ele>135.7</ele>
        <time>2022-06-14T09:16:47Z</time>
      </trkpt>
      <trkpt lat="48.72505" lon="2.04135">
        <ele>136.1</ele>
        <time>2022-06-14T09:16:55Z</time>
      </trkpt>
      <trkpt lat="48.72512" lon="2.04131">
        <ele>135.5</ele>
        <time>2022-06-14T09:17:00Z</time>
      </trkpt>
      <trkpt lat="48.7252" lon="2.04127">
        <ele>134.6</ele>
        <time>2022-06-14T09:17:07Z</time>
      </trkpt>
      <trkpt lat="48.72524" lon="2.04119">
        <ele>135.1</ele>
        <time>2022-06-14T09:17:15Z</time>
      </trkpt>
      <trkpt lat="48.72527" lon="2.04109">
        <ele>136.1</ele>
        <time>2022-06-14T09:17:27Z</time>
      </trkpt>
      <trkpt lat="48.7253" lon="2.04101">
        <ele>136.7</ele>
        <time>2022-06-14T09:17:32Z</time>
      </trkpt>
      <trkpt lat="48.72528" lon="2.0409">
        <ele>138.9</ele>
        <time>2022-06-14T09:17:39Z</time>
      </trkpt>
      <trkpt lat="48.72531" lon="2.04079">
        <ele>139.8</ele>
        <time>2022-06-14T09:17:46Z</time>
      </trkpt>
      <trkpt lat="48.72538" lon="2.04073">
        <ele>138.8</ele>
        <time>2022-06-14T09:17:51Z</time>
      </trkpt>
      <trkpt lat="48.72543" lon="2.04067">
        <ele>138.3</ele>
        <time>2022-06-14T09:17:57Z</time>
      </trkpt>
      <trkpt lat="48.7255" lon="2.04061">
        <ele>137.2</ele>
        <time>2022-06-14T09:18:02Z</time>
      </trkpt>
      <trkpt lat="48.72558" lon="2.04053">
        <ele>136.1</ele>
        <time>2022-06-14T09:18:07Z</time>
      </trkpt>
      <trkpt lat="48.72563" lon="2.04043">
        <ele>136</ele>
        <time>2022-06-14T09:18:12Z</time>
      </trkpt>
      <trkpt lat="48.72565" lon="2.04031">
        <ele>136.8</ele>
        <time>2022-06-14T09:18:17Z</time>
      </trkpt>
      <trkpt lat="48.7257" lon="2.04024">
        <ele>136.2</ele>
        <time>2022-06-14T09:18:22Z</time>
      </trkpt>
      <trkpt lat="48.72576" lon="2.04017">
        <ele>135.3</ele>
        <time>2022-06-14T09:18:28Z</time>
      </trkpt>
      <trkpt lat="48.72582" lon="2.04011">
        <ele>134.2</ele>
        <time>2022-06-14T09:18:33Z</time>
      </trkpt>
      <trkpt lat="48.72587" lon="2.04002">
        <ele>133.9</ele>
        <time>2022-06-14T09:18:38Z</time>
      </trkpt>
      <trkpt lat="48.7259" lon="2.03993">
        <ele>134.3</ele>
        <time>2022-06-14T09:18:43Z</time>
      </trkpt>
      <trkpt lat="48.72595" lon="2.03985">
        <ele>134.1</ele>
        <time>2022-06-14T09:18:48Z</time>
      </trkpt>
      <trkpt lat="48.726" lon="2.03977">
        <ele>133.9</ele>
        <time>2022-06-14T09:18:53Z</time>
      </trkpt>
      <trkpt lat="48.72609" lon="2.03968">
        <ele>132.7</ele>
        <time>2022-06-14T09:18:58Z</time>
      </trkpt>
      <trkpt lat="48.72612" lon="2.03958">
        <ele>133.1</ele>
        <time>2022-06-14T09:19:03Z</time>
      </trkpt>
      <trkpt lat="48.72615" lon="2.03949">
        <ele>133.4</ele>
        <time>2022-06-14T09:19:12Z</time>
      </trkpt>
      <trkpt lat="48.72612" lon="2.03934">
        <ele>136</ele>
        <time>2022-06-14T09:19:44Z</time>
      </trkpt>
      <trkpt lat="48.72611" lon="2.03924">
        <ele>137.5</ele>
        <time>2022-06-14T09:19:49Z</time>
      </trkpt>
      <trkpt lat="48.72609" lon="2.03914">
        <ele>139</ele>
        <time>2022-06-14T09:20:04Z</time>
      </trkpt>
      <trkpt lat="48.72609" lon="2.03904">
        <ele>139.3</ele>
        <time>2022-06-14T09:20:11Z</time>
      </trkpt>
      <trkpt lat="48.72606" lon="2.03894">
        <ele>140.4</ele>
        <time>2022-06-14T09:20:19Z</time>
      </trkpt>
      <trkpt lat="48.72605" lon="2.03883">
        <ele>141</ele>
        <time>2022-06-14T09:20:24Z</time>
      </trkpt>
      <trkpt lat="48.72603" lon="2.03873">
        <ele>141.9</ele>
        <time>2022-06-14T09:20:31Z</time>
      </trkpt>
      <trkpt lat="48.726" lon="2.03864">
        <ele>142.9</ele>
        <time>2022-06-14T09:20:40Z</time>
      </trkpt>
      <trkpt lat="48.72598" lon="2.03854">
        <ele>143.7</ele>
        <time>2022-06-14T09:20:47Z</time>
      </trkpt>
      <trkpt lat="48.72596" lon="2.03845">
        <ele>144.5</ele>
        <time>2022-06-14T09:21:04Z</time>
      </trkpt>
      <trkpt lat="48.72595" lon="2.03834">
        <ele>145</ele>
        <time>2022-06-14T09:21:10Z</time>
      </trkpt>
      <trkpt lat="48.72588" lon="2.03824">
        <ele>146.3</ele>
        <time>2022-06-14T09:21:18Z</time>
      </trkpt>
      <trkpt lat="48.72585" lon="2.03814">
        <ele>146.4</ele>
        <time>2022-06-14T09:21:26Z</time>
      </trkpt>
      <trkpt lat="48.7259" lon="2.03807">
        <ele>144.8</ele>
        <time>2022-06-14T09:21:55Z</time>
      </trkpt>
      <trkpt lat="48.72598" lon="2.03813">
        <ele>143.1</ele>
        <time>2022-06-14T09:22:00Z</time>
      </trkpt>
      <trkpt lat="48.72604" lon="2.03819">
        <ele>142</ele>
        <time>2022-06-14T09:22:05Z</time>
      </trkpt>
      <trkpt lat="48.72608" lon="2.03828">
        <ele>141.5</ele>
        <time>2022-06-14T09:22:10Z</time>
      </trkpt>
      <trkpt lat="48.72614" lon="2.03835">
        <ele>140.2</ele>
        <time>2022-06-14T09:22:15Z</time>
      </trkpt>
      <trkpt lat="48.72621" lon="2.03845">
        <ele>138.1</ele>
        <time>2022-06-14T09:22:20Z</time>
      </trkpt>
      <trkpt lat="48.72629" lon="2.03854">
        <ele>135.7</ele>
        <time>2022-06-14T09:22:25Z</time>
      </trkpt>
      <trkpt lat="48.72635" lon="2.03862">
        <ele>133.9</ele>
        <time>2022-06-14T09:22:31Z</time>
      </trkpt>
      <trkpt lat="48.72637" lon="2.03871">
        <ele>133</ele>
        <time>2022-06-14T09:22:36Z</time>
      </trkpt>
      <trkpt lat="48.72643" lon="2.03878">
        <ele>131.1</ele>
        <time>2022-06-14T09:22:43Z</time>
      </trkpt>
      <trkpt lat="48.72648" lon="2.03885">
        <ele>129.5</ele>
        <time>2022-06-14T09:22:52Z</time>
      </trkpt>
      <trkpt lat="48.7265" lon="2.03894">
        <ele>128.6</ele>
        <time>2022-06-14T09:23:01Z</time>
      </trkpt>
      <trkpt lat="48.72653" lon="2.03904">
        <ele>127.3</ele>
        <time>2022-06-14T09:23:06Z</time>
      </trkpt>
      <trkpt lat="48.72659" lon="2.03914">
        <ele>125.2</ele>
        <time>2022-06-14T09:23:11Z</time>
      </trkpt>
      <trkpt lat="48.72665" lon="2.03921">
        <ele>123</ele>
        <time>2022-06-14T09:23:16Z</time>
      </trkpt>
      <trkpt lat="48.72668" lon="2.03933">
        <ele>121.2</ele>
        <time>2022-06-14T09:23:21Z</time>
      </trkpt>
      <trkpt lat="48.72672" lon="2.0394">
        <ele>119.9</ele>
        <time>2022-06-14T09:23:26Z</time>
      </trkpt>
      <trkpt lat="48.72675" lon="2.0395">
        <ele>118.5</ele>
        <time>2022-06-14T09:23:32Z</time>
      </trkpt>
      <trkpt lat="48.72682" lon="2.03958">
        <ele>116.6</ele>
        <time>2022-06-14T09:23:37Z</time>
      </trkpt>
      <trkpt lat="48.72686" lon="2.03968">
        <ele>115.2</ele>
        <time>2022-06-14T09:23:42Z</time>
      </trkpt>
      <trkpt lat="48.72688" lon="2.0398">
        <ele>113.9</ele>
        <time>2022-06-14T09:23:47Z</time>
      </trkpt>
      <trkpt lat="48.72691" lon="2.03995">
        <ele>112.2</ele>
        <time>2022-06-14T09:23:52Z</time>
      </trkpt>
      <trkpt lat="48.72693" lon="2.04005">
        <ele>111.2</ele>
        <time>2022-06-14T09:23:57Z</time>
      </trkpt>
      <trkpt lat="48.72694" lon="2.04015">
        <ele>110.5</ele>
        <time>2022-06-14T09:24:02Z</time>
      </trkpt>
      <trkpt lat="48.72693" lon="2.04026">
        <ele>109.9</ele>
        <time>2022-06-14T09:24:07Z</time>
      </trkpt>
      <trkpt lat="48.7269" lon="2.04038">
        <ele>109.6</ele>
        <time>2022-06-14T09:24:12Z</time>
      </trkpt>
      <trkpt lat="48.72684" lon="2.04052">
        <ele>109.4</ele>
        <time>2022-06-14T09:24:17Z</time>
      </trkpt>
      <trkpt lat="48.72683" lon="2.04062">
        <ele>108.8</ele>
        <time>2022-06-14T09:24:22Z</time>
      </trkpt>
      <trkpt lat="48.72682" lon="2.04073">
        <ele>108.2</ele>
        <time>2022-06-14T09:24:27Z</time>
      </trkpt>
      <trkpt lat="48.72679" lon="2.04085">
        <ele>107.7</ele>
        <time>2022-06-14T09:24:32Z</time>
      </trkpt>
      <trkpt lat="48.7268" lon="2.04094">
        <ele>107.1</ele>
        <time>2022-06-14T09:24:38Z</time>
      </trkpt>
      <trkpt lat="48.72684" lon="2.04102">
        <ele>106.3</ele>
        <time>2022-06-14T09:24:45Z</time>
      </trkpt>
      <trkpt lat="48.72691" lon="2.04107">
        <ele>105.4</ele>
        <time>2022-06-14T09:24:53Z</time>
      </trkpt>
      <trkpt lat="48.72695" lon="2.04116">
        <ele>104.6</ele>
        <time>2022-06-14T09:25:00Z</time>
      </trkpt>
      <trkpt lat="48.72702" lon="2.0412">
        <ele>103.8</ele>
        <time>2022-06-14T09:25:08Z</time>
      </trkpt>
      <trkpt lat="48.72708" lon="2.04123">
        <ele>103.1</ele>
        <time>2022-06-14T09:25:15Z</time>
      </trkpt>
      <trkpt lat="48.72715" lon="2.04129">
        <ele>102.3</ele>
        <time>2022-06-14T09:25:20Z</time>
      </trkpt>
      <trkpt lat="48.72721" lon="2.04133">
        <ele>101.6</ele>
        <time>2022-06-14T09:25:25Z</time>
      </trkpt>
      <trkpt lat="48.72728" lon="2.04137">
        <ele>100.8</ele>
        <time>2022-06-14T09:25:30Z</time>
      </trkpt>
      <trkpt lat="48.72735" lon="2.0414">
        <ele>100.2</ele>
        <time>2022-06-14T09:25:35Z</time>
      </trkpt>
      <trkpt lat="48.72741" lon="2.04147">
        <ele>99.4</ele>
        <time>2022-06-14T09:25:51Z</time>
      </trkpt>
      <trkpt lat="48.72745" lon="2.04156">
        <ele>98.8</ele>
        <time>2022-06-14T09:26:34Z</time>
      </trkpt>
      <trkpt lat="48.72754" lon="2.04161">
        <ele>98.1</ele>
        <time>2022-06-14T09:26:39Z</time>
      </trkpt>
      <trkpt lat="48.72762" lon="2.04165">
        <ele>97.6</ele>
        <time>2022-06-14T09:26:44Z</time>
      </trkpt>
      <trkpt lat="48.72769" lon="2.04164">
        <ele>97.4</ele>
        <time>2022-06-14T09:27:30Z</time>
      </trkpt>
      <trkpt lat="48.72773" lon="2.04172">
        <ele>97</ele>
        <time>2022-06-14T09:27:36Z</time>
      </trkpt>
      <trkpt lat="48.72777" lon="2.04181">
        <ele>96.7</ele>
        <time>2022-06-14T09:27:42Z</time>
      </trkpt>
      <trkpt lat="48.72785" lon="2.04185">
        <ele>96.3</ele>
        <time>2022-06-14T09:27:47Z</time>
      </trkpt>
      <trkpt lat="48.72791" lon="2.04188">
        <ele>96</ele>
        <time>2022-06-14T09:27:54Z</time>
      </trkpt>
      <trkpt lat="48.72797" lon="2.04192">
        <ele>95.7</ele>
        <time>2022-06-14T09:28:01Z</time>
      </trkpt>
      <trkpt lat="48.72804" lon="2.04194">
        <ele>95.4</ele>
        <time>2022-06-14T09:28:10Z</time>
      </trkpt>
      <trkpt lat="48.7281" lon="2.04199">
        <ele>95.1</ele>
        <time>2022-06-14T09:28:16Z</time>
      </trkpt>
      <trkpt lat="48.72816" lon="2.04206">
        <ele>94.7</ele>
        <time>2022-06-14T09:28:25Z</time>
      </trkpt>
      <trkpt lat="48.72822" lon="2.04212">
        <ele>94.3</ele>
        <time>2022-06-14T09:28:31Z</time>
      </trkpt>
      <trkpt lat="48.72828" lon="2.04216">
        <ele>94</ele>
        <time>2022-06-14T09:28:38Z</time>
      </trkpt>
      <trkpt lat="48.72835" lon="2.04221">
        <ele>93.8</ele>
        <time>2022-06-14T09:28:43Z</time>
      </trkpt>
      <trkpt lat="48.72842" lon="2.04226">
        <ele>94.3</ele>
        <time>2022-06-14T09:28:48Z</time>
      </trkpt>
      <trkpt lat="48.72849" lon="2.0423">
        <ele>94.8</ele>
        <time>2022-06-14T09:28:55Z</time>
      </trkpt>
      <trkpt lat="48.72856" lon="2.04234">
        <ele>95.4</ele>
        <time>2022-06-14T09:29:02Z</time>
      </trkpt>
      <trkpt lat="48.72862" lon="2.0424">
        <ele>96</ele>
        <time>2022-06-14T09:29:10Z</time>
      </trkpt>
      <trkpt lat="48.72868" lon="2.04244">
        <ele>96.6</ele>
        <time>2022-06-14T09:29:16Z</time>
      </trkpt>
      <trkpt lat="48.72874" lon="2.04247">
        <ele>97.3</ele>
        <time>2022-06-14T09:29:22Z</time>
      </trkpt>
      <trkpt lat="48.72879" lon="2.04255">
        <ele>98.2</ele>
        <time>2022-06-14T09:29:28Z</time>
      </trkpt>
      <trkpt lat="48.72881" lon="2.04266">
        <ele>98.9</ele>
        <time>2022-06-14T09:29:34Z</time>
      </trkpt>
      <trkpt lat="48.7288" lon="2.04276">
        <ele>99.2</ele>
        <time>2022-06-14T09:29:55Z</time>
      </trkpt>
      <trkpt lat="48.72878" lon="2.04286">
        <ele>99.4</ele>
        <time>2022-06-14T09:30:01Z</time>
      </trkpt>
      <trkpt lat="48.72878" lon="2.04297">
        <ele>99.9</ele>
        <time>2022-06-14T09:30:08Z</time>
      </trkpt>
      <trkpt lat="48.72879" lon="2.04309">
        <ele>100.5</ele>
        <time>2022-06-14T09:30:14Z</time>
      </trkpt>
      <trkpt lat="48.72877" lon="2.0432">
        <ele>100.7</ele>
        <time>2022-06-14T09:30:38Z</time>
      </trkpt>
      <trkpt lat="48.72874" lon="2.0433">
        <ele>100.7</ele>
        <time>2022-06-14T09:30:43Z</time>
      </trkpt>
      <trkpt lat="48.7287" lon="2.04339">
        <ele>100.5</ele>
        <time>2022-06-14T09:30:50Z</time>
      </trkpt>
      <trkpt lat="48.72867" lon="2.0435">
        <ele>100.5</ele>
        <time>2022-06-14T09:30:55Z</time>
      </trkpt>
      <trkpt lat="48.72865" lon="2.0436">
        <ele>100.6</ele>
        <time>2022-06-14T09:31:01Z</time>
      </trkpt>
      <trkpt lat="48.72864" lon="2.04371">
        <ele>100.9</ele>
        <time>2022-06-14T09:31:06Z</time>
      </trkpt>
      <trkpt lat="48.72862" lon="2.04382">
        <ele>100.9</ele>
        <time>2022-06-14T09:31:12Z</time>
      </trkpt>
      <trkpt lat="48.72858" lon="2.0439">
        <ele>100.4</ele>
        <time>2022-06-14T09:31:17Z</time>
      </trkpt>
      <trkpt lat="48.72855" lon="2.04401">
        <ele>100.2</ele>
        <time>2022-06-14T09:31:23Z</time>
      </trkpt>
      <trkpt lat="48.72854" lon="2.04412">
        <ele>100.3</ele>
        <time>2022-06-14T09:31:29Z</time>
      </trkpt>
      <trkpt lat="48.72852" lon="2.04424">
        <ele>100.2</ele>
        <time>2022-06-14T09:31:34Z</time>
      </trkpt>
      <trkpt lat="48.7285" lon="2.04436">
        <ele>100.2</ele>
        <time>2022-06-14T09:31:39Z</time>
      </trkpt>
      <trkpt lat="48.72848" lon="2.04447">
        <ele>100</ele>
        <time>2022-06-14T09:31:44Z</time>
      </trkpt>
      <trkpt lat="48.72846" lon="2.04459">
        <ele>99.9</ele>
        <time>2022-06-14T09:31:50Z</time>
      </trkpt>
      <trkpt lat="48.72847" lon="2.04469">
        <ele>100.4</ele>
        <time>2022-06-14T09:31:55Z</time>
      </trkpt>
      <trkpt lat="48.72848" lon="2.04479">
        <ele>100.9</ele>
        <time>2022-06-14T09:32:00Z</time>
      </trkpt>
      <trkpt lat="48.72847" lon="2.0449">
        <ele>101</ele>
        <time>2022-06-14T09:32:05Z</time>
      </trkpt>
      <trkpt lat="48.72849" lon="2.04504">
        <ele>101.9</ele>
        <time>2022-06-14T09:32:10Z</time>
      </trkpt>
      <trkpt lat="48.72852" lon="2.04514">
        <ele>103</ele>
        <time>2022-06-14T09:32:16Z</time>
      </trkpt>
      <trkpt lat="48.72849" lon="2.04523">
        <ele>102.6</ele>
        <time>2022-06-14T09:32:21Z</time>
      </trkpt>
      <trkpt lat="48.72844" lon="2.04535">
        <ele>101.9</ele>
        <time>2022-06-14T09:32:26Z</time>
      </trkpt>
      <trkpt lat="48.72841" lon="2.04546">
        <ele>101.5</ele>
        <time>2022-06-14T09:32:31Z</time>
      </trkpt>
      <trkpt lat="48.72838" lon="2.04559">
        <ele>101.3</ele>
        <time>2022-06-14T09:32:36Z</time>
      </trkpt>
      <trkpt lat="48.72835" lon="2.04569">
        <ele>100.9</ele>
        <time>2022-06-14T09:32:41Z</time>
      </trkpt>
      <trkpt lat="48.72829" lon="2.0458">
        <ele>100.5</ele>
        <time>2022-06-14T09:32:46Z</time>
      </trkpt>
      <trkpt lat="48.72823" lon="2.04589">
        <ele>100.1</ele>
        <time>2022-06-14T09:32:51Z</time>
      </trkpt>
      <trkpt lat="48.72819" lon="2.04598">
        <ele>99.8</ele>
        <time>2022-06-14T09:32:56Z</time>
      </trkpt>
      <trkpt lat="48.72814" lon="2.0461">
        <ele>99.4</ele>
        <time>2022-06-14T09:33:01Z</time>
      </trkpt>
      <trkpt lat="48.72808" lon="2.04619">
        <ele>98.9</ele>
        <time>2022-06-14T09:33:06Z</time>
      </trkpt>
      <trkpt lat="48.72805" lon="2.04628">
        <ele>98.6</ele>
        <time>2022-06-14T09:33:11Z</time>
      </trkpt>
      <trkpt lat="48.72804" lon="2.04639">
        <ele>98.6</ele>
        <time>2022-06-14T09:33:30Z</time>
      </trkpt>
      <trkpt lat="48.728" lon="2.04651">
        <ele>98.3</ele>
        <time>2022-06-14T09:33:36Z</time>
      </trkpt>
      <trkpt lat="48.72796" lon="2.04662">
        <ele>97.9</ele>
        <time>2022-06-14T09:33:41Z</time>
      </trkpt>
      <trkpt lat="48.72796" lon="2.04674">
        <ele>98</ele>
        <time>2022-06-14T09:33:46Z</time>
      </trkpt>
      <trkpt lat="48.72795" lon="2.04685">
        <ele>97.9</ele>
        <time>2022-06-14T09:33:51Z</time>
      </trkpt>
      <trkpt lat="48.72795" lon="2.04695">
        <ele>98</ele>
        <time>2022-06-14T09:33:57Z</time>
      </trkpt>
      <trkpt lat="48.72796" lon="2.04705">
        <ele>98.1</ele>
        <time>2022-06-14T09:34:03Z</time>
      </trkpt>
      <trkpt lat="48.72797" lon="2.04716">
        <ele>98.3</ele>
        <time>2022-06-14T09:34:08Z</time>
      </trkpt>
      <trkpt lat="48.72798" lon="2.04729">
        <ele>98.4</ele>
        <time>2022-06-14T09:34:14Z</time>
      </trkpt>
      <trkpt lat="48.728" lon="2.0474">
        <ele>98.6</ele>
        <time>2022-06-14T09:34:19Z</time>
      </trkpt>
      <trkpt lat="48.72802" lon="2.04751">
        <ele>98.7</ele>
        <time>2022-06-14T09:34:24Z</time>
      </trkpt>
      <trkpt lat="48.72802" lon="2.04763">
        <ele>98.4</ele>
        <time>2022-06-14T09:34:29Z</time>
      </trkpt>
      <trkpt lat="48.72802" lon="2.04774">
        <ele>98.2</ele>
        <time>2022-06-14T09:34:34Z</time>
      </trkpt>
      <trkpt lat="48.72801" lon="2.04786">
        <ele>97.8</ele>
        <time>2022-06-14T09:34:40Z</time>
      </trkpt>
      <trkpt lat="48.72797" lon="2.04798">
        <ele>97.2</ele>
        <time>2022-06-14T09:34:45Z</time>
      </trkpt>
      <trkpt lat="48.72792" lon="2.04812">
        <ele>96.5</ele>
        <time>2022-06-14T09:34:50Z</time>
      </trkpt>
      <trkpt lat="48.72787" lon="2.04819">
        <ele>96</ele>
        <time>2022-06-14T09:34:55Z</time>
      </trkpt>
      <trkpt lat="48.72781" lon="2.04829">
        <ele>95.3</ele>
        <time>2022-06-14T09:35:00Z</time>
      </trkpt>
      <trkpt lat="48.72774" lon="2.04834">
        <ele>94.7</ele>
        <time>2022-06-14T09:35:05Z</time>
      </trkpt>
      <trkpt lat="48.72767" lon="2.0484">
        <ele>94.2</ele>
        <time>2022-06-14T09:35:10Z</time>
      </trkpt>
      <trkpt lat="48.72761" lon="2.04846">
        <ele>93.8</ele>
        <time>2022-06-14T09:35:15Z</time>
      </trkpt>
      <trkpt lat="48.72755" lon="2.04852">
        <ele>93.4</ele>
        <time>2022-06-14T09:35:20Z</time>
      </trkpt>
      <trkpt lat="48.72747" lon="2.04857">
        <ele>93</ele>
        <time>2022-06-14T09:35:25Z</time>
      </trkpt>
      <trkpt lat="48.7274" lon="2.04865">
        <ele>92.9</ele>
        <time>2022-06-14T09:35:30Z</time>
      </trkpt>
      <trkpt lat="48.72733" lon="2.04872">
        <ele>92.9</ele>
        <time>2022-06-14T09:35:36Z</time>
      </trkpt>
      <trkpt lat="48.72725" lon="2.04877">
        <ele>92.9</ele>
        <time>2022-06-14T09:35:41Z</time>
      </trkpt>
      <trkpt lat="48.7272" lon="2.04884">
        <ele>92.9</ele>
        <time>2022-06-14T09:35:47Z</time>
      </trkpt>
      <trkpt lat="48.72719" lon="2.04894">
        <ele>92.9</ele>
        <time>2022-06-14T09:35:53Z</time>
      </trkpt>
      <trkpt lat="48.72713" lon="2.04897">
        <ele>92.9</ele>
        <time>2022-06-14T09:35:58Z</time>
      </trkpt>
      <trkpt lat="48.72706" lon="2.04898">
        <ele>92.9</ele>
        <time>2022-06-14T09:36:03Z</time>
      </trkpt>
      <trkpt lat="48.72698" lon="2.049">
        <ele>92.9</ele>
        <time>2022-06-14T09:36:08Z</time>
      </trkpt>
      <trkpt lat="48.7269" lon="2.04902">
        <ele>92.9</ele>
        <time>2022-06-14T09:36:13Z</time>
      </trkpt>
      <trkpt lat="48.72684" lon="2.04902">
        <ele>92.9</ele>
        <time>2022-06-14T09:36:20Z</time>
      </trkpt>
      <trkpt lat="48.72675" lon="2.04903">
        <ele>92.9</ele>
        <time>2022-06-14T09:36:25Z</time>
      </trkpt>
      <trkpt lat="48.72666" lon="2.04901">
        <ele>92.9</ele>
        <time>2022-06-14T09:36:30Z</time>
      </trkpt>
      <trkpt lat="48.72659" lon="2.04902">
        <ele>93.6</ele>
        <time>2022-06-14T09:36:35Z</time>
      </trkpt>
      <trkpt lat="48.72652" lon="2.04903">
        <ele>94.3</ele>
        <time>2022-06-14T09:36:40Z</time>
      </trkpt>
      <trkpt lat="48.72644" lon="2.04907">
        <ele>95.1</ele>
        <time>2022-06-14T09:36:45Z</time>
      </trkpt>
      <trkpt lat="48.72638" lon="2.04912">
        <ele>95.7</ele>
        <time>2022-06-14T09:36:57Z</time>
      </trkpt>
      <trkpt lat="48.72636" lon="2.04902">
        <ele>95.8</ele>
        <time>2022-06-14T09:37:15Z</time>
      </trkpt>
      <trkpt lat="48.72643" lon="2.04906">
        <ele>95.2</ele>
        <time>2022-06-14T09:37:20Z</time>
      </trkpt>
      <trkpt lat="48.7265" lon="2.04904">
        <ele>94.5</ele>
        <time>2022-06-14T09:37:30Z</time>
      </trkpt>
      <trkpt lat="48.72657" lon="2.04902">
        <ele>93.8</ele>
        <time>2022-06-14T09:37:36Z</time>
      </trkpt>
      <trkpt lat="48.72664" lon="2.04904">
        <ele>93.1</ele>
        <time>2022-06-14T09:37:41Z</time>
      </trkpt>
      <trkpt lat="48.7267" lon="2.049">
        <ele>92.8</ele>
        <time>2022-06-14T09:37:48Z</time>
      </trkpt>
      <trkpt lat="48.72679" lon="2.04896">
        <ele>92.8</ele>
        <time>2022-06-14T09:37:53Z</time>
      </trkpt>
      <trkpt lat="48.72686" lon="2.04895">
        <ele>92.8</ele>
        <time>2022-06-14T09:37:58Z</time>
      </trkpt>
      <trkpt lat="48.72693" lon="2.04894">
        <ele>92.8</ele>
        <time>2022-06-14T09:38:03Z</time>
      </trkpt>
      <trkpt lat="48.72702" lon="2.04893">
        <ele>92.8</ele>
        <time>2022-06-14T09:38:08Z</time>
      </trkpt>
      <trkpt lat="48.72709" lon="2.04892">
        <ele>92.9</ele>
        <time>2022-06-14T09:38:16Z</time>
      </trkpt>
      <trkpt lat="48.72716" lon="2.0489">
        <ele>92.9</ele>
        <time>2022-06-14T09:38:22Z</time>
      </trkpt>
      <trkpt lat="48.72725" lon="2.04897">
        <ele>92.9</ele>
        <time>2022-06-14T09:38:27Z</time>
      </trkpt>
      <trkpt lat="48.72732" lon="2.04895">
        <ele>92.9</ele>
        <time>2022-06-14T09:38:32Z</time>
      </trkpt>
      <trkpt lat="48.72739" lon="2.04895">
        <ele>93</ele>
        <time>2022-06-14T09:38:39Z</time>
      </trkpt>
      <trkpt lat="48.72747" lon="2.04899">
        <ele>93</ele>
        <time>2022-06-14T09:38:44Z</time>
      </trkpt>
      <trkpt lat="48.72755" lon="2.04903">
        <ele>93.4</ele>
        <time>2022-06-14T09:38:50Z</time>
      </trkpt>
      <trkpt lat="48.72761" lon="2.04906">
        <ele>93.9</ele>
        <time>2022-06-14T09:38:55Z</time>
      </trkpt>
      <trkpt lat="48.72769" lon="2.04908">
        <ele>94.6</ele>
        <time>2022-06-14T09:39:00Z</time>
      </trkpt>
      <trkpt lat="48.72777" lon="2.04907">
        <ele>95.2</ele>
        <time>2022-06-14T09:39:06Z</time>
      </trkpt>
      <trkpt lat="48.72783" lon="2.04911">
        <ele>95.7</ele>
        <time>2022-06-14T09:39:12Z</time>
      </trkpt>
      <trkpt lat="48.7279" lon="2.04916">
        <ele>96.4</ele>
        <time>2022-06-14T09:39:17Z</time>
      </trkpt>
      <trkpt lat="48.72797" lon="2.0492">
        <ele>97</ele>
        <time>2022-06-14T09:39:22Z</time>
      </trkpt>
      <trkpt lat="48.72804" lon="2.0492">
        <ele>97.6</ele>
        <time>2022-06-14T09:39:27Z</time>
      </trkpt>
      <trkpt lat="48.7281" lon="2.04924">
        <ele>98.3</ele>
        <time>2022-06-14T09:39:33Z</time>
      </trkpt>
      <trkpt lat="48.72816" lon="2.04928">
        <ele>99</ele>
        <time>2022-06-14T09:39:38Z</time>
      </trkpt>
      <trkpt lat="48.72822" lon="2.04934">
        <ele>99.8</ele>
        <time>2022-06-14T09:39:45Z</time>
      </trkpt>
      <trkpt lat="48.72829" lon="2.04933">
        <ele>100.4</ele>
        <time>2022-06-14T09:39:51Z</time>
      </trkpt>
      <trkpt lat="48.72825" lon="2.04941">
        <ele>100.4</ele>
        <time>2022-06-14T09:40:37Z</time>
      </trkpt>
      <trkpt lat="48.72822" lon="2.04951">
        <ele>100.5</ele>
        <time>2022-06-14T09:40:42Z</time>
      </trkpt>
      <trkpt lat="48.72822" lon="2.04964">
        <ele>101</ele>
        <time>2022-06-14T09:40:47Z</time>
      </trkpt>
      <trkpt lat="48.72818" lon="2.04974">
        <ele>101</ele>
        <time>2022-06-14T09:40:52Z</time>
      </trkpt>
      <trkpt lat="48.72815" lon="2.04988">
        <ele>101.1</ele>
        <time>2022-06-14T09:40:57Z</time>
      </trkpt>
      <trkpt lat="48.72813" lon="2.04999">
        <ele>101.3</ele>
        <time>2022-06-14T09:41:02Z</time>
      </trkpt>
      <trkpt lat="48.72813" lon="2.0501">
        <ele>101.4</ele>
        <time>2022-06-14T09:41:08Z</time>
      </trkpt>
      <trkpt lat="48.72811" lon="2.05025">
        <ele>101.3</ele>
        <time>2022-06-14T09:41:13Z</time>
      </trkpt>
      <trkpt lat="48.72811" lon="2.05037">
        <ele>101.4</ele>
        <time>2022-06-14T09:41:19Z</time>
      </trkpt>
      <trkpt lat="48.72809" lon="2.05048">
        <ele>101.3</ele>
        <time>2022-06-14T09:41:25Z</time>
      </trkpt>
      <trkpt lat="48.7281" lon="2.05059">
        <ele>101.5</ele>
        <time>2022-06-14T09:41:37Z</time>
      </trkpt>
      <trkpt lat="48.72809" lon="2.05069">
        <ele>101.5</ele>
        <time>2022-06-14T09:41:48Z</time>
      </trkpt>
      <trkpt lat="48.72812" lon="2.05078">
        <ele>101.9</ele>
        <time>2022-06-14T09:41:55Z</time>
      </trkpt>
      <trkpt lat="48.72813" lon="2.05089">
        <ele>101.9</ele>
        <time>2022-06-14T09:42:00Z</time>
      </trkpt>
      <trkpt lat="48.72813" lon="2.05101">
        <ele>101.6</ele>
        <time>2022-06-14T09:42:05Z</time>
      </trkpt>
      <trkpt lat="48.7281" lon="2.05114">
        <ele>101</ele>
        <time>2022-06-14T09:42:10Z</time>
      </trkpt>
      <trkpt lat="48.72807" lon="2.05126">
        <ele>100.4</ele>
        <time>2022-06-14T09:42:15Z</time>
      </trkpt>
      <trkpt lat="48.72805" lon="2.05138">
        <ele>100</ele>
        <time>2022-06-14T09:42:20Z</time>
      </trkpt>
      <trkpt lat="48.72803" lon="2.05148">
        <ele>99.6</ele>
        <time>2022-06-14T09:42:25Z</time>
      </trkpt>
      <trkpt lat="48.72802" lon="2.05158">
        <ele>99.3</ele>
        <time>2022-06-14T09:42:37Z</time>
      </trkpt>
      <trkpt lat="48.72794" lon="2.05165">
        <ele>98.7</ele>
        <time>2022-06-14T09:42:42Z</time>
      </trkpt>
      <trkpt lat="48.72798" lon="2.05174">
        <ele>98.6</ele>
        <time>2022-06-14T09:42:55Z</time>
      </trkpt>
      <trkpt lat="48.72799" lon="2.05184">
        <ele>98.2</ele>
        <time>2022-06-14T09:43:00Z</time>
      </trkpt>
      <trkpt lat="48.72798" lon="2.05196">
        <ele>97.6</ele>
        <time>2022-06-14T09:43:05Z</time>
      </trkpt>
      <trkpt lat="48.72797" lon="2.05206">
        <ele>97.1</ele>
        <time>2022-06-14T09:43:10Z</time>
      </trkpt>
      <trkpt lat="48.72795" lon="2.05216">
        <ele>96.6</ele>
        <time>2022-06-14T09:43:17Z</time>
      </trkpt>
      <trkpt lat="48.7279" lon="2.05225">
        <ele>96</ele>
        <time>2022-06-14T09:43:22Z</time>
      </trkpt>
      <trkpt lat="48.72788" lon="2.05235">
        <ele>95.4</ele>
        <time>2022-06-14T09:43:27Z</time>
      </trkpt>
      <trkpt lat="48.72788" lon="2.05246">
        <ele>95</ele>
        <time>2022-06-14T09:43:32Z</time>
      </trkpt>
      <trkpt lat="48.72789" lon="2.05257">
        <ele>94.7</ele>
        <time>2022-06-14T09:43:37Z</time>
      </trkpt>
      <trkpt lat="48.72789" lon="2.05267">
        <ele>94.5</ele>
        <time>2022-06-14T09:43:44Z</time>
      </trkpt>
      <trkpt lat="48.72785" lon="2.05281">
        <ele>93.9</ele>
        <time>2022-06-14T09:44:14Z</time>
      </trkpt>
      <trkpt lat="48.72786" lon="2.05293">
        <ele>93.7</ele>
        <time>2022-06-14T09:44:22Z</time>
      </trkpt>
      <trkpt lat="48.7279" lon="2.05304">
        <ele>93.6</ele>
        <time>2022-06-14T09:44:29Z</time>
      </trkpt>
      <trkpt lat="48.7279" lon="2.05315">
        <ele>93.4</ele>
        <time>2022-06-14T09:44:35Z</time>
      </trkpt>
      <trkpt lat="48.7279" lon="2.05329">
        <ele>93</ele>
        <time>2022-06-14T09:44:40Z</time>
      </trkpt>
      <trkpt lat="48.72785" lon="2.05341">
        <ele>92.9</ele>
        <time>2022-06-14T09:44:45Z</time>
      </trkpt>
      <trkpt lat="48.72785" lon="2.05352">
        <ele>93.2</ele>
        <time>2022-06-14T09:45:06Z</time>
      </trkpt>
      <trkpt lat="48.7278" lon="2.05358">
        <ele>93.1</ele>
        <time>2022-06-14T09:45:17Z</time>
      </trkpt>
      <trkpt lat="48.72773" lon="2.05359">
        <ele>92.7</ele>
        <time>2022-06-14T09:45:22Z</time>
      </trkpt>
      <trkpt lat="48.72765" lon="2.05357">
        <ele>92.2</ele>
        <time>2022-06-14T09:45:29Z</time>
      </trkpt>
      <trkpt lat="48.72758" lon="2.05357">
        <ele>91.7</ele>
        <time>2022-06-14T09:45:36Z</time>
      </trkpt>
      <trkpt lat="48.72765" lon="2.05358">
        <ele>92.2</ele>
        <time>2022-06-14T09:45:58Z</time>
      </trkpt>
      <trkpt lat="48.72772" lon="2.05361">
        <ele>92.7</ele>
        <time>2022-06-14T09:46:04Z</time>
      </trkpt>
      <trkpt lat="48.72779" lon="2.05361">
        <ele>93.1</ele>
        <time>2022-06-14T09:46:11Z</time>
      </trkpt>
      <trkpt lat="48.72784" lon="2.05352">
        <ele>93.1</ele>
        <time>2022-06-14T09:46:16Z</time>
      </trkpt>
      <trkpt lat="48.72784" lon="2.05337">
        <ele>92.7</ele>
        <time>2022-06-14T09:46:21Z</time>
      </trkpt>
      <trkpt lat="48.72787" lon="2.05326">
        <ele>93</ele>
        <time>2022-06-14T09:46:27Z</time>
      </trkpt>
      <trkpt lat="48.72787" lon="2.05316">
        <ele>93.2</ele>
        <time>2022-06-14T09:46:33Z</time>
      </trkpt>
      <trkpt lat="48.72789" lon="2.05303">
        <ele>93.6</ele>
        <time>2022-06-14T09:46:38Z</time>
      </trkpt>
      <trkpt lat="48.7279" lon="2.05293">
        <ele>93.9</ele>
        <time>2022-06-14T09:46:43Z</time>
      </trkpt>
      <trkpt lat="48.72787" lon="2.05282">
        <ele>94</ele>
        <time>2022-06-14T09:46:53Z</time>
      </trkpt>
      <trkpt lat="48.72788" lon="2.05271">
        <ele>94.3</ele>
        <time>2022-06-14T09:46:58Z</time>
      </trkpt>
      <trkpt lat="48.72787" lon="2.05261">
        <ele>94.5</ele>
        <time>2022-06-14T09:47:06Z</time>
      </trkpt>
      <trkpt lat="48.72789" lon="2.05248">
        <ele>95</ele>
        <time>2022-06-14T09:47:11Z</time>
      </trkpt>
      <trkpt lat="48.72791" lon="2.05238">
        <ele>95.5</ele>
        <time>2022-06-14T09:47:17Z</time>
      </trkpt>
      <trkpt lat="48.72793" lon="2.05227">
        <ele>96</ele>
        <time>2022-06-14T09:47:23Z</time>
      </trkpt>
      <trkpt lat="48.72791" lon="2.05217">
        <ele>96.4</ele>
        <time>2022-06-14T09:47:35Z</time>
      </trkpt>
      <trkpt lat="48.72791" lon="2.05205">
        <ele>96.9</ele>
        <time>2022-06-14T09:47:40Z</time>
      </trkpt>
      <trkpt lat="48.72792" lon="2.05195">
        <ele>97.3</ele>
        <time>2022-06-14T09:47:46Z</time>
      </trkpt>
      <trkpt lat="48.72795" lon="2.05186">
        <ele>97.9</ele>
        <time>2022-06-14T09:47:52Z</time>
      </trkpt>
      <trkpt lat="48.72797" lon="2.05176">
        <ele>98.4</ele>
        <time>2022-06-14T09:47:58Z</time>
      </trkpt>
      <trkpt lat="48.72802" lon="2.05165">
        <ele>99.2</ele>
        <time>2022-06-14T09:48:12Z</time>
      </trkpt>
      <trkpt lat="48.72803" lon="2.05155">
        <ele>99.4</ele>
        <time>2022-06-14T09:48:19Z</time>
      </trkpt>
      <trkpt lat="48.72807" lon="2.05145">
        <ele>100</ele>
        <time>2022-06-14T09:48:25Z</time>
      </trkpt>
      <trkpt lat="48.72804" lon="2.05136">
        <ele>100</ele>
        <time>2022-06-14T09:48:30Z</time>
      </trkpt>
      <trkpt lat="48.72808" lon="2.05127">
        <ele>100.5</ele>
        <time>2022-06-14T09:48:35Z</time>
      </trkpt>
      <trkpt lat="48.72812" lon="2.05118">
        <ele>101</ele>
        <time>2022-06-14T09:48:42Z</time>
      </trkpt>
      <trkpt lat="48.72809" lon="2.05108">
        <ele>101</ele>
        <time>2022-06-14T09:48:50Z</time>
      </trkpt>
      <trkpt lat="48.72808" lon="2.05097">
        <ele>101.2</ele>
        <time>2022-06-14T09:48:55Z</time>
      </trkpt>
      <trkpt lat="48.72807" lon="2.05088">
        <ele>101.4</ele>
        <time>2022-06-14T09:49:01Z</time>
      </trkpt>
      <trkpt lat="48.72805" lon="2.05073">
        <ele>101.2</ele>
        <time>2022-06-14T09:49:06Z</time>
      </trkpt>
      <trkpt lat="48.72804" lon="2.05058">
        <ele>100.9</ele>
        <time>2022-06-14T09:49:11Z</time>
      </trkpt>
      <trkpt lat="48.72805" lon="2.05048">
        <ele>100.8</ele>
        <time>2022-06-14T09:49:17Z</time>
      </trkpt>
      <trkpt lat="48.7281" lon="2.05039">
        <ele>101.3</ele>
        <time>2022-06-14T09:49:23Z</time>
      </trkpt>
      <trkpt lat="48.72811" lon="2.05028">
        <ele>101.3</ele>
        <time>2022-06-14T09:49:28Z</time>
      </trkpt>
      <trkpt lat="48.72813" lon="2.05017">
        <ele>101.5</ele>
        <time>2022-06-14T09:49:34Z</time>
      </trkpt>
      <trkpt lat="48.72814" lon="2.05005">
        <ele>101.5</ele>
        <time>2022-06-14T09:49:39Z</time>
      </trkpt>
      <trkpt lat="48.72816" lon="2.0499">
        <ele>101.3</ele>
        <time>2022-06-14T09:49:44Z</time>
      </trkpt>
      <trkpt lat="48.72819" lon="2.0498">
        <ele>101.3</ele>
        <time>2022-06-14T09:49:49Z</time>
      </trkpt>
      <trkpt lat="48.72821" lon="2.04966">
        <ele>101</ele>
        <time>2022-06-14T09:49:54Z</time>
      </trkpt>
      <trkpt lat="48.72822" lon="2.04956">
        <ele>100.7</ele>
        <time>2022-06-14T09:49:59Z</time>
      </trkpt>
      <trkpt lat="48.72827" lon="2.04946">
        <ele>100.8</ele>
        <time>2022-06-14T09:50:05Z</time>
      </trkpt>
      <trkpt lat="48.7283" lon="2.04936">
        <ele>100.6</ele>
        <time>2022-06-14T09:50:13Z</time>
      </trkpt>
      <trkpt lat="48.72835" lon="2.04929">
        <ele>100.8</ele>
        <time>2022-06-14T09:50:18Z</time>
      </trkpt>
      <trkpt lat="48.72842" lon="2.04926">
        <ele>101.7</ele>
        <time>2022-06-14T09:50:24Z</time>
      </trkpt>
      <trkpt lat="48.72847" lon="2.0492">
        <ele>102.3</ele>
        <time>2022-06-14T09:50:29Z</time>
      </trkpt>
      <trkpt lat="48.72853" lon="2.04916">
        <ele>103.1</ele>
        <time>2022-06-14T09:50:35Z</time>
      </trkpt>
      <trkpt lat="48.7286" lon="2.04917">
        <ele>104.2</ele>
        <time>2022-06-14T09:50:41Z</time>
      </trkpt>
      <trkpt lat="48.72867" lon="2.04918">
        <ele>105.3</ele>
        <time>2022-06-14T09:50:51Z</time>
      </trkpt>
      <trkpt lat="48.72875" lon="2.04921">
        <ele>106.6</ele>
        <time>2022-06-14T09:51:14Z</time>
      </trkpt>
      <trkpt lat="48.72882" lon="2.04925">
        <ele>107.6</ele>
        <time>2022-06-14T09:51:21Z</time>
      </trkpt>
      <trkpt lat="48.72888" lon="2.04921">
        <ele>108.5</ele>
        <time>2022-06-14T09:51:30Z</time>
      </trkpt>
      <trkpt lat="48.72894" lon="2.04916">
        <ele>109.5</ele>
        <time>2022-06-14T09:51:35Z</time>
      </trkpt>
      <trkpt lat="48.72898" lon="2.04908">
        <ele>110.1</ele>
        <time>2022-06-14T09:51:46Z</time>
      </trkpt>
      <trkpt lat="48.72898" lon="2.04897">
        <ele>110</ele>
        <time>2022-06-14T09:51:54Z</time>
      </trkpt>
      <trkpt lat="48.72901" lon="2.04889">
        <ele>110.5</ele>
        <time>2022-06-14T09:52:03Z</time>
      </trkpt>
      <trkpt lat="48.72901" lon="2.04878">
        <ele>110.5</ele>
        <time>2022-06-14T09:52:10Z</time>
      </trkpt>
      <trkpt lat="48.72903" lon="2.04867">
        <ele>110.8</ele>
        <time>2022-06-14T09:52:40Z</time>
      </trkpt>
      <trkpt lat="48.72906" lon="2.04857">
        <ele>111.2</ele>
        <time>2022-06-14T09:52:53Z</time>
      </trkpt>
      <trkpt lat="48.72905" lon="2.04847">
        <ele>111.1</ele>
        <time>2022-06-14T09:53:00Z</time>
      </trkpt>
      <trkpt lat="48.72907" lon="2.04836">
        <ele>111.4</ele>
        <time>2022-06-14T09:53:11Z</time>
      </trkpt>
      <trkpt lat="48.72909" lon="2.04824">
        <ele>112.2</ele>
        <time>2022-06-14T09:53:21Z</time>
      </trkpt>
      <trkpt lat="48.72908" lon="2.04813">
        <ele>112.7</ele>
        <time>2022-06-14T09:53:30Z</time>
      </trkpt>
      <trkpt lat="48.7291" lon="2.04803">
        <ele>113.6</ele>
        <time>2022-06-14T09:53:38Z</time>
      </trkpt>
      <trkpt lat="48.72909" lon="2.0479">
        <ele>114.2</ele>
        <time>2022-06-14T09:53:52Z</time>
      </trkpt>
      <trkpt lat="48.72912" lon="2.0478">
        <ele>115.3</ele>
        <time>2022-06-14T09:54:04Z</time>
      </trkpt>
      <trkpt lat="48.72917" lon="2.04773">
        <ele>116.7</ele>
        <time>2022-06-14T09:54:14Z</time>
      </trkpt>
      <trkpt lat="48.72922" lon="2.04766">
        <ele>119.1</ele>
        <time>2022-06-14T09:54:24Z</time>
      </trkpt>
      <trkpt lat="48.72927" lon="2.04759">
        <ele>121.4</ele>
        <time>2022-06-14T09:54:33Z</time>
      </trkpt>
      <trkpt lat="48.7293" lon="2.0475">
        <ele>123.1</ele>
        <time>2022-06-14T09:54:43Z</time>
      </trkpt>
      <trkpt lat="48.72934" lon="2.04741">
        <ele>125.1</ele>
        <time>2022-06-14T09:54:55Z</time>
      </trkpt>
      <trkpt lat="48.7294" lon="2.04734">
        <ele>127.8</ele>
        <time>2022-06-14T09:55:05Z</time>
      </trkpt>
      <trkpt lat="48.72946" lon="2.04731">
        <ele>130.2</ele>
        <time>2022-06-14T09:55:10Z</time>
      </trkpt>
      <trkpt lat="48.72952" lon="2.04724">
        <ele>132.7</ele>
        <time>2022-06-14T09:55:17Z</time>
      </trkpt>
      <trkpt lat="48.72958" lon="2.04718">
        <ele>135.2</ele>
        <time>2022-06-14T09:55:26Z</time>
      </trkpt>
      <trkpt lat="48.72963" lon="2.04712">
        <ele>137.3</ele>
        <time>2022-06-14T09:55:32Z</time>
      </trkpt>
      <trkpt lat="48.72971" lon="2.04708">
        <ele>140.4</ele>
        <time>2022-06-14T09:55:40Z</time>
      </trkpt>
      <trkpt lat="48.72978" lon="2.04705">
        <ele>143.1</ele>
        <time>2022-06-14T09:55:45Z</time>
      </trkpt>
      <trkpt lat="48.72986" lon="2.047">
        <ele>146.1</ele>
        <time>2022-06-14T09:55:50Z</time>
      </trkpt>
      <trkpt lat="48.72992" lon="2.04697">
        <ele>148.4</ele>
        <time>2022-06-14T09:55:56Z</time>
      </trkpt>
      <trkpt lat="48.72999" lon="2.04694">
        <ele>151</ele>
        <time>2022-06-14T09:56:01Z</time>
      </trkpt>
      <trkpt lat="48.73007" lon="2.0469">
        <ele>152.5</ele>
        <time>2022-06-14T09:56:06Z</time>
      </trkpt>
      <trkpt lat="48.73015" lon="2.04685">
        <ele>153.8</ele>
        <time>2022-06-14T09:56:11Z</time>
      </trkpt>
      <trkpt lat="48.73022" lon="2.04681">
        <ele>154.9</ele>
        <time>2022-06-14T09:56:16Z</time>
      </trkpt>
      <trkpt lat="48.7303" lon="2.04679">
        <ele>156.1</ele>
        <time>2022-06-14T09:56:22Z</time>
      </trkpt>
      <trkpt lat="48.73036" lon="2.04676">
        <ele>157.1</ele>
        <time>2022-06-14T09:56:30Z</time>
      </trkpt>
      <trkpt lat="48.73046" lon="2.04672">
        <ele>158.6</ele>
        <time>2022-06-14T09:56:35Z</time>
      </trkpt>
      <trkpt lat="48.73054" lon="2.04671">
        <ele>159.7</ele>
        <time>2022-06-14T09:56:40Z</time>
      </trkpt>
      <trkpt lat="48.73062" lon="2.04667">
        <ele>160.9</ele>
        <time>2022-06-14T09:56:45Z</time>
      </trkpt>
      <trkpt lat="48.73068" lon="2.04663">
        <ele>161.8</ele>
        <time>2022-06-14T09:56:52Z</time>
      </trkpt>
      <trkpt lat="48.73076" lon="2.04658">
        <ele>163.1</ele>
        <time>2022-06-14T09:56:58Z</time>
      </trkpt>
      <trkpt lat="48.73083" lon="2.04653">
        <ele>164.3</ele>
        <time>2022-06-14T09:57:03Z</time>
      </trkpt>
      <trkpt lat="48.73088" lon="2.04647">
        <ele>164.4</ele>
        <time>2022-06-14T09:57:08Z</time>
      </trkpt>
      <trkpt lat="48.73096" lon="2.04643">
        <ele>164.5</ele>
        <time>2022-06-14T09:57:13Z</time>
      </trkpt>
      <trkpt lat="48.73103" lon="2.0464">
        <ele>164.5</ele>
        <time>2022-06-14T09:57:18Z</time>
      </trkpt>
      <trkpt lat="48.7311" lon="2.0464">
        <ele>164.4</ele>
        <time>2022-06-14T09:57:23Z</time>
      </trkpt>
      <trkpt lat="48.73117" lon="2.04635">
        <ele>164.5</ele>
        <time>2022-06-14T09:57:28Z</time>
      </trkpt>
      <trkpt lat="48.73124" lon="2.04635">
        <ele>164.5</ele>
        <time>2022-06-14T09:57:33Z</time>
      </trkpt>
      <trkpt lat="48.73134" lon="2.0463">
        <ele>164.5</ele>
        <time>2022-06-14T09:57:38Z</time>
      </trkpt>
      <trkpt lat="48.73141" lon="2.04627">
        <ele>164.6</ele>
        <time>2022-06-14T09:57:43Z</time>
      </trkpt>
      <trkpt lat="48.7315" lon="2.04623">
        <ele>164.7</ele>
        <time>2022-06-14T09:57:48Z</time>
      </trkpt>
      <trkpt lat="48.73157" lon="2.04621">
        <ele>164.7</ele>
        <time>2022-06-14T09:57:53Z</time>
      </trkpt>
      <trkpt lat="48.73164" lon="2.04616">
        <ele>164.8</ele>
        <time>2022-06-14T09:57:58Z</time>
      </trkpt>
      <trkpt lat="48.7317" lon="2.0461">
        <ele>165.1</ele>
        <time>2022-06-14T09:58:03Z</time>
      </trkpt>
      <trkpt lat="48.73177" lon="2.04604">
        <ele>165.3</ele>
        <time>2022-06-14T09:58:09Z</time>
      </trkpt>
      <trkpt lat="48.73181" lon="2.04596">
        <ele>165.6</ele>
        <time>2022-06-14T09:58:14Z</time>
      </trkpt>
      <trkpt lat="48.73188" lon="2.04589">
        <ele>165.8</ele>
        <time>2022-06-14T09:58:19Z</time>
      </trkpt>
      <trkpt lat="48.73199" lon="2.04587">
        <ele>165.9</ele>
        <time>2022-06-14T09:58:24Z</time>
      </trkpt>
      <trkpt lat="48.73207" lon="2.04582">
        <ele>166</ele>
        <time>2022-06-14T09:58:29Z</time>
      </trkpt>
      <trkpt lat="48.73214" lon="2.0458">
        <ele>166</ele>
        <time>2022-06-14T09:58:34Z</time>
      </trkpt>
      <trkpt lat="48.73221" lon="2.04575">
        <ele>166</ele>
        <time>2022-06-14T09:58:39Z</time>
      </trkpt>
      <trkpt lat="48.73229" lon="2.04568">
        <ele>166</ele>
        <time>2022-06-14T09:58:44Z</time>
      </trkpt>
      <trkpt lat="48.73235" lon="2.04563">
        <ele>166</ele>
        <time>2022-06-14T09:58:49Z</time>
      </trkpt>
      <trkpt lat="48.73242" lon="2.04561">
        <ele>166</ele>
        <time>2022-06-14T09:58:54Z</time>
      </trkpt>
      <trkpt lat="48.7325" lon="2.04555">
        <ele>166</ele>
        <time>2022-06-14T09:59:01Z</time>
      </trkpt>
      <trkpt lat="48.73256" lon="2.0455">
        <ele>165.9</ele>
        <time>2022-06-14T09:59:07Z</time>
      </trkpt>
      <trkpt lat="48.73262" lon="2.04545">
        <ele>165.8</ele>
        <time>2022-06-14T09:59:14Z</time>
      </trkpt>
      <trkpt lat="48.73269" lon="2.04537">
        <ele>165.6</ele>
        <time>2022-06-14T09:59:20Z</time>
      </trkpt>
      <trkpt lat="48.73277" lon="2.04529">
        <ele>165.4</ele>
        <time>2022-06-14T09:59:25Z</time>
      </trkpt>
      <trkpt lat="48.73279" lon="2.04518">
        <ele>165.2</ele>
        <time>2022-06-14T09:59:30Z</time>
      </trkpt>
      <trkpt lat="48.73278" lon="2.04506">
        <ele>165.1</ele>
        <time>2022-06-14T09:59:39Z</time>
      </trkpt>
      <trkpt lat="48.73273" lon="2.04501">
        <ele>165.2</ele>
        <time>2022-06-14T09:59:50Z</time>
      </trkpt>
      <trkpt lat="48.73271" lon="2.04489">
        <ele>165.2</ele>
        <time>2022-06-14T09:59:55Z</time>
      </trkpt>
      <trkpt lat="48.73272" lon="2.04478">
        <ele>165.1</ele>
        <time>2022-06-14T10:00:03Z</time>
      </trkpt>
      <trkpt lat="48.73269" lon="2.04467">
        <ele>165.1</ele>
        <time>2022-06-14T10:00:08Z</time>
      </trkpt>
      <trkpt lat="48.73263" lon="2.04455">
        <ele>165.4</ele>
        <time>2022-06-14T10:00:13Z</time>
      </trkpt>
      <trkpt lat="48.7326" lon="2.04442">
        <ele>165.5</ele>
        <time>2022-06-14T10:00:18Z</time>
      </trkpt>
      <trkpt lat="48.73259" lon="2.04431">
        <ele>165.5</ele>
        <time>2022-06-14T10:00:23Z</time>
      </trkpt>
      <trkpt lat="48.73257" lon="2.0442">
        <ele>165.6</ele>
        <time>2022-06-14T10:00:32Z</time>
      </trkpt>
      <trkpt lat="48.73254" lon="2.04411">
        <ele>165.8</ele>
        <time>2022-06-14T10:00:37Z</time>
      </trkpt>
      <trkpt lat="48.73252" lon="2.04399">
        <ele>166.1</ele>
        <time>2022-06-14T10:00:42Z</time>
      </trkpt>
      <trkpt lat="48.73246" lon="2.04392">
        <ele>166.3</ele>
        <time>2022-06-14T10:00:58Z</time>
      </trkpt>
      <trkpt lat="48.73245" lon="2.04381">
        <ele>166.4</ele>
        <time>2022-06-14T10:01:04Z</time>
      </trkpt>
      <trkpt lat="48.73243" lon="2.04371">
        <ele>166.5</ele>
        <time>2022-06-14T10:01:10Z</time>
      </trkpt>
      <trkpt lat="48.73235" lon="2.04363">
        <ele>166.6</ele>
        <time>2022-06-14T10:01:24Z</time>
      </trkpt>
      <trkpt lat="48.73232" lon="2.04353">
        <ele>166.6</ele>
        <time>2022-06-14T10:01:29Z</time>
      </trkpt>
      <trkpt lat="48.73229" lon="2.04343">
        <ele>166.7</ele>
        <time>2022-06-14T10:01:35Z</time>
      </trkpt>
      <trkpt lat="48.73222" lon="2.04338">
        <ele>166.6</ele>
        <time>2022-06-14T10:01:41Z</time>
      </trkpt>
      <trkpt lat="48.73222" lon="2.04327">
        <ele>166.5</ele>
        <time>2022-06-14T10:01:48Z</time>
      </trkpt>
      <trkpt lat="48.73221" lon="2.04314">
        <ele>166.2</ele>
        <time>2022-06-14T10:01:53Z</time>
      </trkpt>
      <trkpt lat="48.73217" lon="2.04302">
        <ele>165.9</ele>
        <time>2022-06-14T10:01:58Z</time>
      </trkpt>
      <trkpt lat="48.73215" lon="2.04291">
        <ele>165.7</ele>
        <time>2022-06-14T10:02:06Z</time>
      </trkpt>
      <trkpt lat="48.73211" lon="2.04282">
        <ele>165.5</ele>
        <time>2022-06-14T10:02:12Z</time>
      </trkpt>
      <trkpt lat="48.73205" lon="2.04276">
        <ele>165.5</ele>
        <time>2022-06-14T10:02:18Z</time>
      </trkpt>
      <trkpt lat="48.73199" lon="2.04266">
        <ele>165.4</ele>
        <time>2022-06-14T10:02:23Z</time>
      </trkpt>
      <trkpt lat="48.73194" lon="2.0426">
        <ele>165.5</ele>
        <time>2022-06-14T10:02:28Z</time>
      </trkpt>
      <trkpt lat="48.73189" lon="2.04251">
        <ele>165.5</ele>
        <time>2022-06-14T10:02:33Z</time>
      </trkpt>
      <trkpt lat="48.73185" lon="2.04241">
        <ele>165.4</ele>
        <time>2022-06-14T10:02:40Z</time>
      </trkpt>
      <trkpt lat="48.73182" lon="2.04231">
        <ele>165.2</ele>
        <time>2022-06-14T10:02:47Z</time>
      </trkpt>
      <trkpt lat="48.73178" lon="2.04222">
        <ele>165.1</ele>
        <time>2022-06-14T10:02:55Z</time>
      </trkpt>
      <trkpt lat="48.73173" lon="2.04209">
        <ele>164.9</ele>
        <time>2022-06-14T10:03:00Z</time>
      </trkpt>
      <trkpt lat="48.7317" lon="2.04198">
        <ele>164.7</ele>
        <time>2022-06-14T10:03:05Z</time>
      </trkpt>
      <trkpt lat="48.73167" lon="2.04185">
        <ele>164.4</ele>
        <time>2022-06-14T10:03:10Z</time>
      </trkpt>
      <trkpt lat="48.73163" lon="2.04177">
        <ele>163.2</ele>
        <time>2022-06-14T10:03:16Z</time>
      </trkpt>
      <trkpt lat="48.73161" lon="2.04167">
        <ele>162.3</ele>
        <time>2022-06-14T10:03:21Z</time>
      </trkpt>
      <trkpt lat="48.73158" lon="2.04152">
        <ele>160.6</ele>
        <time>2022-06-14T10:03:26Z</time>
      </trkpt>
      <trkpt lat="48.73157" lon="2.04142">
        <ele>159.7</ele>
        <time>2022-06-14T10:03:33Z</time>
      </trkpt>
      <trkpt lat="48.73155" lon="2.04132">
        <ele>158.6</ele>
        <time>2022-06-14T10:03:39Z</time>
      </trkpt>
      <trkpt lat="48.73151" lon="2.04119">
        <ele>156.8</ele>
        <time>2022-06-14T10:03:44Z</time>
      </trkpt>
      <trkpt lat="48.73147" lon="2.04112">
        <ele>155.3</ele>
        <time>2022-06-14T10:03:50Z</time>
      </trkpt>
      <trkpt lat="48.73145" lon="2.04102">
        <ele>154.2</ele>
        <time>2022-06-14T10:03:55Z</time>
      </trkpt>
      <trkpt lat="48.7314" lon="2.04088">
        <ele>152.2</ele>
        <time>2022-06-14T10:04:14Z</time>
      </trkpt>
      <trkpt lat="48.73148" lon="2.04072">
        <ele>153.5</ele>
        <time>2022-06-14T10:04:33Z</time>
      </trkpt>
      <trkpt lat="48.73143" lon="2.04066">
        <ele>151.8</ele>
        <time>2022-06-14T10:05:00Z</time>
      </trkpt>
      <trkpt lat="48.73142" lon="2.04053">
        <ele>150.8</ele>
        <time>2022-06-14T10:05:53Z</time>
      </trkpt>
      <trkpt lat="48.73138" lon="2.04044">
        <ele>149.2</ele>
        <time>2022-06-14T10:05:58Z</time>
      </trkpt>
      <trkpt lat="48.73137" lon="2.04032">
        <ele>148.3</ele>
        <time>2022-06-14T10:06:06Z</time>
      </trkpt>
      <trkpt lat="48.73135" lon="2.04021">
        <ele>147.1</ele>
        <time>2022-06-14T10:06:12Z</time>
      </trkpt>
      <trkpt lat="48.73134" lon="2.04004">
        <ele>145.8</ele>
        <time>2022-06-14T10:06:17Z</time>
      </trkpt>
      <trkpt lat="48.73135" lon="2.03993">
        <ele>145.7</ele>
        <time>2022-06-14T10:06:23Z</time>
      </trkpt>
      <trkpt lat="48.73135" lon="2.0398">
        <ele>145.4</ele>
        <time>2022-06-14T10:06:28Z</time>
      </trkpt>
      <trkpt lat="48.73133" lon="2.03965">
        <ele>144.4</ele>
        <time>2022-06-14T10:06:33Z</time>
      </trkpt>
      <trkpt lat="48.73135" lon="2.03953">
        <ele>144.7</ele>
        <time>2022-06-14T10:06:38Z</time>
      </trkpt>
      <trkpt lat="48.73136" lon="2.0394">
        <ele>144.7</ele>
        <time>2022-06-14T10:06:43Z</time>
      </trkpt>
      <trkpt lat="48.73137" lon="2.03926">
        <ele>144.6</ele>
        <time>2022-06-14T10:06:48Z</time>
      </trkpt>
      <trkpt lat="48.73135" lon="2.03916">
        <ele>143.7</ele>
        <time>2022-06-14T10:06:53Z</time>
      </trkpt>
      <trkpt lat="48.73136" lon="2.03904">
        <ele>143.6</ele>
        <time>2022-06-14T10:06:58Z</time>
      </trkpt>
      <trkpt lat="48.73135" lon="2.03892">
        <ele>142.7</ele>
        <time>2022-06-14T10:07:03Z</time>
      </trkpt>
      <trkpt lat="48.73136" lon="2.03881">
        <ele>142.6</ele>
        <time>2022-06-14T10:07:08Z</time>
      </trkpt>
      <trkpt lat="48.73132" lon="2.03873">
        <ele>141</ele>
        <time>2022-06-14T10:07:13Z</time>
      </trkpt>
      <trkpt lat="48.73129" lon="2.03862">
        <ele>139.5</ele>
        <time>2022-06-14T10:07:18Z</time>
      </trkpt>
      <trkpt lat="48.73126" lon="2.0385">
        <ele>138</ele>
        <time>2022-06-14T10:07:23Z</time>
      </trkpt>
      <trkpt lat="48.73126" lon="2.03838">
        <ele>137.5</ele>
        <time>2022-06-14T10:07:28Z</time>
      </trkpt>
      <trkpt lat="48.73128" lon="2.03827">
        <ele>137.9</ele>
        <time>2022-06-14T10:07:37Z</time>
      </trkpt>
      <trkpt lat="48.73135" lon="2.03822">
        <ele>140.2</ele>
        <time>2022-06-14T10:07:42Z</time>
      </trkpt>
      <trkpt lat="48.73142" lon="2.03819">
        <ele>142.5</ele>
        <time>2022-06-14T10:07:47Z</time>
      </trkpt>
      <trkpt lat="48.73149" lon="2.03821">
        <ele>144.8</ele>
        <time>2022-06-14T10:07:53Z</time>
      </trkpt>
      <trkpt lat="48.73157" lon="2.0382">
        <ele>147.5</ele>
        <time>2022-06-14T10:08:00Z</time>
      </trkpt>
      <trkpt lat="48.73166" lon="2.03822">
        <ele>150.5</ele>
        <time>2022-06-14T10:08:05Z</time>
      </trkpt>
      <trkpt lat="48.73176" lon="2.03826">
        <ele>152</ele>
        <time>2022-06-14T10:08:10Z</time>
      </trkpt>
      <trkpt lat="48.73184" lon="2.03824">
        <ele>152.9</ele>
        <time>2022-06-14T10:08:15Z</time>
      </trkpt>
      <trkpt lat="48.73192" lon="2.03829">
        <ele>154</ele>
        <time>2022-06-14T10:08:22Z</time>
      </trkpt>
      <trkpt lat="48.73198" lon="2.03835">
        <ele>154.8</ele>
        <time>2022-06-14T10:08:29Z</time>
      </trkpt>
      <trkpt lat="48.73204" lon="2.03839">
        <ele>155.6</ele>
        <time>2022-06-14T10:08:35Z</time>
      </trkpt>
      <trkpt lat="48.7321" lon="2.03846">
        <ele>156.3</ele>
        <time>2022-06-14T10:08:40Z</time>
      </trkpt>
      <trkpt lat="48.7322" lon="2.03846">
        <ele>157.5</ele>
        <time>2022-06-14T10:08:45Z</time>
      </trkpt>
      <trkpt lat="48.73228" lon="2.0385">
        <ele>158.4</ele>
        <time>2022-06-14T10:08:50Z</time>
      </trkpt>
      <trkpt lat="48.7324" lon="2.03854">
        <ele>159.7</ele>
        <time>2022-06-14T10:08:55Z</time>
      </trkpt>
      <trkpt lat="48.73248" lon="2.03857">
        <ele>160.5</ele>
        <time>2022-06-14T10:09:00Z</time>
      </trkpt>
      <trkpt lat="48.73255" lon="2.03859">
        <ele>160.5</ele>
        <time>2022-06-14T10:09:05Z</time>
      </trkpt>
      <trkpt lat="48.73263" lon="2.03864">
        <ele>160.2</ele>
        <time>2022-06-14T10:09:10Z</time>
      </trkpt>
      <trkpt lat="48.73269" lon="2.0387">
        <ele>159.9</ele>
        <time>2022-06-14T10:09:16Z</time>
      </trkpt>
      <trkpt lat="48.73277" lon="2.03872">
        <ele>159.7</ele>
        <time>2022-06-14T10:09:21Z</time>
      </trkpt>
      <trkpt lat="48.73285" lon="2.03877">
        <ele>159.5</ele>
        <time>2022-06-14T10:09:26Z</time>
      </trkpt>
      <trkpt lat="48.73293" lon="2.0388">
        <ele>159.2</ele>
        <time>2022-06-14T10:09:31Z</time>
      </trkpt>
      <trkpt lat="48.73301" lon="2.03882">
        <ele>159</ele>
        <time>2022-06-14T10:09:36Z</time>
      </trkpt>
      <trkpt lat="48.73309" lon="2.03882">
        <ele>158.8</ele>
        <time>2022-06-14T10:09:41Z</time>
      </trkpt>
      <trkpt lat="48.73317" lon="2.03884">
        <ele>158.6</ele>
        <time>2022-06-14T10:09:46Z</time>
      </trkpt>
      <trkpt lat="48.73326" lon="2.03887">
        <ele>158.5</ele>
        <time>2022-06-14T10:09:51Z</time>
      </trkpt>
      <trkpt lat="48.73332" lon="2.03889">
        <ele>158.4</ele>
        <time>2022-06-14T10:09:56Z</time>
      </trkpt>
      <trkpt lat="48.73337" lon="2.03895">
        <ele>158.4</ele>
        <time>2022-06-14T10:10:01Z</time>
      </trkpt>
      <trkpt lat="48.73345" lon="2.03896">
        <ele>158.2</ele>
        <time>2022-06-14T10:10:06Z</time>
      </trkpt>
      <trkpt lat="48.73353" lon="2.039">
        <ele>158</ele>
        <time>2022-06-14T10:10:11Z</time>
      </trkpt>
      <trkpt lat="48.7336" lon="2.03904">
        <ele>157.9</ele>
        <time>2022-06-14T10:10:16Z</time>
      </trkpt>
      <trkpt lat="48.73354" lon="2.03909">
        <ele>158.1</ele>
        <time>2022-06-14T10:10:29Z</time>
      </trkpt>
      <trkpt lat="48.73347" lon="2.03912">
        <ele>158.4</ele>
        <time>2022-06-14T10:10:36Z</time>
      </trkpt>
      <trkpt lat="48.7334" lon="2.03916">
        <ele>158.7</ele>
        <time>2022-06-14T10:10:41Z</time>
      </trkpt>
      <trkpt lat="48.73333" lon="2.0392">
        <ele>159.2</ele>
        <time>2022-06-14T10:10:46Z</time>
      </trkpt>
      <trkpt lat="48.73326" lon="2.03924">
        <ele>159.4</ele>
        <time>2022-06-14T10:10:53Z</time>
      </trkpt>
      <trkpt lat="48.73323" lon="2.03935">
        <ele>159.9</ele>
        <time>2022-06-14T10:11:04Z</time>
      </trkpt>
      <trkpt lat="48.73328" lon="2.03942">
        <ele>160.2</ele>
        <time>2022-06-14T10:11:12Z</time>
      </trkpt>
      <trkpt lat="48.73329" lon="2.03958">
        <ele>161</ele>
        <time>2022-06-14T10:11:17Z</time>
      </trkpt>
      <trkpt lat="48.73329" lon="2.03971">
        <ele>161.6</ele>
        <time>2022-06-14T10:11:22Z</time>
      </trkpt>
      <trkpt lat="48.73328" lon="2.03982">
        <ele>162</ele>
        <time>2022-06-14T10:11:28Z</time>
      </trkpt>
      <trkpt lat="48.73329" lon="2.03994">
        <ele>162.6</ele>
        <time>2022-06-14T10:11:33Z</time>
      </trkpt>
      <trkpt lat="48.73332" lon="2.04004">
        <ele>163</ele>
        <time>2022-06-14T10:11:38Z</time>
      </trkpt>
      <trkpt lat="48.73336" lon="2.04015">
        <ele>162.8</ele>
        <time>2022-06-14T10:11:43Z</time>
      </trkpt>
      <trkpt lat="48.73341" lon="2.04026">
        <ele>162.5</ele>
        <time>2022-06-14T10:11:48Z</time>
      </trkpt>
      <trkpt lat="48.73346" lon="2.04035">
        <ele>162.2</ele>
        <time>2022-06-14T10:11:53Z</time>
      </trkpt>
      <trkpt lat="48.73349" lon="2.04045">
        <ele>162</ele>
        <time>2022-06-14T10:11:58Z</time>
      </trkpt>
      <trkpt lat="48.73352" lon="2.04056">
        <ele>161.8</ele>
        <time>2022-06-14T10:12:03Z</time>
      </trkpt>
      <trkpt lat="48.73355" lon="2.04067">
        <ele>161.6</ele>
        <time>2022-06-14T10:12:08Z</time>
      </trkpt>
      <trkpt lat="48.73358" lon="2.04079">
        <ele>161.5</ele>
        <time>2022-06-14T10:12:13Z</time>
      </trkpt>
      <trkpt lat="48.73358" lon="2.04092">
        <ele>161.2</ele>
        <time>2022-06-14T10:12:19Z</time>
      </trkpt>
      <trkpt lat="48.73363" lon="2.04103">
        <ele>160.5</ele>
        <time>2022-06-14T10:12:24Z</time>
      </trkpt>
      <trkpt lat="48.73365" lon="2.04115">
        <ele>160.1</ele>
        <time>2022-06-14T10:12:29Z</time>
      </trkpt>
      <trkpt lat="48.73368" lon="2.04124">
        <ele>159.7</ele>
        <time>2022-06-14T10:12:34Z</time>
      </trkpt>
      <trkpt lat="48.73372" lon="2.04134">
        <ele>159.3</ele>
        <time>2022-06-14T10:12:39Z</time>
      </trkpt>
      <trkpt lat="48.73375" lon="2.04144">
        <ele>159</ele>
        <time>2022-06-14T10:12:45Z</time>
      </trkpt>
      <trkpt lat="48.73368" lon="2.04152">
        <ele>158.9</ele>
        <time>2022-06-14T10:12:50Z</time>
      </trkpt>
      <trkpt lat="48.73361" lon="2.04158">
        <ele>158.6</ele>
        <time>2022-06-14T10:12:56Z</time>
      </trkpt>
      <trkpt lat="48.73367" lon="2.04165">
        <ele>158.5</ele>
        <time>2022-06-14T10:13:24Z</time>
      </trkpt>
      <trkpt lat="48.7337" lon="2.04178">
        <ele>158.4</ele>
        <time>2022-06-14T10:13:32Z</time>
      </trkpt>
      <trkpt lat="48.73376" lon="2.04182">
        <ele>158.4</ele>
        <time>2022-06-14T10:13:45Z</time>
      </trkpt>
      <trkpt lat="48.73371" lon="2.04174">
        <ele>158.4</ele>
        <time>2022-06-14T10:14:07Z</time>
      </trkpt>
      <trkpt lat="48.73364" lon="2.04174">
        <ele>158.3</ele>
        <time>2022-06-14T10:14:14Z</time>
      </trkpt>
      <trkpt lat="48.73357" lon="2.04175">
        <ele>158.3</ele>
        <time>2022-06-14T10:14:20Z</time>
      </trkpt>
      <trkpt lat="48.73349" lon="2.04175">
        <ele>158.2</ele>
        <time>2022-06-14T10:14:25Z</time>
      </trkpt>
      <trkpt lat="48.73343" lon="2.04169">
        <ele>158.1</ele>
        <time>2022-06-14T10:14:33Z</time>
      </trkpt>
      <trkpt lat="48.73337" lon="2.04167">
        <ele>158</ele>
        <time>2022-06-14T10:14:38Z</time>
      </trkpt>
      <trkpt lat="48.7333" lon="2.04165">
        <ele>158.3</ele>
        <time>2022-06-14T10:14:43Z</time>
      </trkpt>
      <trkpt lat="48.73323" lon="2.0416">
        <ele>159</ele>
        <time>2022-06-14T10:14:48Z</time>
      </trkpt>
      <trkpt lat="48.73316" lon="2.04161">
        <ele>159.3</ele>
        <time>2022-06-14T10:14:53Z</time>
      </trkpt>
      <trkpt lat="48.73308" lon="2.04159">
        <ele>159.8</ele>
        <time>2022-06-14T10:15:00Z</time>
      </trkpt>
      <trkpt lat="48.73303" lon="2.04168">
        <ele>159.8</ele>
        <time>2022-06-14T10:15:05Z</time>
      </trkpt>
      <trkpt lat="48.73297" lon="2.04174">
        <ele>160.2</ele>
        <time>2022-06-14T10:15:11Z</time>
      </trkpt>
      <trkpt lat="48.73291" lon="2.04188">
        <ele>160.7</ele>
        <time>2022-06-14T10:15:16Z</time>
      </trkpt>
      <trkpt lat="48.73287" lon="2.04196">
        <ele>161</ele>
        <time>2022-06-14T10:15:21Z</time>
      </trkpt>
      <trkpt lat="48.73286" lon="2.04206">
        <ele>161.1</ele>
        <time>2022-06-14T10:15:26Z</time>
      </trkpt>
      <trkpt lat="48.73285" lon="2.04219">
        <ele>161.3</ele>
        <time>2022-06-14T10:15:31Z</time>
      </trkpt>
      <trkpt lat="48.73284" lon="2.0423">
        <ele>161.4</ele>
        <time>2022-06-14T10:15:36Z</time>
      </trkpt>
      <trkpt lat="48.73282" lon="2.0424">
        <ele>161.6</ele>
        <time>2022-06-14T10:15:41Z</time>
      </trkpt>
      <trkpt lat="48.73278" lon="2.04249">
        <ele>162</ele>
        <time>2022-06-14T10:15:47Z</time>
      </trkpt>
      <trkpt lat="48.73277" lon="2.0426">
        <ele>162.4</ele>
        <time>2022-06-14T10:15:52Z</time>
      </trkpt>
      <trkpt lat="48.73272" lon="2.0427">
        <ele>163.1</ele>
        <time>2022-06-14T10:15:57Z</time>
      </trkpt>
      <trkpt lat="48.73269" lon="2.0428">
        <ele>163.6</ele>
        <time>2022-06-14T10:16:02Z</time>
      </trkpt>
      <trkpt lat="48.73269" lon="2.0429">
        <ele>164</ele>
        <time>2022-06-14T10:16:07Z</time>
      </trkpt>
      <trkpt lat="48.73262" lon="2.04295">
        <ele>164.7</ele>
        <time>2022-06-14T10:16:34Z</time>
      </trkpt>
      <trkpt lat="48.7326" lon="2.04306">
        <ele>165.2</ele>
        <time>2022-06-14T10:16:40Z</time>
      </trkpt>
      <trkpt lat="48.73257" lon="2.04316">
        <ele>165.8</ele>
        <time>2022-06-14T10:16:48Z</time>
      </trkpt>
      <trkpt lat="48.73259" lon="2.04328">
        <ele>166.1</ele>
        <time>2022-06-14T10:16:57Z</time>
      </trkpt>
      <trkpt lat="48.73255" lon="2.04337">
        <ele>166.5</ele>
        <time>2022-06-14T10:17:05Z</time>
      </trkpt>
      <trkpt lat="48.7325" lon="2.04323">
        <ele>166.6</ele>
        <time>2022-06-14T10:17:22Z</time>
      </trkpt>
      <trkpt lat="48.73259" lon="2.04326">
        <ele>166</ele>
        <time>2022-06-14T10:17:47Z</time>
      </trkpt>
      <trkpt lat="48.73266" lon="2.04332">
        <ele>165.6</ele>
        <time>2022-06-14T10:17:52Z</time>
      </trkpt>
      <trkpt lat="48.73262" lon="2.04341">
        <ele>165.9</ele>
        <time>2022-06-14T10:18:01Z</time>
      </trkpt>
      <trkpt lat="48.73255" lon="2.04339">
        <ele>166.5</ele>
        <time>2022-06-14T10:18:07Z</time>
      </trkpt>
      <trkpt lat="48.73246" lon="2.04345">
        <ele>166.8</ele>
        <time>2022-06-14T10:18:12Z</time>
      </trkpt>
      <trkpt lat="48.73254" lon="2.04345">
        <ele>166.5</ele>
        <time>2022-06-14T10:18:18Z</time>
      </trkpt>
      <trkpt lat="48.73264" lon="2.04351">
        <ele>165.7</ele>
        <time>2022-06-14T10:18:23Z</time>
      </trkpt>
      <trkpt lat="48.73271" lon="2.04358">
        <ele>165.1</ele>
        <time>2022-06-14T10:18:28Z</time>
      </trkpt>
      <trkpt lat="48.73278" lon="2.04363">
        <ele>164.5</ele>
        <time>2022-06-14T10:18:33Z</time>
      </trkpt>
      <trkpt lat="48.73264" lon="2.04357">
        <ele>165.6</ele>
        <time>2022-06-14T10:18:46Z</time>
      </trkpt>
      <trkpt lat="48.73267" lon="2.04366">
        <ele>165.3</ele>
        <time>2022-06-14T10:19:10Z</time>
      </trkpt>
      <trkpt lat="48.73263" lon="2.04359">
        <ele>165.7</ele>
        <time>2022-06-14T10:19:26Z</time>
      </trkpt>
      <trkpt lat="48.73265" lon="2.04369">
        <ele>165.5</ele>
        <time>2022-06-14T10:20:08Z</time>
      </trkpt>
      <trkpt lat="48.73271" lon="2.04383">
        <ele>164.9</ele>
        <time>2022-06-14T10:20:13Z</time>
      </trkpt>
      <trkpt lat="48.73278" lon="2.04387">
        <ele>164.4</ele>
        <time>2022-06-14T10:20:19Z</time>
      </trkpt>
      <trkpt lat="48.73283" lon="2.04394">
        <ele>164.1</ele>
        <time>2022-06-14T10:20:32Z</time>
      </trkpt>
      <trkpt lat="48.73288" lon="2.04402">
        <ele>163.7</ele>
        <time>2022-06-14T10:20:38Z</time>
      </trkpt>
      <trkpt lat="48.73293" lon="2.04411">
        <ele>163.4</ele>
        <time>2022-06-14T10:20:43Z</time>
      </trkpt>
      <trkpt lat="48.73297" lon="2.0442">
        <ele>163.2</ele>
        <time>2022-06-14T10:20:49Z</time>
      </trkpt>
      <trkpt lat="48.73303" lon="2.04429">
        <ele>163</ele>
        <time>2022-06-14T10:20:54Z</time>
      </trkpt>
      <trkpt lat="48.73305" lon="2.04439">
        <ele>163.1</ele>
        <time>2022-06-14T10:20:59Z</time>
      </trkpt>
      <trkpt lat="48.73309" lon="2.04447">
        <ele>163</ele>
        <time>2022-06-14T10:21:04Z</time>
      </trkpt>
      <trkpt lat="48.73312" lon="2.04456">
        <ele>163</ele>
        <time>2022-06-14T10:21:10Z</time>
      </trkpt>
      <trkpt lat="48.73315" lon="2.04467">
        <ele>163</ele>
        <time>2022-06-14T10:21:15Z</time>
      </trkpt>
      <trkpt lat="48.73319" lon="2.04476">
        <ele>163</ele>
        <time>2022-06-14T10:21:23Z</time>
      </trkpt>
      <trkpt lat="48.73324" lon="2.04469">
        <ele>162.7</ele>
        <time>2022-06-14T10:21:32Z</time>
      </trkpt>
      <trkpt lat="48.73332" lon="2.04463">
        <ele>162.2</ele>
        <time>2022-06-14T10:21:49Z</time>
      </trkpt>
      <trkpt lat="48.73338" lon="2.0446">
        <ele>162.1</ele>
        <time>2022-06-14T10:21:56Z</time>
      </trkpt>
      <trkpt lat="48.73345" lon="2.04459">
        <ele>162.1</ele>
        <time>2022-06-14T10:22:01Z</time>
      </trkpt>
      <trkpt lat="48.73352" lon="2.04459">
        <ele>162.1</ele>
        <time>2022-06-14T10:22:07Z</time>
      </trkpt>
      <trkpt lat="48.73356" lon="2.04451">
        <ele>161.9</ele>
        <time>2022-06-14T10:22:12Z</time>
      </trkpt>
      <trkpt lat="48.73354" lon="2.04461">
        <ele>162.2</ele>
        <time>2022-06-14T10:22:28Z</time>
      </trkpt>
      <trkpt lat="48.73346" lon="2.04464">
        <ele>162.2</ele>
        <time>2022-06-14T10:22:33Z</time>
      </trkpt>
      <trkpt lat="48.7334" lon="2.04469">
        <ele>162.3</ele>
        <time>2022-06-14T10:22:41Z</time>
      </trkpt>
      <trkpt lat="48.73332" lon="2.04471">
        <ele>162.4</ele>
        <time>2022-06-14T10:22:46Z</time>
      </trkpt>
      <trkpt lat="48.73325" lon="2.04472">
        <ele>162.7</ele>
        <time>2022-06-14T10:22:52Z</time>
      </trkpt>
      <trkpt lat="48.73317" lon="2.04476">
        <ele>163.1</ele>
        <time>2022-06-14T10:22:57Z</time>
      </trkpt>
      <trkpt lat="48.73311" lon="2.04468">
        <ele>163.2</ele>
        <time>2022-06-14T10:23:02Z</time>
      </trkpt>
      <trkpt lat="48.73306" lon="2.0446">
        <ele>163.3</ele>
        <time>2022-06-14T10:23:07Z</time>
      </trkpt>
      <trkpt lat="48.73304" lon="2.0445">
        <ele>163.3</ele>
        <time>2022-06-14T10:23:14Z</time>
      </trkpt>
      <trkpt lat="48.73301" lon="2.04441">
        <ele>163.3</ele>
        <time>2022-06-14T10:23:19Z</time>
      </trkpt>
      <trkpt lat="48.73299" lon="2.04431">
        <ele>163.3</ele>
        <time>2022-06-14T10:23:24Z</time>
      </trkpt>
      <trkpt lat="48.73292" lon="2.04422">
        <ele>163.5</ele>
        <time>2022-06-14T10:23:30Z</time>
      </trkpt>
      <trkpt lat="48.73287" lon="2.0441">
        <ele>163.8</ele>
        <time>2022-06-14T10:23:35Z</time>
      </trkpt>
      <trkpt lat="48.73285" lon="2.04397">
        <ele>163.9</ele>
        <time>2022-06-14T10:23:40Z</time>
      </trkpt>
      <trkpt lat="48.73281" lon="2.04387">
        <ele>164.2</ele>
        <time>2022-06-14T10:23:45Z</time>
      </trkpt>
      <trkpt lat="48.73278" lon="2.04378">
        <ele>164.5</ele>
        <time>2022-06-14T10:23:51Z</time>
      </trkpt>
      <trkpt lat="48.73284" lon="2.04376">
        <ele>164</ele>
        <time>2022-06-14T10:23:57Z</time>
      </trkpt>
      <trkpt lat="48.73292" lon="2.04373">
        <ele>163.5</ele>
        <time>2022-06-14T10:24:04Z</time>
      </trkpt>
      <trkpt lat="48.73299" lon="2.04366">
        <ele>163</ele>
        <time>2022-06-14T10:24:10Z</time>
      </trkpt>
      <trkpt lat="48.73305" lon="2.04361">
        <ele>162.5</ele>
        <time>2022-06-14T10:24:15Z</time>
      </trkpt>
      <trkpt lat="48.73304" lon="2.0435">
        <ele>162.5</ele>
        <time>2022-06-14T10:24:27Z</time>
      </trkpt>
      <trkpt lat="48.73308" lon="2.04343">
        <ele>162.2</ele>
        <time>2022-06-14T10:24:43Z</time>
      </trkpt>
      <trkpt lat="48.73308" lon="2.04333">
        <ele>162.1</ele>
        <time>2022-06-14T10:24:55Z</time>
      </trkpt>
      <trkpt lat="48.73308" lon="2.04343">
        <ele>162.2</ele>
        <time>2022-06-14T10:25:20Z</time>
      </trkpt>
      <trkpt lat="48.73309" lon="2.04354">
        <ele>162.1</ele>
        <time>2022-06-14T10:25:26Z</time>
      </trkpt>
      <trkpt lat="48.73302" lon="2.04357">
        <ele>162.7</ele>
        <time>2022-06-14T10:26:36Z</time>
      </trkpt>
      <trkpt lat="48.73295" lon="2.04355">
        <ele>163.2</ele>
        <time>2022-06-14T10:26:47Z</time>
      </trkpt>
      <trkpt lat="48.73295" lon="2.04344">
        <ele>163.2</ele>
        <time>2022-06-14T10:26:52Z</time>
      </trkpt>
      <trkpt lat="48.73291" lon="2.04335">
        <ele>163.6</ele>
        <time>2022-06-14T10:26:57Z</time>
      </trkpt>
      <trkpt lat="48.73288" lon="2.04324">
        <ele>163.5</ele>
        <time>2022-06-14T10:27:17Z</time>
      </trkpt>
      <trkpt lat="48.73295" lon="2.04329">
        <ele>163.1</ele>
        <time>2022-06-14T10:28:24Z</time>
      </trkpt>
      <trkpt lat="48.73297" lon="2.04344">
        <ele>163.1</ele>
        <time>2022-06-14T10:28:29Z</time>
      </trkpt>
      <trkpt lat="48.733" lon="2.04354">
        <ele>162.8</ele>
        <time>2022-06-14T10:28:37Z</time>
      </trkpt>
      <trkpt lat="48.73307" lon="2.04353">
        <ele>162.3</ele>
        <time>2022-06-14T10:28:45Z</time>
      </trkpt>
      <trkpt lat="48.73312" lon="2.04346">
        <ele>161.9</ele>
        <time>2022-06-14T10:28:52Z</time>
      </trkpt>
      <trkpt lat="48.73319" lon="2.04345">
        <ele>161.3</ele>
        <time>2022-06-14T10:28:57Z</time>
      </trkpt>
      <trkpt lat="48.73324" lon="2.04335">
        <ele>160.8</ele>
        <time>2022-06-14T10:29:07Z</time>
      </trkpt>
      <trkpt lat="48.7333" lon="2.04332">
        <ele>160.2</ele>
        <time>2022-06-14T10:29:13Z</time>
      </trkpt>
      <trkpt lat="48.73335" lon="2.0434">
        <ele>160.1</ele>
        <time>2022-06-14T10:29:19Z</time>
      </trkpt>
      <trkpt lat="48.73339" lon="2.04349">
        <ele>160.2</ele>
        <time>2022-06-14T10:29:24Z</time>
      </trkpt>
      <trkpt lat="48.73345" lon="2.04353">
        <ele>160.3</ele>
        <time>2022-06-14T10:29:31Z</time>
      </trkpt>
      <trkpt lat="48.73347" lon="2.04362">
        <ele>160.5</ele>
        <time>2022-06-14T10:29:55Z</time>
      </trkpt>
      <trkpt lat="48.73354" lon="2.04365">
        <ele>160.5</ele>
        <time>2022-06-14T10:30:02Z</time>
      </trkpt>
      <trkpt lat="48.7336" lon="2.04359">
        <ele>160.5</ele>
        <time>2022-06-14T10:30:08Z</time>
      </trkpt>
      <trkpt lat="48.73355" lon="2.04351">
        <ele>160.4</ele>
        <time>2022-06-14T10:30:19Z</time>
      </trkpt>
      <trkpt lat="48.73359" lon="2.04339">
        <ele>160.4</ele>
        <time>2022-06-14T10:30:24Z</time>
      </trkpt>
      <trkpt lat="48.73356" lon="2.04328">
        <ele>160.1</ele>
        <time>2022-06-14T10:30:34Z</time>
      </trkpt>
      <trkpt lat="48.7335" lon="2.04324">
        <ele>160</ele>
        <time>2022-06-14T10:30:41Z</time>
      </trkpt>
      <trkpt lat="48.73354" lon="2.04313">
        <ele>159.7</ele>
        <time>2022-06-14T10:30:57Z</time>
      </trkpt>
      <trkpt lat="48.73353" lon="2.04299">
        <ele>159.3</ele>
        <time>2022-06-14T10:31:04Z</time>
      </trkpt>
      <trkpt lat="48.73353" lon="2.04289">
        <ele>159</ele>
        <time>2022-06-14T10:31:10Z</time>
      </trkpt>
      <trkpt lat="48.73352" lon="2.04279">
        <ele>158.8</ele>
        <time>2022-06-14T10:31:16Z</time>
      </trkpt>
      <trkpt lat="48.73349" lon="2.0427">
        <ele>158.5</ele>
        <time>2022-06-14T10:31:21Z</time>
      </trkpt>
      <trkpt lat="48.73346" lon="2.0426">
        <ele>158.3</ele>
        <time>2022-06-14T10:31:27Z</time>
      </trkpt>
      <trkpt lat="48.73341" lon="2.04251">
        <ele>158</ele>
        <time>2022-06-14T10:31:33Z</time>
      </trkpt>
      <trkpt lat="48.73334" lon="2.0425">
        <ele>158</ele>
        <time>2022-06-14T10:31:40Z</time>
      </trkpt>
      <trkpt lat="48.73327" lon="2.04249">
        <ele>158.5</ele>
        <time>2022-06-14T10:31:46Z</time>
      </trkpt>
      <trkpt lat="48.73319" lon="2.04247">
        <ele>159</ele>
        <time>2022-06-14T10:31:51Z</time>
      </trkpt>
      <trkpt lat="48.73312" lon="2.04243">
        <ele>159.5</ele>
        <time>2022-06-14T10:31:56Z</time>
      </trkpt>
      <trkpt lat="48.73303" lon="2.04239">
        <ele>160.1</ele>
        <time>2022-06-14T10:32:01Z</time>
      </trkpt>
      <trkpt lat="48.73299" lon="2.04232">
        <ele>160.4</ele>
        <time>2022-06-14T10:32:07Z</time>
      </trkpt>
      <trkpt lat="48.73293" lon="2.04222">
        <ele>160.7</ele>
        <time>2022-06-14T10:32:12Z</time>
      </trkpt>
      <trkpt lat="48.73294" lon="2.04212">
        <ele>160.6</ele>
        <time>2022-06-14T10:32:18Z</time>
      </trkpt>
      <trkpt lat="48.73295" lon="2.04201">
        <ele>160.5</ele>
        <time>2022-06-14T10:32:24Z</time>
      </trkpt>
      <trkpt lat="48.73294" lon="2.0419">
        <ele>160.5</ele>
        <time>2022-06-14T10:32:29Z</time>
      </trkpt>
      <trkpt lat="48.73299" lon="2.0418">
        <ele>160.1</ele>
        <time>2022-06-14T10:32:35Z</time>
      </trkpt>
      <trkpt lat="48.73302" lon="2.04171">
        <ele>159.9</ele>
        <time>2022-06-14T10:32:40Z</time>
      </trkpt>
      <trkpt lat="48.73308" lon="2.04167">
        <ele>159.5</ele>
        <time>2022-06-14T10:32:45Z</time>
      </trkpt>
      <trkpt lat="48.73315" lon="2.0417">
        <ele>159.1</ele>
        <time>2022-06-14T10:32:51Z</time>
      </trkpt>
      <trkpt lat="48.73322" lon="2.04165">
        <ele>158.8</ele>
        <time>2022-06-14T10:32:56Z</time>
      </trkpt>
      <trkpt lat="48.73329" lon="2.04165">
        <ele>158.4</ele>
        <time>2022-06-14T10:33:03Z</time>
      </trkpt>
      <trkpt lat="48.73336" lon="2.04163">
        <ele>158.2</ele>
        <time>2022-06-14T10:33:10Z</time>
      </trkpt>
      <trkpt lat="48.73331" lon="2.0417">
        <ele>158.1</ele>
        <time>2022-06-14T10:33:25Z</time>
      </trkpt>
      <trkpt lat="48.73337" lon="2.04173">
        <ele>158</ele>
        <time>2022-06-14T10:33:46Z</time>
      </trkpt>
      <trkpt lat="48.73344" lon="2.04174">
        <ele>158.1</ele>
        <time>2022-06-14T10:33:51Z</time>
      </trkpt>
      <trkpt lat="48.73348" lon="2.04166">
        <ele>158.2</ele>
        <time>2022-06-14T10:33:56Z</time>
      </trkpt>
      <trkpt lat="48.73354" lon="2.04161">
        <ele>158.5</ele>
        <time>2022-06-14T10:34:03Z</time>
      </trkpt>
      <trkpt lat="48.73362" lon="2.04159">
        <ele>158.6</ele>
        <time>2022-06-14T10:34:10Z</time>
      </trkpt>
      <trkpt lat="48.73367" lon="2.0415">
        <ele>158.9</ele>
        <time>2022-06-14T10:34:17Z</time>
      </trkpt>
      <trkpt lat="48.73365" lon="2.04152">
        <ele>158.9</ele>
        <time>2022-06-14T10:38:57Z</time>
      </trkpt>
      <trkpt lat="48.73372" lon="2.04149">
        <ele>158.9</ele>
        <time>2022-06-14T10:39:02Z</time>
      </trkpt>
      <trkpt lat="48.73365" lon="2.04152">
        <ele>158.9</ele>
        <time>2022-06-14T10:39:23Z</time>
      </trkpt>
      <trkpt lat="48.73372" lon="2.04155">
        <ele>158.8</ele>
        <time>2022-06-14T10:39:39Z</time>
      </trkpt>
      <trkpt lat="48.73371" lon="2.04146">
        <ele>159</ele>
        <time>2022-06-14T10:39:55Z</time>
      </trkpt>
      <trkpt lat="48.73367" lon="2.04155">
        <ele>158.8</ele>
        <time>2022-06-14T10:40:00Z</time>
      </trkpt>
      <trkpt lat="48.73366" lon="2.04145">
        <ele>159.1</ele>
        <time>2022-06-14T10:40:13Z</time>
      </trkpt>
      <trkpt lat="48.73368" lon="2.04135">
        <ele>159.4</ele>
        <time>2022-06-14T10:40:18Z</time>
      </trkpt>
      <trkpt lat="48.73366" lon="2.04125">
        <ele>159.7</ele>
        <time>2022-06-14T10:40:23Z</time>
      </trkpt>
      <trkpt lat="48.73362" lon="2.04111">
        <ele>160.3</ele>
        <time>2022-06-14T10:40:28Z</time>
      </trkpt>
      <trkpt lat="48.7336" lon="2.041">
        <ele>160.8</ele>
        <time>2022-06-14T10:40:34Z</time>
      </trkpt>
      <trkpt lat="48.73358" lon="2.0409">
        <ele>161.3</ele>
        <time>2022-06-14T10:40:39Z</time>
      </trkpt>
      <trkpt lat="48.73354" lon="2.0408">
        <ele>161.8</ele>
        <time>2022-06-14T10:40:44Z</time>
      </trkpt>
      <trkpt lat="48.7335" lon="2.04067">
        <ele>162</ele>
        <time>2022-06-14T10:40:49Z</time>
      </trkpt>
      <trkpt lat="48.73347" lon="2.04057">
        <ele>162.1</ele>
        <time>2022-06-14T10:40:54Z</time>
      </trkpt>
      <trkpt lat="48.73345" lon="2.04045">
        <ele>162.2</ele>
        <time>2022-06-14T10:40:59Z</time>
      </trkpt>
      <trkpt lat="48.73343" lon="2.04032">
        <ele>162.3</ele>
        <time>2022-06-14T10:41:04Z</time>
      </trkpt>
      <trkpt lat="48.73341" lon="2.04021">
        <ele>162.5</ele>
        <time>2022-06-14T10:41:10Z</time>
      </trkpt>
      <trkpt lat="48.73337" lon="2.04012">
        <ele>162.7</ele>
        <time>2022-06-14T10:41:15Z</time>
      </trkpt>
      <trkpt lat="48.73333" lon="2.04001">
        <ele>163</ele>
        <time>2022-06-14T10:41:20Z</time>
      </trkpt>
      <trkpt lat="48.7333" lon="2.0399">
        <ele>162.5</ele>
        <time>2022-06-14T10:41:25Z</time>
      </trkpt>
      <trkpt lat="48.73327" lon="2.03978">
        <ele>161.9</ele>
        <time>2022-06-14T10:41:30Z</time>
      </trkpt>
      <trkpt lat="48.73323" lon="2.03966">
        <ele>161.3</ele>
        <time>2022-06-14T10:41:36Z</time>
      </trkpt>
      <trkpt lat="48.73323" lon="2.03956">
        <ele>160.8</ele>
        <time>2022-06-14T10:41:41Z</time>
      </trkpt>
      <trkpt lat="48.73322" lon="2.03946">
        <ele>160.4</ele>
        <time>2022-06-14T10:41:52Z</time>
      </trkpt>
      <trkpt lat="48.73325" lon="2.03935">
        <ele>159.9</ele>
        <time>2022-06-14T10:41:57Z</time>
      </trkpt>
      <trkpt lat="48.7333" lon="2.03927">
        <ele>159.5</ele>
        <time>2022-06-14T10:42:02Z</time>
      </trkpt>
      <trkpt lat="48.73336" lon="2.03922">
        <ele>159.2</ele>
        <time>2022-06-14T10:42:07Z</time>
      </trkpt>
      <trkpt lat="48.73342" lon="2.03916">
        <ele>158.7</ele>
        <time>2022-06-14T10:42:12Z</time>
      </trkpt>
      <trkpt lat="48.73349" lon="2.03914">
        <ele>158.4</ele>
        <time>2022-06-14T10:42:17Z</time>
      </trkpt>
      <trkpt lat="48.73356" lon="2.03911">
        <ele>158.1</ele>
        <time>2022-06-14T10:42:22Z</time>
      </trkpt>
      <trkpt lat="48.73362" lon="2.03905">
        <ele>157.8</ele>
        <time>2022-06-14T10:42:27Z</time>
      </trkpt>
      <trkpt lat="48.73356" lon="2.03899">
        <ele>157.9</ele>
        <time>2022-06-14T10:42:32Z</time>
      </trkpt>
      <trkpt lat="48.73349" lon="2.03895">
        <ele>158.1</ele>
        <time>2022-06-14T10:42:38Z</time>
      </trkpt>
      <trkpt lat="48.73341" lon="2.03891">
        <ele>158.2</ele>
        <time>2022-06-14T10:42:44Z</time>
      </trkpt>
      <trkpt lat="48.73333" lon="2.03889">
        <ele>158.3</ele>
        <time>2022-06-14T10:42:49Z</time>
      </trkpt>
      <trkpt lat="48.73326" lon="2.03885">
        <ele>158.4</ele>
        <time>2022-06-14T10:42:54Z</time>
      </trkpt>
      <trkpt lat="48.73316" lon="2.03882">
        <ele>158.6</ele>
        <time>2022-06-14T10:42:59Z</time>
      </trkpt>
      <trkpt lat="48.73309" lon="2.03879">
        <ele>158.8</ele>
        <time>2022-06-14T10:43:04Z</time>
      </trkpt>
      <trkpt lat="48.73303" lon="2.03877">
        <ele>158.9</ele>
        <time>2022-06-14T10:43:09Z</time>
      </trkpt>
      <trkpt lat="48.73294" lon="2.03875">
        <ele>159.2</ele>
        <time>2022-06-14T10:43:14Z</time>
      </trkpt>
      <trkpt lat="48.73286" lon="2.03873">
        <ele>159.4</ele>
        <time>2022-06-14T10:43:19Z</time>
      </trkpt>
      <trkpt lat="48.73278" lon="2.03872">
        <ele>159.7</ele>
        <time>2022-06-14T10:43:25Z</time>
      </trkpt>
      <trkpt lat="48.73272" lon="2.03867">
        <ele>159.9</ele>
        <time>2022-06-14T10:43:30Z</time>
      </trkpt>
      <trkpt lat="48.73264" lon="2.03864">
        <ele>160.1</ele>
        <time>2022-06-14T10:43:35Z</time>
      </trkpt>
      <trkpt lat="48.73256" lon="2.03861">
        <ele>160.5</ele>
        <time>2022-06-14T10:43:40Z</time>
      </trkpt>
      <trkpt lat="48.73249" lon="2.03857">
        <ele>160.6</ele>
        <time>2022-06-14T10:43:45Z</time>
      </trkpt>
      <trkpt lat="48.73241" lon="2.03854">
        <ele>159.8</ele>
        <time>2022-06-14T10:43:50Z</time>
      </trkpt>
      <trkpt lat="48.73234" lon="2.03851">
        <ele>159</ele>
        <time>2022-06-14T10:43:55Z</time>
      </trkpt>
      <trkpt lat="48.73227" lon="2.03848">
        <ele>158.3</ele>
        <time>2022-06-14T10:44:00Z</time>
      </trkpt>
      <trkpt lat="48.7322" lon="2.03843">
        <ele>157.5</ele>
        <time>2022-06-14T10:44:05Z</time>
      </trkpt>
      <trkpt lat="48.73212" lon="2.03842">
        <ele>156.5</ele>
        <time>2022-06-14T10:44:10Z</time>
      </trkpt>
      <trkpt lat="48.73207" lon="2.03836">
        <ele>155.9</ele>
        <time>2022-06-14T10:44:17Z</time>
      </trkpt>
      <trkpt lat="48.732" lon="2.03832">
        <ele>155</ele>
        <time>2022-06-14T10:44:23Z</time>
      </trkpt>
      <trkpt lat="48.73193" lon="2.03829">
        <ele>154.1</ele>
        <time>2022-06-14T10:44:28Z</time>
      </trkpt>
      <trkpt lat="48.73186" lon="2.03821">
        <ele>153.2</ele>
        <time>2022-06-14T10:44:33Z</time>
      </trkpt>
      <trkpt lat="48.73177" lon="2.03814">
        <ele>151.9</ele>
        <time>2022-06-14T10:44:38Z</time>
      </trkpt>
      <trkpt lat="48.73166" lon="2.03814">
        <ele>150.3</ele>
        <time>2022-06-14T10:44:43Z</time>
      </trkpt>
      <trkpt lat="48.73159" lon="2.03815">
        <ele>148</ele>
        <time>2022-06-14T10:44:49Z</time>
      </trkpt>
      <trkpt lat="48.73149" lon="2.03817">
        <ele>144.8</ele>
        <time>2022-06-14T10:44:54Z</time>
      </trkpt>
      <trkpt lat="48.73142" lon="2.03817">
        <ele>142.4</ele>
        <time>2022-06-14T10:45:00Z</time>
      </trkpt>
      <trkpt lat="48.73135" lon="2.03819">
        <ele>140.1</ele>
        <time>2022-06-14T10:45:07Z</time>
      </trkpt>
      <trkpt lat="48.73129" lon="2.03813">
        <ele>138.1</ele>
        <time>2022-06-14T10:45:12Z</time>
      </trkpt>
      <trkpt lat="48.73125" lon="2.03801">
        <ele>136.6</ele>
        <time>2022-06-14T10:45:17Z</time>
      </trkpt>
      <trkpt lat="48.73122" lon="2.03791">
        <ele>135.5</ele>
        <time>2022-06-14T10:45:22Z</time>
      </trkpt>
      <trkpt lat="48.73121" lon="2.03781">
        <ele>135.1</ele>
        <time>2022-06-14T10:45:28Z</time>
      </trkpt>
      <trkpt lat="48.73119" lon="2.0377">
        <ele>134.3</ele>
        <time>2022-06-14T10:45:33Z</time>
      </trkpt>
      <trkpt lat="48.73119" lon="2.03759">
        <ele>134.2</ele>
        <time>2022-06-14T10:45:38Z</time>
      </trkpt>
      <trkpt lat="48.73118" lon="2.03747">
        <ele>133.7</ele>
        <time>2022-06-14T10:45:43Z</time>
      </trkpt>
      <trkpt lat="48.7312" lon="2.03736">
        <ele>134.1</ele>
        <time>2022-06-14T10:45:48Z</time>
      </trkpt>
      <trkpt lat="48.73119" lon="2.03723">
        <ele>133.5</ele>
        <time>2022-06-14T10:45:53Z</time>
      </trkpt>
      <trkpt lat="48.73119" lon="2.03712">
        <ele>133.2</ele>
        <time>2022-06-14T10:45:58Z</time>
      </trkpt>
      <trkpt lat="48.73119" lon="2.037">
        <ele>132.9</ele>
        <time>2022-06-14T10:46:04Z</time>
      </trkpt>
      <trkpt lat="48.7312" lon="2.03686">
        <ele>132.9</ele>
        <time>2022-06-14T10:46:09Z</time>
      </trkpt>
      <trkpt lat="48.73121" lon="2.0367">
        <ele>132.8</ele>
        <time>2022-06-14T10:46:14Z</time>
      </trkpt>
      <trkpt lat="48.73124" lon="2.0366">
        <ele>133.6</ele>
        <time>2022-06-14T10:46:19Z</time>
      </trkpt>
      <trkpt lat="48.73125" lon="2.03649">
        <ele>133.8</ele>
        <time>2022-06-14T10:46:24Z</time>
      </trkpt>
      <trkpt lat="48.73125" lon="2.03634">
        <ele>133.6</ele>
        <time>2022-06-14T10:46:29Z</time>
      </trkpt>
      <trkpt lat="48.73129" lon="2.03624">
        <ele>134.7</ele>
        <time>2022-06-14T10:46:34Z</time>
      </trkpt>
      <trkpt lat="48.73132" lon="2.03612">
        <ele>135.4</ele>
        <time>2022-06-14T10:46:39Z</time>
      </trkpt>
      <trkpt lat="48.73136" lon="2.036">
        <ele>136.4</ele>
        <time>2022-06-14T10:46:44Z</time>
      </trkpt>
      <trkpt lat="48.73141" lon="2.03589">
        <ele>137.7</ele>
        <time>2022-06-14T10:46:49Z</time>
      </trkpt>
      <trkpt lat="48.73144" lon="2.0358">
        <ele>138.3</ele>
        <time>2022-06-14T10:46:54Z</time>
      </trkpt>
      <trkpt lat="48.73149" lon="2.0357">
        <ele>139.2</ele>
        <time>2022-06-14T10:47:00Z</time>
      </trkpt>
      <trkpt lat="48.73155" lon="2.03563">
        <ele>140.5</ele>
        <time>2022-06-14T10:47:06Z</time>
      </trkpt>
      <trkpt lat="48.7316" lon="2.03555">
        <ele>141.5</ele>
        <time>2022-06-14T10:47:11Z</time>
      </trkpt>
      <trkpt lat="48.73165" lon="2.03544">
        <ele>142.2</ele>
        <time>2022-06-14T10:47:16Z</time>
      </trkpt>
      <trkpt lat="48.73172" lon="2.03538">
        <ele>143.4</ele>
        <time>2022-06-14T10:47:21Z</time>
      </trkpt>
      <trkpt lat="48.7318" lon="2.03527">
        <ele>144.4</ele>
        <time>2022-06-14T10:47:26Z</time>
      </trkpt>
      <trkpt lat="48.7318" lon="2.03518">
        <ele>143.8</ele>
        <time>2022-06-14T10:47:38Z</time>
      </trkpt>
      <trkpt lat="48.73186" lon="2.03509">
        <ele>144.5</ele>
        <time>2022-06-14T10:47:45Z</time>
      </trkpt>
      <trkpt lat="48.73191" lon="2.035">
        <ele>145</ele>
        <time>2022-06-14T10:47:50Z</time>
      </trkpt>
      <trkpt lat="48.73197" lon="2.03494">
        <ele>145.7</ele>
        <time>2022-06-14T10:47:55Z</time>
      </trkpt>
      <trkpt lat="48.73202" lon="2.03486">
        <ele>146.1</ele>
        <time>2022-06-14T10:48:00Z</time>
      </trkpt>
      <trkpt lat="48.73206" lon="2.03477">
        <ele>146.3</ele>
        <time>2022-06-14T10:48:05Z</time>
      </trkpt>
      <trkpt lat="48.7321" lon="2.03465">
        <ele>146.4</ele>
        <time>2022-06-14T10:48:10Z</time>
      </trkpt>
      <trkpt lat="48.73212" lon="2.03454">
        <ele>146</ele>
        <time>2022-06-14T10:48:16Z</time>
      </trkpt>
      <trkpt lat="48.73215" lon="2.03443">
        <ele>146</ele>
        <time>2022-06-14T10:48:21Z</time>
      </trkpt>
      <trkpt lat="48.73218" lon="2.03434">
        <ele>146.1</ele>
        <time>2022-06-14T10:48:26Z</time>
      </trkpt>
      <trkpt lat="48.7322" lon="2.0342">
        <ele>145.7</ele>
        <time>2022-06-14T10:48:31Z</time>
      </trkpt>
      <trkpt lat="48.73221" lon="2.03407">
        <ele>146</ele>
        <time>2022-06-14T10:48:36Z</time>
      </trkpt>
      <trkpt lat="48.73225" lon="2.03396">
        <ele>147.4</ele>
        <time>2022-06-14T10:48:42Z</time>
      </trkpt>
      <trkpt lat="48.73229" lon="2.03385">
        <ele>148.8</ele>
        <time>2022-06-14T10:48:47Z</time>
      </trkpt>
      <trkpt lat="48.73228" lon="2.03375">
        <ele>149</ele>
        <time>2022-06-14T10:48:52Z</time>
      </trkpt>
      <trkpt lat="48.73229" lon="2.03365">
        <ele>149.6</ele>
        <time>2022-06-14T10:48:57Z</time>
      </trkpt>
      <trkpt lat="48.7323" lon="2.03353">
        <ele>150.3</ele>
        <time>2022-06-14T10:49:02Z</time>
      </trkpt>
      <trkpt lat="48.73231" lon="2.03341">
        <ele>150.9</ele>
        <time>2022-06-14T10:49:07Z</time>
      </trkpt>
      <trkpt lat="48.73231" lon="2.0333">
        <ele>151.2</ele>
        <time>2022-06-14T10:49:12Z</time>
      </trkpt>
      <trkpt lat="48.73231" lon="2.03317">
        <ele>151.4</ele>
        <time>2022-06-14T10:49:17Z</time>
      </trkpt>
      <trkpt lat="48.73233" lon="2.03305">
        <ele>152</ele>
        <time>2022-06-14T10:49:22Z</time>
      </trkpt>
      <trkpt lat="48.73234" lon="2.03295">
        <ele>152.3</ele>
        <time>2022-06-14T10:49:27Z</time>
      </trkpt>
      <trkpt lat="48.73236" lon="2.03285">
        <ele>152.9</ele>
        <time>2022-06-14T10:49:32Z</time>
      </trkpt>
      <trkpt lat="48.73235" lon="2.03272">
        <ele>152.7</ele>
        <time>2022-06-14T10:49:37Z</time>
      </trkpt>
      <trkpt lat="48.73236" lon="2.0326">
        <ele>153.1</ele>
        <time>2022-06-14T10:49:42Z</time>
      </trkpt>
      <trkpt lat="48.73236" lon="2.03248">
        <ele>153.2</ele>
        <time>2022-06-14T10:49:47Z</time>
      </trkpt>
      <trkpt lat="48.73236" lon="2.03238">
        <ele>153.2</ele>
        <time>2022-06-14T10:49:52Z</time>
      </trkpt>
      <trkpt lat="48.73237" lon="2.03227">
        <ele>153.4</ele>
        <time>2022-06-14T10:49:57Z</time>
      </trkpt>
      <trkpt lat="48.73236" lon="2.03215">
        <ele>153.3</ele>
        <time>2022-06-14T10:50:02Z</time>
      </trkpt>
      <trkpt lat="48.73238" lon="2.03204">
        <ele>153.7</ele>
        <time>2022-06-14T10:50:07Z</time>
      </trkpt>
      <trkpt lat="48.73239" lon="2.03193">
        <ele>153.9</ele>
        <time>2022-06-14T10:50:12Z</time>
      </trkpt>
      <trkpt lat="48.73237" lon="2.0318">
        <ele>153.6</ele>
        <time>2022-06-14T10:50:17Z</time>
      </trkpt>
      <trkpt lat="48.73239" lon="2.03168">
        <ele>154</ele>
        <time>2022-06-14T10:50:23Z</time>
      </trkpt>
      <trkpt lat="48.73238" lon="2.03157">
        <ele>153.8</ele>
        <time>2022-06-14T10:50:28Z</time>
      </trkpt>
      <trkpt lat="48.73236" lon="2.03145">
        <ele>153.5</ele>
        <time>2022-06-14T10:50:33Z</time>
      </trkpt>
      <trkpt lat="48.73236" lon="2.03134">
        <ele>153.5</ele>
        <time>2022-06-14T10:50:39Z</time>
      </trkpt>
      <trkpt lat="48.73235" lon="2.03121">
        <ele>153.3</ele>
        <time>2022-06-14T10:50:44Z</time>
      </trkpt>
      <trkpt lat="48.73234" lon="2.03108">
        <ele>153.1</ele>
        <time>2022-06-14T10:50:49Z</time>
      </trkpt>
      <trkpt lat="48.73234" lon="2.03097">
        <ele>153.1</ele>
        <time>2022-06-14T10:50:54Z</time>
      </trkpt>
      <trkpt lat="48.73232" lon="2.03086">
        <ele>152.8</ele>
        <time>2022-06-14T10:50:59Z</time>
      </trkpt>
      <trkpt lat="48.73231" lon="2.03074">
        <ele>152.7</ele>
        <time>2022-06-14T10:51:05Z</time>
      </trkpt>
      <trkpt lat="48.73227" lon="2.03062">
        <ele>152.1</ele>
        <time>2022-06-14T10:51:10Z</time>
      </trkpt>
      <trkpt lat="48.73222" lon="2.03053">
        <ele>151.2</ele>
        <time>2022-06-14T10:51:15Z</time>
      </trkpt>
      <trkpt lat="48.7322" lon="2.03042">
        <ele>150.9</ele>
        <time>2022-06-14T10:51:20Z</time>
      </trkpt>
      <trkpt lat="48.73217" lon="2.0303">
        <ele>150.3</ele>
        <time>2022-06-14T10:51:26Z</time>
      </trkpt>
      <trkpt lat="48.73212" lon="2.03021">
        <ele>149.3</ele>
        <time>2022-06-14T10:51:31Z</time>
      </trkpt>
      <trkpt lat="48.73206" lon="2.03012">
        <ele>148</ele>
        <time>2022-06-14T10:51:36Z</time>
      </trkpt>
      <trkpt lat="48.73198" lon="2.03008">
        <ele>146.2</ele>
        <time>2022-06-14T10:51:41Z</time>
      </trkpt>
      <trkpt lat="48.73192" lon="2.03002">
        <ele>144.8</ele>
        <time>2022-06-14T10:51:50Z</time>
      </trkpt>
      <trkpt lat="48.73187" lon="2.02993">
        <ele>143.2</ele>
        <time>2022-06-14T10:51:56Z</time>
      </trkpt>
      <trkpt lat="48.7318" lon="2.02986">
        <ele>141.1</ele>
        <time>2022-06-14T10:52:01Z</time>
      </trkpt>
      <trkpt lat="48.73176" lon="2.02976">
        <ele>139.5</ele>
        <time>2022-06-14T10:52:06Z</time>
      </trkpt>
      <trkpt lat="48.73172" lon="2.02967">
        <ele>137.9</ele>
        <time>2022-06-14T10:52:12Z</time>
      </trkpt>
      <trkpt lat="48.7317" lon="2.02957">
        <ele>136.7</ele>
        <time>2022-06-14T10:52:19Z</time>
      </trkpt>
      <trkpt lat="48.73167" lon="2.02947">
        <ele>135.3</ele>
        <time>2022-06-14T10:52:25Z</time>
      </trkpt>
      <trkpt lat="48.73166" lon="2.02935">
        <ele>134.2</ele>
        <time>2022-06-14T10:52:30Z</time>
      </trkpt>
      <trkpt lat="48.73165" lon="2.02925">
        <ele>133.3</ele>
        <time>2022-06-14T10:52:35Z</time>
      </trkpt>
      <trkpt lat="48.73162" lon="2.02915">
        <ele>132</ele>
        <time>2022-06-14T10:52:40Z</time>
      </trkpt>
      <trkpt lat="48.73155" lon="2.02912">
        <ele>130.4</ele>
        <time>2022-06-14T10:52:54Z</time>
      </trkpt>
      <trkpt lat="48.73149" lon="2.02905">
        <ele>128.8</ele>
        <time>2022-06-14T10:53:00Z</time>
      </trkpt>
      <trkpt lat="48.73143" lon="2.029">
        <ele>127.4</ele>
        <time>2022-06-14T10:53:07Z</time>
      </trkpt>
      <trkpt lat="48.73136" lon="2.02896">
        <ele>125.8</ele>
        <time>2022-06-14T10:53:17Z</time>
      </trkpt>
      <trkpt lat="48.73135" lon="2.02885">
        <ele>125</ele>
        <time>2022-06-14T10:53:24Z</time>
      </trkpt>
      <trkpt lat="48.73136" lon="2.02875">
        <ele>124.7</ele>
        <time>2022-06-14T10:53:29Z</time>
      </trkpt>
      <trkpt lat="48.73138" lon="2.02865">
        <ele>124.7</ele>
        <time>2022-06-14T10:53:36Z</time>
      </trkpt>
      <trkpt lat="48.73131" lon="2.02859">
        <ele>123</ele>
        <time>2022-06-14T10:53:43Z</time>
      </trkpt>
      <trkpt lat="48.73124" lon="2.02859">
        <ele>121.5</ele>
        <time>2022-06-14T10:53:50Z</time>
      </trkpt>
      <trkpt lat="48.73119" lon="2.02866">
        <ele>120.8</ele>
        <time>2022-06-14T10:53:57Z</time>
      </trkpt>
      <trkpt lat="48.73115" lon="2.02874">
        <ele>120.4</ele>
        <time>2022-06-14T10:54:09Z</time>
      </trkpt>
      <trkpt lat="48.73108" lon="2.02883">
        <ele>119.4</ele>
        <time>2022-06-14T10:54:19Z</time>
      </trkpt>
      <trkpt lat="48.73105" lon="2.02891">
        <ele>119.2</ele>
        <time>2022-06-14T10:54:29Z</time>
      </trkpt>
      <trkpt lat="48.731" lon="2.029">
        <ele>118.6</ele>
        <time>2022-06-14T10:54:37Z</time>
      </trkpt>
      <trkpt lat="48.73096" lon="2.02909">
        <ele>118.2</ele>
        <time>2022-06-14T10:54:44Z</time>
      </trkpt>
      <trkpt lat="48.73096" lon="2.02922">
        <ele>118.8</ele>
        <time>2022-06-14T10:54:49Z</time>
      </trkpt>
      <trkpt lat="48.73093" lon="2.02932">
        <ele>118.4</ele>
        <time>2022-06-14T10:54:54Z</time>
      </trkpt>
      <trkpt lat="48.7309" lon="2.02943">
        <ele>118.1</ele>
        <time>2022-06-14T10:54:59Z</time>
      </trkpt>
      <trkpt lat="48.73085" lon="2.02952">
        <ele>117.2</ele>
        <time>2022-06-14T10:55:04Z</time>
      </trkpt>
      <trkpt lat="48.7308" lon="2.02962">
        <ele>116.5</ele>
        <time>2022-06-14T10:55:09Z</time>
      </trkpt>
      <trkpt lat="48.73078" lon="2.02972">
        <ele>116.4</ele>
        <time>2022-06-14T10:55:14Z</time>
      </trkpt>
      <trkpt lat="48.73073" lon="2.02984">
        <ele>115.8</ele>
        <time>2022-06-14T10:55:19Z</time>
      </trkpt>
      <trkpt lat="48.73067" lon="2.02995">
        <ele>115</ele>
        <time>2022-06-14T10:55:24Z</time>
      </trkpt>
      <trkpt lat="48.73065" lon="2.03006">
        <ele>114.9</ele>
        <time>2022-06-14T10:55:29Z</time>
      </trkpt>
      <trkpt lat="48.73063" lon="2.03016">
        <ele>114.9</ele>
        <time>2022-06-14T10:55:37Z</time>
      </trkpt>
      <trkpt lat="48.73058" lon="2.03027">
        <ele>114.3</ele>
        <time>2022-06-14T10:55:42Z</time>
      </trkpt>
      <trkpt lat="48.73051" lon="2.0303">
        <ele>113.1</ele>
        <time>2022-06-14T10:55:47Z</time>
      </trkpt>
      <trkpt lat="48.73045" lon="2.03024">
        <ele>111.7</ele>
        <time>2022-06-14T10:55:52Z</time>
      </trkpt>
      <trkpt lat="48.73041" lon="2.03017">
        <ele>110.8</ele>
        <time>2022-06-14T10:56:00Z</time>
      </trkpt>
      <trkpt lat="48.73035" lon="2.03011">
        <ele>109.5</ele>
        <time>2022-06-14T10:56:15Z</time>
      </trkpt>
      <trkpt lat="48.73031" lon="2.03001">
        <ele>108.6</ele>
        <time>2022-06-14T10:56:24Z</time>
      </trkpt>
      <trkpt lat="48.73028" lon="2.02991">
        <ele>108</ele>
        <time>2022-06-14T10:56:30Z</time>
      </trkpt>
      <trkpt lat="48.73025" lon="2.02982">
        <ele>107.5</ele>
        <time>2022-06-14T10:56:35Z</time>
      </trkpt>
      <trkpt lat="48.7302" lon="2.02972">
        <ele>106.7</ele>
        <time>2022-06-14T10:56:43Z</time>
      </trkpt>
      <trkpt lat="48.73017" lon="2.02961">
        <ele>106.2</ele>
        <time>2022-06-14T10:56:48Z</time>
      </trkpt>
      <trkpt lat="48.73009" lon="2.02951">
        <ele>105</ele>
        <time>2022-06-14T10:57:07Z</time>
      </trkpt>
      <trkpt lat="48.73003" lon="2.02934">
        <ele>104.2</ele>
        <time>2022-06-14T10:57:42Z</time>
      </trkpt>
      <trkpt lat="48.72999" lon="2.02942">
        <ele>103.7</ele>
        <time>2022-06-14T10:58:55Z</time>
      </trkpt>
      <trkpt lat="48.73006" lon="2.02945">
        <ele>104.6</ele>
        <time>2022-06-14T10:59:00Z</time>
      </trkpt>
      <trkpt lat="48.73003" lon="2.02935">
        <ele>104.2</ele>
        <time>2022-06-14T10:59:45Z</time>
      </trkpt>
      <trkpt lat="48.72999" lon="2.02926">
        <ele>103.9</ele>
        <time>2022-06-14T11:00:17Z</time>
      </trkpt>
      <trkpt lat="48.72996" lon="2.02914">
        <ele>103.8</ele>
        <time>2022-06-14T11:00:22Z</time>
      </trkpt>
      <trkpt lat="48.72992" lon="2.02904">
        <ele>103.3</ele>
        <time>2022-06-14T11:00:27Z</time>
      </trkpt>
      <trkpt lat="48.72987" lon="2.02897">
        <ele>102.9</ele>
        <time>2022-06-14T11:00:33Z</time>
      </trkpt>
      <trkpt lat="48.72982" lon="2.02883">
        <ele>102.4</ele>
        <time>2022-06-14T11:00:38Z</time>
      </trkpt>
      <trkpt lat="48.72978" lon="2.02873">
        <ele>102.1</ele>
        <time>2022-06-14T11:00:46Z</time>
      </trkpt>
      <trkpt lat="48.72971" lon="2.02864">
        <ele>101.7</ele>
        <time>2022-06-14T11:00:51Z</time>
      </trkpt>
      <trkpt lat="48.7297" lon="2.02854">
        <ele>101.5</ele>
        <time>2022-06-14T11:00:56Z</time>
      </trkpt>
      <trkpt lat="48.72966" lon="2.02845">
        <ele>101.2</ele>
        <time>2022-06-14T11:01:01Z</time>
      </trkpt>
      <trkpt lat="48.72964" lon="2.02833">
        <ele>101</ele>
        <time>2022-06-14T11:01:06Z</time>
      </trkpt>
      <trkpt lat="48.72958" lon="2.02821">
        <ele>100.9</ele>
        <time>2022-06-14T11:01:11Z</time>
      </trkpt>
      <trkpt lat="48.72956" lon="2.02811">
        <ele>100.7</ele>
        <time>2022-06-14T11:01:22Z</time>
      </trkpt>
      <trkpt lat="48.72951" lon="2.02802">
        <ele>100.6</ele>
        <time>2022-06-14T11:01:31Z</time>
      </trkpt>
      <trkpt lat="48.72951" lon="2.02791">
        <ele>100.5</ele>
        <time>2022-06-14T11:01:36Z</time>
      </trkpt>
      <trkpt lat="48.72947" lon="2.02783">
        <ele>100.4</ele>
        <time>2022-06-14T11:01:42Z</time>
      </trkpt>
      <trkpt lat="48.72943" lon="2.02775">
        <ele>100.3</ele>
        <time>2022-06-14T11:01:51Z</time>
      </trkpt>
      <trkpt lat="48.72946" lon="2.02765">
        <ele>100.2</ele>
        <time>2022-06-14T11:02:04Z</time>
      </trkpt>
      <trkpt lat="48.72945" lon="2.02754">
        <ele>100</ele>
        <time>2022-06-14T11:02:18Z</time>
      </trkpt>
      <trkpt lat="48.72942" lon="2.02746">
        <ele>100</ele>
        <time>2022-06-14T11:02:31Z</time>
      </trkpt>
      <trkpt lat="48.72939" lon="2.02735">
        <ele>99.9</ele>
        <time>2022-06-14T11:02:38Z</time>
      </trkpt>
      <trkpt lat="48.72939" lon="2.02724">
        <ele>99.8</ele>
        <time>2022-06-14T11:02:44Z</time>
      </trkpt>
      <trkpt lat="48.72939" lon="2.02711">
        <ele>99.7</ele>
        <time>2022-06-14T11:02:51Z</time>
      </trkpt>
      <trkpt lat="48.72938" lon="2.02699">
        <ele>99.5</ele>
        <time>2022-06-14T11:02:56Z</time>
      </trkpt>
      <trkpt lat="48.72937" lon="2.02688">
        <ele>99.4</ele>
        <time>2022-06-14T11:03:02Z</time>
      </trkpt>
      <trkpt lat="48.72935" lon="2.02676">
        <ele>99.3</ele>
        <time>2022-06-14T11:03:07Z</time>
      </trkpt>
      <trkpt lat="48.72932" lon="2.02665">
        <ele>99.2</ele>
        <time>2022-06-14T11:03:12Z</time>
      </trkpt>
      <trkpt lat="48.72935" lon="2.02654">
        <ele>99.5</ele>
        <time>2022-06-14T11:03:20Z</time>
      </trkpt>
      <trkpt lat="48.72938" lon="2.02645">
        <ele>99.7</ele>
        <time>2022-06-14T11:03:27Z</time>
      </trkpt>
      <trkpt lat="48.72942" lon="2.02635">
        <ele>99.9</ele>
        <time>2022-06-14T11:03:33Z</time>
      </trkpt>
      <trkpt lat="48.72946" lon="2.02627">
        <ele>100.1</ele>
        <time>2022-06-14T11:03:39Z</time>
      </trkpt>
      <trkpt lat="48.72952" lon="2.02619">
        <ele>100.3</ele>
        <time>2022-06-14T11:03:44Z</time>
      </trkpt>
      <trkpt lat="48.72955" lon="2.02608">
        <ele>100.5</ele>
        <time>2022-06-14T11:03:50Z</time>
      </trkpt>
      <trkpt lat="48.72956" lon="2.02596">
        <ele>100.8</ele>
        <time>2022-06-14T11:03:55Z</time>
      </trkpt>
      <trkpt lat="48.72963" lon="2.02596">
        <ele>100.8</ele>
        <time>2022-06-14T11:04:05Z</time>
      </trkpt>
      <trkpt lat="48.7297" lon="2.02599">
        <ele>100.7</ele>
        <time>2022-06-14T11:04:11Z</time>
      </trkpt>
      <trkpt lat="48.72974" lon="2.02608">
        <ele>100.6</ele>
        <time>2022-06-14T11:04:17Z</time>
      </trkpt>
      <trkpt lat="48.72978" lon="2.02615">
        <ele>100.5</ele>
        <time>2022-06-14T11:04:22Z</time>
      </trkpt>
      <trkpt lat="48.72983" lon="2.02624">
        <ele>100.4</ele>
        <time>2022-06-14T11:04:27Z</time>
      </trkpt>
      <trkpt lat="48.72987" lon="2.02632">
        <ele>100.3</ele>
        <time>2022-06-14T11:05:48Z</time>
      </trkpt>
      <trkpt lat="48.72992" lon="2.02641">
        <ele>100.2</ele>
        <time>2022-06-14T11:05:53Z</time>
      </trkpt>
      <trkpt lat="48.73002" lon="2.02652">
        <ele>100.2</ele>
        <time>2022-06-14T11:05:58Z</time>
      </trkpt>
      <trkpt lat="48.73004" lon="2.02661">
        <ele>100</ele>
        <time>2022-06-14T11:06:07Z</time>
      </trkpt>
      <trkpt lat="48.7301" lon="2.02667">
        <ele>99.9</ele>
        <time>2022-06-14T11:06:21Z</time>
      </trkpt>
      <trkpt lat="48.73013" lon="2.02677">
        <ele>99.9</ele>
        <time>2022-06-14T11:06:26Z</time>
      </trkpt>
      <trkpt lat="48.73015" lon="2.02688">
        <ele>100</ele>
        <time>2022-06-14T11:06:31Z</time>
      </trkpt>
      <trkpt lat="48.7302" lon="2.02697">
        <ele>100.1</ele>
        <time>2022-06-14T11:06:37Z</time>
      </trkpt>
      <trkpt lat="48.73025" lon="2.02704">
        <ele>100.2</ele>
        <time>2022-06-14T11:06:43Z</time>
      </trkpt>
      <trkpt lat="48.73032" lon="2.02711">
        <ele>100.4</ele>
        <time>2022-06-14T11:06:48Z</time>
      </trkpt>
      <trkpt lat="48.73038" lon="2.02717">
        <ele>100.6</ele>
        <time>2022-06-14T11:06:53Z</time>
      </trkpt>
      <trkpt lat="48.73045" lon="2.02721">
        <ele>100.9</ele>
        <time>2022-06-14T11:06:58Z</time>
      </trkpt>
      <trkpt lat="48.73052" lon="2.02717">
        <ele>100.9</ele>
        <time>2022-06-14T11:07:05Z</time>
      </trkpt>
      <trkpt lat="48.73057" lon="2.02712">
        <ele>100.8</ele>
        <time>2022-06-14T11:07:11Z</time>
      </trkpt>
      <trkpt lat="48.73064" lon="2.02707">
        <ele>100.7</ele>
        <time>2022-06-14T11:07:17Z</time>
      </trkpt>
      <trkpt lat="48.73068" lon="2.02698">
        <ele>100.4</ele>
        <time>2022-06-14T11:07:22Z</time>
      </trkpt>
      <trkpt lat="48.73074" lon="2.02691">
        <ele>100.1</ele>
        <time>2022-06-14T11:07:27Z</time>
      </trkpt>
      <trkpt lat="48.73081" lon="2.02682">
        <ele>99.7</ele>
        <time>2022-06-14T11:07:32Z</time>
      </trkpt>
      <trkpt lat="48.73088" lon="2.02676">
        <ele>99.8</ele>
        <time>2022-06-14T11:07:38Z</time>
      </trkpt>
      <trkpt lat="48.73093" lon="2.02671">
        <ele>100</ele>
        <time>2022-06-14T11:07:43Z</time>
      </trkpt>
      <trkpt lat="48.73099" lon="2.02664">
        <ele>100.2</ele>
        <time>2022-06-14T11:07:48Z</time>
      </trkpt>
      <trkpt lat="48.73104" lon="2.02656">
        <ele>100.6</ele>
        <time>2022-06-14T11:07:53Z</time>
      </trkpt>
      <trkpt lat="48.7311" lon="2.02648">
        <ele>101</ele>
        <time>2022-06-14T11:07:58Z</time>
      </trkpt>
      <trkpt lat="48.73117" lon="2.02639">
        <ele>101.4</ele>
        <time>2022-06-14T11:08:03Z</time>
      </trkpt>
      <trkpt lat="48.73122" lon="2.02632">
        <ele>101.7</ele>
        <time>2022-06-14T11:08:08Z</time>
      </trkpt>
      <trkpt lat="48.73127" lon="2.02623">
        <ele>101.8</ele>
        <time>2022-06-14T11:08:14Z</time>
      </trkpt>
      <trkpt lat="48.73133" lon="2.02615">
        <ele>102</ele>
        <time>2022-06-14T11:08:19Z</time>
      </trkpt>
      <trkpt lat="48.7314" lon="2.02607">
        <ele>102.1</ele>
        <time>2022-06-14T11:08:24Z</time>
      </trkpt>
      <trkpt lat="48.73147" lon="2.02606">
        <ele>102.3</ele>
        <time>2022-06-14T11:08:29Z</time>
      </trkpt>
      <trkpt lat="48.73154" lon="2.02602">
        <ele>102.3</ele>
        <time>2022-06-14T11:08:40Z</time>
      </trkpt>
      <trkpt lat="48.73159" lon="2.02596">
        <ele>102.3</ele>
        <time>2022-06-14T11:08:45Z</time>
      </trkpt>
      <trkpt lat="48.73164" lon="2.0259">
        <ele>102.2</ele>
        <time>2022-06-14T11:08:50Z</time>
      </trkpt>
      <trkpt lat="48.73171" lon="2.02582">
        <ele>102.2</ele>
        <time>2022-06-14T11:08:55Z</time>
      </trkpt>
      <trkpt lat="48.73178" lon="2.02572">
        <ele>102.5</ele>
        <time>2022-06-14T11:09:00Z</time>
      </trkpt>
      <trkpt lat="48.73182" lon="2.02563">
        <ele>102.6</ele>
        <time>2022-06-14T11:09:05Z</time>
      </trkpt>
      <trkpt lat="48.73189" lon="2.02559">
        <ele>102.8</ele>
        <time>2022-06-14T11:09:10Z</time>
      </trkpt>
      <trkpt lat="48.73194" lon="2.02553">
        <ele>102.8</ele>
        <time>2022-06-14T11:09:15Z</time>
      </trkpt>
      <trkpt lat="48.73201" lon="2.02548">
        <ele>102.9</ele>
        <time>2022-06-14T11:09:20Z</time>
      </trkpt>
      <trkpt lat="48.73207" lon="2.0254">
        <ele>102.9</ele>
        <time>2022-06-14T11:09:25Z</time>
      </trkpt>
      <trkpt lat="48.73215" lon="2.02531">
        <ele>102.9</ele>
        <time>2022-06-14T11:09:30Z</time>
      </trkpt>
      <trkpt lat="48.7322" lon="2.02524">
        <ele>102.7</ele>
        <time>2022-06-14T11:09:35Z</time>
      </trkpt>
      <trkpt lat="48.73227" lon="2.02517">
        <ele>102.6</ele>
        <time>2022-06-14T11:09:41Z</time>
      </trkpt>
      <trkpt lat="48.73233" lon="2.0251">
        <ele>102.4</ele>
        <time>2022-06-14T11:09:47Z</time>
      </trkpt>
      <trkpt lat="48.73239" lon="2.02503">
        <ele>102.1</ele>
        <time>2022-06-14T11:09:52Z</time>
      </trkpt>
      <trkpt lat="48.73247" lon="2.02495">
        <ele>101.9</ele>
        <time>2022-06-14T11:09:57Z</time>
      </trkpt>
      <trkpt lat="48.73253" lon="2.02488">
        <ele>102.1</ele>
        <time>2022-06-14T11:10:02Z</time>
      </trkpt>
      <trkpt lat="48.73258" lon="2.02481">
        <ele>102.4</ele>
        <time>2022-06-14T11:10:07Z</time>
      </trkpt>
      <trkpt lat="48.73264" lon="2.02475">
        <ele>102.8</ele>
        <time>2022-06-14T11:10:15Z</time>
      </trkpt>
      <trkpt lat="48.73262" lon="2.02465">
        <ele>102.4</ele>
        <time>2022-06-14T11:11:00Z</time>
      </trkpt>
      <trkpt lat="48.73268" lon="2.02459">
        <ele>102.7</ele>
        <time>2022-06-14T11:11:26Z</time>
      </trkpt>
      <trkpt lat="48.73275" lon="2.02459">
        <ele>103.2</ele>
        <time>2022-06-14T11:11:35Z</time>
      </trkpt>
      <trkpt lat="48.73281" lon="2.02454">
        <ele>103.4</ele>
        <time>2022-06-14T11:11:41Z</time>
      </trkpt>
      <trkpt lat="48.73288" lon="2.0245">
        <ele>103.7</ele>
        <time>2022-06-14T11:11:47Z</time>
      </trkpt>
      <trkpt lat="48.73295" lon="2.02449">
        <ele>104.1</ele>
        <time>2022-06-14T11:11:54Z</time>
      </trkpt>
      <trkpt lat="48.73303" lon="2.02446">
        <ele>104.4</ele>
        <time>2022-06-14T11:11:59Z</time>
      </trkpt>
      <trkpt lat="48.7331" lon="2.02443">
        <ele>104.6</ele>
        <time>2022-06-14T11:12:04Z</time>
      </trkpt>
      <trkpt lat="48.73318" lon="2.02438">
        <ele>104.7</ele>
        <time>2022-06-14T11:12:10Z</time>
      </trkpt>
      <trkpt lat="48.73325" lon="2.02435">
        <ele>104.9</ele>
        <time>2022-06-14T11:12:15Z</time>
      </trkpt>
      <trkpt lat="48.73331" lon="2.0243">
        <ele>104.9</ele>
        <time>2022-06-14T11:12:20Z</time>
      </trkpt>
      <trkpt lat="48.73338" lon="2.02425">
        <ele>105</ele>
        <time>2022-06-14T11:12:25Z</time>
      </trkpt>
      <trkpt lat="48.73346" lon="2.02422">
        <ele>105.4</ele>
        <time>2022-06-14T11:12:30Z</time>
      </trkpt>
      <trkpt lat="48.73356" lon="2.02419">
        <ele>105.9</ele>
        <time>2022-06-14T11:12:35Z</time>
      </trkpt>
      <trkpt lat="48.73362" lon="2.02414">
        <ele>106</ele>
        <time>2022-06-14T11:12:40Z</time>
      </trkpt>
      <trkpt lat="48.73368" lon="2.02411">
        <ele>106.3</ele>
        <time>2022-06-14T11:12:45Z</time>
      </trkpt>
      <trkpt lat="48.73377" lon="2.02409">
        <ele>106.8</ele>
        <time>2022-06-14T11:12:50Z</time>
      </trkpt>
      <trkpt lat="48.73383" lon="2.02401">
        <ele>106.8</ele>
        <time>2022-06-14T11:12:55Z</time>
      </trkpt>
      <trkpt lat="48.73387" lon="2.02393">
        <ele>106.7</ele>
        <time>2022-06-14T11:13:00Z</time>
      </trkpt>
      <trkpt lat="48.73393" lon="2.02387">
        <ele>106.7</ele>
        <time>2022-06-14T11:13:05Z</time>
      </trkpt>
      <trkpt lat="48.73399" lon="2.02377">
        <ele>106.4</ele>
        <time>2022-06-14T11:13:10Z</time>
      </trkpt>
      <trkpt lat="48.73406" lon="2.02366">
        <ele>106</ele>
        <time>2022-06-14T11:13:15Z</time>
      </trkpt>
      <trkpt lat="48.73411" lon="2.02359">
        <ele>105.7</ele>
        <time>2022-06-14T11:13:20Z</time>
      </trkpt>
      <trkpt lat="48.73415" lon="2.02351">
        <ele>105.2</ele>
        <time>2022-06-14T11:13:26Z</time>
      </trkpt>
      <trkpt lat="48.73422" lon="2.02349">
        <ele>105.4</ele>
        <time>2022-06-14T11:13:33Z</time>
      </trkpt>
      <trkpt lat="48.73431" lon="2.02344">
        <ele>105.5</ele>
        <time>2022-06-14T11:13:38Z</time>
      </trkpt>
      <trkpt lat="48.73431" lon="2.0233">
        <ele>104.4</ele>
        <time>2022-06-14T11:13:43Z</time>
      </trkpt>
      <trkpt lat="48.73433" lon="2.02319">
        <ele>104.1</ele>
        <time>2022-06-14T11:13:48Z</time>
      </trkpt>
      <trkpt lat="48.73441" lon="2.02309">
        <ele>104</ele>
        <time>2022-06-14T11:13:53Z</time>
      </trkpt>
      <trkpt lat="48.73445" lon="2.02299">
        <ele>103.8</ele>
        <time>2022-06-14T11:13:59Z</time>
      </trkpt>
      <trkpt lat="48.7345" lon="2.02294">
        <ele>103.7</ele>
        <time>2022-06-14T11:14:04Z</time>
      </trkpt>
      <trkpt lat="48.73457" lon="2.02291">
        <ele>103.7</ele>
        <time>2022-06-14T11:14:20Z</time>
      </trkpt>
      <trkpt lat="48.73456" lon="2.02302">
        <ele>104.1</ele>
        <time>2022-06-14T11:14:53Z</time>
      </trkpt>
      <trkpt lat="48.73453" lon="2.02292">
        <ele>103.7</ele>
        <time>2022-06-14T11:16:04Z</time>
      </trkpt>
      <trkpt lat="48.73454" lon="2.02303">
        <ele>104.1</ele>
        <time>2022-06-14T11:16:47Z</time>
      </trkpt>
      <trkpt lat="48.73449" lon="2.02294">
        <ele>103.7</ele>
        <time>2022-06-14T11:16:53Z</time>
      </trkpt>
      <trkpt lat="48.73455" lon="2.02288">
        <ele>103.5</ele>
        <time>2022-06-14T11:17:44Z</time>
      </trkpt>
      <trkpt lat="48.73454" lon="2.02298">
        <ele>103.9</ele>
        <time>2022-06-14T11:19:04Z</time>
      </trkpt>
      <trkpt lat="48.7346" lon="2.02303">
        <ele>104.3</ele>
        <time>2022-06-14T11:19:13Z</time>
      </trkpt>
      <trkpt lat="48.73471" lon="2.023">
        <ele>104.4</ele>
        <time>2022-06-14T11:19:29Z</time>
      </trkpt>
      <trkpt lat="48.73472" lon="2.0229">
        <ele>103.9</ele>
        <time>2022-06-14T11:19:47Z</time>
      </trkpt>
      <trkpt lat="48.73483" lon="2.02291">
        <ele>104.2</ele>
        <time>2022-06-14T11:19:52Z</time>
      </trkpt>
      <trkpt lat="48.73489" lon="2.02292">
        <ele>104.3</ele>
        <time>2022-06-14T11:19:57Z</time>
      </trkpt>
      <trkpt lat="48.73498" lon="2.02294">
        <ele>104.6</ele>
        <time>2022-06-14T11:20:02Z</time>
      </trkpt>
      <trkpt lat="48.73504" lon="2.02293">
        <ele>104.7</ele>
        <time>2022-06-14T11:20:09Z</time>
      </trkpt>
      <trkpt lat="48.73512" lon="2.02293">
        <ele>105.1</ele>
        <time>2022-06-14T11:20:16Z</time>
      </trkpt>
      <trkpt lat="48.73519" lon="2.0229">
        <ele>105.2</ele>
        <time>2022-06-14T11:20:22Z</time>
      </trkpt>
      <trkpt lat="48.73526" lon="2.02292">
        <ele>105.6</ele>
        <time>2022-06-14T11:20:47Z</time>
      </trkpt>
      <trkpt lat="48.73532" lon="2.02297">
        <ele>106.2</ele>
        <time>2022-06-14T11:21:25Z</time>
      </trkpt>
      <trkpt lat="48.7354" lon="2.0229">
        <ele>106.1</ele>
        <time>2022-06-14T11:21:30Z</time>
      </trkpt>
      <trkpt lat="48.73548" lon="2.02287">
        <ele>106.2</ele>
        <time>2022-06-14T11:21:36Z</time>
      </trkpt>
      <trkpt lat="48.73557" lon="2.02288">
        <ele>106.6</ele>
        <time>2022-06-14T11:21:41Z</time>
      </trkpt>
      <trkpt lat="48.73564" lon="2.02289">
        <ele>107</ele>
        <time>2022-06-14T11:21:49Z</time>
      </trkpt>
      <trkpt lat="48.73574" lon="2.02286">
        <ele>107.2</ele>
        <time>2022-06-14T11:21:54Z</time>
      </trkpt>
      <trkpt lat="48.73579" lon="2.02281">
        <ele>107.1</ele>
        <time>2022-06-14T11:22:02Z</time>
      </trkpt>
      <trkpt lat="48.73586" lon="2.0228">
        <ele>107.3</ele>
        <time>2022-06-14T11:22:27Z</time>
      </trkpt>
      <trkpt lat="48.73593" lon="2.02283">
        <ele>108</ele>
        <time>2022-06-14T11:22:37Z</time>
      </trkpt>
      <trkpt lat="48.73604" lon="2.02286">
        <ele>109</ele>
        <time>2022-06-14T11:22:42Z</time>
      </trkpt>
      <trkpt lat="48.73615" lon="2.02294">
        <ele>110.5</ele>
        <time>2022-06-14T11:22:47Z</time>
      </trkpt>
      <trkpt lat="48.73622" lon="2.02292">
        <ele>110.8</ele>
        <time>2022-06-14T11:22:53Z</time>
      </trkpt>
      <trkpt lat="48.73628" lon="2.02293">
        <ele>111.3</ele>
        <time>2022-06-14T11:22:58Z</time>
      </trkpt>
      <trkpt lat="48.73635" lon="2.02289">
        <ele>111.4</ele>
        <time>2022-06-14T11:23:03Z</time>
      </trkpt>
      <trkpt lat="48.73645" lon="2.02291">
        <ele>112.4</ele>
        <time>2022-06-14T11:23:08Z</time>
      </trkpt>
      <trkpt lat="48.73653" lon="2.02289">
        <ele>112.7</ele>
        <time>2022-06-14T11:23:13Z</time>
      </trkpt>
      <trkpt lat="48.7366" lon="2.02286">
        <ele>112.9</ele>
        <time>2022-06-14T11:23:18Z</time>
      </trkpt>
      <trkpt lat="48.73666" lon="2.02283">
        <ele>112.9</ele>
        <time>2022-06-14T11:23:23Z</time>
      </trkpt>
      <trkpt lat="48.73673" lon="2.02283">
        <ele>113.3</ele>
        <time>2022-06-14T11:23:28Z</time>
      </trkpt>
      <trkpt lat="48.73681" lon="2.02281">
        <ele>113.6</ele>
        <time>2022-06-14T11:23:33Z</time>
      </trkpt>
      <trkpt lat="48.73688" lon="2.0228">
        <ele>113.8</ele>
        <time>2022-06-14T11:23:38Z</time>
      </trkpt>
      <trkpt lat="48.73695" lon="2.0228">
        <ele>114.2</ele>
        <time>2022-06-14T11:23:44Z</time>
      </trkpt>
      <trkpt lat="48.73702" lon="2.02278">
        <ele>114.3</ele>
        <time>2022-06-14T11:23:49Z</time>
      </trkpt>
      <trkpt lat="48.73709" lon="2.02274">
        <ele>114.1</ele>
        <time>2022-06-14T11:23:55Z</time>
      </trkpt>
      <trkpt lat="48.73718" lon="2.02272">
        <ele>114.3</ele>
        <time>2022-06-14T11:24:00Z</time>
      </trkpt>
      <trkpt lat="48.73725" lon="2.02272">
        <ele>114.7</ele>
        <time>2022-06-14T11:24:13Z</time>
      </trkpt>
      <trkpt lat="48.73729" lon="2.02281">
        <ele>116.4</ele>
        <time>2022-06-14T11:24:52Z</time>
      </trkpt>
      <trkpt lat="48.73724" lon="2.02269">
        <ele>114.1</ele>
        <time>2022-06-14T11:25:05Z</time>
      </trkpt>
      <trkpt lat="48.73719" lon="2.02262">
        <ele>112.8</ele>
        <time>2022-06-14T11:25:10Z</time>
      </trkpt>
      <trkpt lat="48.73722" lon="2.02253">
        <ele>111.5</ele>
        <time>2022-06-14T11:25:20Z</time>
      </trkpt>
      <trkpt lat="48.73729" lon="2.02255">
        <ele>112.1</ele>
        <time>2022-06-14T11:25:44Z</time>
      </trkpt>
      <trkpt lat="48.73738" lon="2.02251">
        <ele>111.7</ele>
        <time>2022-06-14T11:25:50Z</time>
      </trkpt>
      <trkpt lat="48.73745" lon="2.02251">
        <ele>112</ele>
        <time>2022-06-14T11:25:55Z</time>
      </trkpt>
      <trkpt lat="48.73754" lon="2.02249">
        <ele>112.2</ele>
        <time>2022-06-14T11:26:00Z</time>
      </trkpt>
      <trkpt lat="48.73761" lon="2.02248">
        <ele>112.5</ele>
        <time>2022-06-14T11:26:05Z</time>
      </trkpt>
      <trkpt lat="48.73769" lon="2.02247">
        <ele>113</ele>
        <time>2022-06-14T11:26:10Z</time>
      </trkpt>
      <trkpt lat="48.73776" lon="2.02244">
        <ele>113.2</ele>
        <time>2022-06-14T11:26:15Z</time>
      </trkpt>
      <trkpt lat="48.73783" lon="2.02241">
        <ele>113.3</ele>
        <time>2022-06-14T11:26:20Z</time>
      </trkpt>
      <trkpt lat="48.73793" lon="2.02242">
        <ele>113.9</ele>
        <time>2022-06-14T11:26:25Z</time>
      </trkpt>
      <trkpt lat="48.73801" lon="2.02243">
        <ele>114.5</ele>
        <time>2022-06-14T11:26:30Z</time>
      </trkpt>
      <trkpt lat="48.73809" lon="2.02244">
        <ele>115</ele>
        <time>2022-06-14T11:26:35Z</time>
      </trkpt>
      <trkpt lat="48.73813" lon="2.02231">
        <ele>114</ele>
        <time>2022-06-14T11:26:43Z</time>
      </trkpt>
      <trkpt lat="48.73821" lon="2.02232">
        <ele>114.5</ele>
        <time>2022-06-14T11:26:57Z</time>
      </trkpt>
      <trkpt lat="48.73828" lon="2.02234">
        <ele>115</ele>
        <time>2022-06-14T11:27:02Z</time>
      </trkpt>
      <trkpt lat="48.73837" lon="2.0224">
        <ele>115.9</ele>
        <time>2022-06-14T11:27:07Z</time>
      </trkpt>
      <trkpt lat="48.73845" lon="2.02243">
        <ele>116.2</ele>
        <time>2022-06-14T11:27:12Z</time>
      </trkpt>
      <trkpt lat="48.73852" lon="2.02243">
        <ele>116.2</ele>
        <time>2022-06-14T11:27:17Z</time>
      </trkpt>
      <trkpt lat="48.73862" lon="2.02245">
        <ele>116.4</ele>
        <time>2022-06-14T11:27:22Z</time>
      </trkpt>
      <trkpt lat="48.73869" lon="2.02248">
        <ele>116.8</ele>
        <time>2022-06-14T11:27:27Z</time>
      </trkpt>
      <trkpt lat="48.73877" lon="2.0225">
        <ele>117</ele>
        <time>2022-06-14T11:27:34Z</time>
      </trkpt>
      <trkpt lat="48.73888" lon="2.02253">
        <ele>117.9</ele>
        <time>2022-06-14T11:27:39Z</time>
      </trkpt>
      <trkpt lat="48.73896" lon="2.02255">
        <ele>118.6</ele>
        <time>2022-06-14T11:27:44Z</time>
      </trkpt>
      <trkpt lat="48.73902" lon="2.02257">
        <ele>119.2</ele>
        <time>2022-06-14T11:27:49Z</time>
      </trkpt>
      <trkpt lat="48.73912" lon="2.02257">
        <ele>119.3</ele>
        <time>2022-06-14T11:27:54Z</time>
      </trkpt>
      <trkpt lat="48.73923" lon="2.02261">
        <ele>120.2</ele>
        <time>2022-06-14T11:27:59Z</time>
      </trkpt>
      <trkpt lat="48.73931" lon="2.02264">
        <ele>120.6</ele>
        <time>2022-06-14T11:28:04Z</time>
      </trkpt>
      <trkpt lat="48.73938" lon="2.02267">
        <ele>121</ele>
        <time>2022-06-14T11:28:09Z</time>
      </trkpt>
      <trkpt lat="48.73944" lon="2.02272">
        <ele>121.8</ele>
        <time>2022-06-14T11:28:14Z</time>
      </trkpt>
      <trkpt lat="48.73951" lon="2.02277">
        <ele>122.5</ele>
        <time>2022-06-14T11:28:19Z</time>
      </trkpt>
      <trkpt lat="48.7396" lon="2.02281">
        <ele>122.6</ele>
        <time>2022-06-14T11:28:24Z</time>
      </trkpt>
      <trkpt lat="48.73966" lon="2.02286">
        <ele>123.1</ele>
        <time>2022-06-14T11:28:30Z</time>
      </trkpt>
      <trkpt lat="48.73973" lon="2.02289">
        <ele>122.9</ele>
        <time>2022-06-14T11:28:36Z</time>
      </trkpt>
      <trkpt lat="48.7398" lon="2.02294">
        <ele>123</ele>
        <time>2022-06-14T11:28:41Z</time>
      </trkpt>
      <trkpt lat="48.73991" lon="2.02294">
        <ele>121.5</ele>
        <time>2022-06-14T11:28:46Z</time>
      </trkpt>
      <trkpt lat="48.73997" lon="2.02286">
        <ele>119.5</ele>
        <time>2022-06-14T11:28:54Z</time>
      </trkpt>
      <trkpt lat="48.74004" lon="2.02283">
        <ele>118.6</ele>
        <time>2022-06-14T11:28:59Z</time>
      </trkpt>
      <trkpt lat="48.74012" lon="2.02285">
        <ele>118.7</ele>
        <time>2022-06-14T11:29:04Z</time>
      </trkpt>
      <trkpt lat="48.74018" lon="2.02281">
        <ele>117.9</ele>
        <time>2022-06-14T11:29:10Z</time>
      </trkpt>
      <trkpt lat="48.74024" lon="2.02275">
        <ele>117</ele>
        <time>2022-06-14T11:29:15Z</time>
      </trkpt>
      <trkpt lat="48.74031" lon="2.02273">
        <ele>116.5</ele>
        <time>2022-06-14T11:29:20Z</time>
      </trkpt>
      <trkpt lat="48.7404" lon="2.02272">
        <ele>116.2</ele>
        <time>2022-06-14T11:29:25Z</time>
      </trkpt>
      <trkpt lat="48.74047" lon="2.02264">
        <ele>115.1</ele>
        <time>2022-06-14T11:29:30Z</time>
      </trkpt>
      <trkpt lat="48.74054" lon="2.02259">
        <ele>114.4</ele>
        <time>2022-06-14T11:29:36Z</time>
      </trkpt>
      <trkpt lat="48.7406" lon="2.02251">
        <ele>113.4</ele>
        <time>2022-06-14T11:29:42Z</time>
      </trkpt>
      <trkpt lat="48.74064" lon="2.02239">
        <ele>112.7</ele>
        <time>2022-06-14T11:29:47Z</time>
      </trkpt>
      <trkpt lat="48.74063" lon="2.02229">
        <ele>112.2</ele>
        <time>2022-06-14T11:30:15Z</time>
      </trkpt>
      <trkpt lat="48.74067" lon="2.02218">
        <ele>111.6</ele>
        <time>2022-06-14T11:30:26Z</time>
      </trkpt>
      <trkpt lat="48.74072" lon="2.0221">
        <ele>111.2</ele>
        <time>2022-06-14T11:30:31Z</time>
      </trkpt>
      <trkpt lat="48.74078" lon="2.02196">
        <ele>110.4</ele>
        <time>2022-06-14T11:30:36Z</time>
      </trkpt>
      <trkpt lat="48.74077" lon="2.02183">
        <ele>109.8</ele>
        <time>2022-06-14T11:30:41Z</time>
      </trkpt>
      <trkpt lat="48.74078" lon="2.0217">
        <ele>109.2</ele>
        <time>2022-06-14T11:30:46Z</time>
      </trkpt>
      <trkpt lat="48.74082" lon="2.02161">
        <ele>109.1</ele>
        <time>2022-06-14T11:30:51Z</time>
      </trkpt>
      <trkpt lat="48.74086" lon="2.02151">
        <ele>109.6</ele>
        <time>2022-06-14T11:30:57Z</time>
      </trkpt>
      <trkpt lat="48.74092" lon="2.02141">
        <ele>110.4</ele>
        <time>2022-06-14T11:31:02Z</time>
      </trkpt>
      <trkpt lat="48.74097" lon="2.02128">
        <ele>110.9</ele>
        <time>2022-06-14T11:31:07Z</time>
      </trkpt>
      <trkpt lat="48.741" lon="2.02117">
        <ele>111.1</ele>
        <time>2022-06-14T11:31:12Z</time>
      </trkpt>
      <trkpt lat="48.74102" lon="2.02106">
        <ele>111.2</ele>
        <time>2022-06-14T11:31:17Z</time>
      </trkpt>
      <trkpt lat="48.74108" lon="2.02098">
        <ele>111.4</ele>
        <time>2022-06-14T11:31:23Z</time>
      </trkpt>
      <trkpt lat="48.74112" lon="2.02087">
        <ele>111.4</ele>
        <time>2022-06-14T11:31:30Z</time>
      </trkpt>
      <trkpt lat="48.74114" lon="2.02076">
        <ele>111.3</ele>
        <time>2022-06-14T11:31:35Z</time>
      </trkpt>
      <trkpt lat="48.7412" lon="2.02072">
        <ele>111.4</ele>
        <time>2022-06-14T11:31:45Z</time>
      </trkpt>
      <trkpt lat="48.74127" lon="2.02068">
        <ele>111.4</ele>
        <time>2022-06-14T11:31:55Z</time>
      </trkpt>
      <trkpt lat="48.7413" lon="2.02059">
        <ele>111.4</ele>
        <time>2022-06-14T11:32:02Z</time>
      </trkpt>
      <trkpt lat="48.74136" lon="2.02053">
        <ele>111.4</ele>
        <time>2022-06-14T11:32:08Z</time>
      </trkpt>
      <trkpt lat="48.74142" lon="2.02047">
        <ele>111.4</ele>
        <time>2022-06-14T11:32:17Z</time>
      </trkpt>
      <trkpt lat="48.74132" lon="2.02047">
        <ele>111.3</ele>
        <time>2022-06-14T11:33:08Z</time>
      </trkpt>
      <trkpt lat="48.74146" lon="2.02042">
        <ele>111.4</ele>
        <time>2022-06-14T11:33:45Z</time>
      </trkpt>
      <trkpt lat="48.74143" lon="2.02033">
        <ele>111.3</ele>
        <time>2022-06-14T11:34:13Z</time>
      </trkpt>
      <trkpt lat="48.74145" lon="2.02044">
        <ele>111.4</ele>
        <time>2022-06-14T11:34:54Z</time>
      </trkpt>
      <trkpt lat="48.74151" lon="2.02046">
        <ele>111.4</ele>
        <time>2022-06-14T11:36:57Z</time>
      </trkpt>
      <trkpt lat="48.74158" lon="2.02052">
        <ele>111.6</ele>
        <time>2022-06-14T11:37:24Z</time>
      </trkpt>
      <trkpt lat="48.74152" lon="2.02051">
        <ele>111.5</ele>
        <time>2022-06-14T11:37:39Z</time>
      </trkpt>
      <trkpt lat="48.74147" lon="2.02042">
        <ele>111.4</ele>
        <time>2022-06-14T11:37:44Z</time>
      </trkpt>
      <trkpt lat="48.7415" lon="2.02053">
        <ele>111.5</ele>
        <time>2022-06-14T11:37:49Z</time>
      </trkpt>
      <trkpt lat="48.74141" lon="2.02049">
        <ele>111.4</ele>
        <time>2022-06-14T11:37:54Z</time>
      </trkpt>
      <trkpt lat="48.74137" lon="2.0204">
        <ele>111.3</ele>
        <time>2022-06-14T11:38:04Z</time>
      </trkpt>
      <trkpt lat="48.7414" lon="2.02028">
        <ele>111.2</ele>
        <time>2022-06-14T11:38:31Z</time>
      </trkpt>
      <trkpt lat="48.74145" lon="2.02022">
        <ele>111.2</ele>
        <time>2022-06-14T11:38:41Z</time>
      </trkpt>
      <trkpt lat="48.74149" lon="2.02013">
        <ele>111.1</ele>
        <time>2022-06-14T11:38:48Z</time>
      </trkpt>
      <trkpt lat="48.74156" lon="2.02001">
        <ele>111</ele>
        <time>2022-06-14T11:38:53Z</time>
      </trkpt>
      <trkpt lat="48.7416" lon="2.01988">
        <ele>111.1</ele>
        <time>2022-06-14T11:38:58Z</time>
      </trkpt>
      <trkpt lat="48.74167" lon="2.01986">
        <ele>111.2</ele>
        <time>2022-06-14T11:39:04Z</time>
      </trkpt>
      <trkpt lat="48.74176" lon="2.0199">
        <ele>112.2</ele>
        <time>2022-06-14T11:39:10Z</time>
      </trkpt>
      <trkpt lat="48.74181" lon="2.01982">
        <ele>112.7</ele>
        <time>2022-06-14T11:39:16Z</time>
      </trkpt>
      <trkpt lat="48.74186" lon="2.01971">
        <ele>113.2</ele>
        <time>2022-06-14T11:39:21Z</time>
      </trkpt>
      <trkpt lat="48.74191" lon="2.01958">
        <ele>113.5</ele>
        <time>2022-06-14T11:39:26Z</time>
      </trkpt>
      <trkpt lat="48.7419" lon="2.01948">
        <ele>113.4</ele>
        <time>2022-06-14T11:39:36Z</time>
      </trkpt>
      <trkpt lat="48.74184" lon="2.01945">
        <ele>112.9</ele>
        <time>2022-06-14T11:39:42Z</time>
      </trkpt>
      <trkpt lat="48.7419" lon="2.01949">
        <ele>113.4</ele>
        <time>2022-06-14T11:40:02Z</time>
      </trkpt>
      <trkpt lat="48.74199" lon="2.01946">
        <ele>114</ele>
        <time>2022-06-14T11:40:07Z</time>
      </trkpt>
      <trkpt lat="48.74205" lon="2.0194">
        <ele>114.3</ele>
        <time>2022-06-14T11:40:12Z</time>
      </trkpt>
      <trkpt lat="48.74214" lon="2.01938">
        <ele>114.9</ele>
        <time>2022-06-14T11:40:17Z</time>
      </trkpt>
      <trkpt lat="48.74221" lon="2.01935">
        <ele>115.2</ele>
        <time>2022-06-14T11:40:38Z</time>
      </trkpt>
      <trkpt lat="48.74225" lon="2.01928">
        <ele>115.2</ele>
        <time>2022-06-14T11:40:44Z</time>
      </trkpt>
      <trkpt lat="48.7423" lon="2.01914">
        <ele>115.1</ele>
        <time>2022-06-14T11:41:37Z</time>
      </trkpt>
      <trkpt lat="48.74236" lon="2.01909">
        <ele>115.6</ele>
        <time>2022-06-14T11:41:44Z</time>
      </trkpt>
      <trkpt lat="48.74243" lon="2.01906">
        <ele>116</ele>
        <time>2022-06-14T11:41:49Z</time>
      </trkpt>
      <trkpt lat="48.74254" lon="2.01907">
        <ele>116.5</ele>
        <time>2022-06-14T11:41:54Z</time>
      </trkpt>
      <trkpt lat="48.7426" lon="2.01904">
        <ele>116.9</ele>
        <time>2022-06-14T11:42:01Z</time>
      </trkpt>
      <trkpt lat="48.74267" lon="2.01901">
        <ele>117.3</ele>
        <time>2022-06-14T11:42:06Z</time>
      </trkpt>
      <trkpt lat="48.74274" lon="2.01898">
        <ele>117.7</ele>
        <time>2022-06-14T11:42:13Z</time>
      </trkpt>
      <trkpt lat="48.74284" lon="2.01895">
        <ele>118.2</ele>
        <time>2022-06-14T11:42:18Z</time>
      </trkpt>
      <trkpt lat="48.74291" lon="2.01894">
        <ele>118.6</ele>
        <time>2022-06-14T11:42:23Z</time>
      </trkpt>
      <trkpt lat="48.74298" lon="2.01892">
        <ele>118.9</ele>
        <time>2022-06-14T11:42:28Z</time>
      </trkpt>
      <trkpt lat="48.74307" lon="2.0189">
        <ele>119.2</ele>
        <time>2022-06-14T11:42:33Z</time>
      </trkpt>
      <trkpt lat="48.74314" lon="2.01886">
        <ele>119.4</ele>
        <time>2022-06-14T11:42:39Z</time>
      </trkpt>
      <trkpt lat="48.74322" lon="2.01885">
        <ele>119.6</ele>
        <time>2022-06-14T11:42:45Z</time>
      </trkpt>
      <trkpt lat="48.74328" lon="2.01881">
        <ele>119.7</ele>
        <time>2022-06-14T11:42:50Z</time>
      </trkpt>
      <trkpt lat="48.74335" lon="2.01873">
        <ele>119.6</ele>
        <time>2022-06-14T11:42:55Z</time>
      </trkpt>
      <trkpt lat="48.7434" lon="2.01865">
        <ele>119.7</ele>
        <time>2022-06-14T11:43:00Z</time>
      </trkpt>
      <trkpt lat="48.74345" lon="2.01859">
        <ele>119.9</ele>
        <time>2022-06-14T11:43:31Z</time>
      </trkpt>
      <trkpt lat="48.74355" lon="2.0185">
        <ele>120.3</ele>
        <time>2022-06-14T11:43:36Z</time>
      </trkpt>
      <trkpt lat="48.74361" lon="2.01845">
        <ele>120.4</ele>
        <time>2022-06-14T11:43:42Z</time>
      </trkpt>
      <trkpt lat="48.74367" lon="2.01842">
        <ele>120.7</ele>
        <time>2022-06-14T11:43:47Z</time>
      </trkpt>
      <trkpt lat="48.74372" lon="2.01835">
        <ele>120.4</ele>
        <time>2022-06-14T11:43:54Z</time>
      </trkpt>
      <trkpt lat="48.74382" lon="2.01835">
        <ele>121.3</ele>
        <time>2022-06-14T11:43:59Z</time>
      </trkpt>
      <trkpt lat="48.74388" lon="2.01831">
        <ele>121.4</ele>
        <time>2022-06-14T11:44:04Z</time>
      </trkpt>
      <trkpt lat="48.74395" lon="2.01827">
        <ele>121.7</ele>
        <time>2022-06-14T11:44:09Z</time>
      </trkpt>
      <trkpt lat="48.74401" lon="2.01826">
        <ele>122</ele>
        <time>2022-06-14T11:44:15Z</time>
      </trkpt>
      <trkpt lat="48.74408" lon="2.01825">
        <ele>122.3</ele>
        <time>2022-06-14T11:44:22Z</time>
      </trkpt>
      <trkpt lat="48.74415" lon="2.01821">
        <ele>122.3</ele>
        <time>2022-06-14T11:44:27Z</time>
      </trkpt>
      <trkpt lat="48.74423" lon="2.01818">
        <ele>122.9</ele>
        <time>2022-06-14T11:44:32Z</time>
      </trkpt>
      <trkpt lat="48.74431" lon="2.01817">
        <ele>123.9</ele>
        <time>2022-06-14T11:44:41Z</time>
      </trkpt>
      <trkpt lat="48.74438" lon="2.01811">
        <ele>124</ele>
        <time>2022-06-14T11:44:46Z</time>
      </trkpt>
      <trkpt lat="48.74445" lon="2.0181">
        <ele>124.8</ele>
        <time>2022-06-14T11:44:52Z</time>
      </trkpt>
      <trkpt lat="48.74451" lon="2.01805">
        <ele>124.8</ele>
        <time>2022-06-14T11:44:58Z</time>
      </trkpt>
      <trkpt lat="48.74459" lon="2.01803">
        <ele>125.5</ele>
        <time>2022-06-14T11:45:04Z</time>
      </trkpt>
      <trkpt lat="48.74464" lon="2.01811">
        <ele>127.5</ele>
        <time>2022-06-14T11:45:14Z</time>
      </trkpt>
      <trkpt lat="48.74459" lon="2.01802">
        <ele>125.3</ele>
        <time>2022-06-14T11:45:23Z</time>
      </trkpt>
      <trkpt lat="48.74467" lon="2.01802">
        <ele>126.4</ele>
        <time>2022-06-14T11:45:36Z</time>
      </trkpt>
      <trkpt lat="48.74472" lon="2.01794">
        <ele>125.6</ele>
        <time>2022-06-14T11:45:43Z</time>
      </trkpt>
      <trkpt lat="48.74477" lon="2.01788">
        <ele>125.1</ele>
        <time>2022-06-14T11:45:52Z</time>
      </trkpt>
      <trkpt lat="48.74484" lon="2.01785">
        <ele>125.3</ele>
        <time>2022-06-14T11:46:03Z</time>
      </trkpt>
      <trkpt lat="48.74491" lon="2.01778">
        <ele>124.7</ele>
        <time>2022-06-14T11:46:09Z</time>
      </trkpt>
      <trkpt lat="48.74498" lon="2.01773">
        <ele>124.5</ele>
        <time>2022-06-14T11:46:14Z</time>
      </trkpt>
      <trkpt lat="48.74504" lon="2.01769">
        <ele>124.2</ele>
        <time>2022-06-14T11:46:19Z</time>
      </trkpt>
      <trkpt lat="48.74511" lon="2.0176">
        <ele>123.1</ele>
        <time>2022-06-14T11:46:24Z</time>
      </trkpt>
      <trkpt lat="48.74518" lon="2.01754">
        <ele>122.7</ele>
        <time>2022-06-14T11:46:29Z</time>
      </trkpt>
      <trkpt lat="48.74525" lon="2.01747">
        <ele>122.6</ele>
        <time>2022-06-14T11:46:35Z</time>
      </trkpt>
      <trkpt lat="48.74528" lon="2.01737">
        <ele>122.4</ele>
        <time>2022-06-14T11:46:41Z</time>
      </trkpt>
      <trkpt lat="48.74535" lon="2.01741">
        <ele>123.3</ele>
        <time>2022-06-14T11:47:26Z</time>
      </trkpt>
      <trkpt lat="48.74541" lon="2.01741">
        <ele>123.9</ele>
        <time>2022-06-14T11:47:31Z</time>
      </trkpt>
      <trkpt lat="48.74548" lon="2.01734">
        <ele>124.3</ele>
        <time>2022-06-14T11:47:36Z</time>
      </trkpt>
      <trkpt lat="48.74548" lon="2.01723">
        <ele>123.7</ele>
        <time>2022-06-14T11:47:41Z</time>
      </trkpt>
      <trkpt lat="48.74545" lon="2.01712">
        <ele>122.8</ele>
        <time>2022-06-14T11:47:48Z</time>
      </trkpt>
      <trkpt lat="48.74545" lon="2.01702">
        <ele>122.2</ele>
        <time>2022-06-14T11:47:53Z</time>
      </trkpt>
      <trkpt lat="48.74546" lon="2.01691">
        <ele>121.7</ele>
        <time>2022-06-14T11:47:58Z</time>
      </trkpt>
      <trkpt lat="48.74548" lon="2.01682">
        <ele>121.3</ele>
        <time>2022-06-14T11:48:03Z</time>
      </trkpt>
      <trkpt lat="48.74555" lon="2.01678">
        <ele>121.6</ele>
        <time>2022-06-14T11:48:09Z</time>
      </trkpt>
      <trkpt lat="48.74555" lon="2.01668">
        <ele>121</ele>
        <time>2022-06-14T11:48:15Z</time>
      </trkpt>
      <trkpt lat="48.74553" lon="2.01656">
        <ele>120.7</ele>
        <time>2022-06-14T11:48:26Z</time>
      </trkpt>
      <trkpt lat="48.74548" lon="2.01648">
        <ele>120.3</ele>
        <time>2022-06-14T11:48:31Z</time>
      </trkpt>
      <trkpt lat="48.74543" lon="2.01638">
        <ele>119.9</ele>
        <time>2022-06-14T11:48:36Z</time>
      </trkpt>
      <trkpt lat="48.7455" lon="2.01641">
        <ele>120.4</ele>
        <time>2022-06-14T11:49:13Z</time>
      </trkpt>
      <trkpt lat="48.74551" lon="2.01653">
        <ele>120.6</ele>
        <time>2022-06-14T11:49:20Z</time>
      </trkpt>
      <trkpt lat="48.74545" lon="2.01658">
        <ele>120.2</ele>
        <time>2022-06-14T11:49:33Z</time>
      </trkpt>
      <trkpt lat="48.74546" lon="2.01668">
        <ele>120.4</ele>
        <time>2022-06-14T11:49:41Z</time>
      </trkpt>
      <trkpt lat="48.74554" lon="2.01667">
        <ele>120.9</ele>
        <time>2022-06-14T11:49:47Z</time>
      </trkpt>
      <trkpt lat="48.74544" lon="2.01659">
        <ele>120.1</ele>
        <time>2022-06-14T11:49:59Z</time>
      </trkpt>
      <trkpt lat="48.74551" lon="2.01656">
        <ele>120.6</ele>
        <time>2022-06-14T11:50:19Z</time>
      </trkpt>
      <trkpt lat="48.74558" lon="2.01655">
        <ele>121.1</ele>
        <time>2022-06-14T11:50:27Z</time>
      </trkpt>
      <trkpt lat="48.74561" lon="2.01647">
        <ele>121.2</ele>
        <time>2022-06-14T11:50:36Z</time>
      </trkpt>
      <trkpt lat="48.74566" lon="2.01635">
        <ele>121.5</ele>
        <time>2022-06-14T11:50:43Z</time>
      </trkpt>
      <trkpt lat="48.74568" lon="2.01625">
        <ele>121.5</ele>
        <time>2022-06-14T11:50:48Z</time>
      </trkpt>
      <trkpt lat="48.74573" lon="2.01615">
        <ele>121.7</ele>
        <time>2022-06-14T11:50:56Z</time>
      </trkpt>
      <trkpt lat="48.74578" lon="2.01609">
        <ele>122</ele>
        <time>2022-06-14T11:51:07Z</time>
      </trkpt>
      <trkpt lat="48.74583" lon="2.016">
        <ele>122.2</ele>
        <time>2022-06-14T11:51:13Z</time>
      </trkpt>
      <trkpt lat="48.74587" lon="2.01592">
        <ele>122.8</ele>
        <time>2022-06-14T11:51:21Z</time>
      </trkpt>
      <trkpt lat="48.7459" lon="2.01582">
        <ele>123.2</ele>
        <time>2022-06-14T11:51:26Z</time>
      </trkpt>
      <trkpt lat="48.74597" lon="2.01579">
        <ele>124.6</ele>
        <time>2022-06-14T11:51:39Z</time>
      </trkpt>
      <trkpt lat="48.74599" lon="2.01569">
        <ele>125.3</ele>
        <time>2022-06-14T11:52:03Z</time>
      </trkpt>
      <trkpt lat="48.74605" lon="2.01562">
        <ele>126.6</ele>
        <time>2022-06-14T11:52:08Z</time>
      </trkpt>
      <trkpt lat="48.74611" lon="2.01558">
        <ele>127.9</ele>
        <time>2022-06-14T11:52:13Z</time>
      </trkpt>
      <trkpt lat="48.74611" lon="2.01548">
        <ele>128.3</ele>
        <time>2022-06-14T11:52:22Z</time>
      </trkpt>
      <trkpt lat="48.74613" lon="2.01558">
        <ele>128.3</ele>
        <time>2022-06-14T11:52:37Z</time>
      </trkpt>
      <trkpt lat="48.74606" lon="2.01563">
        <ele>126.8</ele>
        <time>2022-06-14T11:53:32Z</time>
      </trkpt>
      <trkpt lat="48.74601" lon="2.01571">
        <ele>125.6</ele>
        <time>2022-06-14T11:53:40Z</time>
      </trkpt>
      <trkpt lat="48.74599" lon="2.01581">
        <ele>124.9</ele>
        <time>2022-06-14T11:53:48Z</time>
      </trkpt>
      <trkpt lat="48.746" lon="2.01591">
        <ele>125</ele>
        <time>2022-06-14T11:53:56Z</time>
      </trkpt>
      <trkpt lat="48.74603" lon="2.016">
        <ele>125.6</ele>
        <time>2022-06-14T11:54:07Z</time>
      </trkpt>
      <trkpt lat="48.74597" lon="2.01605">
        <ele>124.6</ele>
        <time>2022-06-14T11:54:16Z</time>
      </trkpt>
      <trkpt lat="48.74588" lon="2.01605">
        <ele>123.1</ele>
        <time>2022-06-14T11:54:32Z</time>
      </trkpt>
      <trkpt lat="48.74581" lon="2.01603">
        <ele>122.1</ele>
        <time>2022-06-14T11:54:37Z</time>
      </trkpt>
      <trkpt lat="48.74573" lon="2.01601">
        <ele>121.6</ele>
        <time>2022-06-14T11:54:42Z</time>
      </trkpt>
      <trkpt lat="48.74566" lon="2.01596">
        <ele>121.1</ele>
        <time>2022-06-14T11:54:47Z</time>
      </trkpt>
      <trkpt lat="48.74561" lon="2.01589">
        <ele>120.7</ele>
        <time>2022-06-14T11:54:52Z</time>
      </trkpt>
      <trkpt lat="48.74553" lon="2.01586">
        <ele>120.2</ele>
        <time>2022-06-14T11:54:57Z</time>
      </trkpt>
      <trkpt lat="48.74547" lon="2.01579">
        <ele>119.9</ele>
        <time>2022-06-14T11:55:02Z</time>
      </trkpt>
      <trkpt lat="48.74547" lon="2.01569">
        <ele>120.2</ele>
        <time>2022-06-14T11:55:10Z</time>
      </trkpt>
      <trkpt lat="48.74545" lon="2.01558">
        <ele>120.3</ele>
        <time>2022-06-14T11:55:21Z</time>
      </trkpt>
      <trkpt lat="48.74543" lon="2.01549">
        <ele>120.4</ele>
        <time>2022-06-14T11:55:30Z</time>
      </trkpt>
      <trkpt lat="48.74537" lon="2.01542">
        <ele>120.2</ele>
        <time>2022-06-14T11:55:38Z</time>
      </trkpt>
      <trkpt lat="48.74534" lon="2.0153">
        <ele>120.3</ele>
        <time>2022-06-14T11:55:43Z</time>
      </trkpt>
      <trkpt lat="48.74532" lon="2.01517">
        <ele>120.5</ele>
        <time>2022-06-14T11:55:48Z</time>
      </trkpt>
      <trkpt lat="48.74529" lon="2.01505">
        <ele>120.6</ele>
        <time>2022-06-14T11:55:54Z</time>
      </trkpt>
      <trkpt lat="48.74531" lon="2.01495">
        <ele>120.6</ele>
        <time>2022-06-14T11:56:01Z</time>
      </trkpt>
      <trkpt lat="48.74532" lon="2.01484">
        <ele>120.1</ele>
        <time>2022-06-14T11:56:09Z</time>
      </trkpt>
      <trkpt lat="48.74531" lon="2.01474">
        <ele>119.6</ele>
        <time>2022-06-14T11:56:14Z</time>
      </trkpt>
      <trkpt lat="48.74536" lon="2.01467">
        <ele>119.5</ele>
        <time>2022-06-14T11:56:19Z</time>
      </trkpt>
      <trkpt lat="48.74542" lon="2.0146">
        <ele>119.4</ele>
        <time>2022-06-14T11:56:24Z</time>
      </trkpt>
      <trkpt lat="48.74548" lon="2.01449">
        <ele>119</ele>
        <time>2022-06-14T11:56:29Z</time>
      </trkpt>
      <trkpt lat="48.74548" lon="2.01437">
        <ele>118.3</ele>
        <time>2022-06-14T11:56:34Z</time>
      </trkpt>
      <trkpt lat="48.74556" lon="2.01426">
        <ele>117.9</ele>
        <time>2022-06-14T11:56:39Z</time>
      </trkpt>
      <trkpt lat="48.74562" lon="2.01419">
        <ele>117.6</ele>
        <time>2022-06-14T11:56:46Z</time>
      </trkpt>
      <trkpt lat="48.74567" lon="2.01404">
        <ele>117.4</ele>
        <time>2022-06-14T11:56:51Z</time>
      </trkpt>
      <trkpt lat="48.74572" lon="2.01395">
        <ele>117.3</ele>
        <time>2022-06-14T11:56:57Z</time>
      </trkpt>
      <trkpt lat="48.74573" lon="2.01381">
        <ele>117.1</ele>
        <time>2022-06-14T11:57:02Z</time>
      </trkpt>
      <trkpt lat="48.74575" lon="2.01372">
        <ele>116.9</ele>
        <time>2022-06-14T11:57:07Z</time>
      </trkpt>
      <trkpt lat="48.74578" lon="2.01363">
        <ele>116.7</ele>
        <time>2022-06-14T11:57:14Z</time>
      </trkpt>
      <trkpt lat="48.74579" lon="2.01347">
        <ele>116.4</ele>
        <time>2022-06-14T11:57:19Z</time>
      </trkpt>
      <trkpt lat="48.74578" lon="2.01331">
        <ele>116.2</ele>
        <time>2022-06-14T11:57:24Z</time>
      </trkpt>
      <trkpt lat="48.74579" lon="2.0132">
        <ele>116.8</ele>
        <time>2022-06-14T11:57:29Z</time>
      </trkpt>
      <trkpt lat="48.74583" lon="2.0131">
        <ele>117.1</ele>
        <time>2022-06-14T11:57:35Z</time>
      </trkpt>
      <trkpt lat="48.74579" lon="2.01299">
        <ele>117.9</ele>
        <time>2022-06-14T11:57:53Z</time>
      </trkpt>
      <trkpt lat="48.7458" lon="2.01289">
        <ele>118.3</ele>
        <time>2022-06-14T11:57:59Z</time>
      </trkpt>
      <trkpt lat="48.74584" lon="2.0128">
        <ele>118.7</ele>
        <time>2022-06-14T11:58:07Z</time>
      </trkpt>
      <trkpt lat="48.74584" lon="2.0127">
        <ele>119.1</ele>
        <time>2022-06-14T11:58:13Z</time>
      </trkpt>
      <trkpt lat="48.74584" lon="2.01259">
        <ele>119.7</ele>
        <time>2022-06-14T11:58:18Z</time>
      </trkpt>
      <trkpt lat="48.74586" lon="2.01246">
        <ele>120.5</ele>
        <time>2022-06-14T11:58:23Z</time>
      </trkpt>
      <trkpt lat="48.74587" lon="2.01236">
        <ele>121.1</ele>
        <time>2022-06-14T11:58:30Z</time>
      </trkpt>
      <trkpt lat="48.74591" lon="2.01223">
        <ele>122</ele>
        <time>2022-06-14T11:58:35Z</time>
      </trkpt>
      <trkpt lat="48.74597" lon="2.01214">
        <ele>122.8</ele>
        <time>2022-06-14T11:58:40Z</time>
      </trkpt>
      <trkpt lat="48.74602" lon="2.01204">
        <ele>123.4</ele>
        <time>2022-06-14T11:58:45Z</time>
      </trkpt>
      <trkpt lat="48.74608" lon="2.01193">
        <ele>124</ele>
        <time>2022-06-14T11:58:50Z</time>
      </trkpt>
      <trkpt lat="48.74613" lon="2.01186">
        <ele>124.3</ele>
        <time>2022-06-14T11:58:55Z</time>
      </trkpt>
      <trkpt lat="48.74619" lon="2.01179">
        <ele>124.5</ele>
        <time>2022-06-14T11:59:00Z</time>
      </trkpt>
      <trkpt lat="48.74624" lon="2.01173">
        <ele>124.6</ele>
        <time>2022-06-14T11:59:05Z</time>
      </trkpt>
      <trkpt lat="48.74628" lon="2.01164">
        <ele>124.6</ele>
        <time>2022-06-14T11:59:10Z</time>
      </trkpt>
      <trkpt lat="48.74631" lon="2.01155">
        <ele>124.7</ele>
        <time>2022-06-14T11:59:22Z</time>
      </trkpt>
      <trkpt lat="48.74636" lon="2.01146">
        <ele>124.7</ele>
        <time>2022-06-14T11:59:28Z</time>
      </trkpt>
      <trkpt lat="48.74639" lon="2.01134">
        <ele>124.8</ele>
        <time>2022-06-14T11:59:33Z</time>
      </trkpt>
      <trkpt lat="48.74643" lon="2.01125">
        <ele>124.8</ele>
        <time>2022-06-14T11:59:39Z</time>
      </trkpt>
      <trkpt lat="48.74645" lon="2.01115">
        <ele>124.8</ele>
        <time>2022-06-14T11:59:45Z</time>
      </trkpt>
      <trkpt lat="48.74651" lon="2.01105">
        <ele>124.6</ele>
        <time>2022-06-14T11:59:50Z</time>
      </trkpt>
      <trkpt lat="48.74657" lon="2.01095">
        <ele>124.4</ele>
        <time>2022-06-14T11:59:55Z</time>
      </trkpt>
      <trkpt lat="48.7466" lon="2.01081">
        <ele>124.3</ele>
        <time>2022-06-14T12:00:00Z</time>
      </trkpt>
      <trkpt lat="48.74665" lon="2.01074">
        <ele>124.4</ele>
        <time>2022-06-14T12:00:24Z</time>
      </trkpt>
      <trkpt lat="48.74667" lon="2.01052">
        <ele>125.2</ele>
        <time>2022-06-14T12:00:29Z</time>
      </trkpt>
      <trkpt lat="48.74667" lon="2.0104">
        <ele>125.6</ele>
        <time>2022-06-14T12:00:34Z</time>
      </trkpt>
      <trkpt lat="48.74668" lon="2.01028">
        <ele>126.1</ele>
        <time>2022-06-14T12:00:40Z</time>
      </trkpt>
      <trkpt lat="48.74674" lon="2.01023">
        <ele>127</ele>
        <time>2022-06-14T12:00:54Z</time>
      </trkpt>
      <trkpt lat="48.74673" lon="2.01011">
        <ele>127.3</ele>
        <time>2022-06-14T12:01:04Z</time>
      </trkpt>
      <trkpt lat="48.74676" lon="2.01002">
        <ele>127.9</ele>
        <time>2022-06-14T12:01:10Z</time>
      </trkpt>
      <trkpt lat="48.74681" lon="2.00994">
        <ele>128.7</ele>
        <time>2022-06-14T12:01:17Z</time>
      </trkpt>
      <trkpt lat="48.74687" lon="2.00992">
        <ele>129.4</ele>
        <time>2022-06-14T12:01:26Z</time>
      </trkpt>
      <trkpt lat="48.7469" lon="2.00982">
        <ele>130.1</ele>
        <time>2022-06-14T12:01:32Z</time>
      </trkpt>
      <trkpt lat="48.74686" lon="2.00973">
        <ele>129.9</ele>
        <time>2022-06-14T12:01:38Z</time>
      </trkpt>
      <trkpt lat="48.74682" lon="2.00965">
        <ele>129.7</ele>
        <time>2022-06-14T12:01:46Z</time>
      </trkpt>
      <trkpt lat="48.74679" lon="2.00955">
        <ele>129.6</ele>
        <time>2022-06-14T12:01:53Z</time>
      </trkpt>
      <trkpt lat="48.74676" lon="2.00945">
        <ele>129.5</ele>
        <time>2022-06-14T12:01:58Z</time>
      </trkpt>
      <trkpt lat="48.74681" lon="2.00936">
        <ele>130.3</ele>
        <time>2022-06-14T12:02:04Z</time>
      </trkpt>
      <trkpt lat="48.74684" lon="2.00923">
        <ele>131.1</ele>
        <time>2022-06-14T12:02:09Z</time>
      </trkpt>
      <trkpt lat="48.74685" lon="2.00911">
        <ele>131.4</ele>
        <time>2022-06-14T12:02:16Z</time>
      </trkpt>
      <trkpt lat="48.74685" lon="2.00901">
        <ele>131.4</ele>
        <time>2022-06-14T12:02:21Z</time>
      </trkpt>
      <trkpt lat="48.74685" lon="2.00889">
        <ele>131.4</ele>
        <time>2022-06-14T12:02:28Z</time>
      </trkpt>
      <trkpt lat="48.74683" lon="2.00877">
        <ele>131.2</ele>
        <time>2022-06-14T12:02:33Z</time>
      </trkpt>
      <trkpt lat="48.7468" lon="2.00868">
        <ele>130.8</ele>
        <time>2022-06-14T12:02:38Z</time>
      </trkpt>
      <trkpt lat="48.74673" lon="2.00864">
        <ele>129.8</ele>
        <time>2022-06-14T12:02:48Z</time>
      </trkpt>
      <trkpt lat="48.74669" lon="2.00857">
        <ele>129.3</ele>
        <time>2022-06-14T12:03:04Z</time>
      </trkpt>
      <trkpt lat="48.74669" lon="2.00847">
        <ele>129.3</ele>
        <time>2022-06-14T12:03:13Z</time>
      </trkpt>
      <trkpt lat="48.74666" lon="2.00837">
        <ele>129.1</ele>
        <time>2022-06-14T12:03:18Z</time>
      </trkpt>
      <trkpt lat="48.74665" lon="2.00823">
        <ele>129.2</ele>
        <time>2022-06-14T12:03:23Z</time>
      </trkpt>
      <trkpt lat="48.74664" lon="2.00812">
        <ele>129.3</ele>
        <time>2022-06-14T12:03:28Z</time>
      </trkpt>
      <trkpt lat="48.74666" lon="2.00803">
        <ele>129.1</ele>
        <time>2022-06-14T12:03:34Z</time>
      </trkpt>
      <trkpt lat="48.74668" lon="2.00792">
        <ele>129.1</ele>
        <time>2022-06-14T12:03:40Z</time>
      </trkpt>
      <trkpt lat="48.74673" lon="2.0078">
        <ele>129.6</ele>
        <time>2022-06-14T12:03:45Z</time>
      </trkpt>
      <trkpt lat="48.74678" lon="2.00772">
        <ele>130</ele>
        <time>2022-06-14T12:03:51Z</time>
      </trkpt>
      <trkpt lat="48.7468" lon="2.00762">
        <ele>130.1</ele>
        <time>2022-06-14T12:03:57Z</time>
      </trkpt>
      <trkpt lat="48.74685" lon="2.00755">
        <ele>130.4</ele>
        <time>2022-06-14T12:04:02Z</time>
      </trkpt>
      <trkpt lat="48.7469" lon="2.00746">
        <ele>130.9</ele>
        <time>2022-06-14T12:04:07Z</time>
      </trkpt>
      <trkpt lat="48.74694" lon="2.00737">
        <ele>131.7</ele>
        <time>2022-06-14T12:04:12Z</time>
      </trkpt>
      <trkpt lat="48.74701" lon="2.00731">
        <ele>132.3</ele>
        <time>2022-06-14T12:04:17Z</time>
      </trkpt>
      <trkpt lat="48.74709" lon="2.00723">
        <ele>133</ele>
        <time>2022-06-14T12:04:22Z</time>
      </trkpt>
      <trkpt lat="48.74711" lon="2.00713">
        <ele>133.4</ele>
        <time>2022-06-14T12:04:28Z</time>
      </trkpt>
      <trkpt lat="48.74717" lon="2.00704">
        <ele>133.8</ele>
        <time>2022-06-14T12:04:33Z</time>
      </trkpt>
      <trkpt lat="48.74721" lon="2.00695">
        <ele>134.1</ele>
        <time>2022-06-14T12:04:39Z</time>
      </trkpt>
      <trkpt lat="48.74727" lon="2.00691">
        <ele>134.2</ele>
        <time>2022-06-14T12:04:44Z</time>
      </trkpt>
      <trkpt lat="48.74731" lon="2.00679">
        <ele>134.3</ele>
        <time>2022-06-14T12:04:50Z</time>
      </trkpt>
      <trkpt lat="48.74732" lon="2.00669">
        <ele>134.4</ele>
        <time>2022-06-14T12:04:56Z</time>
      </trkpt>
      <trkpt lat="48.74722" lon="2.00674">
        <ele>134.5</ele>
        <time>2022-06-14T12:05:17Z</time>
      </trkpt>
      <trkpt lat="48.7472" lon="2.00665">
        <ele>134.8</ele>
        <time>2022-06-14T12:05:25Z</time>
      </trkpt>
      <trkpt lat="48.74725" lon="2.00653">
        <ele>135.1</ele>
        <time>2022-06-14T12:05:30Z</time>
      </trkpt>
      <trkpt lat="48.74728" lon="2.00643">
        <ele>135.3</ele>
        <time>2022-06-14T12:05:35Z</time>
      </trkpt>
      <trkpt lat="48.74728" lon="2.00632">
        <ele>135.7</ele>
        <time>2022-06-14T12:05:43Z</time>
      </trkpt>
      <trkpt lat="48.74734" lon="2.00635">
        <ele>135.4</ele>
        <time>2022-06-14T12:06:04Z</time>
      </trkpt>
      <trkpt lat="48.74739" lon="2.00641">
        <ele>135</ele>
        <time>2022-06-14T12:06:13Z</time>
      </trkpt>
      <trkpt lat="48.74742" lon="2.00632">
        <ele>135.1</ele>
        <time>2022-06-14T12:06:27Z</time>
      </trkpt>
      <trkpt lat="48.74746" lon="2.00622">
        <ele>135.2</ele>
        <time>2022-06-14T12:07:07Z</time>
      </trkpt>
      <trkpt lat="48.74748" lon="2.00608">
        <ele>135.5</ele>
        <time>2022-06-14T12:07:12Z</time>
      </trkpt>
      <trkpt lat="48.74751" lon="2.006">
        <ele>135.7</ele>
        <time>2022-06-14T12:07:17Z</time>
      </trkpt>
      <trkpt lat="48.74753" lon="2.00586">
        <ele>136.1</ele>
        <time>2022-06-14T12:07:22Z</time>
      </trkpt>
      <trkpt lat="48.74752" lon="2.00576">
        <ele>136.4</ele>
        <time>2022-06-14T12:07:28Z</time>
      </trkpt>
      <trkpt lat="48.7475" lon="2.00566">
        <ele>136.8</ele>
        <time>2022-06-14T12:07:33Z</time>
      </trkpt>
      <trkpt lat="48.74754" lon="2.00556">
        <ele>137.4</ele>
        <time>2022-06-14T12:07:40Z</time>
      </trkpt>
      <trkpt lat="48.74758" lon="2.00547">
        <ele>137.9</ele>
        <time>2022-06-14T12:07:45Z</time>
      </trkpt>
      <trkpt lat="48.74759" lon="2.00536">
        <ele>138.4</ele>
        <time>2022-06-14T12:07:52Z</time>
      </trkpt>
      <trkpt lat="48.74761" lon="2.00526">
        <ele>138.9</ele>
        <time>2022-06-14T12:07:58Z</time>
      </trkpt>
      <trkpt lat="48.74766" lon="2.00516">
        <ele>139.3</ele>
        <time>2022-06-14T12:08:05Z</time>
      </trkpt>
      <trkpt lat="48.74769" lon="2.00507">
        <ele>139.7</ele>
        <time>2022-06-14T12:08:10Z</time>
      </trkpt>
      <trkpt lat="48.74771" lon="2.00497">
        <ele>140</ele>
        <time>2022-06-14T12:08:15Z</time>
      </trkpt>
      <trkpt lat="48.74772" lon="2.00485">
        <ele>140.2</ele>
        <time>2022-06-14T12:08:20Z</time>
      </trkpt>
      <trkpt lat="48.74772" lon="2.00475">
        <ele>140.4</ele>
        <time>2022-06-14T12:08:28Z</time>
      </trkpt>
      <trkpt lat="48.74771" lon="2.00465">
        <ele>140.5</ele>
        <time>2022-06-14T12:08:34Z</time>
      </trkpt>
      <trkpt lat="48.74775" lon="2.00456">
        <ele>140.7</ele>
        <time>2022-06-14T12:08:39Z</time>
      </trkpt>
      <trkpt lat="48.74777" lon="2.00446">
        <ele>140.9</ele>
        <time>2022-06-14T12:08:46Z</time>
      </trkpt>
      <trkpt lat="48.74774" lon="2.00437">
        <ele>141</ele>
        <time>2022-06-14T12:08:53Z</time>
      </trkpt>
      <trkpt lat="48.74778" lon="2.00427">
        <ele>141.2</ele>
        <time>2022-06-14T12:09:01Z</time>
      </trkpt>
      <trkpt lat="48.74781" lon="2.00418">
        <ele>141.4</ele>
        <time>2022-06-14T12:09:09Z</time>
      </trkpt>
      <trkpt lat="48.7478" lon="2.00407">
        <ele>141.5</ele>
        <time>2022-06-14T12:09:15Z</time>
      </trkpt>
      <trkpt lat="48.7478" lon="2.00396">
        <ele>141.6</ele>
        <time>2022-06-14T12:09:20Z</time>
      </trkpt>
      <trkpt lat="48.74778" lon="2.00382">
        <ele>141.8</ele>
        <time>2022-06-14T12:09:25Z</time>
      </trkpt>
      <trkpt lat="48.74778" lon="2.00372">
        <ele>141.9</ele>
        <time>2022-06-14T12:09:31Z</time>
      </trkpt>
      <trkpt lat="48.74778" lon="2.0036">
        <ele>142</ele>
        <time>2022-06-14T12:09:39Z</time>
      </trkpt>
      <trkpt lat="48.74774" lon="2.00348">
        <ele>142</ele>
        <time>2022-06-14T12:09:44Z</time>
      </trkpt>
      <trkpt lat="48.74772" lon="2.00338">
        <ele>142</ele>
        <time>2022-06-14T12:09:49Z</time>
      </trkpt>
      <trkpt lat="48.74771" lon="2.00328">
        <ele>142</ele>
        <time>2022-06-14T12:09:54Z</time>
      </trkpt>
      <trkpt lat="48.74768" lon="2.00318">
        <ele>141.8</ele>
        <time>2022-06-14T12:10:00Z</time>
      </trkpt>
      <trkpt lat="48.74772" lon="2.00309">
        <ele>142.1</ele>
        <time>2022-06-14T12:10:07Z</time>
      </trkpt>
      <trkpt lat="48.74771" lon="2.00299">
        <ele>142</ele>
        <time>2022-06-14T12:10:14Z</time>
      </trkpt>
      <trkpt lat="48.74771" lon="2.00288">
        <ele>142</ele>
        <time>2022-06-14T12:10:26Z</time>
      </trkpt>
      <trkpt lat="48.74765" lon="2.00279">
        <ele>141.5</ele>
        <time>2022-06-14T12:10:32Z</time>
      </trkpt>
      <trkpt lat="48.74759" lon="2.00273">
        <ele>141</ele>
        <time>2022-06-14T12:10:37Z</time>
      </trkpt>
      <trkpt lat="48.74755" lon="2.00265">
        <ele>140.6</ele>
        <time>2022-06-14T12:10:43Z</time>
      </trkpt>
      <trkpt lat="48.74754" lon="2.00253">
        <ele>140.4</ele>
        <time>2022-06-14T12:10:51Z</time>
      </trkpt>
      <trkpt lat="48.74753" lon="2.00242">
        <ele>140.5</ele>
        <time>2022-06-14T12:10:57Z</time>
      </trkpt>
      <trkpt lat="48.74756" lon="2.00233">
        <ele>140.9</ele>
        <time>2022-06-14T12:11:03Z</time>
      </trkpt>
      <trkpt lat="48.74762" lon="2.00227">
        <ele>141.4</ele>
        <time>2022-06-14T12:11:11Z</time>
      </trkpt>
      <trkpt lat="48.74769" lon="2.00223">
        <ele>142</ele>
        <time>2022-06-14T12:11:23Z</time>
      </trkpt>
      <trkpt lat="48.74776" lon="2.00221">
        <ele>142.4</ele>
        <time>2022-06-14T12:11:31Z</time>
      </trkpt>
      <trkpt lat="48.74782" lon="2.00217">
        <ele>142.8</ele>
        <time>2022-06-14T12:11:42Z</time>
      </trkpt>
      <trkpt lat="48.74789" lon="2.00216">
        <ele>143.2</ele>
        <time>2022-06-14T12:11:51Z</time>
      </trkpt>
      <trkpt lat="48.74796" lon="2.00218">
        <ele>143.7</ele>
        <time>2022-06-14T12:12:01Z</time>
      </trkpt>
      <trkpt lat="48.74803" lon="2.00217">
        <ele>144.1</ele>
        <time>2022-06-14T12:12:20Z</time>
      </trkpt>
      <trkpt lat="48.74809" lon="2.00214">
        <ele>144.4</ele>
        <time>2022-06-14T12:12:28Z</time>
      </trkpt>
      <trkpt lat="48.74815" lon="2.00208">
        <ele>144.5</ele>
        <time>2022-06-14T12:12:33Z</time>
      </trkpt>
      <trkpt lat="48.74817" lon="2.00197">
        <ele>144.1</ele>
        <time>2022-06-14T12:12:38Z</time>
      </trkpt>
      <trkpt lat="48.7482" lon="2.00188">
        <ele>143.8</ele>
        <time>2022-06-14T12:12:44Z</time>
      </trkpt>
      <trkpt lat="48.74825" lon="2.0018">
        <ele>143.6</ele>
        <time>2022-06-14T12:12:49Z</time>
      </trkpt>
      <trkpt lat="48.74829" lon="2.00171">
        <ele>143.2</ele>
        <time>2022-06-14T12:12:54Z</time>
      </trkpt>
      <trkpt lat="48.74835" lon="2.00162">
        <ele>143.2</ele>
        <time>2022-06-14T12:13:00Z</time>
      </trkpt>
      <trkpt lat="48.74837" lon="2.00152">
        <ele>143.3</ele>
        <time>2022-06-14T12:13:06Z</time>
      </trkpt>
      <trkpt lat="48.74839" lon="2.00141">
        <ele>143.4</ele>
        <time>2022-06-14T12:13:12Z</time>
      </trkpt>
      <trkpt lat="48.74841" lon="2.0013">
        <ele>143.4</ele>
        <time>2022-06-14T12:13:18Z</time>
      </trkpt>
      <trkpt lat="48.74845" lon="2.00121">
        <ele>143.9</ele>
        <time>2022-06-14T12:13:24Z</time>
      </trkpt>
      <trkpt lat="48.74848" lon="2.00112">
        <ele>144.2</ele>
        <time>2022-06-14T12:13:31Z</time>
      </trkpt>
      <trkpt lat="48.74854" lon="2.00108">
        <ele>145.3</ele>
        <time>2022-06-14T12:13:44Z</time>
      </trkpt>
      <trkpt lat="48.74861" lon="2.00112">
        <ele>147</ele>
        <time>2022-06-14T12:13:53Z</time>
      </trkpt>
      <trkpt lat="48.74868" lon="2.00106">
        <ele>148.2</ele>
        <time>2022-06-14T12:14:01Z</time>
      </trkpt>
      <trkpt lat="48.7487" lon="2.00096">
        <ele>148.1</ele>
        <time>2022-06-14T12:14:07Z</time>
      </trkpt>
      <trkpt lat="48.74875" lon="2.00087">
        <ele>148.7</ele>
        <time>2022-06-14T12:14:12Z</time>
      </trkpt>
      <trkpt lat="48.74878" lon="2.00076">
        <ele>148.8</ele>
        <time>2022-06-14T12:14:17Z</time>
      </trkpt>
      <trkpt lat="48.74883" lon="2.00069">
        <ele>149.4</ele>
        <time>2022-06-14T12:14:29Z</time>
      </trkpt>
      <trkpt lat="48.7488" lon="2.0006">
        <ele>148.5</ele>
        <time>2022-06-14T12:14:42Z</time>
      </trkpt>
      <trkpt lat="48.7488" lon="2.00048">
        <ele>147.9</ele>
        <time>2022-06-14T12:14:48Z</time>
      </trkpt>
      <trkpt lat="48.74882" lon="2.00038">
        <ele>147.8</ele>
        <time>2022-06-14T12:14:53Z</time>
      </trkpt>
      <trkpt lat="48.74884" lon="2.00028">
        <ele>147.7</ele>
        <time>2022-06-14T12:14:58Z</time>
      </trkpt>
      <trkpt lat="48.74882" lon="2.00017">
        <ele>146.8</ele>
        <time>2022-06-14T12:15:04Z</time>
      </trkpt>
      <trkpt lat="48.74883" lon="2.00007">
        <ele>146.5</ele>
        <time>2022-06-14T12:15:10Z</time>
      </trkpt>
      <trkpt lat="48.74882" lon="1.99996">
        <ele>146</ele>
        <time>2022-06-14T12:15:16Z</time>
      </trkpt>
      <trkpt lat="48.74885" lon="1.99988">
        <ele>146.4</ele>
        <time>2022-06-14T12:15:22Z</time>
      </trkpt>
      <trkpt lat="48.74887" lon="1.99977">
        <ele>146.6</ele>
        <time>2022-06-14T12:15:29Z</time>
      </trkpt>
      <trkpt lat="48.74888" lon="1.99965">
        <ele>146.6</ele>
        <time>2022-06-14T12:15:36Z</time>
      </trkpt>
      <trkpt lat="48.74889" lon="1.99954">
        <ele>146.6</ele>
        <time>2022-06-14T12:15:42Z</time>
      </trkpt>
      <trkpt lat="48.74893" lon="1.99947">
        <ele>147</ele>
        <time>2022-06-14T12:15:48Z</time>
      </trkpt>
      <trkpt lat="48.74896" lon="1.99937">
        <ele>147.3</ele>
        <time>2022-06-14T12:15:53Z</time>
      </trkpt>
      <trkpt lat="48.74896" lon="1.99926">
        <ele>147.1</ele>
        <time>2022-06-14T12:15:58Z</time>
      </trkpt>
      <trkpt lat="48.74896" lon="1.99915">
        <ele>147</ele>
        <time>2022-06-14T12:16:03Z</time>
      </trkpt>
      <trkpt lat="48.74893" lon="1.99905">
        <ele>146.8</ele>
        <time>2022-06-14T12:16:11Z</time>
      </trkpt>
      <trkpt lat="48.74889" lon="1.99896">
        <ele>146.5</ele>
        <time>2022-06-14T12:16:25Z</time>
      </trkpt>
      <trkpt lat="48.74884" lon="1.99889">
        <ele>146.1</ele>
        <time>2022-06-14T12:16:33Z</time>
      </trkpt>
      <trkpt lat="48.74879" lon="1.99882">
        <ele>145.8</ele>
        <time>2022-06-14T12:16:40Z</time>
      </trkpt>
      <trkpt lat="48.74877" lon="1.99872">
        <ele>145.7</ele>
        <time>2022-06-14T12:16:45Z</time>
      </trkpt>
      <trkpt lat="48.74873" lon="1.99857">
        <ele>145.6</ele>
        <time>2022-06-14T12:16:50Z</time>
      </trkpt>
      <trkpt lat="48.74875" lon="1.99845">
        <ele>145.9</ele>
        <time>2022-06-14T12:16:55Z</time>
      </trkpt>
      <trkpt lat="48.74873" lon="1.99834">
        <ele>145.8</ele>
        <time>2022-06-14T12:17:00Z</time>
      </trkpt>
      <trkpt lat="48.74869" lon="1.99826">
        <ele>145.9</ele>
        <time>2022-06-14T12:17:08Z</time>
      </trkpt>
      <trkpt lat="48.74865" lon="1.99818">
        <ele>145.9</ele>
        <time>2022-06-14T12:17:29Z</time>
      </trkpt>
      <trkpt lat="48.74863" lon="1.99807">
        <ele>146.3</ele>
        <time>2022-06-14T12:17:34Z</time>
      </trkpt>
      <trkpt lat="48.74863" lon="1.99797">
        <ele>146.7</ele>
        <time>2022-06-14T12:17:41Z</time>
      </trkpt>
      <trkpt lat="48.74863" lon="1.99787">
        <ele>147.2</ele>
        <time>2022-06-14T12:17:46Z</time>
      </trkpt>
      <trkpt lat="48.74863" lon="1.99776">
        <ele>147.6</ele>
        <time>2022-06-14T12:17:51Z</time>
      </trkpt>
      <trkpt lat="48.74863" lon="1.99765">
        <ele>148.1</ele>
        <time>2022-06-14T12:17:56Z</time>
      </trkpt>
      <trkpt lat="48.74861" lon="1.99754">
        <ele>148.5</ele>
        <time>2022-06-14T12:18:01Z</time>
      </trkpt>
      <trkpt lat="48.74859" lon="1.99744">
        <ele>148.6</ele>
        <time>2022-06-14T12:18:06Z</time>
      </trkpt>
      <trkpt lat="48.74857" lon="1.99732">
        <ele>148.5</ele>
        <time>2022-06-14T12:18:12Z</time>
      </trkpt>
      <trkpt lat="48.74855" lon="1.99722">
        <ele>148.4</ele>
        <time>2022-06-14T12:18:17Z</time>
      </trkpt>
      <trkpt lat="48.74853" lon="1.99711">
        <ele>148.3</ele>
        <time>2022-06-14T12:18:23Z</time>
      </trkpt>
      <trkpt lat="48.7485" lon="1.997">
        <ele>148.1</ele>
        <time>2022-06-14T12:18:29Z</time>
      </trkpt>
      <trkpt lat="48.74849" lon="1.9969">
        <ele>148.1</ele>
        <time>2022-06-14T12:18:34Z</time>
      </trkpt>
      <trkpt lat="48.74849" lon="1.99677">
        <ele>148.1</ele>
        <time>2022-06-14T12:18:39Z</time>
      </trkpt>
      <trkpt lat="48.7485" lon="1.99667">
        <ele>148.2</ele>
        <time>2022-06-14T12:18:45Z</time>
      </trkpt>
      <trkpt lat="48.7485" lon="1.99657">
        <ele>148.5</ele>
        <time>2022-06-14T12:18:50Z</time>
      </trkpt>
      <trkpt lat="48.74851" lon="1.99646">
        <ele>148.8</ele>
        <time>2022-06-14T12:18:57Z</time>
      </trkpt>
      <trkpt lat="48.74854" lon="1.99636">
        <ele>149.2</ele>
        <time>2022-06-14T12:19:04Z</time>
      </trkpt>
      <trkpt lat="48.74856" lon="1.99625">
        <ele>149.5</ele>
        <time>2022-06-14T12:19:09Z</time>
      </trkpt>
      <trkpt lat="48.7486" lon="1.99617">
        <ele>149.8</ele>
        <time>2022-06-14T12:19:14Z</time>
      </trkpt>
      <trkpt lat="48.74864" lon="1.99606">
        <ele>150</ele>
        <time>2022-06-14T12:19:19Z</time>
      </trkpt>
      <trkpt lat="48.74864" lon="1.99595">
        <ele>150.1</ele>
        <time>2022-06-14T12:19:25Z</time>
      </trkpt>
      <trkpt lat="48.74869" lon="1.99587">
        <ele>150.1</ele>
        <time>2022-06-14T12:19:33Z</time>
      </trkpt>
      <trkpt lat="48.74874" lon="1.99579">
        <ele>150.3</ele>
        <time>2022-06-14T12:19:38Z</time>
      </trkpt>
      <trkpt lat="48.74879" lon="1.99568">
        <ele>150.7</ele>
        <time>2022-06-14T12:19:43Z</time>
      </trkpt>
      <trkpt lat="48.74882" lon="1.99559">
        <ele>151</ele>
        <time>2022-06-14T12:19:49Z</time>
      </trkpt>
      <trkpt lat="48.74887" lon="1.99552">
        <ele>151.1</ele>
        <time>2022-06-14T12:19:56Z</time>
      </trkpt>
      <trkpt lat="48.74888" lon="1.99541">
        <ele>151.6</ele>
        <time>2022-06-14T12:20:02Z</time>
      </trkpt>
      <trkpt lat="48.74884" lon="1.99531">
        <ele>152.3</ele>
        <time>2022-06-14T12:20:07Z</time>
      </trkpt>
      <trkpt lat="48.7488" lon="1.99522">
        <ele>153</ele>
        <time>2022-06-14T12:20:12Z</time>
      </trkpt>
      <trkpt lat="48.74877" lon="1.99513">
        <ele>153.6</ele>
        <time>2022-06-14T12:20:26Z</time>
      </trkpt>
      <trkpt lat="48.7487" lon="1.99512">
        <ele>154.2</ele>
        <time>2022-06-14T12:20:42Z</time>
      </trkpt>
      <trkpt lat="48.74869" lon="1.99502">
        <ele>154.9</ele>
        <time>2022-06-14T12:20:52Z</time>
      </trkpt>
      <trkpt lat="48.74873" lon="1.99493">
        <ele>154.6</ele>
        <time>2022-06-14T12:21:08Z</time>
      </trkpt>
      <trkpt lat="48.74866" lon="1.99488">
        <ele>155.2</ele>
        <time>2022-06-14T12:21:25Z</time>
      </trkpt>
      <trkpt lat="48.74861" lon="1.9948">
        <ele>155.5</ele>
        <time>2022-06-14T12:21:30Z</time>
      </trkpt>
      <trkpt lat="48.74858" lon="1.99471">
        <ele>155.7</ele>
        <time>2022-06-14T12:21:37Z</time>
      </trkpt>
      <trkpt lat="48.74858" lon="1.99461">
        <ele>155.6</ele>
        <time>2022-06-14T12:21:42Z</time>
      </trkpt>
      <trkpt lat="48.74859" lon="1.99449">
        <ele>155.4</ele>
        <time>2022-06-14T12:21:48Z</time>
      </trkpt>
      <trkpt lat="48.74862" lon="1.99439">
        <ele>155.1</ele>
        <time>2022-06-14T12:21:54Z</time>
      </trkpt>
      <trkpt lat="48.74865" lon="1.99429">
        <ele>154.8</ele>
        <time>2022-06-14T12:22:05Z</time>
      </trkpt>
      <trkpt lat="48.7487" lon="1.9942">
        <ele>154.4</ele>
        <time>2022-06-14T12:22:11Z</time>
      </trkpt>
      <trkpt lat="48.74876" lon="1.99412">
        <ele>154</ele>
        <time>2022-06-14T12:22:18Z</time>
      </trkpt>
      <trkpt lat="48.74883" lon="1.99408">
        <ele>153.6</ele>
        <time>2022-06-14T12:22:25Z</time>
      </trkpt>
      <trkpt lat="48.74889" lon="1.99407">
        <ele>153.2</ele>
        <time>2022-06-14T12:22:30Z</time>
      </trkpt>
      <trkpt lat="48.74894" lon="1.99399">
        <ele>153</ele>
        <time>2022-06-14T12:22:35Z</time>
      </trkpt>
      <trkpt lat="48.74902" lon="1.99399">
        <ele>152.4</ele>
        <time>2022-06-14T12:22:43Z</time>
      </trkpt>
      <trkpt lat="48.74909" lon="1.99403">
        <ele>151.9</ele>
        <time>2022-06-14T12:22:48Z</time>
      </trkpt>
      <trkpt lat="48.74913" lon="1.99412">
        <ele>151.4</ele>
        <time>2022-06-14T12:22:54Z</time>
      </trkpt>
      <trkpt lat="48.74918" lon="1.99418">
        <ele>151.3</ele>
        <time>2022-06-14T12:22:59Z</time>
      </trkpt>
      <trkpt lat="48.74924" lon="1.99427">
        <ele>152.6</ele>
        <time>2022-06-14T12:23:05Z</time>
      </trkpt>
      <trkpt lat="48.74928" lon="1.99435">
        <ele>153.5</ele>
        <time>2022-06-14T12:23:10Z</time>
      </trkpt>
      <trkpt lat="48.74934" lon="1.99441">
        <ele>154.8</ele>
        <time>2022-06-14T12:23:15Z</time>
      </trkpt>
      <trkpt lat="48.74941" lon="1.99448">
        <ele>156.2</ele>
        <time>2022-06-14T12:23:21Z</time>
      </trkpt>
      <trkpt lat="48.74947" lon="1.99453">
        <ele>157.4</ele>
        <time>2022-06-14T12:23:26Z</time>
      </trkpt>
      <trkpt lat="48.74953" lon="1.99459">
        <ele>158.6</ele>
        <time>2022-06-14T12:23:31Z</time>
      </trkpt>
      <trkpt lat="48.74961" lon="1.99462">
        <ele>160.2</ele>
        <time>2022-06-14T12:23:38Z</time>
      </trkpt>
      <trkpt lat="48.74966" lon="1.99468">
        <ele>161.2</ele>
        <time>2022-06-14T12:23:43Z</time>
      </trkpt>
      <trkpt lat="48.74973" lon="1.99471">
        <ele>162.5</ele>
        <time>2022-06-14T12:23:48Z</time>
      </trkpt>
      <trkpt lat="48.7498" lon="1.99476">
        <ele>163.8</ele>
        <time>2022-06-14T12:23:53Z</time>
      </trkpt>
      <trkpt lat="48.74988" lon="1.99479">
        <ele>165.3</ele>
        <time>2022-06-14T12:23:58Z</time>
      </trkpt>
      <trkpt lat="48.74997" lon="1.99484">
        <ele>167</ele>
        <time>2022-06-14T12:24:03Z</time>
      </trkpt>
      <trkpt lat="48.75005" lon="1.99486">
        <ele>167.9</ele>
        <time>2022-06-14T12:24:08Z</time>
      </trkpt>
      <trkpt lat="48.75012" lon="1.99491">
        <ele>168.2</ele>
        <time>2022-06-14T12:24:14Z</time>
      </trkpt>
      <trkpt lat="48.75019" lon="1.99495">
        <ele>168.5</ele>
        <time>2022-06-14T12:24:19Z</time>
      </trkpt>
      <trkpt lat="48.75025" lon="1.995">
        <ele>168.8</ele>
        <time>2022-06-14T12:24:24Z</time>
      </trkpt>
      <trkpt lat="48.75032" lon="1.99504">
        <ele>169.3</ele>
        <time>2022-06-14T12:24:30Z</time>
      </trkpt>
      <trkpt lat="48.75039" lon="1.99506">
        <ele>169.8</ele>
        <time>2022-06-14T12:24:35Z</time>
      </trkpt>
      <trkpt lat="48.75046" lon="1.9951">
        <ele>170.3</ele>
        <time>2022-06-14T12:24:40Z</time>
      </trkpt>
      <trkpt lat="48.75053" lon="1.99515">
        <ele>170.9</ele>
        <time>2022-06-14T12:24:45Z</time>
      </trkpt>
      <trkpt lat="48.75059" lon="1.9952">
        <ele>171.3</ele>
        <time>2022-06-14T12:24:50Z</time>
      </trkpt>
      <trkpt lat="48.75066" lon="1.99525">
        <ele>171.9</ele>
        <time>2022-06-14T12:24:56Z</time>
      </trkpt>
      <trkpt lat="48.75074" lon="1.99526">
        <ele>172.6</ele>
        <time>2022-06-14T12:25:02Z</time>
      </trkpt>
      <trkpt lat="48.75081" lon="1.99531">
        <ele>173.2</ele>
        <time>2022-06-14T12:25:08Z</time>
      </trkpt>
      <trkpt lat="48.75088" lon="1.99536">
        <ele>173.6</ele>
        <time>2022-06-14T12:25:13Z</time>
      </trkpt>
      <trkpt lat="48.75094" lon="1.9954">
        <ele>173.8</ele>
        <time>2022-06-14T12:25:18Z</time>
      </trkpt>
      <trkpt lat="48.751" lon="1.99544">
        <ele>174</ele>
        <time>2022-06-14T12:25:23Z</time>
      </trkpt>
      <trkpt lat="48.75105" lon="1.9955">
        <ele>174.2</ele>
        <time>2022-06-14T12:25:28Z</time>
      </trkpt>
      <trkpt lat="48.75112" lon="1.99554">
        <ele>174.5</ele>
        <time>2022-06-14T12:25:33Z</time>
      </trkpt>
      <trkpt lat="48.75119" lon="1.99559">
        <ele>174.7</ele>
        <time>2022-06-14T12:25:38Z</time>
      </trkpt>
      <trkpt lat="48.75124" lon="1.99569">
        <ele>174.9</ele>
        <time>2022-06-14T12:25:56Z</time>
      </trkpt>
      <trkpt lat="48.75129" lon="1.99577">
        <ele>175.1</ele>
        <time>2022-06-14T12:26:03Z</time>
      </trkpt>
      <trkpt lat="48.75136" lon="1.99582">
        <ele>175.3</ele>
        <time>2022-06-14T12:26:08Z</time>
      </trkpt>
      <trkpt lat="48.75141" lon="1.99594">
        <ele>175.5</ele>
        <time>2022-06-14T12:26:13Z</time>
      </trkpt>
      <trkpt lat="48.75144" lon="1.99605">
        <ele>175.6</ele>
        <time>2022-06-14T12:26:18Z</time>
      </trkpt>
      <trkpt lat="48.75147" lon="1.99616">
        <ele>175.8</ele>
        <time>2022-06-14T12:26:23Z</time>
      </trkpt>
      <trkpt lat="48.75153" lon="1.99628">
        <ele>176.1</ele>
        <time>2022-06-14T12:26:28Z</time>
      </trkpt>
      <trkpt lat="48.75156" lon="1.99637">
        <ele>176.3</ele>
        <time>2022-06-14T12:26:33Z</time>
      </trkpt>
      <trkpt lat="48.75158" lon="1.99648">
        <ele>176.5</ele>
        <time>2022-06-14T12:26:38Z</time>
      </trkpt>
      <trkpt lat="48.75161" lon="1.99659">
        <ele>176.7</ele>
        <time>2022-06-14T12:26:43Z</time>
      </trkpt>
      <trkpt lat="48.75163" lon="1.9967">
        <ele>176.8</ele>
        <time>2022-06-14T12:26:49Z</time>
      </trkpt>
      <trkpt lat="48.75168" lon="1.99682">
        <ele>176.8</ele>
        <time>2022-06-14T12:26:54Z</time>
      </trkpt>
      <trkpt lat="48.75173" lon="1.99689">
        <ele>176.8</ele>
        <time>2022-06-14T12:26:59Z</time>
      </trkpt>
      <trkpt lat="48.75177" lon="1.99699">
        <ele>176.7</ele>
        <time>2022-06-14T12:27:22Z</time>
      </trkpt>
      <trkpt lat="48.75181" lon="1.9971">
        <ele>176.6</ele>
        <time>2022-06-14T12:27:27Z</time>
      </trkpt>
      <trkpt lat="48.75185" lon="1.9972">
        <ele>176.5</ele>
        <time>2022-06-14T12:27:32Z</time>
      </trkpt>
      <trkpt lat="48.7519" lon="1.99729">
        <ele>176.5</ele>
        <time>2022-06-14T12:27:37Z</time>
      </trkpt>
      <trkpt lat="48.75193" lon="1.99739">
        <ele>176.4</ele>
        <time>2022-06-14T12:27:42Z</time>
      </trkpt>
      <trkpt lat="48.75195" lon="1.99751">
        <ele>176.3</ele>
        <time>2022-06-14T12:27:47Z</time>
      </trkpt>
      <trkpt lat="48.75198" lon="1.99762">
        <ele>176.1</ele>
        <time>2022-06-14T12:27:53Z</time>
      </trkpt>
      <trkpt lat="48.75204" lon="1.99773">
        <ele>175.8</ele>
        <time>2022-06-14T12:27:58Z</time>
      </trkpt>
      <trkpt lat="48.75208" lon="1.99784">
        <ele>175.5</ele>
        <time>2022-06-14T12:28:03Z</time>
      </trkpt>
      <trkpt lat="48.75212" lon="1.99794">
        <ele>175.2</ele>
        <time>2022-06-14T12:28:08Z</time>
      </trkpt>
      <trkpt lat="48.75214" lon="1.99805">
        <ele>174.8</ele>
        <time>2022-06-14T12:28:13Z</time>
      </trkpt>
      <trkpt lat="48.75219" lon="1.99815">
        <ele>174.4</ele>
        <time>2022-06-14T12:28:18Z</time>
      </trkpt>
      <trkpt lat="48.75222" lon="1.99826">
        <ele>173.9</ele>
        <time>2022-06-14T12:28:24Z</time>
      </trkpt>
      <trkpt lat="48.75225" lon="1.99838">
        <ele>173.5</ele>
        <time>2022-06-14T12:28:29Z</time>
      </trkpt>
      <trkpt lat="48.75228" lon="1.9985">
        <ele>173.2</ele>
        <time>2022-06-14T12:28:34Z</time>
      </trkpt>
      <trkpt lat="48.75232" lon="1.99863">
        <ele>172.8</ele>
        <time>2022-06-14T12:28:39Z</time>
      </trkpt>
      <trkpt lat="48.75235" lon="1.99873">
        <ele>172.5</ele>
        <time>2022-06-14T12:28:44Z</time>
      </trkpt>
      <trkpt lat="48.7524" lon="1.99881">
        <ele>172.2</ele>
        <time>2022-06-14T12:28:51Z</time>
      </trkpt>
      <trkpt lat="48.75246" lon="1.99888">
        <ele>171.8</ele>
        <time>2022-06-14T12:29:01Z</time>
      </trkpt>
      <trkpt lat="48.75249" lon="1.99901">
        <ele>171.4</ele>
        <time>2022-06-14T12:29:06Z</time>
      </trkpt>
      <trkpt lat="48.75252" lon="1.99911">
        <ele>171.2</ele>
        <time>2022-06-14T12:29:11Z</time>
      </trkpt>
      <trkpt lat="48.75254" lon="1.99921">
        <ele>171.1</ele>
        <time>2022-06-14T12:29:16Z</time>
      </trkpt>
      <trkpt lat="48.75257" lon="1.99929">
        <ele>171.2</ele>
        <time>2022-06-14T12:29:29Z</time>
      </trkpt>
      <trkpt lat="48.75259" lon="1.99939">
        <ele>171.2</ele>
        <time>2022-06-14T12:29:36Z</time>
      </trkpt>
      <trkpt lat="48.75264" lon="1.99948">
        <ele>171.4</ele>
        <time>2022-06-14T12:29:41Z</time>
      </trkpt>
      <trkpt lat="48.75269" lon="1.99955">
        <ele>171.6</ele>
        <time>2022-06-14T12:29:46Z</time>
      </trkpt>
      <trkpt lat="48.75274" lon="1.99965">
        <ele>171.7</ele>
        <time>2022-06-14T12:29:51Z</time>
      </trkpt>
      <trkpt lat="48.75276" lon="1.99975">
        <ele>171.8</ele>
        <time>2022-06-14T12:29:57Z</time>
      </trkpt>
      <trkpt lat="48.75279" lon="1.99989">
        <ele>172</ele>
        <time>2022-06-14T12:30:02Z</time>
      </trkpt>
      <trkpt lat="48.75285" lon="1.99984">
        <ele>172.2</ele>
        <time>2022-06-14T12:30:19Z</time>
      </trkpt>
      <trkpt lat="48.75291" lon="1.99989">
        <ele>172.4</ele>
        <time>2022-06-14T12:30:28Z</time>
      </trkpt>
      <trkpt lat="48.75294" lon="1.99998">
        <ele>172.6</ele>
        <time>2022-06-14T12:30:33Z</time>
      </trkpt>
      <trkpt lat="48.75294" lon="2.00009">
        <ele>172.6</ele>
        <time>2022-06-14T12:30:38Z</time>
      </trkpt>
      <trkpt lat="48.75296" lon="2.00025">
        <ele>172.6</ele>
        <time>2022-06-14T12:30:43Z</time>
      </trkpt>
      <trkpt lat="48.75299" lon="2.00035">
        <ele>172.7</ele>
        <time>2022-06-14T12:30:48Z</time>
      </trkpt>
      <trkpt lat="48.75302" lon="2.00044">
        <ele>172.7</ele>
        <time>2022-06-14T12:30:54Z</time>
      </trkpt>
      <trkpt lat="48.75306" lon="2.00055">
        <ele>172.8</ele>
        <time>2022-06-14T12:30:59Z</time>
      </trkpt>
      <trkpt lat="48.75309" lon="2.00067">
        <ele>172.8</ele>
        <time>2022-06-14T12:31:04Z</time>
      </trkpt>
      <trkpt lat="48.75311" lon="2.00078">
        <ele>172.8</ele>
        <time>2022-06-14T12:31:09Z</time>
      </trkpt>
      <trkpt lat="48.75315" lon="2.00087">
        <ele>172.8</ele>
        <time>2022-06-14T12:31:14Z</time>
      </trkpt>
      <trkpt lat="48.75318" lon="2.00098">
        <ele>173.1</ele>
        <time>2022-06-14T12:31:19Z</time>
      </trkpt>
      <trkpt lat="48.75319" lon="2.0011">
        <ele>173.3</ele>
        <time>2022-06-14T12:31:24Z</time>
      </trkpt>
      <trkpt lat="48.75323" lon="2.00119">
        <ele>173.4</ele>
        <time>2022-06-14T12:31:29Z</time>
      </trkpt>
      <trkpt lat="48.75325" lon="2.00129">
        <ele>173.6</ele>
        <time>2022-06-14T12:31:34Z</time>
      </trkpt>
      <trkpt lat="48.75332" lon="2.00137">
        <ele>173.6</ele>
        <time>2022-06-14T12:31:39Z</time>
      </trkpt>
      <trkpt lat="48.75335" lon="2.00148">
        <ele>173.8</ele>
        <time>2022-06-14T12:31:44Z</time>
      </trkpt>
      <trkpt lat="48.75339" lon="2.00157">
        <ele>173.8</ele>
        <time>2022-06-14T12:31:49Z</time>
      </trkpt>
      <trkpt lat="48.75345" lon="2.00166">
        <ele>173.9</ele>
        <time>2022-06-14T12:31:54Z</time>
      </trkpt>
      <trkpt lat="48.75349" lon="2.00177">
        <ele>174</ele>
        <time>2022-06-14T12:31:59Z</time>
      </trkpt>
      <trkpt lat="48.7535" lon="2.0019">
        <ele>174.3</ele>
        <time>2022-06-14T12:32:04Z</time>
      </trkpt>
      <trkpt lat="48.75353" lon="2.002">
        <ele>174.5</ele>
        <time>2022-06-14T12:32:09Z</time>
      </trkpt>
      <trkpt lat="48.75357" lon="2.00209">
        <ele>174.6</ele>
        <time>2022-06-14T12:32:14Z</time>
      </trkpt>
      <trkpt lat="48.75362" lon="2.00221">
        <ele>174.7</ele>
        <time>2022-06-14T12:32:19Z</time>
      </trkpt>
      <trkpt lat="48.75368" lon="2.00229">
        <ele>174.8</ele>
        <time>2022-06-14T12:32:24Z</time>
      </trkpt>
      <trkpt lat="48.75371" lon="2.00239">
        <ele>174.9</ele>
        <time>2022-06-14T12:32:30Z</time>
      </trkpt>
      <trkpt lat="48.75374" lon="2.00249">
        <ele>175</ele>
        <time>2022-06-14T12:32:35Z</time>
      </trkpt>
      <trkpt lat="48.75376" lon="2.00261">
        <ele>174.6</ele>
        <time>2022-06-14T12:32:41Z</time>
      </trkpt>
      <trkpt lat="48.75379" lon="2.0027">
        <ele>174.3</ele>
        <time>2022-06-14T12:32:46Z</time>
      </trkpt>
      <trkpt lat="48.75383" lon="2.0028">
        <ele>173.9</ele>
        <time>2022-06-14T12:32:51Z</time>
      </trkpt>
      <trkpt lat="48.75387" lon="2.00291">
        <ele>173.6</ele>
        <time>2022-06-14T12:32:56Z</time>
      </trkpt>
      <trkpt lat="48.7539" lon="2.003">
        <ele>173.2</ele>
        <time>2022-06-14T12:33:01Z</time>
      </trkpt>
      <trkpt lat="48.75393" lon="2.0031">
        <ele>172.9</ele>
        <time>2022-06-14T12:33:06Z</time>
      </trkpt>
      <trkpt lat="48.75398" lon="2.0032">
        <ele>172.6</ele>
        <time>2022-06-14T12:33:11Z</time>
      </trkpt>
      <trkpt lat="48.75403" lon="2.0033">
        <ele>172.3</ele>
        <time>2022-06-14T12:33:16Z</time>
      </trkpt>
      <trkpt lat="48.75408" lon="2.00339">
        <ele>172.2</ele>
        <time>2022-06-14T12:33:21Z</time>
      </trkpt>
      <trkpt lat="48.75411" lon="2.0035">
        <ele>172.2</ele>
        <time>2022-06-14T12:33:26Z</time>
      </trkpt>
      <trkpt lat="48.75414" lon="2.00361">
        <ele>172.3</ele>
        <time>2022-06-14T12:33:31Z</time>
      </trkpt>
      <trkpt lat="48.75419" lon="2.00372">
        <ele>172.5</ele>
        <time>2022-06-14T12:33:36Z</time>
      </trkpt>
      <trkpt lat="48.75423" lon="2.00381">
        <ele>172.7</ele>
        <time>2022-06-14T12:33:41Z</time>
      </trkpt>
      <trkpt lat="48.75427" lon="2.00394">
        <ele>173</ele>
        <time>2022-06-14T12:33:46Z</time>
      </trkpt>
      <trkpt lat="48.75431" lon="2.00407">
        <ele>173.2</ele>
        <time>2022-06-14T12:33:51Z</time>
      </trkpt>
      <trkpt lat="48.75435" lon="2.00418">
        <ele>173.5</ele>
        <time>2022-06-14T12:33:56Z</time>
      </trkpt>
      <trkpt lat="48.7544" lon="2.00426">
        <ele>173.9</ele>
        <time>2022-06-14T12:34:01Z</time>
      </trkpt>
      <trkpt lat="48.75445" lon="2.00436">
        <ele>174.5</ele>
        <time>2022-06-14T12:34:06Z</time>
      </trkpt>
      <trkpt lat="48.75448" lon="2.00448">
        <ele>175</ele>
        <time>2022-06-14T12:34:11Z</time>
      </trkpt>
      <trkpt lat="48.75453" lon="2.0046">
        <ele>175.5</ele>
        <time>2022-06-14T12:34:16Z</time>
      </trkpt>
      <trkpt lat="48.75455" lon="2.00471">
        <ele>175.9</ele>
        <time>2022-06-14T12:34:22Z</time>
      </trkpt>
      <trkpt lat="48.7546" lon="2.00482">
        <ele>176.4</ele>
        <time>2022-06-14T12:34:27Z</time>
      </trkpt>
      <trkpt lat="48.75464" lon="2.00493">
        <ele>176.8</ele>
        <time>2022-06-14T12:34:32Z</time>
      </trkpt>
      <trkpt lat="48.7547" lon="2.00504">
        <ele>177.1</ele>
        <time>2022-06-14T12:34:37Z</time>
      </trkpt>
      <trkpt lat="48.75474" lon="2.00513">
        <ele>177.3</ele>
        <time>2022-06-14T12:34:42Z</time>
      </trkpt>
      <trkpt lat="48.75479" lon="2.00521">
        <ele>177.5</ele>
        <time>2022-06-14T12:34:47Z</time>
      </trkpt>
      <trkpt lat="48.75484" lon="2.00531">
        <ele>177.7</ele>
        <time>2022-06-14T12:34:52Z</time>
      </trkpt>
      <trkpt lat="48.75487" lon="2.00542">
        <ele>178</ele>
        <time>2022-06-14T12:34:57Z</time>
      </trkpt>
      <trkpt lat="48.75491" lon="2.00553">
        <ele>178.3</ele>
        <time>2022-06-14T12:35:02Z</time>
      </trkpt>
      <trkpt lat="48.75493" lon="2.00565">
        <ele>178.6</ele>
        <time>2022-06-14T12:35:07Z</time>
      </trkpt>
      <trkpt lat="48.75495" lon="2.00576">
        <ele>178.8</ele>
        <time>2022-06-14T12:35:12Z</time>
      </trkpt>
      <trkpt lat="48.75499" lon="2.00587">
        <ele>179</ele>
        <time>2022-06-14T12:35:17Z</time>
      </trkpt>
      <trkpt lat="48.75504" lon="2.00596">
        <ele>178.8</ele>
        <time>2022-06-14T12:35:22Z</time>
      </trkpt>
      <trkpt lat="48.75505" lon="2.00606">
        <ele>178.8</ele>
        <time>2022-06-14T12:35:27Z</time>
      </trkpt>
      <trkpt lat="48.75509" lon="2.00617">
        <ele>178.6</ele>
        <time>2022-06-14T12:35:32Z</time>
      </trkpt>
      <trkpt lat="48.75514" lon="2.00628">
        <ele>178.4</ele>
        <time>2022-06-14T12:35:37Z</time>
      </trkpt>
      <trkpt lat="48.75517" lon="2.00638">
        <ele>178.3</ele>
        <time>2022-06-14T12:35:42Z</time>
      </trkpt>
      <trkpt lat="48.75522" lon="2.00647">
        <ele>178.1</ele>
        <time>2022-06-14T12:35:47Z</time>
      </trkpt>
      <trkpt lat="48.75524" lon="2.00659">
        <ele>178.1</ele>
        <time>2022-06-14T12:35:52Z</time>
      </trkpt>
      <trkpt lat="48.75527" lon="2.0067">
        <ele>178</ele>
        <time>2022-06-14T12:35:57Z</time>
      </trkpt>
      <trkpt lat="48.75532" lon="2.00679">
        <ele>177.7</ele>
        <time>2022-06-14T12:36:03Z</time>
      </trkpt>
      <trkpt lat="48.75537" lon="2.0069">
        <ele>177.5</ele>
        <time>2022-06-14T12:36:08Z</time>
      </trkpt>
      <trkpt lat="48.7554" lon="2.00702">
        <ele>177.3</ele>
        <time>2022-06-14T12:36:13Z</time>
      </trkpt>
      <trkpt lat="48.75544" lon="2.00713">
        <ele>177.2</ele>
        <time>2022-06-14T12:36:18Z</time>
      </trkpt>
      <trkpt lat="48.75548" lon="2.00723">
        <ele>177.1</ele>
        <time>2022-06-14T12:36:23Z</time>
      </trkpt>
      <trkpt lat="48.75551" lon="2.00734">
        <ele>177</ele>
        <time>2022-06-14T12:36:29Z</time>
      </trkpt>
      <trkpt lat="48.75557" lon="2.0074">
        <ele>177</ele>
        <time>2022-06-14T12:36:40Z</time>
      </trkpt>
      <trkpt lat="48.75557" lon="2.00751">
        <ele>177</ele>
        <time>2022-06-14T12:36:57Z</time>
      </trkpt>
      <trkpt lat="48.75563" lon="2.0076">
        <ele>176.9</ele>
        <time>2022-06-14T12:37:02Z</time>
      </trkpt>
      <trkpt lat="48.7557" lon="2.00766">
        <ele>176.9</ele>
        <time>2022-06-14T12:37:07Z</time>
      </trkpt>
      <trkpt lat="48.75572" lon="2.00776">
        <ele>176.8</ele>
        <time>2022-06-14T12:37:40Z</time>
      </trkpt>
      <trkpt lat="48.75577" lon="2.00784">
        <ele>176.7</ele>
        <time>2022-06-14T12:37:46Z</time>
      </trkpt>
      <trkpt lat="48.75581" lon="2.00793">
        <ele>176.5</ele>
        <time>2022-06-14T12:37:54Z</time>
      </trkpt>
      <trkpt lat="48.75581" lon="2.00782">
        <ele>176.6</ele>
        <time>2022-06-14T12:38:47Z</time>
      </trkpt>
      <trkpt lat="48.75583" lon="2.00794">
        <ele>176.5</ele>
        <time>2022-06-14T12:38:55Z</time>
      </trkpt>
      <trkpt lat="48.75585" lon="2.0081">
        <ele>176.2</ele>
        <time>2022-06-14T12:39:00Z</time>
      </trkpt>
      <trkpt lat="48.75586" lon="2.00821">
        <ele>176.1</ele>
        <time>2022-06-14T12:39:05Z</time>
      </trkpt>
      <trkpt lat="48.7559" lon="2.00832">
        <ele>175.9</ele>
        <time>2022-06-14T12:39:12Z</time>
      </trkpt>
      <trkpt lat="48.75596" lon="2.00844">
        <ele>175.7</ele>
        <time>2022-06-14T12:39:17Z</time>
      </trkpt>
      <trkpt lat="48.75598" lon="2.00853">
        <ele>175.6</ele>
        <time>2022-06-14T12:39:23Z</time>
      </trkpt>
      <trkpt lat="48.75601" lon="2.00863">
        <ele>175.6</ele>
        <time>2022-06-14T12:39:29Z</time>
      </trkpt>
      <trkpt lat="48.75606" lon="2.00874">
        <ele>175.5</ele>
        <time>2022-06-14T12:39:34Z</time>
      </trkpt>
      <trkpt lat="48.75612" lon="2.00886">
        <ele>175.3</ele>
        <time>2022-06-14T12:39:39Z</time>
      </trkpt>
      <trkpt lat="48.75616" lon="2.00897">
        <ele>175.2</ele>
        <time>2022-06-14T12:39:44Z</time>
      </trkpt>
      <trkpt lat="48.7562" lon="2.00908">
        <ele>175.1</ele>
        <time>2022-06-14T12:39:49Z</time>
      </trkpt>
      <trkpt lat="48.75623" lon="2.00916">
        <ele>175</ele>
        <time>2022-06-14T12:39:54Z</time>
      </trkpt>
      <trkpt lat="48.75628" lon="2.00927">
        <ele>175.2</ele>
        <time>2022-06-14T12:39:59Z</time>
      </trkpt>
      <trkpt lat="48.75631" lon="2.00938">
        <ele>175.3</ele>
        <time>2022-06-14T12:40:04Z</time>
      </trkpt>
      <trkpt lat="48.75633" lon="2.00949">
        <ele>175.5</ele>
        <time>2022-06-14T12:40:09Z</time>
      </trkpt>
      <trkpt lat="48.75641" lon="2.00959">
        <ele>175.4</ele>
        <time>2022-06-14T12:40:14Z</time>
      </trkpt>
      <trkpt lat="48.75645" lon="2.00969">
        <ele>175.5</ele>
        <time>2022-06-14T12:40:19Z</time>
      </trkpt>
      <trkpt lat="48.75649" lon="2.00981">
        <ele>175.5</ele>
        <time>2022-06-14T12:40:24Z</time>
      </trkpt>
      <trkpt lat="48.75652" lon="2.00989">
        <ele>175.5</ele>
        <time>2022-06-14T12:40:29Z</time>
      </trkpt>
      <trkpt lat="48.75654" lon="2.00999">
        <ele>175.6</ele>
        <time>2022-06-14T12:40:34Z</time>
      </trkpt>
      <trkpt lat="48.7566" lon="2.01011">
        <ele>175.6</ele>
        <time>2022-06-14T12:40:39Z</time>
      </trkpt>
      <trkpt lat="48.75664" lon="2.01019">
        <ele>175.6</ele>
        <time>2022-06-14T12:40:44Z</time>
      </trkpt>
      <trkpt lat="48.75667" lon="2.01028">
        <ele>175.7</ele>
        <time>2022-06-14T12:40:50Z</time>
      </trkpt>
      <trkpt lat="48.7567" lon="2.01044">
        <ele>175.9</ele>
        <time>2022-06-14T12:40:55Z</time>
      </trkpt>
      <trkpt lat="48.75672" lon="2.01053">
        <ele>176</ele>
        <time>2022-06-14T12:41:00Z</time>
      </trkpt>
      <trkpt lat="48.75675" lon="2.01066">
        <ele>176.2</ele>
        <time>2022-06-14T12:41:05Z</time>
      </trkpt>
      <trkpt lat="48.7568" lon="2.01078">
        <ele>176.2</ele>
        <time>2022-06-14T12:41:10Z</time>
      </trkpt>
      <trkpt lat="48.75684" lon="2.01088">
        <ele>176.2</ele>
        <time>2022-06-14T12:41:15Z</time>
      </trkpt>
      <trkpt lat="48.75685" lon="2.01098">
        <ele>176.2</ele>
        <time>2022-06-14T12:41:20Z</time>
      </trkpt>
      <trkpt lat="48.75689" lon="2.01108">
        <ele>176.2</ele>
        <time>2022-06-14T12:41:25Z</time>
      </trkpt>
      <trkpt lat="48.75694" lon="2.01115">
        <ele>176.1</ele>
        <time>2022-06-14T12:41:30Z</time>
      </trkpt>
      <trkpt lat="48.75699" lon="2.01123">
        <ele>176</ele>
        <time>2022-06-14T12:41:35Z</time>
      </trkpt>
      <trkpt lat="48.75703" lon="2.01133">
        <ele>176</ele>
        <time>2022-06-14T12:41:40Z</time>
      </trkpt>
      <trkpt lat="48.75703" lon="2.01145">
        <ele>176.2</ele>
        <time>2022-06-14T12:41:45Z</time>
      </trkpt>
      <trkpt lat="48.75707" lon="2.01156">
        <ele>176.3</ele>
        <time>2022-06-14T12:41:51Z</time>
      </trkpt>
      <trkpt lat="48.7571" lon="2.01167">
        <ele>176.5</ele>
        <time>2022-06-14T12:41:56Z</time>
      </trkpt>
      <trkpt lat="48.75713" lon="2.01179">
        <ele>176.4</ele>
        <time>2022-06-14T12:42:01Z</time>
      </trkpt>
      <trkpt lat="48.7572" lon="2.01192">
        <ele>176.3</ele>
        <time>2022-06-14T12:42:06Z</time>
      </trkpt>
      <trkpt lat="48.75726" lon="2.01203">
        <ele>176.2</ele>
        <time>2022-06-14T12:42:11Z</time>
      </trkpt>
      <trkpt lat="48.75729" lon="2.01213">
        <ele>176.1</ele>
        <time>2022-06-14T12:42:16Z</time>
      </trkpt>
      <trkpt lat="48.7573" lon="2.01225">
        <ele>176.1</ele>
        <time>2022-06-14T12:42:21Z</time>
      </trkpt>
      <trkpt lat="48.75733" lon="2.01239">
        <ele>176</ele>
        <time>2022-06-14T12:42:26Z</time>
      </trkpt>
      <trkpt lat="48.75737" lon="2.01249">
        <ele>176</ele>
        <time>2022-06-14T12:42:32Z</time>
      </trkpt>
      <trkpt lat="48.75742" lon="2.01258">
        <ele>175.9</ele>
        <time>2022-06-14T12:42:37Z</time>
      </trkpt>
      <trkpt lat="48.75747" lon="2.0127">
        <ele>175.8</ele>
        <time>2022-06-14T12:42:42Z</time>
      </trkpt>
      <trkpt lat="48.75753" lon="2.0128">
        <ele>175.6</ele>
        <time>2022-06-14T12:42:47Z</time>
      </trkpt>
      <trkpt lat="48.75756" lon="2.0129">
        <ele>175.4</ele>
        <time>2022-06-14T12:42:52Z</time>
      </trkpt>
      <trkpt lat="48.7576" lon="2.01301">
        <ele>175.2</ele>
        <time>2022-06-14T12:42:57Z</time>
      </trkpt>
      <trkpt lat="48.75763" lon="2.01311">
        <ele>175.1</ele>
        <time>2022-06-14T12:43:03Z</time>
      </trkpt>
      <trkpt lat="48.75769" lon="2.01316">
        <ele>174.9</ele>
        <time>2022-06-14T12:43:09Z</time>
      </trkpt>
      <trkpt lat="48.75775" lon="2.01313">
        <ele>174.9</ele>
        <time>2022-06-14T12:43:15Z</time>
      </trkpt>
      <trkpt lat="48.7578" lon="2.01306">
        <ele>174.8</ele>
        <time>2022-06-14T12:43:24Z</time>
      </trkpt>
      <trkpt lat="48.75786" lon="2.01303">
        <ele>174.8</ele>
        <time>2022-06-14T12:43:29Z</time>
      </trkpt>
      <trkpt lat="48.7579" lon="2.0129">
        <ele>174.8</ele>
        <time>2022-06-14T12:43:34Z</time>
      </trkpt>
      <trkpt lat="48.75797" lon="2.01279">
        <ele>174.7</ele>
        <time>2022-06-14T12:43:39Z</time>
      </trkpt>
      <trkpt lat="48.75801" lon="2.01268">
        <ele>174.7</ele>
        <time>2022-06-14T12:43:44Z</time>
      </trkpt>
      <trkpt lat="48.75805" lon="2.0126">
        <ele>174.6</ele>
        <time>2022-06-14T12:43:49Z</time>
      </trkpt>
      <trkpt lat="48.75809" lon="2.0125">
        <ele>174.6</ele>
        <time>2022-06-14T12:43:56Z</time>
      </trkpt>
      <trkpt lat="48.75817" lon="2.01249">
        <ele>174.4</ele>
        <time>2022-06-14T12:44:03Z</time>
      </trkpt>
      <trkpt lat="48.75827" lon="2.01256">
        <ele>174.1</ele>
        <time>2022-06-14T12:44:08Z</time>
      </trkpt>
      <trkpt lat="48.75834" lon="2.0126">
        <ele>174</ele>
        <time>2022-06-14T12:44:13Z</time>
      </trkpt>
      <trkpt lat="48.75844" lon="2.01263">
        <ele>173.5</ele>
        <time>2022-06-14T12:44:18Z</time>
      </trkpt>
      <trkpt lat="48.75853" lon="2.01268">
        <ele>173.1</ele>
        <time>2022-06-14T12:44:23Z</time>
      </trkpt>
      <trkpt lat="48.75861" lon="2.01273">
        <ele>172.7</ele>
        <time>2022-06-14T12:44:28Z</time>
      </trkpt>
      <trkpt lat="48.75868" lon="2.01279">
        <ele>172.3</ele>
        <time>2022-06-14T12:44:36Z</time>
      </trkpt>
      <trkpt lat="48.75873" lon="2.01289">
        <ele>172.1</ele>
        <time>2022-06-14T12:44:41Z</time>
      </trkpt>
      <trkpt lat="48.7588" lon="2.0129">
        <ele>171.8</ele>
        <time>2022-06-14T12:44:46Z</time>
      </trkpt>
      <trkpt lat="48.75887" lon="2.01289">
        <ele>171.4</ele>
        <time>2022-06-14T12:44:51Z</time>
      </trkpt>
      <trkpt lat="48.75893" lon="2.01294">
        <ele>171.1</ele>
        <time>2022-06-14T12:44:56Z</time>
      </trkpt>
      <trkpt lat="48.75899" lon="2.01301">
        <ele>170.8</ele>
        <time>2022-06-14T12:45:01Z</time>
      </trkpt>
      <trkpt lat="48.75907" lon="2.01306">
        <ele>170.5</ele>
        <time>2022-06-14T12:45:06Z</time>
      </trkpt>
      <trkpt lat="48.75915" lon="2.01309">
        <ele>170.1</ele>
        <time>2022-06-14T12:45:11Z</time>
      </trkpt>
      <trkpt lat="48.75919" lon="2.01316">
        <ele>170</ele>
        <time>2022-06-14T12:45:17Z</time>
      </trkpt>
      <trkpt lat="48.75928" lon="2.0132">
        <ele>170.1</ele>
        <time>2022-06-14T12:45:22Z</time>
      </trkpt>
      <trkpt lat="48.75934" lon="2.01323">
        <ele>170.2</ele>
        <time>2022-06-14T12:45:27Z</time>
      </trkpt>
      <trkpt lat="48.75943" lon="2.01328">
        <ele>170.3</ele>
        <time>2022-06-14T12:45:32Z</time>
      </trkpt>
      <trkpt lat="48.75949" lon="2.01332">
        <ele>170.4</ele>
        <time>2022-06-14T12:45:37Z</time>
      </trkpt>
      <trkpt lat="48.7596" lon="2.01341">
        <ele>170.6</ele>
        <time>2022-06-14T12:45:42Z</time>
      </trkpt>
      <trkpt lat="48.75966" lon="2.01346">
        <ele>170.7</ele>
        <time>2022-06-14T12:45:48Z</time>
      </trkpt>
      <trkpt lat="48.75973" lon="2.01352">
        <ele>170.7</ele>
        <time>2022-06-14T12:45:55Z</time>
      </trkpt>
      <trkpt lat="48.75981" lon="2.01354">
        <ele>170.8</ele>
        <time>2022-06-14T12:46:08Z</time>
      </trkpt>
      <trkpt lat="48.75986" lon="2.01361">
        <ele>170.7</ele>
        <time>2022-06-14T12:46:15Z</time>
      </trkpt>
      <trkpt lat="48.75993" lon="2.01364">
        <ele>170.7</ele>
        <time>2022-06-14T12:46:20Z</time>
      </trkpt>
      <trkpt lat="48.75998" lon="2.01371">
        <ele>170.6</ele>
        <time>2022-06-14T12:46:25Z</time>
      </trkpt>
      <trkpt lat="48.76007" lon="2.01374">
        <ele>170.1</ele>
        <time>2022-06-14T12:46:33Z</time>
      </trkpt>
      <trkpt lat="48.76012" lon="2.01381">
        <ele>169.7</ele>
        <time>2022-06-14T12:47:18Z</time>
      </trkpt>
      <trkpt lat="48.76019" lon="2.01386">
        <ele>169.3</ele>
        <time>2022-06-14T12:47:23Z</time>
      </trkpt>
      <trkpt lat="48.76025" lon="2.01391">
        <ele>168.9</ele>
        <time>2022-06-14T12:48:07Z</time>
      </trkpt>
      <trkpt lat="48.76032" lon="2.01396">
        <ele>168.5</ele>
        <time>2022-06-14T12:48:15Z</time>
      </trkpt>
      <trkpt lat="48.76035" lon="2.01404">
        <ele>168.3</ele>
        <time>2022-06-14T12:49:10Z</time>
      </trkpt>
      <trkpt lat="48.76042" lon="2.01404">
        <ele>168</ele>
        <time>2022-06-14T12:49:16Z</time>
      </trkpt>
      <trkpt lat="48.76048" lon="2.01406">
        <ele>167.7</ele>
        <time>2022-06-14T12:49:28Z</time>
      </trkpt>
      <trkpt lat="48.76053" lon="2.01413">
        <ele>167.4</ele>
        <time>2022-06-14T12:49:43Z</time>
      </trkpt>
      <trkpt lat="48.76061" lon="2.01416">
        <ele>167.1</ele>
        <time>2022-06-14T12:49:49Z</time>
      </trkpt>
      <trkpt lat="48.76067" lon="2.01419">
        <ele>166.8</ele>
        <time>2022-06-14T12:49:54Z</time>
      </trkpt>
      <trkpt lat="48.76073" lon="2.01424">
        <ele>166.5</ele>
        <time>2022-06-14T12:50:11Z</time>
      </trkpt>
      <trkpt lat="48.76082" lon="2.01428">
        <ele>166.1</ele>
        <time>2022-06-14T12:50:16Z</time>
      </trkpt>
      <trkpt lat="48.7609" lon="2.01432">
        <ele>165.9</ele>
        <time>2022-06-14T12:50:23Z</time>
      </trkpt>
      <trkpt lat="48.76095" lon="2.0144">
        <ele>165.8</ele>
        <time>2022-06-14T12:50:31Z</time>
      </trkpt>
      <trkpt lat="48.76102" lon="2.01442">
        <ele>165.8</ele>
        <time>2022-06-14T12:50:41Z</time>
      </trkpt>
      <trkpt lat="48.76108" lon="2.01447">
        <ele>165.7</ele>
        <time>2022-06-14T12:50:47Z</time>
      </trkpt>
      <trkpt lat="48.76117" lon="2.01451">
        <ele>165.7</ele>
        <time>2022-06-14T12:50:52Z</time>
      </trkpt>
      <trkpt lat="48.76124" lon="2.01457">
        <ele>165.7</ele>
        <time>2022-06-14T12:51:03Z</time>
      </trkpt>
      <trkpt lat="48.76131" lon="2.01461">
        <ele>165.8</ele>
        <time>2022-06-14T12:51:08Z</time>
      </trkpt>
      <trkpt lat="48.76137" lon="2.01466">
        <ele>165.9</ele>
        <time>2022-06-14T12:51:13Z</time>
      </trkpt>
      <trkpt lat="48.76135" lon="2.01479">
        <ele>166.2</ele>
        <time>2022-06-14T12:51:19Z</time>
      </trkpt>
      <trkpt lat="48.76132" lon="2.01488">
        <ele>166.3</ele>
        <time>2022-06-14T12:51:27Z</time>
      </trkpt>
      <trkpt lat="48.76131" lon="2.01498">
        <ele>166.5</ele>
        <time>2022-06-14T12:51:33Z</time>
      </trkpt>
      <trkpt lat="48.76127" lon="2.01507">
        <ele>166.6</ele>
        <time>2022-06-14T12:51:38Z</time>
      </trkpt>
      <trkpt lat="48.76128" lon="2.01518">
        <ele>166.8</ele>
        <time>2022-06-14T12:51:45Z</time>
      </trkpt>
      <trkpt lat="48.76119" lon="2.01524">
        <ele>166.6</ele>
        <time>2022-06-14T12:52:06Z</time>
      </trkpt>
      <trkpt lat="48.76116" lon="2.01534">
        <ele>166.5</ele>
        <time>2022-06-14T12:52:23Z</time>
      </trkpt>
      <trkpt lat="48.76109" lon="2.01537">
        <ele>166.2</ele>
        <time>2022-06-14T12:52:29Z</time>
      </trkpt>
      <trkpt lat="48.76106" lon="2.01545">
        <ele>166.1</ele>
        <time>2022-06-14T12:52:35Z</time>
      </trkpt>
      <trkpt lat="48.76113" lon="2.01542">
        <ele>166.4</ele>
        <time>2022-06-14T12:52:55Z</time>
      </trkpt>
      <trkpt lat="48.76121" lon="2.01531">
        <ele>166.7</ele>
        <time>2022-06-14T12:53:00Z</time>
      </trkpt>
      <trkpt lat="48.76127" lon="2.01523">
        <ele>166.8</ele>
        <time>2022-06-14T12:53:08Z</time>
      </trkpt>
      <trkpt lat="48.76129" lon="2.01514">
        <ele>166.8</ele>
        <time>2022-06-14T12:53:13Z</time>
      </trkpt>
      <trkpt lat="48.76128" lon="2.01503">
        <ele>166.6</ele>
        <time>2022-06-14T12:53:21Z</time>
      </trkpt>
      <trkpt lat="48.7613" lon="2.01492">
        <ele>166.4</ele>
        <time>2022-06-14T12:53:26Z</time>
      </trkpt>
      <trkpt lat="48.7613" lon="2.01481">
        <ele>166.2</ele>
        <time>2022-06-14T12:53:32Z</time>
      </trkpt>
      <trkpt lat="48.76132" lon="2.0147">
        <ele>166</ele>
        <time>2022-06-14T12:53:37Z</time>
      </trkpt>
      <trkpt lat="48.76129" lon="2.01459">
        <ele>165.7</ele>
        <time>2022-06-14T12:53:45Z</time>
      </trkpt>
      <trkpt lat="48.76124" lon="2.01449">
        <ele>165.6</ele>
        <time>2022-06-14T12:53:50Z</time>
      </trkpt>
      <trkpt lat="48.76123" lon="2.01434">
        <ele>165.3</ele>
        <time>2022-06-14T12:53:55Z</time>
      </trkpt>
      <trkpt lat="48.76123" lon="2.01423">
        <ele>165.2</ele>
        <time>2022-06-14T12:54:01Z</time>
      </trkpt>
      <trkpt lat="48.76124" lon="2.01413">
        <ele>165</ele>
        <time>2022-06-14T12:54:06Z</time>
      </trkpt>
      <trkpt lat="48.76116" lon="2.01422">
        <ele>165.3</ele>
        <time>2022-06-14T12:54:41Z</time>
      </trkpt>
      <trkpt lat="48.76118" lon="2.01412">
        <ele>165.2</ele>
        <time>2022-06-14T12:55:11Z</time>
      </trkpt>
      <trkpt lat="48.76124" lon="2.01407">
        <ele>165</ele>
        <time>2022-06-14T12:55:18Z</time>
      </trkpt>
      <trkpt lat="48.7613" lon="2.01397">
        <ele>164.9</ele>
        <time>2022-06-14T12:55:23Z</time>
      </trkpt>
      <trkpt lat="48.76131" lon="2.01385">
        <ele>164.9</ele>
        <time>2022-06-14T12:55:29Z</time>
      </trkpt>
      <trkpt lat="48.76133" lon="2.01371">
        <ele>164.9</ele>
        <time>2022-06-14T12:55:34Z</time>
      </trkpt>
      <trkpt lat="48.76133" lon="2.01359">
        <ele>164.9</ele>
        <time>2022-06-14T12:55:39Z</time>
      </trkpt>
      <trkpt lat="48.76133" lon="2.01349">
        <ele>165</ele>
        <time>2022-06-14T12:55:44Z</time>
      </trkpt>
      <trkpt lat="48.76132" lon="2.01339">
        <ele>165</ele>
        <time>2022-06-14T12:55:49Z</time>
      </trkpt>
      <trkpt lat="48.76136" lon="2.01328">
        <ele>164.9</ele>
        <time>2022-06-14T12:55:54Z</time>
      </trkpt>
      <trkpt lat="48.76139" lon="2.01317">
        <ele>164.8</ele>
        <time>2022-06-14T12:55:59Z</time>
      </trkpt>
      <trkpt lat="48.76133" lon="2.01309">
        <ele>164.8</ele>
        <time>2022-06-14T12:56:05Z</time>
      </trkpt>
      <trkpt lat="48.76128" lon="2.01302">
        <ele>164.8</ele>
        <time>2022-06-14T12:56:12Z</time>
      </trkpt>
      <trkpt lat="48.76123" lon="2.01296">
        <ele>164.8</ele>
        <time>2022-06-14T12:56:18Z</time>
      </trkpt>
      <trkpt lat="48.76118" lon="2.01288">
        <ele>164.9</ele>
        <time>2022-06-14T12:56:24Z</time>
      </trkpt>
      <trkpt lat="48.76126" lon="2.01296">
        <ele>164.8</ele>
        <time>2022-06-14T12:57:52Z</time>
      </trkpt>
      <trkpt lat="48.7612" lon="2.0129">
        <ele>164.8</ele>
        <time>2022-06-14T12:59:10Z</time>
      </trkpt>
      <trkpt lat="48.76127" lon="2.01292">
        <ele>164.7</ele>
        <time>2022-06-14T12:59:24Z</time>
      </trkpt>
      <trkpt lat="48.76132" lon="2.01299">
        <ele>164.7</ele>
        <time>2022-06-14T12:59:29Z</time>
      </trkpt>
      <trkpt lat="48.7614" lon="2.01305">
        <ele>164.6</ele>
        <time>2022-06-14T12:59:34Z</time>
      </trkpt>
      <trkpt lat="48.76144" lon="2.01294">
        <ele>164.4</ele>
        <time>2022-06-14T12:59:43Z</time>
      </trkpt>
      <trkpt lat="48.76145" lon="2.01282">
        <ele>164.2</ele>
        <time>2022-06-14T12:59:49Z</time>
      </trkpt>
      <trkpt lat="48.76145" lon="2.0127">
        <ele>164.1</ele>
        <time>2022-06-14T12:59:55Z</time>
      </trkpt>
      <trkpt lat="48.76149" lon="2.0126">
        <ele>163.8</ele>
        <time>2022-06-14T13:00:00Z</time>
      </trkpt>
      <trkpt lat="48.76152" lon="2.01251">
        <ele>163.5</ele>
        <time>2022-06-14T13:00:05Z</time>
      </trkpt>
      <trkpt lat="48.76159" lon="2.01245">
        <ele>163.2</ele>
        <time>2022-06-14T13:00:11Z</time>
      </trkpt>
      <trkpt lat="48.76164" lon="2.01239">
        <ele>162.8</ele>
        <time>2022-06-14T13:00:16Z</time>
      </trkpt>
      <trkpt lat="48.76171" lon="2.01232">
        <ele>162.8</ele>
        <time>2022-06-14T13:00:21Z</time>
      </trkpt>
      <trkpt lat="48.76179" lon="2.01224">
        <ele>162.9</ele>
        <time>2022-06-14T13:00:26Z</time>
      </trkpt>
      <trkpt lat="48.76185" lon="2.01218">
        <ele>163</ele>
        <time>2022-06-14T13:00:31Z</time>
      </trkpt>
      <trkpt lat="48.76192" lon="2.01211">
        <ele>163.1</ele>
        <time>2022-06-14T13:00:37Z</time>
      </trkpt>
      <trkpt lat="48.762" lon="2.0121">
        <ele>163.4</ele>
        <time>2022-06-14T13:00:42Z</time>
      </trkpt>
      <trkpt lat="48.76205" lon="2.012">
        <ele>163.4</ele>
        <time>2022-06-14T13:00:47Z</time>
      </trkpt>
      <trkpt lat="48.76212" lon="2.01194">
        <ele>163.5</ele>
        <time>2022-06-14T13:00:52Z</time>
      </trkpt>
      <trkpt lat="48.76217" lon="2.01189">
        <ele>163.5</ele>
        <time>2022-06-14T13:00:57Z</time>
      </trkpt>
      <trkpt lat="48.76223" lon="2.01182">
        <ele>163.5</ele>
        <time>2022-06-14T13:01:03Z</time>
      </trkpt>
      <trkpt lat="48.76224" lon="2.01172">
        <ele>163.2</ele>
        <time>2022-06-14T13:01:11Z</time>
      </trkpt>
      <trkpt lat="48.76222" lon="2.01161">
        <ele>163</ele>
        <time>2022-06-14T13:01:17Z</time>
      </trkpt>
      <trkpt lat="48.76219" lon="2.01151">
        <ele>163</ele>
        <time>2022-06-14T13:01:22Z</time>
      </trkpt>
      <trkpt lat="48.76215" lon="2.01141">
        <ele>163.1</ele>
        <time>2022-06-14T13:01:28Z</time>
      </trkpt>
      <trkpt lat="48.76209" lon="2.01136">
        <ele>163.1</ele>
        <time>2022-06-14T13:01:36Z</time>
      </trkpt>
      <trkpt lat="48.76207" lon="2.01124">
        <ele>163.3</ele>
        <time>2022-06-14T13:01:41Z</time>
      </trkpt>
      <trkpt lat="48.76203" lon="2.01112">
        <ele>163.5</ele>
        <time>2022-06-14T13:01:46Z</time>
      </trkpt>
      <trkpt lat="48.76202" lon="2.01101">
        <ele>163.8</ele>
        <time>2022-06-14T13:01:53Z</time>
      </trkpt>
      <trkpt lat="48.76197" lon="2.01093">
        <ele>164</ele>
        <time>2022-06-14T13:01:58Z</time>
      </trkpt>
      <trkpt lat="48.76192" lon="2.01085">
        <ele>164.3</ele>
        <time>2022-06-14T13:02:04Z</time>
      </trkpt>
      <trkpt lat="48.76184" lon="2.01089">
        <ele>164.4</ele>
        <time>2022-06-14T13:02:12Z</time>
      </trkpt>
      <trkpt lat="48.7619" lon="2.01082">
        <ele>164.4</ele>
        <time>2022-06-14T13:02:39Z</time>
      </trkpt>
      <trkpt lat="48.76197" lon="2.01078">
        <ele>164.3</ele>
        <time>2022-06-14T13:02:46Z</time>
      </trkpt>
      <trkpt lat="48.762" lon="2.01069">
        <ele>164.2</ele>
        <time>2022-06-14T13:02:54Z</time>
      </trkpt>
      <trkpt lat="48.762" lon="2.0108">
        <ele>164.2</ele>
        <time>2022-06-14T13:03:48Z</time>
      </trkpt>
      <trkpt lat="48.76193" lon="2.01082">
        <ele>164.4</ele>
        <time>2022-06-14T13:03:53Z</time>
      </trkpt>
      <trkpt lat="48.76188" lon="2.01073">
        <ele>164.5</ele>
        <time>2022-06-14T13:04:00Z</time>
      </trkpt>
      <trkpt lat="48.76182" lon="2.01064">
        <ele>164.6</ele>
        <time>2022-06-14T13:04:07Z</time>
      </trkpt>
      <trkpt lat="48.76182" lon="2.01054">
        <ele>164.6</ele>
        <time>2022-06-14T13:04:13Z</time>
      </trkpt>
      <trkpt lat="48.7618" lon="2.01044">
        <ele>164.7</ele>
        <time>2022-06-14T13:04:18Z</time>
      </trkpt>
      <trkpt lat="48.76174" lon="2.01035">
        <ele>164.8</ele>
        <time>2022-06-14T13:04:23Z</time>
      </trkpt>
      <trkpt lat="48.76172" lon="2.01024">
        <ele>164.9</ele>
        <time>2022-06-14T13:04:37Z</time>
      </trkpt>
      <trkpt lat="48.76167" lon="2.01015">
        <ele>165</ele>
        <time>2022-06-14T13:04:43Z</time>
      </trkpt>
      <trkpt lat="48.76162" lon="2.01006">
        <ele>165.1</ele>
        <time>2022-06-14T13:04:48Z</time>
      </trkpt>
      <trkpt lat="48.7616" lon="2.00996">
        <ele>165</ele>
        <time>2022-06-14T13:04:55Z</time>
      </trkpt>
      <trkpt lat="48.76158" lon="2.00985">
        <ele>164.7</ele>
        <time>2022-06-14T13:05:01Z</time>
      </trkpt>
      <trkpt lat="48.76152" lon="2.00981">
        <ele>164.7</ele>
        <time>2022-06-14T13:05:12Z</time>
      </trkpt>
      <trkpt lat="48.76147" lon="2.00972">
        <ele>164.6</ele>
        <time>2022-06-14T13:05:27Z</time>
      </trkpt>
      <trkpt lat="48.76151" lon="2.0096">
        <ele>164.2</ele>
        <time>2022-06-14T13:06:13Z</time>
      </trkpt>
      <trkpt lat="48.76163" lon="2.00958">
        <ele>164</ele>
        <time>2022-06-14T13:06:24Z</time>
      </trkpt>
      <trkpt lat="48.76169" lon="2.00961">
        <ele>164</ele>
        <time>2022-06-14T13:06:33Z</time>
      </trkpt>
      <trkpt lat="48.7616" lon="2.00955">
        <ele>164</ele>
        <time>2022-06-14T13:06:55Z</time>
      </trkpt>
      <trkpt lat="48.76152" lon="2.00965">
        <ele>164.3</ele>
        <time>2022-06-14T13:08:46Z</time>
      </trkpt>
      <trkpt lat="48.76145" lon="2.00961">
        <ele>164.3</ele>
        <time>2022-06-14T13:09:05Z</time>
      </trkpt>
      <trkpt lat="48.76139" lon="2.00951">
        <ele>164.2</ele>
        <time>2022-06-14T13:09:10Z</time>
      </trkpt>
      <trkpt lat="48.76138" lon="2.00938">
        <ele>163.9</ele>
        <time>2022-06-14T13:09:15Z</time>
      </trkpt>
      <trkpt lat="48.76135" lon="2.00928">
        <ele>163.7</ele>
        <time>2022-06-14T13:09:22Z</time>
      </trkpt>
      <trkpt lat="48.7613" lon="2.00919">
        <ele>163.5</ele>
        <time>2022-06-14T13:09:27Z</time>
      </trkpt>
      <trkpt lat="48.76126" lon="2.00909">
        <ele>163.4</ele>
        <time>2022-06-14T13:09:32Z</time>
      </trkpt>
      <trkpt lat="48.76122" lon="2.00899">
        <ele>163.4</ele>
        <time>2022-06-14T13:09:37Z</time>
      </trkpt>
      <trkpt lat="48.76118" lon="2.0089">
        <ele>163.5</ele>
        <time>2022-06-14T13:09:42Z</time>
      </trkpt>
      <trkpt lat="48.76113" lon="2.00881">
        <ele>163.5</ele>
        <time>2022-06-14T13:09:49Z</time>
      </trkpt>
      <trkpt lat="48.76108" lon="2.00871">
        <ele>163.5</ele>
        <time>2022-06-14T13:09:54Z</time>
      </trkpt>
      <trkpt lat="48.76102" lon="2.0086">
        <ele>163.6</ele>
        <time>2022-06-14T13:09:59Z</time>
      </trkpt>
      <trkpt lat="48.76101" lon="2.0085">
        <ele>163.6</ele>
        <time>2022-06-14T13:10:06Z</time>
      </trkpt>
      <trkpt lat="48.76096" lon="2.00841">
        <ele>163.7</ele>
        <time>2022-06-14T13:10:12Z</time>
      </trkpt>
      <trkpt lat="48.76093" lon="2.00831">
        <ele>163.8</ele>
        <time>2022-06-14T13:10:22Z</time>
      </trkpt>
      <trkpt lat="48.76089" lon="2.00823">
        <ele>164.1</ele>
        <time>2022-06-14T13:10:29Z</time>
      </trkpt>
      <trkpt lat="48.76084" lon="2.00816">
        <ele>164.4</ele>
        <time>2022-06-14T13:10:34Z</time>
      </trkpt>
      <trkpt lat="48.76082" lon="2.00806">
        <ele>164.7</ele>
        <time>2022-06-14T13:10:39Z</time>
      </trkpt>
      <trkpt lat="48.76078" lon="2.00797">
        <ele>165.2</ele>
        <time>2022-06-14T13:10:46Z</time>
      </trkpt>
      <trkpt lat="48.76073" lon="2.00785">
        <ele>165.8</ele>
        <time>2022-06-14T13:10:54Z</time>
      </trkpt>
      <trkpt lat="48.76076" lon="2.00775">
        <ele>165.9</ele>
        <time>2022-06-14T13:11:00Z</time>
      </trkpt>
      <trkpt lat="48.76082" lon="2.00763">
        <ele>165.8</ele>
        <time>2022-06-14T13:11:05Z</time>
      </trkpt>
      <trkpt lat="48.76084" lon="2.0075">
        <ele>166</ele>
        <time>2022-06-14T13:11:10Z</time>
      </trkpt>
      <trkpt lat="48.7609" lon="2.00744">
        <ele>166</ele>
        <time>2022-06-14T13:11:15Z</time>
      </trkpt>
      <trkpt lat="48.76098" lon="2.00739">
        <ele>166.1</ele>
        <time>2022-06-14T13:11:20Z</time>
      </trkpt>
      <trkpt lat="48.76105" lon="2.00736">
        <ele>166.3</ele>
        <time>2022-06-14T13:11:25Z</time>
      </trkpt>
      <trkpt lat="48.76113" lon="2.00742">
        <ele>166.2</ele>
        <time>2022-06-14T13:11:31Z</time>
      </trkpt>
      <trkpt lat="48.7612" lon="2.00748">
        <ele>166.1</ele>
        <time>2022-06-14T13:11:36Z</time>
      </trkpt>
      <trkpt lat="48.76127" lon="2.00753">
        <ele>165.9</ele>
        <time>2022-06-14T13:11:42Z</time>
      </trkpt>
      <trkpt lat="48.76135" lon="2.0076">
        <ele>165.6</ele>
        <time>2022-06-14T13:11:47Z</time>
      </trkpt>
      <trkpt lat="48.76142" lon="2.00764">
        <ele>165.4</ele>
        <time>2022-06-14T13:11:52Z</time>
      </trkpt>
      <trkpt lat="48.76149" lon="2.00769">
        <ele>165.2</ele>
        <time>2022-06-14T13:11:58Z</time>
      </trkpt>
      <trkpt lat="48.76155" lon="2.00774">
        <ele>164.9</ele>
        <time>2022-06-14T13:12:03Z</time>
      </trkpt>
      <trkpt lat="48.76162" lon="2.00777">
        <ele>164.7</ele>
        <time>2022-06-14T13:12:08Z</time>
      </trkpt>
      <trkpt lat="48.76168" lon="2.00782">
        <ele>164.6</ele>
        <time>2022-06-14T13:12:13Z</time>
      </trkpt>
      <trkpt lat="48.76175" lon="2.00789">
        <ele>164.8</ele>
        <time>2022-06-14T13:12:19Z</time>
      </trkpt>
      <trkpt lat="48.76182" lon="2.00797">
        <ele>164.9</ele>
        <time>2022-06-14T13:12:24Z</time>
      </trkpt>
      <trkpt lat="48.76191" lon="2.00805">
        <ele>165.2</ele>
        <time>2022-06-14T13:12:29Z</time>
      </trkpt>
      <trkpt lat="48.76197" lon="2.00811">
        <ele>165.4</ele>
        <time>2022-06-14T13:12:34Z</time>
      </trkpt>
      <trkpt lat="48.76203" lon="2.00819">
        <ele>165.4</ele>
        <time>2022-06-14T13:12:39Z</time>
      </trkpt>
      <trkpt lat="48.76209" lon="2.00824">
        <ele>165.6</ele>
        <time>2022-06-14T13:12:46Z</time>
      </trkpt>
      <trkpt lat="48.76216" lon="2.00829">
        <ele>165.8</ele>
        <time>2022-06-14T13:12:51Z</time>
      </trkpt>
      <trkpt lat="48.76222" lon="2.00836">
        <ele>165.9</ele>
        <time>2022-06-14T13:12:56Z</time>
      </trkpt>
      <trkpt lat="48.76228" lon="2.00843">
        <ele>166.1</ele>
        <time>2022-06-14T13:13:01Z</time>
      </trkpt>
      <trkpt lat="48.76235" lon="2.00849">
        <ele>166.3</ele>
        <time>2022-06-14T13:13:06Z</time>
      </trkpt>
      <trkpt lat="48.76242" lon="2.00853">
        <ele>166.6</ele>
        <time>2022-06-14T13:13:11Z</time>
      </trkpt>
      <trkpt lat="48.7625" lon="2.00856">
        <ele>166.9</ele>
        <time>2022-06-14T13:13:16Z</time>
      </trkpt>
      <trkpt lat="48.76256" lon="2.00862">
        <ele>166.6</ele>
        <time>2022-06-14T13:13:51Z</time>
      </trkpt>
      <trkpt lat="48.76264" lon="2.00869">
        <ele>166.4</ele>
        <time>2022-06-14T13:13:56Z</time>
      </trkpt>
      <trkpt lat="48.76275" lon="2.00875">
        <ele>166.1</ele>
        <time>2022-06-14T13:14:01Z</time>
      </trkpt>
      <trkpt lat="48.76279" lon="2.00883">
        <ele>165.8</ele>
        <time>2022-06-14T13:14:09Z</time>
      </trkpt>
      <trkpt lat="48.76274" lon="2.00891">
        <ele>165.4</ele>
        <time>2022-06-14T13:14:23Z</time>
      </trkpt>
      <trkpt lat="48.76277" lon="2.00882">
        <ele>165.9</ele>
        <time>2022-06-14T13:15:50Z</time>
      </trkpt>
      <trkpt lat="48.76273" lon="2.00873">
        <ele>166.2</ele>
        <time>2022-06-14T13:15:58Z</time>
      </trkpt>
      <trkpt lat="48.76265" lon="2.00866">
        <ele>166.5</ele>
        <time>2022-06-14T13:16:03Z</time>
      </trkpt>
      <trkpt lat="48.76256" lon="2.00861">
        <ele>166.7</ele>
        <time>2022-06-14T13:16:08Z</time>
      </trkpt>
      <trkpt lat="48.7625" lon="2.00855">
        <ele>167</ele>
        <time>2022-06-14T13:16:13Z</time>
      </trkpt>
      <trkpt lat="48.76244" lon="2.00852">
        <ele>166.8</ele>
        <time>2022-06-14T13:16:18Z</time>
      </trkpt>
      <trkpt lat="48.76237" lon="2.00847">
        <ele>166.5</ele>
        <time>2022-06-14T13:16:23Z</time>
      </trkpt>
      <trkpt lat="48.7623" lon="2.00846">
        <ele>166.1</ele>
        <time>2022-06-14T13:16:34Z</time>
      </trkpt>
      <trkpt lat="48.76225" lon="2.00838">
        <ele>166.1</ele>
        <time>2022-06-14T13:18:08Z</time>
      </trkpt>
      <trkpt lat="48.76219" lon="2.00833">
        <ele>165.8</ele>
        <time>2022-06-14T13:18:13Z</time>
      </trkpt>
      <trkpt lat="48.76213" lon="2.00827">
        <ele>165.7</ele>
        <time>2022-06-14T13:18:19Z</time>
      </trkpt>
      <trkpt lat="48.76205" lon="2.00827">
        <ele>165.1</ele>
        <time>2022-06-14T13:18:26Z</time>
      </trkpt>
      <trkpt lat="48.762" lon="2.00821">
        <ele>165.1</ele>
        <time>2022-06-14T13:18:31Z</time>
      </trkpt>
      <trkpt lat="48.76194" lon="2.00814">
        <ele>165</ele>
        <time>2022-06-14T13:18:36Z</time>
      </trkpt>
      <trkpt lat="48.7619" lon="2.00807">
        <ele>165</ele>
        <time>2022-06-14T13:18:42Z</time>
      </trkpt>
      <trkpt lat="48.7618" lon="2.00797">
        <ele>164.8</ele>
        <time>2022-06-14T13:18:47Z</time>
      </trkpt>
      <trkpt lat="48.76172" lon="2.00789">
        <ele>164.5</ele>
        <time>2022-06-14T13:18:52Z</time>
      </trkpt>
      <trkpt lat="48.76165" lon="2.00782">
        <ele>164.5</ele>
        <time>2022-06-14T13:18:58Z</time>
      </trkpt>
      <trkpt lat="48.76157" lon="2.00777">
        <ele>164.8</ele>
        <time>2022-06-14T13:19:03Z</time>
      </trkpt>
      <trkpt lat="48.76149" lon="2.00771">
        <ele>165.1</ele>
        <time>2022-06-14T13:19:08Z</time>
      </trkpt>
      <trkpt lat="48.76143" lon="2.00766">
        <ele>165.3</ele>
        <time>2022-06-14T13:19:14Z</time>
      </trkpt>
      <trkpt lat="48.76136" lon="2.00759">
        <ele>165.6</ele>
        <time>2022-06-14T13:19:20Z</time>
      </trkpt>
      <trkpt lat="48.76129" lon="2.00757">
        <ele>165.7</ele>
        <time>2022-06-14T13:19:25Z</time>
      </trkpt>
      <trkpt lat="48.76123" lon="2.0075">
        <ele>166</ele>
        <time>2022-06-14T13:19:30Z</time>
      </trkpt>
      <trkpt lat="48.76115" lon="2.00745">
        <ele>166.1</ele>
        <time>2022-06-14T13:19:35Z</time>
      </trkpt>
      <trkpt lat="48.76107" lon="2.00738">
        <ele>166.2</ele>
        <time>2022-06-14T13:19:41Z</time>
      </trkpt>
      <trkpt lat="48.76098" lon="2.00734">
        <ele>166.2</ele>
        <time>2022-06-14T13:19:46Z</time>
      </trkpt>
      <trkpt lat="48.76092" lon="2.0074">
        <ele>166.1</ele>
        <time>2022-06-14T13:19:53Z</time>
      </trkpt>
      <trkpt lat="48.76086" lon="2.00747">
        <ele>166</ele>
        <time>2022-06-14T13:19:59Z</time>
      </trkpt>
      <trkpt lat="48.76078" lon="2.00753">
        <ele>166.3</ele>
        <time>2022-06-14T13:20:04Z</time>
      </trkpt>
      <trkpt lat="48.76071" lon="2.00756">
        <ele>166.6</ele>
        <time>2022-06-14T13:20:09Z</time>
      </trkpt>
      <trkpt lat="48.76064" lon="2.00759">
        <ele>167</ele>
        <time>2022-06-14T13:20:16Z</time>
      </trkpt>
      <trkpt lat="48.76058" lon="2.00752">
        <ele>167.5</ele>
        <time>2022-06-14T13:20:22Z</time>
      </trkpt>
      <trkpt lat="48.76054" lon="2.00742">
        <ele>167.7</ele>
        <time>2022-06-14T13:20:27Z</time>
      </trkpt>
      <trkpt lat="48.76048" lon="2.00732">
        <ele>168</ele>
        <time>2022-06-14T13:20:33Z</time>
      </trkpt>
      <trkpt lat="48.76042" lon="2.00722">
        <ele>168.3</ele>
        <time>2022-06-14T13:20:38Z</time>
      </trkpt>
      <trkpt lat="48.76039" lon="2.00711">
        <ele>168.4</ele>
        <time>2022-06-14T13:20:45Z</time>
      </trkpt>
      <trkpt lat="48.76036" lon="2.007">
        <ele>168.5</ele>
        <time>2022-06-14T13:20:50Z</time>
      </trkpt>
      <trkpt lat="48.76031" lon="2.00695">
        <ele>168.7</ele>
        <time>2022-06-14T13:21:01Z</time>
      </trkpt>
      <trkpt lat="48.76025" lon="2.00688">
        <ele>169</ele>
        <time>2022-06-14T13:21:09Z</time>
      </trkpt>
      <trkpt lat="48.76022" lon="2.00678">
        <ele>169</ele>
        <time>2022-06-14T13:21:14Z</time>
      </trkpt>
      <trkpt lat="48.76018" lon="2.00666">
        <ele>169.1</ele>
        <time>2022-06-14T13:21:19Z</time>
      </trkpt>
      <trkpt lat="48.76016" lon="2.00654">
        <ele>168.9</ele>
        <time>2022-06-14T13:21:26Z</time>
      </trkpt>
      <trkpt lat="48.76012" lon="2.00645">
        <ele>168.8</ele>
        <time>2022-06-14T13:21:31Z</time>
      </trkpt>
      <trkpt lat="48.76007" lon="2.00637">
        <ele>168.7</ele>
        <time>2022-06-14T13:21:36Z</time>
      </trkpt>
      <trkpt lat="48.76003" lon="2.00628">
        <ele>168.5</ele>
        <time>2022-06-14T13:21:41Z</time>
      </trkpt>
      <trkpt lat="48.75998" lon="2.00618">
        <ele>168.3</ele>
        <time>2022-06-14T13:21:46Z</time>
      </trkpt>
      <trkpt lat="48.75997" lon="2.00605">
        <ele>167.9</ele>
        <time>2022-06-14T13:21:51Z</time>
      </trkpt>
      <trkpt lat="48.75996" lon="2.00595">
        <ele>167.6</ele>
        <time>2022-06-14T13:22:05Z</time>
      </trkpt>
      <trkpt lat="48.75998" lon="2.00585">
        <ele>167.2</ele>
        <time>2022-06-14T13:22:10Z</time>
      </trkpt>
      <trkpt lat="48.76003" lon="2.00578">
        <ele>167.1</ele>
        <time>2022-06-14T13:22:16Z</time>
      </trkpt>
      <trkpt lat="48.7601" lon="2.00581">
        <ele>167.1</ele>
        <time>2022-06-14T13:22:29Z</time>
      </trkpt>
      <trkpt lat="48.76017" lon="2.00578">
        <ele>167.1</ele>
        <time>2022-06-14T13:22:38Z</time>
      </trkpt>
      <trkpt lat="48.76023" lon="2.00582">
        <ele>167</ele>
        <time>2022-06-14T13:22:52Z</time>
      </trkpt>
      <trkpt lat="48.76025" lon="2.00571">
        <ele>167.3</ele>
        <time>2022-06-14T13:23:01Z</time>
      </trkpt>
      <trkpt lat="48.76026" lon="2.0056">
        <ele>167.6</ele>
        <time>2022-06-14T13:23:32Z</time>
      </trkpt>
      <trkpt lat="48.7602" lon="2.00557">
        <ele>167.6</ele>
        <time>2022-06-14T13:23:37Z</time>
      </trkpt>
      <trkpt lat="48.76013" lon="2.00548">
        <ele>167.8</ele>
        <time>2022-06-14T13:23:42Z</time>
      </trkpt>
      <trkpt lat="48.76009" lon="2.0054">
        <ele>168</ele>
        <time>2022-06-14T13:23:50Z</time>
      </trkpt>
      <trkpt lat="48.76002" lon="2.00534">
        <ele>168.2</ele>
        <time>2022-06-14T13:24:09Z</time>
      </trkpt>
      <trkpt lat="48.76002" lon="2.0052">
        <ele>168.5</ele>
        <time>2022-06-14T13:24:14Z</time>
      </trkpt>
      <trkpt lat="48.75995" lon="2.00521">
        <ele>168.7</ele>
        <time>2022-06-14T13:24:19Z</time>
      </trkpt>
      <trkpt lat="48.7599" lon="2.00511">
        <ele>169.2</ele>
        <time>2022-06-14T13:24:24Z</time>
      </trkpt>
      <trkpt lat="48.75994" lon="2.00496">
        <ele>169.4</ele>
        <time>2022-06-14T13:25:00Z</time>
      </trkpt>
      <trkpt lat="48.75988" lon="2.0049">
        <ele>169.9</ele>
        <time>2022-06-14T13:25:07Z</time>
      </trkpt>
      <trkpt lat="48.75984" lon="2.00481">
        <ele>170.5</ele>
        <time>2022-06-14T13:25:12Z</time>
      </trkpt>
      <trkpt lat="48.75982" lon="2.00468">
        <ele>171</ele>
        <time>2022-06-14T13:25:33Z</time>
      </trkpt>
      <trkpt lat="48.75985" lon="2.00456">
        <ele>171.3</ele>
        <time>2022-06-14T13:25:39Z</time>
      </trkpt>
      <trkpt lat="48.75995" lon="2.00454">
        <ele>170.9</ele>
        <time>2022-06-14T13:25:44Z</time>
      </trkpt>
      <trkpt lat="48.76002" lon="2.00456">
        <ele>170.6</ele>
        <time>2022-06-14T13:25:49Z</time>
      </trkpt>
      <trkpt lat="48.76007" lon="2.00461">
        <ele>170.3</ele>
        <time>2022-06-14T13:25:55Z</time>
      </trkpt>
      <trkpt lat="48.76012" lon="2.00453">
        <ele>170.5</ele>
        <time>2022-06-14T13:26:08Z</time>
      </trkpt>
      <trkpt lat="48.76019" lon="2.00449">
        <ele>170.6</ele>
        <time>2022-06-14T13:26:14Z</time>
      </trkpt>
      <trkpt lat="48.76021" lon="2.00439">
        <ele>170.8</ele>
        <time>2022-06-14T13:26:25Z</time>
      </trkpt>
      <trkpt lat="48.76015" lon="2.00434">
        <ele>171.1</ele>
        <time>2022-06-14T13:26:32Z</time>
      </trkpt>
      <trkpt lat="48.76008" lon="2.00428">
        <ele>171.4</ele>
        <time>2022-06-14T13:26:37Z</time>
      </trkpt>
      <trkpt lat="48.76007" lon="2.00418">
        <ele>171.8</ele>
        <time>2022-06-14T13:26:43Z</time>
      </trkpt>
      <trkpt lat="48.76002" lon="2.0041">
        <ele>172</ele>
        <time>2022-06-14T13:26:51Z</time>
      </trkpt>
      <trkpt lat="48.76001" lon="2.00399">
        <ele>172.2</ele>
        <time>2022-06-14T13:26:58Z</time>
      </trkpt>
      <trkpt lat="48.76008" lon="2.00389">
        <ele>172.1</ele>
        <time>2022-06-14T13:27:03Z</time>
      </trkpt>
      <trkpt lat="48.76015" lon="2.00385">
        <ele>172</ele>
        <time>2022-06-14T13:27:21Z</time>
      </trkpt>
      <trkpt lat="48.76022" lon="2.00382">
        <ele>171.8</ele>
        <time>2022-06-14T13:27:35Z</time>
      </trkpt>
      <trkpt lat="48.76027" lon="2.00375">
        <ele>171.7</ele>
        <time>2022-06-14T13:27:45Z</time>
      </trkpt>
      <trkpt lat="48.76035" lon="2.00375">
        <ele>171.5</ele>
        <time>2022-06-14T13:27:50Z</time>
      </trkpt>
      <trkpt lat="48.76036" lon="2.00364">
        <ele>171.5</ele>
        <time>2022-06-14T13:27:58Z</time>
      </trkpt>
      <trkpt lat="48.76038" lon="2.00352">
        <ele>171.5</ele>
        <time>2022-06-14T13:28:05Z</time>
      </trkpt>
      <trkpt lat="48.76037" lon="2.00341">
        <ele>171.6</ele>
        <time>2022-06-14T13:28:10Z</time>
      </trkpt>
      <trkpt lat="48.76035" lon="2.00331">
        <ele>171.7</ele>
        <time>2022-06-14T13:28:20Z</time>
      </trkpt>
      <trkpt lat="48.76034" lon="2.00321">
        <ele>171.7</ele>
        <time>2022-06-14T13:28:26Z</time>
      </trkpt>
      <trkpt lat="48.7603" lon="2.0031">
        <ele>171.7</ele>
        <time>2022-06-14T13:28:33Z</time>
      </trkpt>
      <trkpt lat="48.76024" lon="2.00298">
        <ele>171.7</ele>
        <time>2022-06-14T13:28:44Z</time>
      </trkpt>
      <trkpt lat="48.7603" lon="2.00296">
        <ele>171.5</ele>
        <time>2022-06-14T13:29:15Z</time>
      </trkpt>
      <trkpt lat="48.76016" lon="2.00286">
        <ele>171.6</ele>
        <time>2022-06-14T13:29:42Z</time>
      </trkpt>
      <trkpt lat="48.76014" lon="2.00277">
        <ele>171.5</ele>
        <time>2022-06-14T13:29:47Z</time>
      </trkpt>
      <trkpt lat="48.76022" lon="2.00287">
        <ele>171.5</ele>
        <time>2022-06-14T13:30:12Z</time>
      </trkpt>
      <trkpt lat="48.76019" lon="2.00275">
        <ele>171.4</ele>
        <time>2022-06-14T13:30:19Z</time>
      </trkpt>
      <trkpt lat="48.76012" lon="2.00266">
        <ele>171.3</ele>
        <time>2022-06-14T13:30:24Z</time>
      </trkpt>
      <trkpt lat="48.76016" lon="2.00254">
        <ele>171.1</ele>
        <time>2022-06-14T13:30:29Z</time>
      </trkpt>
      <trkpt lat="48.76018" lon="2.00244">
        <ele>171</ele>
        <time>2022-06-14T13:30:34Z</time>
      </trkpt>
      <trkpt lat="48.76015" lon="2.00234">
        <ele>170.9</ele>
        <time>2022-06-14T13:30:41Z</time>
      </trkpt>
      <trkpt lat="48.76019" lon="2.00226">
        <ele>170.8</ele>
        <time>2022-06-14T13:30:47Z</time>
      </trkpt>
      <trkpt lat="48.76025" lon="2.00217">
        <ele>170.8</ele>
        <time>2022-06-14T13:30:53Z</time>
      </trkpt>
      <trkpt lat="48.76027" lon="2.00207">
        <ele>170.8</ele>
        <time>2022-06-14T13:30:58Z</time>
      </trkpt>
      <trkpt lat="48.76024" lon="2.00196">
        <ele>170.7</ele>
        <time>2022-06-14T13:31:04Z</time>
      </trkpt>
      <trkpt lat="48.76022" lon="2.00184">
        <ele>170.6</ele>
        <time>2022-06-14T13:31:12Z</time>
      </trkpt>
      <trkpt lat="48.76018" lon="2.00176">
        <ele>170.5</ele>
        <time>2022-06-14T13:31:18Z</time>
      </trkpt>
      <trkpt lat="48.76014" lon="2.00166">
        <ele>170.3</ele>
        <time>2022-06-14T13:31:23Z</time>
      </trkpt>
      <trkpt lat="48.76016" lon="2.00156">
        <ele>170.5</ele>
        <time>2022-06-14T13:31:28Z</time>
      </trkpt>
      <trkpt lat="48.76014" lon="2.00145">
        <ele>170.5</ele>
        <time>2022-06-14T13:31:33Z</time>
      </trkpt>
      <trkpt lat="48.76017" lon="2.00134">
        <ele>170.6</ele>
        <time>2022-06-14T13:31:38Z</time>
      </trkpt>
      <trkpt lat="48.76014" lon="2.00124">
        <ele>170.7</ele>
        <time>2022-06-14T13:31:43Z</time>
      </trkpt>
      <trkpt lat="48.76007" lon="2.00123">
        <ele>170.6</ele>
        <time>2022-06-14T13:31:50Z</time>
      </trkpt>
      <trkpt lat="48.76007" lon="2.0011">
        <ele>170.7</ele>
        <time>2022-06-14T13:32:00Z</time>
      </trkpt>
      <trkpt lat="48.76012" lon="2.00102">
        <ele>170.8</ele>
        <time>2022-06-14T13:32:05Z</time>
      </trkpt>
      <trkpt lat="48.76018" lon="2.00092">
        <ele>170.9</ele>
        <time>2022-06-14T13:32:10Z</time>
      </trkpt>
      <trkpt lat="48.76013" lon="2.00084">
        <ele>171</ele>
        <time>2022-06-14T13:32:15Z</time>
      </trkpt>
      <trkpt lat="48.76007" lon="2.0008">
        <ele>171</ele>
        <time>2022-06-14T13:32:22Z</time>
      </trkpt>
      <trkpt lat="48.76004" lon="2.00068">
        <ele>171</ele>
        <time>2022-06-14T13:32:29Z</time>
      </trkpt>
      <trkpt lat="48.76004" lon="2.00057">
        <ele>171</ele>
        <time>2022-06-14T13:32:34Z</time>
      </trkpt>
      <trkpt lat="48.76006" lon="2.00046">
        <ele>171</ele>
        <time>2022-06-14T13:32:41Z</time>
      </trkpt>
      <trkpt lat="48.76012" lon="2.00037">
        <ele>171</ele>
        <time>2022-06-14T13:32:48Z</time>
      </trkpt>
      <trkpt lat="48.76014" lon="2.00026">
        <ele>171</ele>
        <time>2022-06-14T13:32:55Z</time>
      </trkpt>
      <trkpt lat="48.76016" lon="2.00015">
        <ele>171</ele>
        <time>2022-06-14T13:33:00Z</time>
      </trkpt>
      <trkpt lat="48.76014" lon="2.00002">
        <ele>171</ele>
        <time>2022-06-14T13:33:05Z</time>
      </trkpt>
      <trkpt lat="48.7602" lon="1.99996">
        <ele>171.2</ele>
        <time>2022-06-14T13:33:14Z</time>
      </trkpt>
      <trkpt lat="48.76022" lon="1.99985">
        <ele>171.7</ele>
        <time>2022-06-14T13:33:19Z</time>
      </trkpt>
      <trkpt lat="48.76026" lon="1.99974">
        <ele>172.2</ele>
        <time>2022-06-14T13:33:24Z</time>
      </trkpt>
      <trkpt lat="48.76024" lon="1.99963">
        <ele>172.6</ele>
        <time>2022-06-14T13:33:30Z</time>
      </trkpt>
      <trkpt lat="48.76019" lon="1.9995">
        <ele>173.3</ele>
        <time>2022-06-14T13:33:46Z</time>
      </trkpt>
      <trkpt lat="48.76012" lon="1.99949">
        <ele>173.4</ele>
        <time>2022-06-14T13:33:52Z</time>
      </trkpt>
      <trkpt lat="48.76012" lon="1.99938">
        <ele>173.9</ele>
        <time>2022-06-14T13:34:01Z</time>
      </trkpt>
      <trkpt lat="48.76016" lon="1.99929">
        <ele>174.2</ele>
        <time>2022-06-14T13:34:07Z</time>
      </trkpt>
      <trkpt lat="48.76023" lon="1.99922">
        <ele>174.5</ele>
        <time>2022-06-14T13:34:12Z</time>
      </trkpt>
      <trkpt lat="48.76025" lon="1.99912">
        <ele>174.7</ele>
        <time>2022-06-14T13:34:17Z</time>
      </trkpt>
      <trkpt lat="48.76023" lon="1.99901">
        <ele>174.9</ele>
        <time>2022-06-14T13:34:22Z</time>
      </trkpt>
      <trkpt lat="48.76017" lon="1.99893">
        <ele>175</ele>
        <time>2022-06-14T13:34:31Z</time>
      </trkpt>
      <trkpt lat="48.76009" lon="1.99884">
        <ele>175.2</ele>
        <time>2022-06-14T13:34:36Z</time>
      </trkpt>
      <trkpt lat="48.76003" lon="1.99878">
        <ele>175.4</ele>
        <time>2022-06-14T13:34:41Z</time>
      </trkpt>
      <trkpt lat="48.75997" lon="1.99873">
        <ele>175.6</ele>
        <time>2022-06-14T13:34:48Z</time>
      </trkpt>
      <trkpt lat="48.75993" lon="1.99865">
        <ele>175.8</ele>
        <time>2022-06-14T13:34:53Z</time>
      </trkpt>
      <trkpt lat="48.75987" lon="1.99856">
        <ele>176</ele>
        <time>2022-06-14T13:35:00Z</time>
      </trkpt>
      <trkpt lat="48.75984" lon="1.99847">
        <ele>176.2</ele>
        <time>2022-06-14T13:35:05Z</time>
      </trkpt>
      <trkpt lat="48.75985" lon="1.99837">
        <ele>176.3</ele>
        <time>2022-06-14T13:35:12Z</time>
      </trkpt>
      <trkpt lat="48.75986" lon="1.99826">
        <ele>176.4</ele>
        <time>2022-06-14T13:35:17Z</time>
      </trkpt>
      <trkpt lat="48.75985" lon="1.99814">
        <ele>176.6</ele>
        <time>2022-06-14T13:35:22Z</time>
      </trkpt>
      <trkpt lat="48.75987" lon="1.99805">
        <ele>176.7</ele>
        <time>2022-06-14T13:35:28Z</time>
      </trkpt>
      <trkpt lat="48.75992" lon="1.99798">
        <ele>176.6</ele>
        <time>2022-06-14T13:35:33Z</time>
      </trkpt>
      <trkpt lat="48.76003" lon="1.9979">
        <ele>176.4</ele>
        <time>2022-06-14T13:35:39Z</time>
      </trkpt>
      <trkpt lat="48.76004" lon="1.99779">
        <ele>176.6</ele>
        <time>2022-06-14T13:35:45Z</time>
      </trkpt>
      <trkpt lat="48.76005" lon="1.99768">
        <ele>176.7</ele>
        <time>2022-06-14T13:35:52Z</time>
      </trkpt>
      <trkpt lat="48.7601" lon="1.99761">
        <ele>176.6</ele>
        <time>2022-06-14T13:35:58Z</time>
      </trkpt>
      <trkpt lat="48.76017" lon="1.99758">
        <ele>176.5</ele>
        <time>2022-06-14T13:36:04Z</time>
      </trkpt>
      <trkpt lat="48.76018" lon="1.99747">
        <ele>176.6</ele>
        <time>2022-06-14T13:36:10Z</time>
      </trkpt>
      <trkpt lat="48.76014" lon="1.99737">
        <ele>176.7</ele>
        <time>2022-06-14T13:36:15Z</time>
      </trkpt>
      <trkpt lat="48.76014" lon="1.99727">
        <ele>176.7</ele>
        <time>2022-06-14T13:36:20Z</time>
      </trkpt>
      <trkpt lat="48.76011" lon="1.99718">
        <ele>176.8</ele>
        <time>2022-06-14T13:36:26Z</time>
      </trkpt>
      <trkpt lat="48.76008" lon="1.99709">
        <ele>176.9</ele>
        <time>2022-06-14T13:36:31Z</time>
      </trkpt>
      <trkpt lat="48.76005" lon="1.99698">
        <ele>176.9</ele>
        <time>2022-06-14T13:36:36Z</time>
      </trkpt>
      <trkpt lat="48.75998" lon="1.99695">
        <ele>177</ele>
        <time>2022-06-14T13:36:43Z</time>
      </trkpt>
      <trkpt lat="48.75991" lon="1.99692">
        <ele>177.2</ele>
        <time>2022-06-14T13:36:49Z</time>
      </trkpt>
      <trkpt lat="48.75985" lon="1.99685">
        <ele>177.4</ele>
        <time>2022-06-14T13:36:55Z</time>
      </trkpt>
      <trkpt lat="48.7598" lon="1.99674">
        <ele>177.5</ele>
        <time>2022-06-14T13:37:00Z</time>
      </trkpt>
      <trkpt lat="48.75979" lon="1.99663">
        <ele>177.5</ele>
        <time>2022-06-14T13:37:05Z</time>
      </trkpt>
      <trkpt lat="48.75977" lon="1.99652">
        <ele>177.6</ele>
        <time>2022-06-14T13:37:10Z</time>
      </trkpt>
      <trkpt lat="48.75974" lon="1.99637">
        <ele>177.6</ele>
        <time>2022-06-14T13:37:25Z</time>
      </trkpt>
      <trkpt lat="48.75967" lon="1.99629">
        <ele>177.8</ele>
        <time>2022-06-14T13:37:31Z</time>
      </trkpt>
      <trkpt lat="48.75975" lon="1.99627">
        <ele>177.6</ele>
        <time>2022-06-14T13:37:36Z</time>
      </trkpt>
      <trkpt lat="48.75985" lon="1.99625">
        <ele>177.4</ele>
        <time>2022-06-14T13:37:41Z</time>
      </trkpt>
      <trkpt lat="48.7598" lon="1.99618">
        <ele>177.5</ele>
        <time>2022-06-14T13:37:56Z</time>
      </trkpt>
      <trkpt lat="48.75979" lon="1.99608">
        <ele>177.5</ele>
        <time>2022-06-14T13:38:13Z</time>
      </trkpt>
      <trkpt lat="48.75973" lon="1.9961">
        <ele>177.6</ele>
        <time>2022-06-14T13:38:39Z</time>
      </trkpt>
      <trkpt lat="48.75966" lon="1.99615">
        <ele>177.8</ele>
        <time>2022-06-14T13:38:44Z</time>
      </trkpt>
      <trkpt lat="48.75959" lon="1.99621">
        <ele>178</ele>
        <time>2022-06-14T13:38:49Z</time>
      </trkpt>
      <trkpt lat="48.75952" lon="1.99622">
        <ele>178.2</ele>
        <time>2022-06-14T13:38:54Z</time>
      </trkpt>
      <trkpt lat="48.75945" lon="1.99628">
        <ele>178.3</ele>
        <time>2022-06-14T13:38:59Z</time>
      </trkpt>
      <trkpt lat="48.7594" lon="1.99634">
        <ele>178.4</ele>
        <time>2022-06-14T13:39:05Z</time>
      </trkpt>
      <trkpt lat="48.75937" lon="1.99644">
        <ele>178.5</ele>
        <time>2022-06-14T13:39:11Z</time>
      </trkpt>
      <trkpt lat="48.75932" lon="1.99651">
        <ele>178.6</ele>
        <time>2022-06-14T13:39:18Z</time>
      </trkpt>
      <trkpt lat="48.75926" lon="1.99656">
        <ele>178.8</ele>
        <time>2022-06-14T13:39:23Z</time>
      </trkpt>
      <trkpt lat="48.75919" lon="1.99657">
        <ele>178.9</ele>
        <time>2022-06-14T13:39:28Z</time>
      </trkpt>
      <trkpt lat="48.75912" lon="1.99661">
        <ele>179</ele>
        <time>2022-06-14T13:39:34Z</time>
      </trkpt>
      <trkpt lat="48.75905" lon="1.99658">
        <ele>179</ele>
        <time>2022-06-14T13:39:42Z</time>
      </trkpt>
      <trkpt lat="48.75903" lon="1.99647">
        <ele>179</ele>
        <time>2022-06-14T13:39:48Z</time>
      </trkpt>
      <trkpt lat="48.75902" lon="1.99634">
        <ele>178.9</ele>
        <time>2022-06-14T13:39:54Z</time>
      </trkpt>
      <trkpt lat="48.75898" lon="1.99622">
        <ele>178.9</ele>
        <time>2022-06-14T13:39:59Z</time>
      </trkpt>
      <trkpt lat="48.75895" lon="1.99613">
        <ele>178.8</ele>
        <time>2022-06-14T13:40:05Z</time>
      </trkpt>
      <trkpt lat="48.75894" lon="1.99603">
        <ele>178.8</ele>
        <time>2022-06-14T13:40:13Z</time>
      </trkpt>
      <trkpt lat="48.7589" lon="1.99592">
        <ele>178.7</ele>
        <time>2022-06-14T13:40:29Z</time>
      </trkpt>
      <trkpt lat="48.75888" lon="1.99579">
        <ele>178.7</ele>
        <time>2022-06-14T13:40:34Z</time>
      </trkpt>
      <trkpt lat="48.75889" lon="1.99569">
        <ele>178.7</ele>
        <time>2022-06-14T13:40:40Z</time>
      </trkpt>
      <trkpt lat="48.7589" lon="1.99556">
        <ele>178.7</ele>
        <time>2022-06-14T13:40:45Z</time>
      </trkpt>
      <trkpt lat="48.75888" lon="1.99545">
        <ele>178.7</ele>
        <time>2022-06-14T13:40:51Z</time>
      </trkpt>
      <trkpt lat="48.75884" lon="1.99537">
        <ele>178.6</ele>
        <time>2022-06-14T13:40:57Z</time>
      </trkpt>
      <trkpt lat="48.75877" lon="1.99532">
        <ele>178.5</ele>
        <time>2022-06-14T13:41:02Z</time>
      </trkpt>
      <trkpt lat="48.75872" lon="1.99525">
        <ele>178.5</ele>
        <time>2022-06-14T13:41:07Z</time>
      </trkpt>
      <trkpt lat="48.75864" lon="1.99523">
        <ele>178.4</ele>
        <time>2022-06-14T13:41:12Z</time>
      </trkpt>
      <trkpt lat="48.75855" lon="1.99518">
        <ele>178.3</ele>
        <time>2022-06-14T13:41:17Z</time>
      </trkpt>
      <trkpt lat="48.7585" lon="1.99509">
        <ele>178.2</ele>
        <time>2022-06-14T13:41:22Z</time>
      </trkpt>
      <trkpt lat="48.75851" lon="1.99497">
        <ele>178.2</ele>
        <time>2022-06-14T13:41:27Z</time>
      </trkpt>
      <trkpt lat="48.75846" lon="1.99488">
        <ele>178.2</ele>
        <time>2022-06-14T13:41:32Z</time>
      </trkpt>
      <trkpt lat="48.7584" lon="1.9948">
        <ele>178.1</ele>
        <time>2022-06-14T13:41:38Z</time>
      </trkpt>
      <trkpt lat="48.75831" lon="1.99476">
        <ele>178</ele>
        <time>2022-06-14T13:41:43Z</time>
      </trkpt>
      <trkpt lat="48.75825" lon="1.99469">
        <ele>177.8</ele>
        <time>2022-06-14T13:41:48Z</time>
      </trkpt>
      <trkpt lat="48.75824" lon="1.99459">
        <ele>177.8</ele>
        <time>2022-06-14T13:41:54Z</time>
      </trkpt>
      <trkpt lat="48.75817" lon="1.99455">
        <ele>177.7</ele>
        <time>2022-06-14T13:42:01Z</time>
      </trkpt>
      <trkpt lat="48.7581" lon="1.99451">
        <ele>177.6</ele>
        <time>2022-06-14T13:42:09Z</time>
      </trkpt>
      <trkpt lat="48.75802" lon="1.99452">
        <ele>177.5</ele>
        <time>2022-06-14T13:42:14Z</time>
      </trkpt>
      <trkpt lat="48.75795" lon="1.99452">
        <ele>177.3</ele>
        <time>2022-06-14T13:42:20Z</time>
      </trkpt>
      <trkpt lat="48.75787" lon="1.99455">
        <ele>177.2</ele>
        <time>2022-06-14T13:42:25Z</time>
      </trkpt>
      <trkpt lat="48.7578" lon="1.99453">
        <ele>177.1</ele>
        <time>2022-06-14T13:42:30Z</time>
      </trkpt>
      <trkpt lat="48.75771" lon="1.99449">
        <ele>177</ele>
        <time>2022-06-14T13:42:54Z</time>
      </trkpt>
      <trkpt lat="48.75771" lon="1.99436">
        <ele>177.1</ele>
        <time>2022-06-14T13:42:59Z</time>
      </trkpt>
      <trkpt lat="48.75763" lon="1.99427">
        <ele>177.1</ele>
        <time>2022-06-14T13:43:14Z</time>
      </trkpt>
      <trkpt lat="48.75757" lon="1.99422">
        <ele>177</ele>
        <time>2022-06-14T13:44:07Z</time>
      </trkpt>
      <trkpt lat="48.75751" lon="1.99412">
        <ele>177.1</ele>
        <time>2022-06-14T13:44:12Z</time>
      </trkpt>
      <trkpt lat="48.75747" lon="1.99401">
        <ele>177.4</ele>
        <time>2022-06-14T13:44:18Z</time>
      </trkpt>
      <trkpt lat="48.75744" lon="1.9939">
        <ele>177.8</ele>
        <time>2022-06-14T13:44:24Z</time>
      </trkpt>
      <trkpt lat="48.75742" lon="1.9938">
        <ele>178</ele>
        <time>2022-06-14T13:44:29Z</time>
      </trkpt>
      <trkpt lat="48.75746" lon="1.9937">
        <ele>178.2</ele>
        <time>2022-06-14T13:44:34Z</time>
      </trkpt>
      <trkpt lat="48.75751" lon="1.99362">
        <ele>178.3</ele>
        <time>2022-06-14T13:44:39Z</time>
      </trkpt>
      <trkpt lat="48.75747" lon="1.99351">
        <ele>178.6</ele>
        <time>2022-06-14T13:44:44Z</time>
      </trkpt>
      <trkpt lat="48.75741" lon="1.99347">
        <ele>178.8</ele>
        <time>2022-06-14T13:44:50Z</time>
      </trkpt>
      <trkpt lat="48.75735" lon="1.9934">
        <ele>179</ele>
        <time>2022-06-14T13:44:55Z</time>
      </trkpt>
      <trkpt lat="48.75733" lon="1.99329">
        <ele>179.2</ele>
        <time>2022-06-14T13:45:00Z</time>
      </trkpt>
      <trkpt lat="48.75726" lon="1.99324">
        <ele>179.3</ele>
        <time>2022-06-14T13:45:25Z</time>
      </trkpt>
      <trkpt lat="48.75717" lon="1.99318">
        <ele>179.3</ele>
        <time>2022-06-14T13:45:30Z</time>
      </trkpt>
      <trkpt lat="48.75708" lon="1.99314">
        <ele>179.4</ele>
        <time>2022-06-14T13:45:35Z</time>
      </trkpt>
      <trkpt lat="48.75702" lon="1.99304">
        <ele>179.4</ele>
        <time>2022-06-14T13:45:41Z</time>
      </trkpt>
      <trkpt lat="48.75696" lon="1.99297">
        <ele>179.4</ele>
        <time>2022-06-14T13:45:50Z</time>
      </trkpt>
      <trkpt lat="48.75694" lon="1.99287">
        <ele>179.3</ele>
        <time>2022-06-14T13:46:11Z</time>
      </trkpt>
      <trkpt lat="48.75694" lon="1.99277">
        <ele>179.2</ele>
        <time>2022-06-14T13:46:17Z</time>
      </trkpt>
      <trkpt lat="48.75694" lon="1.99267">
        <ele>179.1</ele>
        <time>2022-06-14T13:46:23Z</time>
      </trkpt>
      <trkpt lat="48.75692" lon="1.99256">
        <ele>179.1</ele>
        <time>2022-06-14T13:46:33Z</time>
      </trkpt>
      <trkpt lat="48.75685" lon="1.99253">
        <ele>179</ele>
        <time>2022-06-14T13:46:38Z</time>
      </trkpt>
      <trkpt lat="48.75677" lon="1.9925">
        <ele>179</ele>
        <time>2022-06-14T13:46:50Z</time>
      </trkpt>
      <trkpt lat="48.75672" lon="1.99241">
        <ele>179.1</ele>
        <time>2022-06-14T13:46:58Z</time>
      </trkpt>
      <trkpt lat="48.75672" lon="1.99228">
        <ele>179.3</ele>
        <time>2022-06-14T13:47:04Z</time>
      </trkpt>
      <trkpt lat="48.75669" lon="1.99215">
        <ele>179.4</ele>
        <time>2022-06-14T13:47:09Z</time>
      </trkpt>
      <trkpt lat="48.75664" lon="1.9921">
        <ele>179.5</ele>
        <time>2022-06-14T13:47:14Z</time>
      </trkpt>
      <trkpt lat="48.75656" lon="1.99199">
        <ele>179.6</ele>
        <time>2022-06-14T13:47:19Z</time>
      </trkpt>
      <trkpt lat="48.75655" lon="1.99187">
        <ele>179.7</ele>
        <time>2022-06-14T13:47:24Z</time>
      </trkpt>
      <trkpt lat="48.75649" lon="1.9918">
        <ele>179.7</ele>
        <time>2022-06-14T13:47:29Z</time>
      </trkpt>
      <trkpt lat="48.75645" lon="1.99172">
        <ele>179.7</ele>
        <time>2022-06-14T13:47:34Z</time>
      </trkpt>
      <trkpt lat="48.75638" lon="1.99168">
        <ele>179.7</ele>
        <time>2022-06-14T13:47:39Z</time>
      </trkpt>
      <trkpt lat="48.75632" lon="1.99163">
        <ele>179.6</ele>
        <time>2022-06-14T13:47:44Z</time>
      </trkpt>
      <trkpt lat="48.75625" lon="1.99156">
        <ele>179.5</ele>
        <time>2022-06-14T13:47:49Z</time>
      </trkpt>
      <trkpt lat="48.75616" lon="1.99154">
        <ele>179.4</ele>
        <time>2022-06-14T13:47:55Z</time>
      </trkpt>
      <trkpt lat="48.75611" lon="1.99146">
        <ele>179.4</ele>
        <time>2022-06-14T13:48:00Z</time>
      </trkpt>
      <trkpt lat="48.75609" lon="1.99132">
        <ele>179.5</ele>
        <time>2022-06-14T13:48:06Z</time>
      </trkpt>
      <trkpt lat="48.75604" lon="1.99124">
        <ele>179.5</ele>
        <time>2022-06-14T13:48:14Z</time>
      </trkpt>
      <trkpt lat="48.75602" lon="1.99114">
        <ele>179.6</ele>
        <time>2022-06-14T13:48:19Z</time>
      </trkpt>
      <trkpt lat="48.75598" lon="1.99103">
        <ele>179.7</ele>
        <time>2022-06-14T13:48:24Z</time>
      </trkpt>
      <trkpt lat="48.75596" lon="1.99092">
        <ele>179.8</ele>
        <time>2022-06-14T13:48:29Z</time>
      </trkpt>
      <trkpt lat="48.75593" lon="1.99081">
        <ele>179.9</ele>
        <time>2022-06-14T13:48:34Z</time>
      </trkpt>
      <trkpt lat="48.75589" lon="1.9907">
        <ele>179.9</ele>
        <time>2022-06-14T13:48:39Z</time>
      </trkpt>
      <trkpt lat="48.75592" lon="1.99059">
        <ele>179.9</ele>
        <time>2022-06-14T13:48:44Z</time>
      </trkpt>
      <trkpt lat="48.75594" lon="1.99048">
        <ele>179.9</ele>
        <time>2022-06-14T13:48:50Z</time>
      </trkpt>
      <trkpt lat="48.75598" lon="1.99038">
        <ele>179.8</ele>
        <time>2022-06-14T13:48:55Z</time>
      </trkpt>
      <trkpt lat="48.75595" lon="1.99025">
        <ele>179.9</ele>
        <time>2022-06-14T13:49:00Z</time>
      </trkpt>
      <trkpt lat="48.75587" lon="1.99015">
        <ele>180</ele>
        <time>2022-06-14T13:49:05Z</time>
      </trkpt>
      <trkpt lat="48.75579" lon="1.99011">
        <ele>180</ele>
        <time>2022-06-14T13:49:10Z</time>
      </trkpt>
      <trkpt lat="48.75573" lon="1.99003">
        <ele>179.9</ele>
        <time>2022-06-14T13:49:17Z</time>
      </trkpt>
      <trkpt lat="48.7557" lon="1.98993">
        <ele>179.8</ele>
        <time>2022-06-14T13:49:22Z</time>
      </trkpt>
      <trkpt lat="48.75563" lon="1.98985">
        <ele>179.7</ele>
        <time>2022-06-14T13:49:27Z</time>
      </trkpt>
      <trkpt lat="48.7556" lon="1.98974">
        <ele>179.5</ele>
        <time>2022-06-14T13:49:32Z</time>
      </trkpt>
      <trkpt lat="48.75558" lon="1.98964">
        <ele>179.4</ele>
        <time>2022-06-14T13:49:37Z</time>
      </trkpt>
      <trkpt lat="48.75557" lon="1.98953">
        <ele>179.3</ele>
        <time>2022-06-14T13:49:42Z</time>
      </trkpt>
      <trkpt lat="48.75552" lon="1.98941">
        <ele>179.1</ele>
        <time>2022-06-14T13:49:47Z</time>
      </trkpt>
      <trkpt lat="48.7555" lon="1.98929">
        <ele>178.9</ele>
        <time>2022-06-14T13:49:52Z</time>
      </trkpt>
      <trkpt lat="48.75544" lon="1.98923">
        <ele>178.7</ele>
        <time>2022-06-14T13:50:07Z</time>
      </trkpt>
      <trkpt lat="48.75543" lon="1.98909">
        <ele>178.4</ele>
        <time>2022-06-14T13:50:12Z</time>
      </trkpt>
      <trkpt lat="48.75539" lon="1.98902">
        <ele>178.1</ele>
        <time>2022-06-14T13:50:19Z</time>
      </trkpt>
      <trkpt lat="48.75539" lon="1.98888">
        <ele>177.9</ele>
        <time>2022-06-14T13:50:51Z</time>
      </trkpt>
      <trkpt lat="48.75534" lon="1.98879">
        <ele>177.4</ele>
        <time>2022-06-14T13:50:56Z</time>
      </trkpt>
      <trkpt lat="48.75528" lon="1.98873">
        <ele>177</ele>
        <time>2022-06-14T13:51:04Z</time>
      </trkpt>
      <trkpt lat="48.75519" lon="1.98867">
        <ele>176.3</ele>
        <time>2022-06-14T13:51:09Z</time>
      </trkpt>
      <trkpt lat="48.75513" lon="1.98863">
        <ele>175.8</ele>
        <time>2022-06-14T13:51:14Z</time>
      </trkpt>
      <trkpt lat="48.75505" lon="1.9886">
        <ele>175.3</ele>
        <time>2022-06-14T13:51:22Z</time>
      </trkpt>
      <trkpt lat="48.75499" lon="1.98853">
        <ele>174.7</ele>
        <time>2022-06-14T13:51:27Z</time>
      </trkpt>
      <trkpt lat="48.75492" lon="1.9885">
        <ele>174.8</ele>
        <time>2022-06-14T13:51:33Z</time>
      </trkpt>
      <trkpt lat="48.75485" lon="1.9885">
        <ele>175.1</ele>
        <time>2022-06-14T13:51:38Z</time>
      </trkpt>
      <trkpt lat="48.75478" lon="1.98852">
        <ele>175.3</ele>
        <time>2022-06-14T13:51:44Z</time>
      </trkpt>
      <trkpt lat="48.75471" lon="1.98852">
        <ele>175.6</ele>
        <time>2022-06-14T13:51:49Z</time>
      </trkpt>
      <trkpt lat="48.75464" lon="1.98851">
        <ele>175.7</ele>
        <time>2022-06-14T13:51:55Z</time>
      </trkpt>
      <trkpt lat="48.75456" lon="1.98847">
        <ele>175.9</ele>
        <time>2022-06-14T13:52:00Z</time>
      </trkpt>
      <trkpt lat="48.75449" lon="1.98845">
        <ele>176.1</ele>
        <time>2022-06-14T13:52:05Z</time>
      </trkpt>
      <trkpt lat="48.7544" lon="1.98847">
        <ele>176.4</ele>
        <time>2022-06-14T13:52:10Z</time>
      </trkpt>
      <trkpt lat="48.75434" lon="1.98858">
        <ele>176.8</ele>
        <time>2022-06-14T13:52:17Z</time>
      </trkpt>
      <trkpt lat="48.75433" lon="1.98868">
        <ele>177</ele>
        <time>2022-06-14T13:52:23Z</time>
      </trkpt>
      <trkpt lat="48.75432" lon="1.9888">
        <ele>177.2</ele>
        <time>2022-06-14T13:52:30Z</time>
      </trkpt>
      <trkpt lat="48.75429" lon="1.9889">
        <ele>177.4</ele>
        <time>2022-06-14T13:52:36Z</time>
      </trkpt>
      <trkpt lat="48.75425" lon="1.98898">
        <ele>177.6</ele>
        <time>2022-06-14T13:52:42Z</time>
      </trkpt>
      <trkpt lat="48.75426" lon="1.98908">
        <ele>177.8</ele>
        <time>2022-06-14T13:52:49Z</time>
      </trkpt>
      <trkpt lat="48.75422" lon="1.98917">
        <ele>177.9</ele>
        <time>2022-06-14T13:52:54Z</time>
      </trkpt>
      <trkpt lat="48.7542" lon="1.98927">
        <ele>178.2</ele>
        <time>2022-06-14T13:53:00Z</time>
      </trkpt>
      <trkpt lat="48.75419" lon="1.98936">
        <ele>178.4</ele>
        <time>2022-06-14T13:53:05Z</time>
      </trkpt>
      <trkpt lat="48.75417" lon="1.98947">
        <ele>178.7</ele>
        <time>2022-06-14T13:53:10Z</time>
      </trkpt>
      <trkpt lat="48.75413" lon="1.98954">
        <ele>178.8</ele>
        <time>2022-06-14T13:53:21Z</time>
      </trkpt>
      <trkpt lat="48.75405" lon="1.98958">
        <ele>178.6</ele>
        <time>2022-06-14T13:53:26Z</time>
      </trkpt>
      <trkpt lat="48.75398" lon="1.98963">
        <ele>178.4</ele>
        <time>2022-06-14T13:53:31Z</time>
      </trkpt>
      <trkpt lat="48.75392" lon="1.98963">
        <ele>178.2</ele>
        <time>2022-06-14T13:53:37Z</time>
      </trkpt>
      <trkpt lat="48.75384" lon="1.98965">
        <ele>178</ele>
        <time>2022-06-14T13:53:44Z</time>
      </trkpt>
      <trkpt lat="48.75375" lon="1.98972">
        <ele>177.8</ele>
        <time>2022-06-14T13:53:49Z</time>
      </trkpt>
      <trkpt lat="48.75367" lon="1.98974">
        <ele>177.6</ele>
        <time>2022-06-14T13:53:54Z</time>
      </trkpt>
      <trkpt lat="48.75362" lon="1.98966">
        <ele>177.2</ele>
        <time>2022-06-14T13:54:04Z</time>
      </trkpt>
      <trkpt lat="48.75361" lon="1.98955">
        <ele>176.9</ele>
        <time>2022-06-14T13:54:10Z</time>
      </trkpt>
      <trkpt lat="48.7536" lon="1.98944">
        <ele>176.6</ele>
        <time>2022-06-14T13:54:16Z</time>
      </trkpt>
      <trkpt lat="48.75354" lon="1.98943">
        <ele>176.4</ele>
        <time>2022-06-14T13:54:24Z</time>
      </trkpt>
      <trkpt lat="48.75348" lon="1.98948">
        <ele>176.3</ele>
        <time>2022-06-14T13:54:29Z</time>
      </trkpt>
      <trkpt lat="48.75339" lon="1.98947">
        <ele>175.9</ele>
        <time>2022-06-14T13:54:34Z</time>
      </trkpt>
      <trkpt lat="48.75332" lon="1.98948">
        <ele>175.7</ele>
        <time>2022-06-14T13:54:40Z</time>
      </trkpt>
      <trkpt lat="48.75326" lon="1.98943">
        <ele>175.5</ele>
        <time>2022-06-14T13:54:45Z</time>
      </trkpt>
      <trkpt lat="48.75319" lon="1.98947">
        <ele>175.4</ele>
        <time>2022-06-14T13:54:51Z</time>
      </trkpt>
      <trkpt lat="48.75313" lon="1.98948">
        <ele>175.3</ele>
        <time>2022-06-14T13:54:56Z</time>
      </trkpt>
      <trkpt lat="48.75306" lon="1.98945">
        <ele>175.1</ele>
        <time>2022-06-14T13:55:01Z</time>
      </trkpt>
      <trkpt lat="48.753" lon="1.98949">
        <ele>175.1</ele>
        <time>2022-06-14T13:55:06Z</time>
      </trkpt>
      <trkpt lat="48.75293" lon="1.98953">
        <ele>175</ele>
        <time>2022-06-14T13:55:11Z</time>
      </trkpt>
      <trkpt lat="48.75287" lon="1.98955">
        <ele>174.9</ele>
        <time>2022-06-14T13:55:19Z</time>
      </trkpt>
      <trkpt lat="48.75278" lon="1.98957">
        <ele>174.7</ele>
        <time>2022-06-14T13:55:27Z</time>
      </trkpt>
      <trkpt lat="48.75273" lon="1.98967">
        <ele>174.6</ele>
        <time>2022-06-14T13:56:04Z</time>
      </trkpt>
      <trkpt lat="48.75265" lon="1.98956">
        <ele>174.3</ele>
        <time>2022-06-14T13:56:28Z</time>
      </trkpt>
      <trkpt lat="48.75275" lon="1.98957">
        <ele>174.6</ele>
        <time>2022-06-14T13:56:42Z</time>
      </trkpt>
      <trkpt lat="48.75281" lon="1.98962">
        <ele>174.8</ele>
        <time>2022-06-14T13:56:47Z</time>
      </trkpt>
      <trkpt lat="48.75283" lon="1.98976">
        <ele>175</ele>
        <time>2022-06-14T13:56:52Z</time>
      </trkpt>
      <trkpt lat="48.7528" lon="1.98984">
        <ele>174.9</ele>
        <time>2022-06-14T13:56:58Z</time>
      </trkpt>
      <trkpt lat="48.75272" lon="1.98988">
        <ele>174.7</ele>
        <time>2022-06-14T13:57:03Z</time>
      </trkpt>
      <trkpt lat="48.75265" lon="1.9899">
        <ele>174.5</ele>
        <time>2022-06-14T13:57:08Z</time>
      </trkpt>
      <trkpt lat="48.75258" lon="1.9899">
        <ele>174.3</ele>
        <time>2022-06-14T13:57:14Z</time>
      </trkpt>
      <trkpt lat="48.75253" lon="1.98997">
        <ele>174.1</ele>
        <time>2022-06-14T13:57:31Z</time>
      </trkpt>
      <trkpt lat="48.75248" lon="1.98991">
        <ele>173.9</ele>
        <time>2022-06-14T13:57:41Z</time>
      </trkpt>
      <trkpt lat="48.75241" lon="1.98994">
        <ele>173.6</ele>
        <time>2022-06-14T13:57:56Z</time>
      </trkpt>
      <trkpt lat="48.75237" lon="1.98985">
        <ele>173.3</ele>
        <time>2022-06-14T13:58:04Z</time>
      </trkpt>
      <trkpt lat="48.7523" lon="1.98985">
        <ele>173</ele>
        <time>2022-06-14T13:58:10Z</time>
      </trkpt>
      <trkpt lat="48.75224" lon="1.9899">
        <ele>172.7</ele>
        <time>2022-06-14T13:58:16Z</time>
      </trkpt>
      <trkpt lat="48.75218" lon="1.98986">
        <ele>172.4</ele>
        <time>2022-06-14T13:58:21Z</time>
      </trkpt>
      <trkpt lat="48.75211" lon="1.98986">
        <ele>172</ele>
        <time>2022-06-14T13:58:27Z</time>
      </trkpt>
      <trkpt lat="48.75203" lon="1.9899">
        <ele>171.7</ele>
        <time>2022-06-14T13:58:32Z</time>
      </trkpt>
      <trkpt lat="48.75196" lon="1.98994">
        <ele>171.4</ele>
        <time>2022-06-14T13:58:39Z</time>
      </trkpt>
      <trkpt lat="48.75188" lon="1.98991">
        <ele>170.9</ele>
        <time>2022-06-14T13:58:52Z</time>
      </trkpt>
      <trkpt lat="48.75183" lon="1.98982">
        <ele>170.6</ele>
        <time>2022-06-14T13:58:59Z</time>
      </trkpt>
      <trkpt lat="48.75185" lon="1.98971">
        <ele>170.6</ele>
        <time>2022-06-14T13:59:04Z</time>
      </trkpt>
      <trkpt lat="48.75187" lon="1.98961">
        <ele>170.6</ele>
        <time>2022-06-14T13:59:10Z</time>
      </trkpt>
      <trkpt lat="48.75187" lon="1.98951">
        <ele>170.5</ele>
        <time>2022-06-14T13:59:15Z</time>
      </trkpt>
      <trkpt lat="48.75187" lon="1.98939">
        <ele>170.4</ele>
        <time>2022-06-14T13:59:20Z</time>
      </trkpt>
      <trkpt lat="48.75187" lon="1.98927">
        <ele>170.3</ele>
        <time>2022-06-14T13:59:25Z</time>
      </trkpt>
      <trkpt lat="48.75182" lon="1.9892">
        <ele>170</ele>
        <time>2022-06-14T13:59:31Z</time>
      </trkpt>
      <trkpt lat="48.75175" lon="1.98913">
        <ele>169.5</ele>
        <time>2022-06-14T13:59:36Z</time>
      </trkpt>
      <trkpt lat="48.7517" lon="1.98905">
        <ele>169.2</ele>
        <time>2022-06-14T13:59:42Z</time>
      </trkpt>
      <trkpt lat="48.75167" lon="1.98895">
        <ele>169</ele>
        <time>2022-06-14T13:59:47Z</time>
      </trkpt>
      <trkpt lat="48.75162" lon="1.98887">
        <ele>168.8</ele>
        <time>2022-06-14T13:59:52Z</time>
      </trkpt>
      <trkpt lat="48.75156" lon="1.98889">
        <ele>168.6</ele>
        <time>2022-06-14T13:59:57Z</time>
      </trkpt>
      <trkpt lat="48.75149" lon="1.98888">
        <ele>168.3</ele>
        <time>2022-06-14T14:00:04Z</time>
      </trkpt>
      <trkpt lat="48.75143" lon="1.9888">
        <ele>168</ele>
        <time>2022-06-14T14:00:10Z</time>
      </trkpt>
      <trkpt lat="48.75137" lon="1.98877">
        <ele>167.8</ele>
        <time>2022-06-14T14:00:22Z</time>
      </trkpt>
      <trkpt lat="48.75131" lon="1.98866">
        <ele>167.5</ele>
        <time>2022-06-14T14:00:27Z</time>
      </trkpt>
      <trkpt lat="48.75131" lon="1.9885">
        <ele>167.4</ele>
        <time>2022-06-14T14:00:32Z</time>
      </trkpt>
      <trkpt lat="48.75132" lon="1.98837">
        <ele>167.4</ele>
        <time>2022-06-14T14:00:37Z</time>
      </trkpt>
      <trkpt lat="48.75133" lon="1.98825">
        <ele>167.2</ele>
        <time>2022-06-14T14:00:42Z</time>
      </trkpt>
      <trkpt lat="48.75134" lon="1.98815">
        <ele>167</ele>
        <time>2022-06-14T14:00:47Z</time>
      </trkpt>
      <trkpt lat="48.75136" lon="1.98804">
        <ele>166.8</ele>
        <time>2022-06-14T14:00:52Z</time>
      </trkpt>
      <trkpt lat="48.75135" lon="1.9879">
        <ele>166.4</ele>
        <time>2022-06-14T14:00:57Z</time>
      </trkpt>
      <trkpt lat="48.75137" lon="1.9878">
        <ele>166.3</ele>
        <time>2022-06-14T14:01:02Z</time>
      </trkpt>
      <trkpt lat="48.75136" lon="1.98768">
        <ele>165.9</ele>
        <time>2022-06-14T14:01:07Z</time>
      </trkpt>
      <trkpt lat="48.75135" lon="1.98756">
        <ele>165.5</ele>
        <time>2022-06-14T14:01:12Z</time>
      </trkpt>
      <trkpt lat="48.75136" lon="1.98745">
        <ele>165.3</ele>
        <time>2022-06-14T14:01:17Z</time>
      </trkpt>
      <trkpt lat="48.75136" lon="1.98732">
        <ele>165.1</ele>
        <time>2022-06-14T14:01:22Z</time>
      </trkpt>
      <trkpt lat="48.75138" lon="1.98721">
        <ele>165</ele>
        <time>2022-06-14T14:01:27Z</time>
      </trkpt>
      <trkpt lat="48.75137" lon="1.9871">
        <ele>164.7</ele>
        <time>2022-06-14T14:01:32Z</time>
      </trkpt>
      <trkpt lat="48.75136" lon="1.98699">
        <ele>164.4</ele>
        <time>2022-06-14T14:01:37Z</time>
      </trkpt>
      <trkpt lat="48.75137" lon="1.98685">
        <ele>164.2</ele>
        <time>2022-06-14T14:01:42Z</time>
      </trkpt>
      <trkpt lat="48.75138" lon="1.98673">
        <ele>164.1</ele>
        <time>2022-06-14T14:01:47Z</time>
      </trkpt>
      <trkpt lat="48.75138" lon="1.98662">
        <ele>163.8</ele>
        <time>2022-06-14T14:01:52Z</time>
      </trkpt>
      <trkpt lat="48.75136" lon="1.9865">
        <ele>163.3</ele>
        <time>2022-06-14T14:01:57Z</time>
      </trkpt>
      <trkpt lat="48.75138" lon="1.98638">
        <ele>163</ele>
        <time>2022-06-14T14:02:02Z</time>
      </trkpt>
      <trkpt lat="48.75139" lon="1.98628">
        <ele>162.8</ele>
        <time>2022-06-14T14:02:07Z</time>
      </trkpt>
      <trkpt lat="48.7514" lon="1.98616">
        <ele>162.4</ele>
        <time>2022-06-14T14:02:12Z</time>
      </trkpt>
      <trkpt lat="48.7514" lon="1.98605">
        <ele>162.1</ele>
        <time>2022-06-14T14:02:17Z</time>
      </trkpt>
      <trkpt lat="48.75142" lon="1.98593">
        <ele>161.7</ele>
        <time>2022-06-14T14:02:22Z</time>
      </trkpt>
      <trkpt lat="48.75139" lon="1.98578">
        <ele>161.3</ele>
        <time>2022-06-14T14:02:27Z</time>
      </trkpt>
      <trkpt lat="48.75141" lon="1.98568">
        <ele>161.3</ele>
        <time>2022-06-14T14:02:32Z</time>
      </trkpt>
      <trkpt lat="48.75146" lon="1.98557">
        <ele>161.3</ele>
        <time>2022-06-14T14:02:37Z</time>
      </trkpt>
      <trkpt lat="48.75147" lon="1.98547">
        <ele>161.2</ele>
        <time>2022-06-14T14:02:43Z</time>
      </trkpt>
      <trkpt lat="48.75153" lon="1.98539">
        <ele>161.2</ele>
        <time>2022-06-14T14:02:52Z</time>
      </trkpt>
      <trkpt lat="48.75156" lon="1.9853">
        <ele>161.2</ele>
        <time>2022-06-14T14:03:35Z</time>
      </trkpt>
      <trkpt lat="48.75162" lon="1.98522">
        <ele>161.2</ele>
        <time>2022-06-14T14:03:40Z</time>
      </trkpt>
      <trkpt lat="48.75169" lon="1.98519">
        <ele>161.3</ele>
        <time>2022-06-14T14:03:51Z</time>
      </trkpt>
      <trkpt lat="48.75178" lon="1.98512">
        <ele>161.6</ele>
        <time>2022-06-14T14:03:56Z</time>
      </trkpt>
      <trkpt lat="48.75183" lon="1.98504">
        <ele>161.7</ele>
        <time>2022-06-14T14:04:01Z</time>
      </trkpt>
      <trkpt lat="48.75189" lon="1.98493">
        <ele>161.9</ele>
        <time>2022-06-14T14:04:06Z</time>
      </trkpt>
      <trkpt lat="48.75192" lon="1.98484">
        <ele>162.1</ele>
        <time>2022-06-14T14:04:11Z</time>
      </trkpt>
      <trkpt lat="48.75197" lon="1.98473">
        <ele>162.3</ele>
        <time>2022-06-14T14:04:16Z</time>
      </trkpt>
      <trkpt lat="48.75198" lon="1.98461">
        <ele>162.4</ele>
        <time>2022-06-14T14:04:21Z</time>
      </trkpt>
      <trkpt lat="48.75202" lon="1.9845">
        <ele>162.5</ele>
        <time>2022-06-14T14:04:26Z</time>
      </trkpt>
      <trkpt lat="48.75205" lon="1.98441">
        <ele>162.5</ele>
        <time>2022-06-14T14:04:32Z</time>
      </trkpt>
      <trkpt lat="48.75212" lon="1.9843">
        <ele>162.5</ele>
        <time>2022-06-14T14:04:37Z</time>
      </trkpt>
      <trkpt lat="48.75218" lon="1.98422">
        <ele>162.4</ele>
        <time>2022-06-14T14:04:42Z</time>
      </trkpt>
      <trkpt lat="48.75223" lon="1.98416">
        <ele>162.3</ele>
        <time>2022-06-14T14:04:47Z</time>
      </trkpt>
      <trkpt lat="48.75228" lon="1.98407">
        <ele>162.4</ele>
        <time>2022-06-14T14:04:55Z</time>
      </trkpt>
      <trkpt lat="48.75234" lon="1.98402">
        <ele>162.4</ele>
        <time>2022-06-14T14:05:00Z</time>
      </trkpt>
      <trkpt lat="48.7524" lon="1.98393">
        <ele>162.4</ele>
        <time>2022-06-14T14:05:05Z</time>
      </trkpt>
      <trkpt lat="48.75244" lon="1.98385">
        <ele>162.5</ele>
        <time>2022-06-14T14:05:10Z</time>
      </trkpt>
      <trkpt lat="48.7525" lon="1.98378">
        <ele>162.5</ele>
        <time>2022-06-14T14:05:15Z</time>
      </trkpt>
      <trkpt lat="48.75255" lon="1.9837">
        <ele>162.9</ele>
        <time>2022-06-14T14:05:20Z</time>
      </trkpt>
      <trkpt lat="48.75261" lon="1.98364">
        <ele>163.3</ele>
        <time>2022-06-14T14:05:25Z</time>
      </trkpt>
      <trkpt lat="48.75267" lon="1.98354">
        <ele>163.7</ele>
        <time>2022-06-14T14:05:30Z</time>
      </trkpt>
      <trkpt lat="48.75272" lon="1.98346">
        <ele>164</ele>
        <time>2022-06-14T14:05:35Z</time>
      </trkpt>
      <trkpt lat="48.75277" lon="1.98337">
        <ele>164.3</ele>
        <time>2022-06-14T14:05:40Z</time>
      </trkpt>
      <trkpt lat="48.75282" lon="1.9833">
        <ele>164.6</ele>
        <time>2022-06-14T14:05:46Z</time>
      </trkpt>
      <trkpt lat="48.75289" lon="1.98321">
        <ele>165</ele>
        <time>2022-06-14T14:05:51Z</time>
      </trkpt>
      <trkpt lat="48.75297" lon="1.98313">
        <ele>165.4</ele>
        <time>2022-06-14T14:05:56Z</time>
      </trkpt>
      <trkpt lat="48.75301" lon="1.98305">
        <ele>165.6</ele>
        <time>2022-06-14T14:06:01Z</time>
      </trkpt>
      <trkpt lat="48.75306" lon="1.98297">
        <ele>165.8</ele>
        <time>2022-06-14T14:06:06Z</time>
      </trkpt>
      <trkpt lat="48.75313" lon="1.98288">
        <ele>166.2</ele>
        <time>2022-06-14T14:06:11Z</time>
      </trkpt>
      <trkpt lat="48.7532" lon="1.98278">
        <ele>166.5</ele>
        <time>2022-06-14T14:06:17Z</time>
      </trkpt>
      <trkpt lat="48.75324" lon="1.9827">
        <ele>166.6</ele>
        <time>2022-06-14T14:06:23Z</time>
      </trkpt>
      <trkpt lat="48.75329" lon="1.98262">
        <ele>166.8</ele>
        <time>2022-06-14T14:06:29Z</time>
      </trkpt>
      <trkpt lat="48.75336" lon="1.98254">
        <ele>167.2</ele>
        <time>2022-06-14T14:06:34Z</time>
      </trkpt>
      <trkpt lat="48.75342" lon="1.98248">
        <ele>167.6</ele>
        <time>2022-06-14T14:06:40Z</time>
      </trkpt>
      <trkpt lat="48.75347" lon="1.98239">
        <ele>167.8</ele>
        <time>2022-06-14T14:06:46Z</time>
      </trkpt>
      <trkpt lat="48.75354" lon="1.98231">
        <ele>168.1</ele>
        <time>2022-06-14T14:06:51Z</time>
      </trkpt>
      <trkpt lat="48.7536" lon="1.98224">
        <ele>168.5</ele>
        <time>2022-06-14T14:06:56Z</time>
      </trkpt>
      <trkpt lat="48.75365" lon="1.98217">
        <ele>168.8</ele>
        <time>2022-06-14T14:07:02Z</time>
      </trkpt>
      <trkpt lat="48.75372" lon="1.9821">
        <ele>169.3</ele>
        <time>2022-06-14T14:07:07Z</time>
      </trkpt>
      <trkpt lat="48.75376" lon="1.98201">
        <ele>169.5</ele>
        <time>2022-06-14T14:07:13Z</time>
      </trkpt>
      <trkpt lat="48.75384" lon="1.98194">
        <ele>170.1</ele>
        <time>2022-06-14T14:07:18Z</time>
      </trkpt>
      <trkpt lat="48.75388" lon="1.98186">
        <ele>170.4</ele>
        <time>2022-06-14T14:07:23Z</time>
      </trkpt>
      <trkpt lat="48.75393" lon="1.98175">
        <ele>170.8</ele>
        <time>2022-06-14T14:07:28Z</time>
      </trkpt>
      <trkpt lat="48.75399" lon="1.98168">
        <ele>171.3</ele>
        <time>2022-06-14T14:07:33Z</time>
      </trkpt>
      <trkpt lat="48.75407" lon="1.98159">
        <ele>172.1</ele>
        <time>2022-06-14T14:07:38Z</time>
      </trkpt>
      <trkpt lat="48.75411" lon="1.98151">
        <ele>172.6</ele>
        <time>2022-06-14T14:07:44Z</time>
      </trkpt>
      <trkpt lat="48.75415" lon="1.98141">
        <ele>173.1</ele>
        <time>2022-06-14T14:07:49Z</time>
      </trkpt>
      <trkpt lat="48.75414" lon="1.9813">
        <ele>173.2</ele>
        <time>2022-06-14T14:07:54Z</time>
      </trkpt>
      <trkpt lat="48.75408" lon="1.9812">
        <ele>172.6</ele>
        <time>2022-06-14T14:07:59Z</time>
      </trkpt>
      <trkpt lat="48.75404" lon="1.9811">
        <ele>172.3</ele>
        <time>2022-06-14T14:08:04Z</time>
      </trkpt>
      <trkpt lat="48.75401" lon="1.981">
        <ele>172</ele>
        <time>2022-06-14T14:08:09Z</time>
      </trkpt>
      <trkpt lat="48.75398" lon="1.9809">
        <ele>171.7</ele>
        <time>2022-06-14T14:08:14Z</time>
      </trkpt>
      <trkpt lat="48.75394" lon="1.98079">
        <ele>171.2</ele>
        <time>2022-06-14T14:08:19Z</time>
      </trkpt>
      <trkpt lat="48.75389" lon="1.98069">
        <ele>170.4</ele>
        <time>2022-06-14T14:08:24Z</time>
      </trkpt>
      <trkpt lat="48.75384" lon="1.98059">
        <ele>169.6</ele>
        <time>2022-06-14T14:08:29Z</time>
      </trkpt>
      <trkpt lat="48.75379" lon="1.98053">
        <ele>168.9</ele>
        <time>2022-06-14T14:08:38Z</time>
      </trkpt>
      <trkpt lat="48.75373" lon="1.98048">
        <ele>168.1</ele>
        <time>2022-06-14T14:08:46Z</time>
      </trkpt>
      <trkpt lat="48.75371" lon="1.98038">
        <ele>167.7</ele>
        <time>2022-06-14T14:08:51Z</time>
      </trkpt>
      <trkpt lat="48.75368" lon="1.98027">
        <ele>167.2</ele>
        <time>2022-06-14T14:08:56Z</time>
      </trkpt>
      <trkpt lat="48.75362" lon="1.98015">
        <ele>166.3</ele>
        <time>2022-06-14T14:09:01Z</time>
      </trkpt>
      <trkpt lat="48.75357" lon="1.98007">
        <ele>165.7</ele>
        <time>2022-06-14T14:09:06Z</time>
      </trkpt>
      <trkpt lat="48.75353" lon="1.97996">
        <ele>165.1</ele>
        <time>2022-06-14T14:09:11Z</time>
      </trkpt>
      <trkpt lat="48.75348" lon="1.97987">
        <ele>164.7</ele>
        <time>2022-06-14T14:09:16Z</time>
      </trkpt>
      <trkpt lat="48.75346" lon="1.97978">
        <ele>164.6</ele>
        <time>2022-06-14T14:09:21Z</time>
      </trkpt>
      <trkpt lat="48.75342" lon="1.97968">
        <ele>164.2</ele>
        <time>2022-06-14T14:09:27Z</time>
      </trkpt>
      <trkpt lat="48.75341" lon="1.97959">
        <ele>164.2</ele>
        <time>2022-06-14T14:09:33Z</time>
      </trkpt>
      <trkpt lat="48.75336" lon="1.97948">
        <ele>163.9</ele>
        <time>2022-06-14T14:10:16Z</time>
      </trkpt>
      <trkpt lat="48.75332" lon="1.97939">
        <ele>163.7</ele>
        <time>2022-06-14T14:10:22Z</time>
      </trkpt>
      <trkpt lat="48.75329" lon="1.97929">
        <ele>163.9</ele>
        <time>2022-06-14T14:10:37Z</time>
      </trkpt>
      <trkpt lat="48.75324" lon="1.97922">
        <ele>163.9</ele>
        <time>2022-06-14T14:10:43Z</time>
      </trkpt>
      <trkpt lat="48.75322" lon="1.97912">
        <ele>164.1</ele>
        <time>2022-06-14T14:10:49Z</time>
      </trkpt>
      <trkpt lat="48.75317" lon="1.97904">
        <ele>164.2</ele>
        <time>2022-06-14T14:10:55Z</time>
      </trkpt>
      <trkpt lat="48.75314" lon="1.97894">
        <ele>164.3</ele>
        <time>2022-06-14T14:11:00Z</time>
      </trkpt>
      <trkpt lat="48.75313" lon="1.97883">
        <ele>164.5</ele>
        <time>2022-06-14T14:11:05Z</time>
      </trkpt>
      <trkpt lat="48.75313" lon="1.97873">
        <ele>164.7</ele>
        <time>2022-06-14T14:11:10Z</time>
      </trkpt>
      <trkpt lat="48.75316" lon="1.97862">
        <ele>164.8</ele>
        <time>2022-06-14T14:11:16Z</time>
      </trkpt>
      <trkpt lat="48.75319" lon="1.97851">
        <ele>164.9</ele>
        <time>2022-06-14T14:11:21Z</time>
      </trkpt>
      <trkpt lat="48.75322" lon="1.97842">
        <ele>165</ele>
        <time>2022-06-14T14:11:28Z</time>
      </trkpt>
      <trkpt lat="48.75325" lon="1.97833">
        <ele>165.1</ele>
        <time>2022-06-14T14:11:33Z</time>
      </trkpt>
      <trkpt lat="48.75329" lon="1.97824">
        <ele>165.1</ele>
        <time>2022-06-14T14:11:38Z</time>
      </trkpt>
      <trkpt lat="48.75332" lon="1.97814">
        <ele>165</ele>
        <time>2022-06-14T14:11:44Z</time>
      </trkpt>
      <trkpt lat="48.75334" lon="1.97804">
        <ele>165.1</ele>
        <time>2022-06-14T14:11:50Z</time>
      </trkpt>
      <trkpt lat="48.75335" lon="1.97793">
        <ele>165.1</ele>
        <time>2022-06-14T14:11:57Z</time>
      </trkpt>
      <trkpt lat="48.7534" lon="1.97782">
        <ele>165.6</ele>
        <time>2022-06-14T14:12:02Z</time>
      </trkpt>
      <trkpt lat="48.75341" lon="1.97771">
        <ele>165.7</ele>
        <time>2022-06-14T14:12:08Z</time>
      </trkpt>
      <trkpt lat="48.75343" lon="1.97761">
        <ele>165.9</ele>
        <time>2022-06-14T14:12:13Z</time>
      </trkpt>
      <trkpt lat="48.75347" lon="1.97753">
        <ele>166.3</ele>
        <time>2022-06-14T14:12:19Z</time>
      </trkpt>
      <trkpt lat="48.75349" lon="1.97742">
        <ele>166.4</ele>
        <time>2022-06-14T14:12:25Z</time>
      </trkpt>
      <trkpt lat="48.75348" lon="1.97731">
        <ele>166.1</ele>
        <time>2022-06-14T14:12:31Z</time>
      </trkpt>
      <trkpt lat="48.7535" lon="1.9772">
        <ele>166.1</ele>
        <time>2022-06-14T14:12:36Z</time>
      </trkpt>
      <trkpt lat="48.75353" lon="1.97711">
        <ele>166.2</ele>
        <time>2022-06-14T14:12:41Z</time>
      </trkpt>
      <trkpt lat="48.75354" lon="1.977">
        <ele>166.1</ele>
        <time>2022-06-14T14:12:47Z</time>
      </trkpt>
      <trkpt lat="48.75357" lon="1.97688">
        <ele>166.1</ele>
        <time>2022-06-14T14:12:52Z</time>
      </trkpt>
      <trkpt lat="48.75363" lon="1.97678">
        <ele>166.4</ele>
        <time>2022-06-14T14:12:57Z</time>
      </trkpt>
      <trkpt lat="48.75366" lon="1.97667">
        <ele>166.4</ele>
        <time>2022-06-14T14:13:02Z</time>
      </trkpt>
      <trkpt lat="48.75369" lon="1.97657">
        <ele>166.4</ele>
        <time>2022-06-14T14:13:07Z</time>
      </trkpt>
      <trkpt lat="48.75371" lon="1.97647">
        <ele>166.4</ele>
        <time>2022-06-14T14:13:12Z</time>
      </trkpt>
      <trkpt lat="48.7537" lon="1.97633">
        <ele>166.1</ele>
        <time>2022-06-14T14:13:17Z</time>
      </trkpt>
      <trkpt lat="48.75372" lon="1.97621">
        <ele>166</ele>
        <time>2022-06-14T14:13:22Z</time>
      </trkpt>
      <trkpt lat="48.75378" lon="1.97613">
        <ele>166.2</ele>
        <time>2022-06-14T14:13:27Z</time>
      </trkpt>
      <trkpt lat="48.75383" lon="1.97603">
        <ele>166.4</ele>
        <time>2022-06-14T14:13:32Z</time>
      </trkpt>
      <trkpt lat="48.75385" lon="1.97589">
        <ele>166.2</ele>
        <time>2022-06-14T14:13:37Z</time>
      </trkpt>
      <trkpt lat="48.75389" lon="1.9758">
        <ele>166.3</ele>
        <time>2022-06-14T14:13:42Z</time>
      </trkpt>
      <trkpt lat="48.75391" lon="1.9757">
        <ele>166.5</ele>
        <time>2022-06-14T14:13:49Z</time>
      </trkpt>
      <trkpt lat="48.75393" lon="1.9756">
        <ele>166.6</ele>
        <time>2022-06-14T14:13:54Z</time>
      </trkpt>
      <trkpt lat="48.75397" lon="1.9755">
        <ele>166.8</ele>
        <time>2022-06-14T14:13:59Z</time>
      </trkpt>
      <trkpt lat="48.75399" lon="1.97539">
        <ele>166.9</ele>
        <time>2022-06-14T14:14:04Z</time>
      </trkpt>
      <trkpt lat="48.75401" lon="1.97527">
        <ele>167.1</ele>
        <time>2022-06-14T14:14:09Z</time>
      </trkpt>
      <trkpt lat="48.75405" lon="1.97517">
        <ele>167.3</ele>
        <time>2022-06-14T14:14:14Z</time>
      </trkpt>
      <trkpt lat="48.75409" lon="1.97507">
        <ele>167.5</ele>
        <time>2022-06-14T14:14:19Z</time>
      </trkpt>
      <trkpt lat="48.75411" lon="1.97497">
        <ele>167.7</ele>
        <time>2022-06-14T14:14:25Z</time>
      </trkpt>
      <trkpt lat="48.75415" lon="1.97488">
        <ele>167.9</ele>
        <time>2022-06-14T14:14:32Z</time>
      </trkpt>
      <trkpt lat="48.75419" lon="1.97477">
        <ele>168.1</ele>
        <time>2022-06-14T14:14:37Z</time>
      </trkpt>
      <trkpt lat="48.75422" lon="1.97467">
        <ele>168.3</ele>
        <time>2022-06-14T14:14:42Z</time>
      </trkpt>
      <trkpt lat="48.75424" lon="1.97456">
        <ele>168.5</ele>
        <time>2022-06-14T14:14:47Z</time>
      </trkpt>
      <trkpt lat="48.75426" lon="1.97446">
        <ele>168.6</ele>
        <time>2022-06-14T14:14:52Z</time>
      </trkpt>
      <trkpt lat="48.75429" lon="1.97436">
        <ele>168.9</ele>
        <time>2022-06-14T14:14:57Z</time>
      </trkpt>
      <trkpt lat="48.75434" lon="1.97423">
        <ele>169.2</ele>
        <time>2022-06-14T14:15:02Z</time>
      </trkpt>
      <trkpt lat="48.75434" lon="1.97412">
        <ele>169.2</ele>
        <time>2022-06-14T14:15:07Z</time>
      </trkpt>
      <trkpt lat="48.75436" lon="1.97401">
        <ele>169.2</ele>
        <time>2022-06-14T14:15:12Z</time>
      </trkpt>
      <trkpt lat="48.75438" lon="1.97391">
        <ele>169.2</ele>
        <time>2022-06-14T14:15:17Z</time>
      </trkpt>
      <trkpt lat="48.75438" lon="1.9738">
        <ele>169.1</ele>
        <time>2022-06-14T14:15:22Z</time>
      </trkpt>
      <trkpt lat="48.75443" lon="1.97371">
        <ele>169.3</ele>
        <time>2022-06-14T14:15:27Z</time>
      </trkpt>
      <trkpt lat="48.75447" lon="1.97361">
        <ele>169.5</ele>
        <time>2022-06-14T14:15:32Z</time>
      </trkpt>
      <trkpt lat="48.75451" lon="1.97349">
        <ele>169.7</ele>
        <time>2022-06-14T14:15:37Z</time>
      </trkpt>
      <trkpt lat="48.75453" lon="1.97338">
        <ele>169.7</ele>
        <time>2022-06-14T14:15:42Z</time>
      </trkpt>
      <trkpt lat="48.75455" lon="1.97326">
        <ele>169.7</ele>
        <time>2022-06-14T14:15:48Z</time>
      </trkpt>
      <trkpt lat="48.7546" lon="1.97315">
        <ele>170</ele>
        <time>2022-06-14T14:15:53Z</time>
      </trkpt>
      <trkpt lat="48.75464" lon="1.97303">
        <ele>170.3</ele>
        <time>2022-06-14T14:15:58Z</time>
      </trkpt>
      <trkpt lat="48.75467" lon="1.97292">
        <ele>170.4</ele>
        <time>2022-06-14T14:16:04Z</time>
      </trkpt>
      <trkpt lat="48.75471" lon="1.97282">
        <ele>170.7</ele>
        <time>2022-06-14T14:16:09Z</time>
      </trkpt>
      <trkpt lat="48.75475" lon="1.9727">
        <ele>171</ele>
        <time>2022-06-14T14:16:14Z</time>
      </trkpt>
      <trkpt lat="48.75477" lon="1.9726">
        <ele>171.1</ele>
        <time>2022-06-14T14:16:19Z</time>
      </trkpt>
      <trkpt lat="48.75479" lon="1.97249">
        <ele>171.2</ele>
        <time>2022-06-14T14:16:24Z</time>
      </trkpt>
      <trkpt lat="48.75481" lon="1.97237">
        <ele>171.1</ele>
        <time>2022-06-14T14:16:29Z</time>
      </trkpt>
      <trkpt lat="48.75483" lon="1.97227">
        <ele>171.1</ele>
        <time>2022-06-14T14:16:34Z</time>
      </trkpt>
      <trkpt lat="48.75485" lon="1.97216">
        <ele>171</ele>
        <time>2022-06-14T14:16:39Z</time>
      </trkpt>
      <trkpt lat="48.7549" lon="1.97207">
        <ele>171.2</ele>
        <time>2022-06-14T14:16:44Z</time>
      </trkpt>
      <trkpt lat="48.75491" lon="1.97197">
        <ele>171</ele>
        <time>2022-06-14T14:16:49Z</time>
      </trkpt>
      <trkpt lat="48.75494" lon="1.97186">
        <ele>171</ele>
        <time>2022-06-14T14:16:55Z</time>
      </trkpt>
      <trkpt lat="48.75497" lon="1.97176">
        <ele>171</ele>
        <time>2022-06-14T14:17:00Z</time>
      </trkpt>
      <trkpt lat="48.755" lon="1.97166">
        <ele>171</ele>
        <time>2022-06-14T14:17:05Z</time>
      </trkpt>
      <trkpt lat="48.75503" lon="1.97155">
        <ele>170.6</ele>
        <time>2022-06-14T14:17:10Z</time>
      </trkpt>
      <trkpt lat="48.75506" lon="1.97143">
        <ele>170.3</ele>
        <time>2022-06-14T14:17:15Z</time>
      </trkpt>
      <trkpt lat="48.75509" lon="1.97132">
        <ele>169.9</ele>
        <time>2022-06-14T14:17:20Z</time>
      </trkpt>
      <trkpt lat="48.75512" lon="1.97121">
        <ele>169.5</ele>
        <time>2022-06-14T14:17:25Z</time>
      </trkpt>
      <trkpt lat="48.75515" lon="1.97111">
        <ele>169.2</ele>
        <time>2022-06-14T14:17:30Z</time>
      </trkpt>
      <trkpt lat="48.75518" lon="1.97101">
        <ele>168.8</ele>
        <time>2022-06-14T14:17:35Z</time>
      </trkpt>
      <trkpt lat="48.75522" lon="1.9709">
        <ele>168.4</ele>
        <time>2022-06-14T14:17:40Z</time>
      </trkpt>
      <trkpt lat="48.75526" lon="1.9708">
        <ele>168.1</ele>
        <time>2022-06-14T14:17:45Z</time>
      </trkpt>
      <trkpt lat="48.7553" lon="1.9707">
        <ele>168</ele>
        <time>2022-06-14T14:17:50Z</time>
      </trkpt>
      <trkpt lat="48.75533" lon="1.97058">
        <ele>167.7</ele>
        <time>2022-06-14T14:17:55Z</time>
      </trkpt>
      <trkpt lat="48.75533" lon="1.97047">
        <ele>167.3</ele>
        <time>2022-06-14T14:18:01Z</time>
      </trkpt>
      <trkpt lat="48.75538" lon="1.97039">
        <ele>167.2</ele>
        <time>2022-06-14T14:18:06Z</time>
      </trkpt>
      <trkpt lat="48.7554" lon="1.97028">
        <ele>166.9</ele>
        <time>2022-06-14T14:18:12Z</time>
      </trkpt>
      <trkpt lat="48.75538" lon="1.97019">
        <ele>166.5</ele>
        <time>2022-06-14T14:18:20Z</time>
      </trkpt>
      <trkpt lat="48.7554" lon="1.97008">
        <ele>166.2</ele>
        <time>2022-06-14T14:18:25Z</time>
      </trkpt>
      <trkpt lat="48.75546" lon="1.96999">
        <ele>166.2</ele>
        <time>2022-06-14T14:18:30Z</time>
      </trkpt>
      <trkpt lat="48.75548" lon="1.9699">
        <ele>166.4</ele>
        <time>2022-06-14T14:18:35Z</time>
      </trkpt>
      <trkpt lat="48.75551" lon="1.96979">
        <ele>166.7</ele>
        <time>2022-06-14T14:18:41Z</time>
      </trkpt>
      <trkpt lat="48.75558" lon="1.96966">
        <ele>167.2</ele>
        <time>2022-06-14T14:18:46Z</time>
      </trkpt>
      <trkpt lat="48.75564" lon="1.96957">
        <ele>167.6</ele>
        <time>2022-06-14T14:18:51Z</time>
      </trkpt>
      <trkpt lat="48.75567" lon="1.96947">
        <ele>167.9</ele>
        <time>2022-06-14T14:18:56Z</time>
      </trkpt>
      <trkpt lat="48.7557" lon="1.96937">
        <ele>168.1</ele>
        <time>2022-06-14T14:19:01Z</time>
      </trkpt>
      <trkpt lat="48.75573" lon="1.96927">
        <ele>168.4</ele>
        <time>2022-06-14T14:19:06Z</time>
      </trkpt>
      <trkpt lat="48.75577" lon="1.96918">
        <ele>168.7</ele>
        <time>2022-06-14T14:19:12Z</time>
      </trkpt>
      <trkpt lat="48.75577" lon="1.96906">
        <ele>168.6</ele>
        <time>2022-06-14T14:19:21Z</time>
      </trkpt>
      <trkpt lat="48.75579" lon="1.96894">
        <ele>168.5</ele>
        <time>2022-06-14T14:19:26Z</time>
      </trkpt>
      <trkpt lat="48.75581" lon="1.96883">
        <ele>168.5</ele>
        <time>2022-06-14T14:19:31Z</time>
      </trkpt>
      <trkpt lat="48.75583" lon="1.96872">
        <ele>168.5</ele>
        <time>2022-06-14T14:19:36Z</time>
      </trkpt>
      <trkpt lat="48.75585" lon="1.96862">
        <ele>168.5</ele>
        <time>2022-06-14T14:19:41Z</time>
      </trkpt>
      <trkpt lat="48.75586" lon="1.96851">
        <ele>168.4</ele>
        <time>2022-06-14T14:19:46Z</time>
      </trkpt>
      <trkpt lat="48.75586" lon="1.96841">
        <ele>168.3</ele>
        <time>2022-06-14T14:19:51Z</time>
      </trkpt>
      <trkpt lat="48.75583" lon="1.96831">
        <ele>168.1</ele>
        <time>2022-06-14T14:19:57Z</time>
      </trkpt>
      <trkpt lat="48.7558" lon="1.96823">
        <ele>168.4</ele>
        <time>2022-06-14T14:20:03Z</time>
      </trkpt>
      <trkpt lat="48.75577" lon="1.96814">
        <ele>168.7</ele>
        <time>2022-06-14T14:20:10Z</time>
      </trkpt>
      <trkpt lat="48.75572" lon="1.96808">
        <ele>168.8</ele>
        <time>2022-06-14T14:20:20Z</time>
      </trkpt>
      <trkpt lat="48.75572" lon="1.96798">
        <ele>169.3</ele>
        <time>2022-06-14T14:20:25Z</time>
      </trkpt>
      <trkpt lat="48.75569" lon="1.96787">
        <ele>169.7</ele>
        <time>2022-06-14T14:20:31Z</time>
      </trkpt>
      <trkpt lat="48.75569" lon="1.96776">
        <ele>170.2</ele>
        <time>2022-06-14T14:20:45Z</time>
      </trkpt>
      <trkpt lat="48.7557" lon="1.96764">
        <ele>170.8</ele>
        <time>2022-06-14T14:20:51Z</time>
      </trkpt>
      <trkpt lat="48.75568" lon="1.96753">
        <ele>171.3</ele>
        <time>2022-06-14T14:20:56Z</time>
      </trkpt>
      <trkpt lat="48.75566" lon="1.96742">
        <ele>170.8</ele>
        <time>2022-06-14T14:21:02Z</time>
      </trkpt>
      <trkpt lat="48.75568" lon="1.96731">
        <ele>170</ele>
        <time>2022-06-14T14:21:07Z</time>
      </trkpt>
      <trkpt lat="48.75568" lon="1.9672">
        <ele>169.1</ele>
        <time>2022-06-14T14:21:26Z</time>
      </trkpt>
      <trkpt lat="48.75565" lon="1.9671">
        <ele>168.3</ele>
        <time>2022-06-14T14:21:31Z</time>
      </trkpt>
      <trkpt lat="48.75565" lon="1.96699">
        <ele>167.5</ele>
        <time>2022-06-14T14:21:40Z</time>
      </trkpt>
      <trkpt lat="48.7556" lon="1.96692">
        <ele>166.9</ele>
        <time>2022-06-14T14:21:47Z</time>
      </trkpt>
      <trkpt lat="48.75555" lon="1.96684">
        <ele>166.2</ele>
        <time>2022-06-14T14:21:53Z</time>
      </trkpt>
      <trkpt lat="48.75548" lon="1.96679">
        <ele>165.8</ele>
        <time>2022-06-14T14:21:59Z</time>
      </trkpt>
      <trkpt lat="48.75542" lon="1.96675">
        <ele>165.6</ele>
        <time>2022-06-14T14:22:06Z</time>
      </trkpt>
      <trkpt lat="48.75535" lon="1.96676">
        <ele>165.6</ele>
        <time>2022-06-14T14:22:26Z</time>
      </trkpt>
      <trkpt lat="48.75542" lon="1.96675">
        <ele>165.6</ele>
        <time>2022-06-14T14:23:07Z</time>
      </trkpt>
      <trkpt lat="48.75549" lon="1.96677">
        <ele>165.7</ele>
        <time>2022-06-14T14:23:14Z</time>
      </trkpt>
      <trkpt lat="48.75557" lon="1.96676">
        <ele>165.7</ele>
        <time>2022-06-14T14:23:19Z</time>
      </trkpt>
      <trkpt lat="48.75564" lon="1.96675">
        <ele>165.6</ele>
        <time>2022-06-14T14:23:28Z</time>
      </trkpt>
      <trkpt lat="48.75567" lon="1.96666">
        <ele>165</ele>
        <time>2022-06-14T14:23:53Z</time>
      </trkpt>
      <trkpt lat="48.75577" lon="1.96668">
        <ele>165.1</ele>
        <time>2022-06-14T14:25:50Z</time>
      </trkpt>
      <trkpt lat="48.75584" lon="1.96666">
        <ele>165</ele>
        <time>2022-06-14T14:25:56Z</time>
      </trkpt>
      <trkpt lat="48.75589" lon="1.96657">
        <ele>165.3</ele>
        <time>2022-06-14T14:26:01Z</time>
      </trkpt>
      <trkpt lat="48.75593" lon="1.96648">
        <ele>165.4</ele>
        <time>2022-06-14T14:26:08Z</time>
      </trkpt>
      <trkpt lat="48.75598" lon="1.96639">
        <ele>165.6</ele>
        <time>2022-06-14T14:26:14Z</time>
      </trkpt>
      <trkpt lat="48.756" lon="1.9663">
        <ele>165.6</ele>
        <time>2022-06-14T14:26:19Z</time>
      </trkpt>
      <trkpt lat="48.75604" lon="1.96621">
        <ele>165.7</ele>
        <time>2022-06-14T14:26:26Z</time>
      </trkpt>
      <trkpt lat="48.75608" lon="1.96613">
        <ele>165.8</ele>
        <time>2022-06-14T14:26:32Z</time>
      </trkpt>
      <trkpt lat="48.7561" lon="1.96603">
        <ele>165.8</ele>
        <time>2022-06-14T14:26:38Z</time>
      </trkpt>
      <trkpt lat="48.75612" lon="1.96591">
        <ele>165.8</ele>
        <time>2022-06-14T14:26:43Z</time>
      </trkpt>
      <trkpt lat="48.75616" lon="1.96582">
        <ele>165.8</ele>
        <time>2022-06-14T14:27:07Z</time>
      </trkpt>
      <trkpt lat="48.75613" lon="1.96571">
        <ele>165.6</ele>
        <time>2022-06-14T14:27:12Z</time>
      </trkpt>
      <trkpt lat="48.75606" lon="1.96561">
        <ele>165.4</ele>
        <time>2022-06-14T14:27:17Z</time>
      </trkpt>
      <trkpt lat="48.756" lon="1.96554">
        <ele>165.3</ele>
        <time>2022-06-14T14:27:22Z</time>
      </trkpt>
      <trkpt lat="48.75595" lon="1.96546">
        <ele>165.2</ele>
        <time>2022-06-14T14:27:28Z</time>
      </trkpt>
      <trkpt lat="48.75591" lon="1.96555">
        <ele>165.1</ele>
        <time>2022-06-14T14:27:39Z</time>
      </trkpt>
      <trkpt lat="48.75592" lon="1.96546">
        <ele>165.1</ele>
        <time>2022-06-14T14:27:46Z</time>
      </trkpt>
      <trkpt lat="48.75589" lon="1.96536">
        <ele>165.1</ele>
        <time>2022-06-14T14:27:59Z</time>
      </trkpt>
      <trkpt lat="48.75594" lon="1.96528">
        <ele>165.1</ele>
        <time>2022-06-14T14:28:04Z</time>
      </trkpt>
      <trkpt lat="48.75596" lon="1.96517">
        <ele>165.1</ele>
        <time>2022-06-14T14:28:10Z</time>
      </trkpt>
      <trkpt lat="48.75594" lon="1.96506">
        <ele>165</ele>
        <time>2022-06-14T14:28:15Z</time>
      </trkpt>
      <trkpt lat="48.75591" lon="1.96495">
        <ele>165</ele>
        <time>2022-06-14T14:28:20Z</time>
      </trkpt>
      <trkpt lat="48.75589" lon="1.96485">
        <ele>165</ele>
        <time>2022-06-14T14:28:25Z</time>
      </trkpt>
      <trkpt lat="48.75586" lon="1.96475">
        <ele>165</ele>
        <time>2022-06-14T14:28:30Z</time>
      </trkpt>
      <trkpt lat="48.75584" lon="1.96465">
        <ele>165</ele>
        <time>2022-06-14T14:28:35Z</time>
      </trkpt>
      <trkpt lat="48.75582" lon="1.96455">
        <ele>165</ele>
        <time>2022-06-14T14:28:40Z</time>
      </trkpt>
      <trkpt lat="48.75582" lon="1.96444">
        <ele>165</ele>
        <time>2022-06-14T14:28:45Z</time>
      </trkpt>
      <trkpt lat="48.75579" lon="1.96435">
        <ele>165</ele>
        <time>2022-06-14T14:28:50Z</time>
      </trkpt>
      <trkpt lat="48.75574" lon="1.96427">
        <ele>165</ele>
        <time>2022-06-14T14:28:56Z</time>
      </trkpt>
      <trkpt lat="48.75571" lon="1.96418">
        <ele>165</ele>
        <time>2022-06-14T14:31:55Z</time>
      </trkpt>
      <trkpt lat="48.7557" lon="1.96407">
        <ele>165</ele>
        <time>2022-06-14T14:32:21Z</time>
      </trkpt>
      <trkpt lat="48.75567" lon="1.96397">
        <ele>165</ele>
        <time>2022-06-14T14:32:26Z</time>
      </trkpt>
      <trkpt lat="48.75564" lon="1.96387">
        <ele>165</ele>
        <time>2022-06-14T14:32:31Z</time>
      </trkpt>
      <trkpt lat="48.75564" lon="1.96375">
        <ele>165</ele>
        <time>2022-06-14T14:32:36Z</time>
      </trkpt>
      <trkpt lat="48.75566" lon="1.96363">
        <ele>165</ele>
        <time>2022-06-14T14:32:45Z</time>
      </trkpt>
      <trkpt lat="48.7557" lon="1.96356">
        <ele>165</ele>
        <time>2022-06-14T14:32:53Z</time>
      </trkpt>
      <trkpt lat="48.75566" lon="1.96348">
        <ele>165</ele>
        <time>2022-06-14T14:33:10Z</time>
      </trkpt>
      <trkpt lat="48.75559" lon="1.9635">
        <ele>165</ele>
        <time>2022-06-14T14:33:46Z</time>
      </trkpt>
      <trkpt lat="48.75553" lon="1.96347">
        <ele>165</ele>
        <time>2022-06-14T14:33:52Z</time>
      </trkpt>
      <trkpt lat="48.75549" lon="1.96338">
        <ele>165</ele>
        <time>2022-06-14T14:33:59Z</time>
      </trkpt>
      <trkpt lat="48.75544" lon="1.9633">
        <ele>165</ele>
        <time>2022-06-14T14:34:07Z</time>
      </trkpt>
      <trkpt lat="48.75536" lon="1.9633">
        <ele>165</ele>
        <time>2022-06-14T14:34:36Z</time>
      </trkpt>
      <trkpt lat="48.7553" lon="1.96328">
        <ele>165</ele>
        <time>2022-06-14T14:34:41Z</time>
      </trkpt>
      <trkpt lat="48.75523" lon="1.96321">
        <ele>165</ele>
        <time>2022-06-14T14:34:50Z</time>
      </trkpt>
      <trkpt lat="48.75518" lon="1.96312">
        <ele>165</ele>
        <time>2022-06-14T14:34:57Z</time>
      </trkpt>
      <trkpt lat="48.75512" lon="1.96305">
        <ele>165</ele>
        <time>2022-06-14T14:35:02Z</time>
      </trkpt>
      <trkpt lat="48.75507" lon="1.96297">
        <ele>165</ele>
        <time>2022-06-14T14:35:08Z</time>
      </trkpt>
      <trkpt lat="48.75501" lon="1.96292">
        <ele>165</ele>
        <time>2022-06-14T14:35:13Z</time>
      </trkpt>
      <trkpt lat="48.75497" lon="1.96285">
        <ele>165</ele>
        <time>2022-06-14T14:35:19Z</time>
      </trkpt>
      <trkpt lat="48.75493" lon="1.96277">
        <ele>165</ele>
        <time>2022-06-14T14:35:33Z</time>
      </trkpt>
      <trkpt lat="48.75498" lon="1.96283">
        <ele>165</ele>
        <time>2022-06-14T14:35:59Z</time>
      </trkpt>
      <trkpt lat="48.75503" lon="1.9629">
        <ele>165</ele>
        <time>2022-06-14T14:36:05Z</time>
      </trkpt>
      <trkpt lat="48.75508" lon="1.963">
        <ele>165</ele>
        <time>2022-06-14T14:36:10Z</time>
      </trkpt>
      <trkpt lat="48.75512" lon="1.96309">
        <ele>165</ele>
        <time>2022-06-14T14:36:16Z</time>
      </trkpt>
      <trkpt lat="48.75518" lon="1.96314">
        <ele>165</ele>
        <time>2022-06-14T14:36:21Z</time>
      </trkpt>
      <trkpt lat="48.75522" lon="1.96323">
        <ele>165</ele>
        <time>2022-06-14T14:36:27Z</time>
      </trkpt>
      <trkpt lat="48.75528" lon="1.96328">
        <ele>165</ele>
        <time>2022-06-14T14:36:32Z</time>
      </trkpt>
      <trkpt lat="48.75533" lon="1.96336">
        <ele>165</ele>
        <time>2022-06-14T14:36:37Z</time>
      </trkpt>
      <trkpt lat="48.75538" lon="1.96344">
        <ele>165</ele>
        <time>2022-06-14T14:36:43Z</time>
      </trkpt>
      <trkpt lat="48.75544" lon="1.96349">
        <ele>165</ele>
        <time>2022-06-14T14:36:48Z</time>
      </trkpt>
      <trkpt lat="48.7555" lon="1.96355">
        <ele>165</ele>
        <time>2022-06-14T14:36:53Z</time>
      </trkpt>
      <trkpt lat="48.75557" lon="1.96361">
        <ele>165</ele>
        <time>2022-06-14T14:37:01Z</time>
      </trkpt>
      <trkpt lat="48.75564" lon="1.96357">
        <ele>165</ele>
        <time>2022-06-14T14:37:06Z</time>
      </trkpt>
      <trkpt lat="48.75571" lon="1.96357">
        <ele>165</ele>
        <time>2022-06-14T14:37:13Z</time>
      </trkpt>
      <trkpt lat="48.75578" lon="1.96355">
        <ele>165</ele>
        <time>2022-06-14T14:37:18Z</time>
      </trkpt>
      <trkpt lat="48.75585" lon="1.96353">
        <ele>165.1</ele>
        <time>2022-06-14T14:37:25Z</time>
      </trkpt>
      <trkpt lat="48.75593" lon="1.96348">
        <ele>165.3</ele>
        <time>2022-06-14T14:37:30Z</time>
      </trkpt>
      <trkpt lat="48.756" lon="1.9634">
        <ele>165.6</ele>
        <time>2022-06-14T14:37:35Z</time>
      </trkpt>
      <trkpt lat="48.75603" lon="1.96332">
        <ele>165.7</ele>
        <time>2022-06-14T14:37:40Z</time>
      </trkpt>
      <trkpt lat="48.75603" lon="1.96321">
        <ele>165.7</ele>
        <time>2022-06-14T14:37:54Z</time>
      </trkpt>
      <trkpt lat="48.75599" lon="1.96307">
        <ele>165.6</ele>
        <time>2022-06-14T14:38:52Z</time>
      </trkpt>
      <trkpt lat="48.75604" lon="1.96315">
        <ele>165.8</ele>
        <time>2022-06-14T14:38:57Z</time>
      </trkpt>
      <trkpt lat="48.75607" lon="1.96305">
        <ele>165.9</ele>
        <time>2022-06-14T14:39:11Z</time>
      </trkpt>
      <trkpt lat="48.75607" lon="1.96295">
        <ele>166</ele>
        <time>2022-06-14T14:39:17Z</time>
      </trkpt>
      <trkpt lat="48.75605" lon="1.96283">
        <ele>165.9</ele>
        <time>2022-06-14T14:39:23Z</time>
      </trkpt>
      <trkpt lat="48.75601" lon="1.96271">
        <ele>165.8</ele>
        <time>2022-06-14T14:39:28Z</time>
      </trkpt>
      <trkpt lat="48.75601" lon="1.96261">
        <ele>165.8</ele>
        <time>2022-06-14T14:39:33Z</time>
      </trkpt>
      <trkpt lat="48.75595" lon="1.96255">
        <ele>165.6</ele>
        <time>2022-06-14T14:39:39Z</time>
      </trkpt>
      <trkpt lat="48.7559" lon="1.96247">
        <ele>165.3</ele>
        <time>2022-06-14T14:39:44Z</time>
      </trkpt>
      <trkpt lat="48.75583" lon="1.96241">
        <ele>165</ele>
        <time>2022-06-14T14:39:50Z</time>
      </trkpt>
      <trkpt lat="48.75576" lon="1.96236">
        <ele>165</ele>
        <time>2022-06-14T14:39:55Z</time>
      </trkpt>
      <trkpt lat="48.75571" lon="1.96229">
        <ele>165</ele>
        <time>2022-06-14T14:40:00Z</time>
      </trkpt>
      <trkpt lat="48.75563" lon="1.96226">
        <ele>165</ele>
        <time>2022-06-14T14:40:05Z</time>
      </trkpt>
      <trkpt lat="48.75555" lon="1.9622">
        <ele>165</ele>
        <time>2022-06-14T14:40:11Z</time>
      </trkpt>
      <trkpt lat="48.7555" lon="1.96214">
        <ele>165</ele>
        <time>2022-06-14T14:40:18Z</time>
      </trkpt>
      <trkpt lat="48.75542" lon="1.96211">
        <ele>165</ele>
        <time>2022-06-14T14:40:23Z</time>
      </trkpt>
      <trkpt lat="48.75536" lon="1.96205">
        <ele>165</ele>
        <time>2022-06-14T14:40:28Z</time>
      </trkpt>
      <trkpt lat="48.75535" lon="1.96195">
        <ele>165</ele>
        <time>2022-06-14T14:40:57Z</time>
      </trkpt>
      <trkpt lat="48.75542" lon="1.96192">
        <ele>165</ele>
        <time>2022-06-14T14:41:03Z</time>
      </trkpt>
      <trkpt lat="48.75548" lon="1.96191">
        <ele>165</ele>
        <time>2022-06-14T14:41:12Z</time>
      </trkpt>
      <trkpt lat="48.75555" lon="1.96193">
        <ele>165</ele>
        <time>2022-06-14T14:41:18Z</time>
      </trkpt>
      <trkpt lat="48.75563" lon="1.96192">
        <ele>165</ele>
        <time>2022-06-14T14:41:23Z</time>
      </trkpt>
      <trkpt lat="48.7557" lon="1.96188">
        <ele>165</ele>
        <time>2022-06-14T14:41:28Z</time>
      </trkpt>
      <trkpt lat="48.75576" lon="1.96182">
        <ele>165</ele>
        <time>2022-06-14T14:41:38Z</time>
      </trkpt>
      <trkpt lat="48.75583" lon="1.96177">
        <ele>165</ele>
        <time>2022-06-14T14:41:47Z</time>
      </trkpt>
      <trkpt lat="48.75589" lon="1.96171">
        <ele>165.3</ele>
        <time>2022-06-14T14:41:52Z</time>
      </trkpt>
      <trkpt lat="48.75593" lon="1.96164">
        <ele>165.6</ele>
        <time>2022-06-14T14:42:00Z</time>
      </trkpt>
      <trkpt lat="48.75598" lon="1.96157">
        <ele>165.8</ele>
        <time>2022-06-14T14:42:05Z</time>
      </trkpt>
      <trkpt lat="48.75603" lon="1.9615">
        <ele>166</ele>
        <time>2022-06-14T14:42:13Z</time>
      </trkpt>
      <trkpt lat="48.75608" lon="1.96144">
        <ele>166.2</ele>
        <time>2022-06-14T14:42:20Z</time>
      </trkpt>
      <trkpt lat="48.75611" lon="1.9613">
        <ele>166.1</ele>
        <time>2022-06-14T14:42:25Z</time>
      </trkpt>
      <trkpt lat="48.75613" lon="1.96119">
        <ele>166</ele>
        <time>2022-06-14T14:42:30Z</time>
      </trkpt>
      <trkpt lat="48.75613" lon="1.96108">
        <ele>165.8</ele>
        <time>2022-06-14T14:42:40Z</time>
      </trkpt>
      <trkpt lat="48.75614" lon="1.96098">
        <ele>165.6</ele>
        <time>2022-06-14T14:42:45Z</time>
      </trkpt>
      <trkpt lat="48.75616" lon="1.96089">
        <ele>165.5</ele>
        <time>2022-06-14T14:42:51Z</time>
      </trkpt>
      <trkpt lat="48.75613" lon="1.96077">
        <ele>165.4</ele>
        <time>2022-06-14T14:42:56Z</time>
      </trkpt>
      <trkpt lat="48.75613" lon="1.96067">
        <ele>165.4</ele>
        <time>2022-06-14T14:43:01Z</time>
      </trkpt>
      <trkpt lat="48.75613" lon="1.96055">
        <ele>165.5</ele>
        <time>2022-06-14T14:43:06Z</time>
      </trkpt>
      <trkpt lat="48.75612" lon="1.96045">
        <ele>165.5</ele>
        <time>2022-06-14T14:43:11Z</time>
      </trkpt>
      <trkpt lat="48.75612" lon="1.96035">
        <ele>165.5</ele>
        <time>2022-06-14T14:43:16Z</time>
      </trkpt>
      <trkpt lat="48.75614" lon="1.96025">
        <ele>165.6</ele>
        <time>2022-06-14T14:43:22Z</time>
      </trkpt>
      <trkpt lat="48.75613" lon="1.96015">
        <ele>165.6</ele>
        <time>2022-06-14T14:43:28Z</time>
      </trkpt>
      <trkpt lat="48.75609" lon="1.95998">
        <ele>165.6</ele>
        <time>2022-06-14T14:43:33Z</time>
      </trkpt>
      <trkpt lat="48.75608" lon="1.95987">
        <ele>165.6</ele>
        <time>2022-06-14T14:43:39Z</time>
      </trkpt>
      <trkpt lat="48.75607" lon="1.95976">
        <ele>165.6</ele>
        <time>2022-06-14T14:43:45Z</time>
      </trkpt>
      <trkpt lat="48.75607" lon="1.95963">
        <ele>165.6</ele>
        <time>2022-06-14T14:43:50Z</time>
      </trkpt>
      <trkpt lat="48.75605" lon="1.95951">
        <ele>165.5</ele>
        <time>2022-06-14T14:43:56Z</time>
      </trkpt>
      <trkpt lat="48.75602" lon="1.95941">
        <ele>165.4</ele>
        <time>2022-06-14T14:44:01Z</time>
      </trkpt>
      <trkpt lat="48.75602" lon="1.95928">
        <ele>165.4</ele>
        <time>2022-06-14T14:44:06Z</time>
      </trkpt>
      <trkpt lat="48.75598" lon="1.95919">
        <ele>165.4</ele>
        <time>2022-06-14T14:44:12Z</time>
      </trkpt>
      <trkpt lat="48.75598" lon="1.95909">
        <ele>165.4</ele>
        <time>2022-06-14T14:44:21Z</time>
      </trkpt>
      <trkpt lat="48.75595" lon="1.95899">
        <ele>165.3</ele>
        <time>2022-06-14T14:44:26Z</time>
      </trkpt>
      <trkpt lat="48.75594" lon="1.95886">
        <ele>165.3</ele>
        <time>2022-06-14T14:44:31Z</time>
      </trkpt>
      <trkpt lat="48.7559" lon="1.95876">
        <ele>165.2</ele>
        <time>2022-06-14T14:44:36Z</time>
      </trkpt>
      <trkpt lat="48.75589" lon="1.95865">
        <ele>165.1</ele>
        <time>2022-06-14T14:44:42Z</time>
      </trkpt>
      <trkpt lat="48.75588" lon="1.95852">
        <ele>165.1</ele>
        <time>2022-06-14T14:44:47Z</time>
      </trkpt>
      <trkpt lat="48.7559" lon="1.95842">
        <ele>165.2</ele>
        <time>2022-06-14T14:44:52Z</time>
      </trkpt>
      <trkpt lat="48.7559" lon="1.95832">
        <ele>165.2</ele>
        <time>2022-06-14T14:44:57Z</time>
      </trkpt>
      <trkpt lat="48.75588" lon="1.9582">
        <ele>165.3</ele>
        <time>2022-06-14T14:45:03Z</time>
      </trkpt>
      <trkpt lat="48.75586" lon="1.95808">
        <ele>165.4</ele>
        <time>2022-06-14T14:45:08Z</time>
      </trkpt>
      <trkpt lat="48.75586" lon="1.95798">
        <ele>165.5</ele>
        <time>2022-06-14T14:45:17Z</time>
      </trkpt>
      <trkpt lat="48.75585" lon="1.95784">
        <ele>165.6</ele>
        <time>2022-06-14T14:45:22Z</time>
      </trkpt>
      <trkpt lat="48.75577" lon="1.95778">
        <ele>165.8</ele>
        <time>2022-06-14T14:45:27Z</time>
      </trkpt>
      <trkpt lat="48.75573" lon="1.9577">
        <ele>165.9</ele>
        <time>2022-06-14T14:45:35Z</time>
      </trkpt>
      <trkpt lat="48.7557" lon="1.95761">
        <ele>166.1</ele>
        <time>2022-06-14T14:45:41Z</time>
      </trkpt>
      <trkpt lat="48.75565" lon="1.95752">
        <ele>166.4</ele>
        <time>2022-06-14T14:45:46Z</time>
      </trkpt>
      <trkpt lat="48.75561" lon="1.95742">
        <ele>166.9</ele>
        <time>2022-06-14T14:45:51Z</time>
      </trkpt>
      <trkpt lat="48.75556" lon="1.95733">
        <ele>167.3</ele>
        <time>2022-06-14T14:45:56Z</time>
      </trkpt>
      <trkpt lat="48.75553" lon="1.95723">
        <ele>167.8</ele>
        <time>2022-06-14T14:46:01Z</time>
      </trkpt>
      <trkpt lat="48.7555" lon="1.95714">
        <ele>168.2</ele>
        <time>2022-06-14T14:46:06Z</time>
      </trkpt>
      <trkpt lat="48.75545" lon="1.95704">
        <ele>168.6</ele>
        <time>2022-06-14T14:46:11Z</time>
      </trkpt>
      <trkpt lat="48.75537" lon="1.957">
        <ele>168.8</ele>
        <time>2022-06-14T14:46:16Z</time>
      </trkpt>
      <trkpt lat="48.7553" lon="1.95697">
        <ele>169</ele>
        <time>2022-06-14T14:46:21Z</time>
      </trkpt>
      <trkpt lat="48.75525" lon="1.9569">
        <ele>169.3</ele>
        <time>2022-06-14T14:46:27Z</time>
      </trkpt>
      <trkpt lat="48.7552" lon="1.95682">
        <ele>169.5</ele>
        <time>2022-06-14T14:46:33Z</time>
      </trkpt>
      <trkpt lat="48.75516" lon="1.95674">
        <ele>169.8</ele>
        <time>2022-06-14T14:46:38Z</time>
      </trkpt>
      <trkpt lat="48.75508" lon="1.95666">
        <ele>170</ele>
        <time>2022-06-14T14:46:43Z</time>
      </trkpt>
      <trkpt lat="48.75501" lon="1.95662">
        <ele>169.9</ele>
        <time>2022-06-14T14:46:48Z</time>
      </trkpt>
      <trkpt lat="48.75495" lon="1.95657">
        <ele>169.8</ele>
        <time>2022-06-14T14:46:53Z</time>
      </trkpt>
      <trkpt lat="48.75487" lon="1.95651">
        <ele>169.7</ele>
        <time>2022-06-14T14:46:58Z</time>
      </trkpt>
      <trkpt lat="48.75481" lon="1.95645">
        <ele>169.6</ele>
        <time>2022-06-14T14:47:04Z</time>
      </trkpt>
      <trkpt lat="48.75474" lon="1.9564">
        <ele>169.5</ele>
        <time>2022-06-14T14:47:10Z</time>
      </trkpt>
      <trkpt lat="48.7547" lon="1.95631">
        <ele>169.4</ele>
        <time>2022-06-14T14:47:16Z</time>
      </trkpt>
      <trkpt lat="48.75471" lon="1.95619">
        <ele>169.3</ele>
        <time>2022-06-14T14:47:21Z</time>
      </trkpt>
      <trkpt lat="48.75468" lon="1.95609">
        <ele>169.2</ele>
        <time>2022-06-14T14:47:26Z</time>
      </trkpt>
      <trkpt lat="48.75464" lon="1.95602">
        <ele>169.1</ele>
        <time>2022-06-14T14:47:31Z</time>
      </trkpt>
      <trkpt lat="48.75457" lon="1.956">
        <ele>169.1</ele>
        <time>2022-06-14T14:47:39Z</time>
      </trkpt>
      <trkpt lat="48.75452" lon="1.95593">
        <ele>169</ele>
        <time>2022-06-14T14:47:48Z</time>
      </trkpt>
      <trkpt lat="48.75448" lon="1.95601">
        <ele>169.1</ele>
        <time>2022-06-14T14:47:55Z</time>
      </trkpt>
      <trkpt lat="48.75441" lon="1.95598">
        <ele>169.1</ele>
        <time>2022-06-14T14:49:16Z</time>
      </trkpt>
      <trkpt lat="48.75435" lon="1.95596">
        <ele>169</ele>
        <time>2022-06-14T14:49:21Z</time>
      </trkpt>
      <trkpt lat="48.75428" lon="1.95595">
        <ele>169</ele>
        <time>2022-06-14T14:49:28Z</time>
      </trkpt>
      <trkpt lat="48.75422" lon="1.9559">
        <ele>169</ele>
        <time>2022-06-14T14:49:33Z</time>
      </trkpt>
      <trkpt lat="48.75412" lon="1.95591">
        <ele>169</ele>
        <time>2022-06-14T14:49:38Z</time>
      </trkpt>
      <trkpt lat="48.75405" lon="1.95593">
        <ele>169</ele>
        <time>2022-06-14T14:49:43Z</time>
      </trkpt>
      <trkpt lat="48.75398" lon="1.95595">
        <ele>169</ele>
        <time>2022-06-14T14:50:17Z</time>
      </trkpt>
      <trkpt lat="48.75392" lon="1.95591">
        <ele>169</ele>
        <time>2022-06-14T14:50:22Z</time>
      </trkpt>
      <trkpt lat="48.75385" lon="1.95588">
        <ele>169</ele>
        <time>2022-06-14T14:50:29Z</time>
      </trkpt>
      <trkpt lat="48.75378" lon="1.9559">
        <ele>169</ele>
        <time>2022-06-14T14:50:35Z</time>
      </trkpt>
      <trkpt lat="48.7537" lon="1.95585">
        <ele>169</ele>
        <time>2022-06-14T14:50:40Z</time>
      </trkpt>
      <trkpt lat="48.75361" lon="1.95583">
        <ele>169</ele>
        <time>2022-06-14T14:50:47Z</time>
      </trkpt>
      <trkpt lat="48.75354" lon="1.95578">
        <ele>169.1</ele>
        <time>2022-06-14T14:50:52Z</time>
      </trkpt>
      <trkpt lat="48.75344" lon="1.95578">
        <ele>169.1</ele>
        <time>2022-06-14T14:50:57Z</time>
      </trkpt>
      <trkpt lat="48.75337" lon="1.95574">
        <ele>169.2</ele>
        <time>2022-06-14T14:51:02Z</time>
      </trkpt>
      <trkpt lat="48.75329" lon="1.95572">
        <ele>169.3</ele>
        <time>2022-06-14T14:51:07Z</time>
      </trkpt>
      <trkpt lat="48.75323" lon="1.95569">
        <ele>169.4</ele>
        <time>2022-06-14T14:51:13Z</time>
      </trkpt>
      <trkpt lat="48.75314" lon="1.95569">
        <ele>169.5</ele>
        <time>2022-06-14T14:51:18Z</time>
      </trkpt>
      <trkpt lat="48.75307" lon="1.95568">
        <ele>169.6</ele>
        <time>2022-06-14T14:51:27Z</time>
      </trkpt>
      <trkpt lat="48.753" lon="1.95565">
        <ele>169.7</ele>
        <time>2022-06-14T14:51:32Z</time>
      </trkpt>
      <trkpt lat="48.75301" lon="1.95554">
        <ele>169.8</ele>
        <time>2022-06-14T14:51:37Z</time>
      </trkpt>
      <trkpt lat="48.75301" lon="1.95544">
        <ele>170</ele>
        <time>2022-06-14T14:51:42Z</time>
      </trkpt>
      <trkpt lat="48.75308" lon="1.95539">
        <ele>170</ele>
        <time>2022-06-14T14:51:47Z</time>
      </trkpt>
      <trkpt lat="48.75313" lon="1.9553">
        <ele>170.2</ele>
        <time>2022-06-14T14:51:52Z</time>
      </trkpt>
      <trkpt lat="48.75318" lon="1.95522">
        <ele>170.4</ele>
        <time>2022-06-14T14:51:58Z</time>
      </trkpt>
      <trkpt lat="48.75323" lon="1.95513">
        <ele>170.6</ele>
        <time>2022-06-14T14:52:03Z</time>
      </trkpt>
      <trkpt lat="48.75328" lon="1.95506">
        <ele>170.8</ele>
        <time>2022-06-14T14:52:08Z</time>
      </trkpt>
      <trkpt lat="48.75333" lon="1.95496">
        <ele>170.9</ele>
        <time>2022-06-14T14:52:14Z</time>
      </trkpt>
      <trkpt lat="48.75338" lon="1.95488">
        <ele>170.8</ele>
        <time>2022-06-14T14:52:19Z</time>
      </trkpt>
      <trkpt lat="48.75343" lon="1.95481">
        <ele>170.6</ele>
        <time>2022-06-14T14:52:24Z</time>
      </trkpt>
      <trkpt lat="48.75349" lon="1.95472">
        <ele>170.4</ele>
        <time>2022-06-14T14:52:29Z</time>
      </trkpt>
      <trkpt lat="48.75355" lon="1.95461">
        <ele>170.3</ele>
        <time>2022-06-14T14:52:34Z</time>
      </trkpt>
      <trkpt lat="48.7536" lon="1.95453">
        <ele>170.2</ele>
        <time>2022-06-14T14:52:39Z</time>
      </trkpt>
      <trkpt lat="48.75365" lon="1.95442">
        <ele>170.1</ele>
        <time>2022-06-14T14:52:44Z</time>
      </trkpt>
      <trkpt lat="48.75369" lon="1.95433">
        <ele>170</ele>
        <time>2022-06-14T14:52:49Z</time>
      </trkpt>
      <trkpt lat="48.75375" lon="1.95425">
        <ele>170</ele>
        <time>2022-06-14T14:52:54Z</time>
      </trkpt>
      <trkpt lat="48.75381" lon="1.95419">
        <ele>170</ele>
        <time>2022-06-14T14:52:59Z</time>
      </trkpt>
      <trkpt lat="48.75387" lon="1.95411">
        <ele>170.2</ele>
        <time>2022-06-14T14:53:05Z</time>
      </trkpt>
      <trkpt lat="48.75394" lon="1.95408">
        <ele>170.3</ele>
        <time>2022-06-14T14:53:10Z</time>
      </trkpt>
      <trkpt lat="48.75402" lon="1.95407">
        <ele>170.4</ele>
        <time>2022-06-14T14:53:15Z</time>
      </trkpt>
      <trkpt lat="48.75408" lon="1.95417">
        <ele>170</ele>
        <time>2022-06-14T14:53:20Z</time>
      </trkpt>
      <trkpt lat="48.75416" lon="1.95424">
        <ele>169.9</ele>
        <time>2022-06-14T14:53:25Z</time>
      </trkpt>
      <trkpt lat="48.75419" lon="1.95433">
        <ele>169.8</ele>
        <time>2022-06-14T14:53:30Z</time>
      </trkpt>
      <trkpt lat="48.75424" lon="1.95424">
        <ele>170</ele>
        <time>2022-06-14T14:53:38Z</time>
      </trkpt>
      <trkpt lat="48.75426" lon="1.95413">
        <ele>170.3</ele>
        <time>2022-06-14T14:53:43Z</time>
      </trkpt>
      <trkpt lat="48.75426" lon="1.95423">
        <ele>170</ele>
        <time>2022-06-14T14:53:50Z</time>
      </trkpt>
      <trkpt lat="48.75433" lon="1.95421">
        <ele>170.1</ele>
        <time>2022-06-14T14:53:56Z</time>
      </trkpt>
      <trkpt lat="48.75436" lon="1.9541">
        <ele>170.6</ele>
        <time>2022-06-14T14:54:01Z</time>
      </trkpt>
      <trkpt lat="48.75441" lon="1.95403">
        <ele>171</ele>
        <time>2022-06-14T14:54:08Z</time>
      </trkpt>
      <trkpt lat="48.75447" lon="1.95395">
        <ele>171.5</ele>
        <time>2022-06-14T14:54:13Z</time>
      </trkpt>
      <trkpt lat="48.75452" lon="1.95401">
        <ele>171.3</ele>
        <time>2022-06-14T14:54:19Z</time>
      </trkpt>
      <trkpt lat="48.75459" lon="1.9541">
        <ele>170.9</ele>
        <time>2022-06-14T14:54:24Z</time>
      </trkpt>
      <trkpt lat="48.75467" lon="1.95414">
        <ele>170.8</ele>
        <time>2022-06-14T14:54:29Z</time>
      </trkpt>
      <trkpt lat="48.75474" lon="1.9542">
        <ele>170.6</ele>
        <time>2022-06-14T14:54:34Z</time>
      </trkpt>
      <trkpt lat="48.75481" lon="1.95424">
        <ele>170.6</ele>
        <time>2022-06-14T14:54:39Z</time>
      </trkpt>
      <trkpt lat="48.75488" lon="1.95418">
        <ele>170.8</ele>
        <time>2022-06-14T14:54:45Z</time>
      </trkpt>
      <trkpt lat="48.75493" lon="1.95408">
        <ele>171.4</ele>
        <time>2022-06-14T14:54:51Z</time>
      </trkpt>
      <trkpt lat="48.75495" lon="1.95397">
        <ele>172.1</ele>
        <time>2022-06-14T14:54:56Z</time>
      </trkpt>
      <trkpt lat="48.75501" lon="1.9539">
        <ele>172.6</ele>
        <time>2022-06-14T14:55:01Z</time>
      </trkpt>
      <trkpt lat="48.75505" lon="1.95381">
        <ele>173.2</ele>
        <time>2022-06-14T14:55:06Z</time>
      </trkpt>
      <trkpt lat="48.75511" lon="1.95373">
        <ele>173.8</ele>
        <time>2022-06-14T14:55:11Z</time>
      </trkpt>
      <trkpt lat="48.75518" lon="1.95382">
        <ele>173.3</ele>
        <time>2022-06-14T14:55:16Z</time>
      </trkpt>
      <trkpt lat="48.75523" lon="1.95391">
        <ele>172.7</ele>
        <time>2022-06-14T14:55:23Z</time>
      </trkpt>
      <trkpt lat="48.75529" lon="1.95393">
        <ele>172.6</ele>
        <time>2022-06-14T14:55:28Z</time>
      </trkpt>
      <trkpt lat="48.75536" lon="1.95391">
        <ele>172.8</ele>
        <time>2022-06-14T14:55:34Z</time>
      </trkpt>
      <trkpt lat="48.75544" lon="1.95385">
        <ele>173.3</ele>
        <time>2022-06-14T14:55:39Z</time>
      </trkpt>
      <trkpt lat="48.75549" lon="1.95379">
        <ele>173.8</ele>
        <time>2022-06-14T14:55:45Z</time>
      </trkpt>
      <trkpt lat="48.75555" lon="1.95372">
        <ele>174.4</ele>
        <time>2022-06-14T14:55:51Z</time>
      </trkpt>
      <trkpt lat="48.75559" lon="1.95362">
        <ele>175.2</ele>
        <time>2022-06-14T14:55:57Z</time>
      </trkpt>
      <trkpt lat="48.75564" lon="1.95354">
        <ele>175.9</ele>
        <time>2022-06-14T14:56:03Z</time>
      </trkpt>
      <trkpt lat="48.75566" lon="1.95344">
        <ele>176.7</ele>
        <time>2022-06-14T14:56:08Z</time>
      </trkpt>
      <trkpt lat="48.75564" lon="1.95333">
        <ele>177.5</ele>
        <time>2022-06-14T14:56:13Z</time>
      </trkpt>
      <trkpt lat="48.75558" lon="1.95324">
        <ele>177.3</ele>
        <time>2022-06-14T14:56:18Z</time>
      </trkpt>
      <trkpt lat="48.75552" lon="1.95321">
        <ele>177.2</ele>
        <time>2022-06-14T14:56:23Z</time>
      </trkpt>
      <trkpt lat="48.75545" lon="1.95312">
        <ele>177.1</ele>
        <time>2022-06-14T14:56:28Z</time>
      </trkpt>
      <trkpt lat="48.75539" lon="1.95304">
        <ele>177</ele>
        <time>2022-06-14T14:56:33Z</time>
      </trkpt>
      <trkpt lat="48.75532" lon="1.95299">
        <ele>176.9</ele>
        <time>2022-06-14T14:56:39Z</time>
      </trkpt>
      <trkpt lat="48.75527" lon="1.95292">
        <ele>176.8</ele>
        <time>2022-06-14T14:56:44Z</time>
      </trkpt>
      <trkpt lat="48.75524" lon="1.95281">
        <ele>176.8</ele>
        <time>2022-06-14T14:56:49Z</time>
      </trkpt>
      <trkpt lat="48.75532" lon="1.95295">
        <ele>176.9</ele>
        <time>2022-06-14T14:57:36Z</time>
      </trkpt>
      <trkpt lat="48.75523" lon="1.95297">
        <ele>176.7</ele>
        <time>2022-06-14T14:58:11Z</time>
      </trkpt>
      <trkpt lat="48.75526" lon="1.95286">
        <ele>176.8</ele>
        <time>2022-06-14T14:59:02Z</time>
      </trkpt>
      <trkpt lat="48.75524" lon="1.95272">
        <ele>176.9</ele>
        <time>2022-06-14T14:59:55Z</time>
      </trkpt>
      <trkpt lat="48.75526" lon="1.95284">
        <ele>176.8</ele>
        <time>2022-06-14T15:00:19Z</time>
      </trkpt>
      <trkpt lat="48.75522" lon="1.95299">
        <ele>176.7</ele>
        <time>2022-06-14T15:00:35Z</time>
      </trkpt>
      <trkpt lat="48.75527" lon="1.95293">
        <ele>176.8</ele>
        <time>2022-06-14T15:01:21Z</time>
      </trkpt>
      <trkpt lat="48.7552" lon="1.95288">
        <ele>176.8</ele>
        <time>2022-06-14T15:01:29Z</time>
      </trkpt>
      <trkpt lat="48.75513" lon="1.95286">
        <ele>176.7</ele>
        <time>2022-06-14T15:01:34Z</time>
      </trkpt>
      <trkpt lat="48.75508" lon="1.95281">
        <ele>176.7</ele>
        <time>2022-06-14T15:01:40Z</time>
      </trkpt>
      <trkpt lat="48.75505" lon="1.95272">
        <ele>176.8</ele>
        <time>2022-06-14T15:01:45Z</time>
      </trkpt>
      <trkpt lat="48.75499" lon="1.95269">
        <ele>176.8</ele>
        <time>2022-06-14T15:01:50Z</time>
      </trkpt>
      <trkpt lat="48.75493" lon="1.95262">
        <ele>177</ele>
        <time>2022-06-14T15:01:55Z</time>
      </trkpt>
      <trkpt lat="48.75487" lon="1.95255">
        <ele>177.2</ele>
        <time>2022-06-14T15:02:01Z</time>
      </trkpt>
      <trkpt lat="48.75482" lon="1.95249">
        <ele>177.4</ele>
        <time>2022-06-14T15:02:08Z</time>
      </trkpt>
      <trkpt lat="48.75475" lon="1.95249">
        <ele>177.6</ele>
        <time>2022-06-14T15:02:20Z</time>
      </trkpt>
      <trkpt lat="48.75467" lon="1.95248">
        <ele>177.8</ele>
        <time>2022-06-14T15:02:25Z</time>
      </trkpt>
      <trkpt lat="48.75461" lon="1.95243">
        <ele>178</ele>
        <time>2022-06-14T15:02:31Z</time>
      </trkpt>
      <trkpt lat="48.75455" lon="1.95237">
        <ele>178.2</ele>
        <time>2022-06-14T15:02:36Z</time>
      </trkpt>
      <trkpt lat="48.75449" lon="1.95232">
        <ele>178.4</ele>
        <time>2022-06-14T15:02:41Z</time>
      </trkpt>
      <trkpt lat="48.75442" lon="1.95228">
        <ele>178.7</ele>
        <time>2022-06-14T15:02:47Z</time>
      </trkpt>
      <trkpt lat="48.75437" lon="1.95217">
        <ele>178.9</ele>
        <time>2022-06-14T15:02:53Z</time>
      </trkpt>
      <trkpt lat="48.75432" lon="1.95212">
        <ele>179.1</ele>
        <time>2022-06-14T15:03:00Z</time>
      </trkpt>
      <trkpt lat="48.75425" lon="1.95207">
        <ele>179.3</ele>
        <time>2022-06-14T15:03:07Z</time>
      </trkpt>
      <trkpt lat="48.75417" lon="1.952">
        <ele>179.6</ele>
        <time>2022-06-14T15:03:12Z</time>
      </trkpt>
      <trkpt lat="48.75409" lon="1.95198">
        <ele>179.2</ele>
        <time>2022-06-14T15:03:17Z</time>
      </trkpt>
      <trkpt lat="48.75402" lon="1.95195">
        <ele>178.8</ele>
        <time>2022-06-14T15:03:22Z</time>
      </trkpt>
      <trkpt lat="48.75395" lon="1.95191">
        <ele>178.5</ele>
        <time>2022-06-14T15:03:30Z</time>
      </trkpt>
      <trkpt lat="48.75389" lon="1.95185">
        <ele>178.3</ele>
        <time>2022-06-14T15:03:40Z</time>
      </trkpt>
      <trkpt lat="48.75383" lon="1.95175">
        <ele>178.2</ele>
        <time>2022-06-14T15:03:45Z</time>
      </trkpt>
      <trkpt lat="48.75374" lon="1.95164">
        <ele>177.9</ele>
        <time>2022-06-14T15:03:50Z</time>
      </trkpt>
      <trkpt lat="48.75368" lon="1.95153">
        <ele>177.5</ele>
        <time>2022-06-14T15:03:55Z</time>
      </trkpt>
      <trkpt lat="48.75362" lon="1.95143">
        <ele>177.1</ele>
        <time>2022-06-14T15:04:00Z</time>
      </trkpt>
      <trkpt lat="48.75355" lon="1.95136">
        <ele>176.8</ele>
        <time>2022-06-14T15:04:05Z</time>
      </trkpt>
      <trkpt lat="48.75349" lon="1.95129">
        <ele>176.5</ele>
        <time>2022-06-14T15:04:10Z</time>
      </trkpt>
      <trkpt lat="48.75341" lon="1.95125">
        <ele>176.2</ele>
        <time>2022-06-14T15:04:15Z</time>
      </trkpt>
      <trkpt lat="48.75335" lon="1.95119">
        <ele>176</ele>
        <time>2022-06-14T15:04:20Z</time>
      </trkpt>
      <trkpt lat="48.7533" lon="1.95113">
        <ele>175.9</ele>
        <time>2022-06-14T15:04:26Z</time>
      </trkpt>
      <trkpt lat="48.75324" lon="1.95105">
        <ele>175.8</ele>
        <time>2022-06-14T15:04:31Z</time>
      </trkpt>
      <trkpt lat="48.75318" lon="1.95097">
        <ele>175.7</ele>
        <time>2022-06-14T15:04:36Z</time>
      </trkpt>
      <trkpt lat="48.7531" lon="1.95094">
        <ele>175.5</ele>
        <time>2022-06-14T15:04:41Z</time>
      </trkpt>
      <trkpt lat="48.75303" lon="1.95092">
        <ele>175.3</ele>
        <time>2022-06-14T15:04:47Z</time>
      </trkpt>
      <trkpt lat="48.75296" lon="1.95089">
        <ele>175.1</ele>
        <time>2022-06-14T15:04:52Z</time>
      </trkpt>
      <trkpt lat="48.7529" lon="1.95084">
        <ele>175</ele>
        <time>2022-06-14T15:04:57Z</time>
      </trkpt>
      <trkpt lat="48.75285" lon="1.95078">
        <ele>174.8</ele>
        <time>2022-06-14T15:05:03Z</time>
      </trkpt>
      <trkpt lat="48.75279" lon="1.9507">
        <ele>174.6</ele>
        <time>2022-06-14T15:05:08Z</time>
      </trkpt>
      <trkpt lat="48.75272" lon="1.95063">
        <ele>174.4</ele>
        <time>2022-06-14T15:05:13Z</time>
      </trkpt>
      <trkpt lat="48.75263" lon="1.95059">
        <ele>174.2</ele>
        <time>2022-06-14T15:05:18Z</time>
      </trkpt>
      <trkpt lat="48.75257" lon="1.95053">
        <ele>174.1</ele>
        <time>2022-06-14T15:05:25Z</time>
      </trkpt>
      <trkpt lat="48.75251" lon="1.95048">
        <ele>174</ele>
        <time>2022-06-14T15:05:30Z</time>
      </trkpt>
      <trkpt lat="48.75245" lon="1.95042">
        <ele>174</ele>
        <time>2022-06-14T15:05:35Z</time>
      </trkpt>
      <trkpt lat="48.7524" lon="1.95035">
        <ele>174</ele>
        <time>2022-06-14T15:05:41Z</time>
      </trkpt>
      <trkpt lat="48.75234" lon="1.9503">
        <ele>174</ele>
        <time>2022-06-14T15:05:47Z</time>
      </trkpt>
      <trkpt lat="48.75227" lon="1.95026">
        <ele>174</ele>
        <time>2022-06-14T15:05:53Z</time>
      </trkpt>
      <trkpt lat="48.75227" lon="1.95016">
        <ele>174</ele>
        <time>2022-06-14T15:06:02Z</time>
      </trkpt>
      <trkpt lat="48.7523" lon="1.95005">
        <ele>174</ele>
        <time>2022-06-14T15:06:28Z</time>
      </trkpt>
      <trkpt lat="48.75224" lon="1.95011">
        <ele>174</ele>
        <time>2022-06-14T15:08:10Z</time>
      </trkpt>
      <trkpt lat="48.75216" lon="1.95012">
        <ele>174</ele>
        <time>2022-06-14T15:08:15Z</time>
      </trkpt>
      <trkpt lat="48.75208" lon="1.95011">
        <ele>174</ele>
        <time>2022-06-14T15:08:20Z</time>
      </trkpt>
      <trkpt lat="48.75203" lon="1.95004">
        <ele>174</ele>
        <time>2022-06-14T15:08:26Z</time>
      </trkpt>
      <trkpt lat="48.75198" lon="1.94996">
        <ele>174</ele>
        <time>2022-06-14T15:08:32Z</time>
      </trkpt>
      <trkpt lat="48.75191" lon="1.94991">
        <ele>173.9</ele>
        <time>2022-06-14T15:08:37Z</time>
      </trkpt>
      <trkpt lat="48.75185" lon="1.94985">
        <ele>173.8</ele>
        <time>2022-06-14T15:08:42Z</time>
      </trkpt>
      <trkpt lat="48.75179" lon="1.94981">
        <ele>173.8</ele>
        <time>2022-06-14T15:08:47Z</time>
      </trkpt>
      <trkpt lat="48.75174" lon="1.94974">
        <ele>173.7</ele>
        <time>2022-06-14T15:09:11Z</time>
      </trkpt>
      <trkpt lat="48.7517" lon="1.94965">
        <ele>173.6</ele>
        <time>2022-06-14T15:09:19Z</time>
      </trkpt>
      <trkpt lat="48.75164" lon="1.9496">
        <ele>173.5</ele>
        <time>2022-06-14T15:09:49Z</time>
      </trkpt>
      <trkpt lat="48.75156" lon="1.94956">
        <ele>173.5</ele>
        <time>2022-06-14T15:09:56Z</time>
      </trkpt>
      <trkpt lat="48.7515" lon="1.94951">
        <ele>173.5</ele>
        <time>2022-06-14T15:10:04Z</time>
      </trkpt>
      <trkpt lat="48.75143" lon="1.94948">
        <ele>173.6</ele>
        <time>2022-06-14T15:10:13Z</time>
      </trkpt>
      <trkpt lat="48.7515" lon="1.94947">
        <ele>173.5</ele>
        <time>2022-06-14T15:10:47Z</time>
      </trkpt>
      <trkpt lat="48.75157" lon="1.94952">
        <ele>173.5</ele>
        <time>2022-06-14T15:10:54Z</time>
      </trkpt>
      <trkpt lat="48.7516" lon="1.94961">
        <ele>173.6</ele>
        <time>2022-06-14T15:11:01Z</time>
      </trkpt>
      <trkpt lat="48.75155" lon="1.9497">
        <ele>173.7</ele>
        <time>2022-06-14T15:11:15Z</time>
      </trkpt>
      <trkpt lat="48.75151" lon="1.94978">
        <ele>173.8</ele>
        <time>2022-06-14T15:11:20Z</time>
      </trkpt>
      <trkpt lat="48.75147" lon="1.94985">
        <ele>173.9</ele>
        <time>2022-06-14T15:11:26Z</time>
      </trkpt>
      <trkpt lat="48.75152" lon="1.94981">
        <ele>173.8</ele>
        <time>2022-06-14T15:11:49Z</time>
      </trkpt>
      <trkpt lat="48.75158" lon="1.94973">
        <ele>173.7</ele>
        <time>2022-06-14T15:11:56Z</time>
      </trkpt>
      <trkpt lat="48.75164" lon="1.94968">
        <ele>173.6</ele>
        <time>2022-06-14T15:12:01Z</time>
      </trkpt>
      <trkpt lat="48.75172" lon="1.94966">
        <ele>173.6</ele>
        <time>2022-06-14T15:12:06Z</time>
      </trkpt>
      <trkpt lat="48.75177" lon="1.94957">
        <ele>173.5</ele>
        <time>2022-06-14T15:12:11Z</time>
      </trkpt>
      <trkpt lat="48.75182" lon="1.94948">
        <ele>173.4</ele>
        <time>2022-06-14T15:12:16Z</time>
      </trkpt>
      <trkpt lat="48.75188" lon="1.94939">
        <ele>173.3</ele>
        <time>2022-06-14T15:12:21Z</time>
      </trkpt>
      <trkpt lat="48.75194" lon="1.94929">
        <ele>173.1</ele>
        <time>2022-06-14T15:12:26Z</time>
      </trkpt>
      <trkpt lat="48.75197" lon="1.94919">
        <ele>173</ele>
        <time>2022-06-14T15:12:32Z</time>
      </trkpt>
      <trkpt lat="48.75202" lon="1.9491">
        <ele>173</ele>
        <time>2022-06-14T15:12:39Z</time>
      </trkpt>
      <trkpt lat="48.75207" lon="1.949">
        <ele>173</ele>
        <time>2022-06-14T15:12:44Z</time>
      </trkpt>
      <trkpt lat="48.75212" lon="1.94893">
        <ele>173</ele>
        <time>2022-06-14T15:12:50Z</time>
      </trkpt>
      <trkpt lat="48.75217" lon="1.94882">
        <ele>172.9</ele>
        <time>2022-06-14T15:12:55Z</time>
      </trkpt>
      <trkpt lat="48.75221" lon="1.94872">
        <ele>172.8</ele>
        <time>2022-06-14T15:13:00Z</time>
      </trkpt>
      <trkpt lat="48.75225" lon="1.94864">
        <ele>172.7</ele>
        <time>2022-06-14T15:13:05Z</time>
      </trkpt>
      <trkpt lat="48.75233" lon="1.94866">
        <ele>172.6</ele>
        <time>2022-06-14T15:13:10Z</time>
      </trkpt>
      <trkpt lat="48.75239" lon="1.94872">
        <ele>172.6</ele>
        <time>2022-06-14T15:13:15Z</time>
      </trkpt>
      <trkpt lat="48.75245" lon="1.94878">
        <ele>172.6</ele>
        <time>2022-06-14T15:13:21Z</time>
      </trkpt>
      <trkpt lat="48.75251" lon="1.94884">
        <ele>172.6</ele>
        <time>2022-06-14T15:13:26Z</time>
      </trkpt>
      <trkpt lat="48.75259" lon="1.94888">
        <ele>172.8</ele>
        <time>2022-06-14T15:13:31Z</time>
      </trkpt>
      <trkpt lat="48.75262" lon="1.94897">
        <ele>172.9</ele>
        <time>2022-06-14T15:13:36Z</time>
      </trkpt>
      <trkpt lat="48.75263" lon="1.94908">
        <ele>173.1</ele>
        <time>2022-06-14T15:13:41Z</time>
      </trkpt>
      <trkpt lat="48.75259" lon="1.94916">
        <ele>173.1</ele>
        <time>2022-06-14T15:13:46Z</time>
      </trkpt>
      <trkpt lat="48.75256" lon="1.94926">
        <ele>173.2</ele>
        <time>2022-06-14T15:13:51Z</time>
      </trkpt>
      <trkpt lat="48.75253" lon="1.94936">
        <ele>173.3</ele>
        <time>2022-06-14T15:13:56Z</time>
      </trkpt>
      <trkpt lat="48.75252" lon="1.94947">
        <ele>173.4</ele>
        <time>2022-06-14T15:14:02Z</time>
      </trkpt>
      <trkpt lat="48.75264" lon="1.94945">
        <ele>173.5</ele>
        <time>2022-06-14T15:16:45Z</time>
      </trkpt>
      <trkpt lat="48.75259" lon="1.94955">
        <ele>173.5</ele>
        <time>2022-06-14T15:17:56Z</time>
      </trkpt>
      <trkpt lat="48.75255" lon="1.94963">
        <ele>173.6</ele>
        <time>2022-06-14T15:18:03Z</time>
      </trkpt>
      <trkpt lat="48.7525" lon="1.94969">
        <ele>173.6</ele>
        <time>2022-06-14T15:18:10Z</time>
      </trkpt>
      <trkpt lat="48.75244" lon="1.94963">
        <ele>173.6</ele>
        <time>2022-06-14T15:18:49Z</time>
      </trkpt>
      <trkpt lat="48.75244" lon="1.94952">
        <ele>173.4</ele>
        <time>2022-06-14T15:18:54Z</time>
      </trkpt>
      <trkpt lat="48.75251" lon="1.94945">
        <ele>173.3</ele>
        <time>2022-06-14T15:18:59Z</time>
      </trkpt>
      <trkpt lat="48.75256" lon="1.94938">
        <ele>173.3</ele>
        <time>2022-06-14T15:19:04Z</time>
      </trkpt>
      <trkpt lat="48.7526" lon="1.94929">
        <ele>173.3</ele>
        <time>2022-06-14T15:19:10Z</time>
      </trkpt>
      <trkpt lat="48.75261" lon="1.94919">
        <ele>173.2</ele>
        <time>2022-06-14T15:19:15Z</time>
      </trkpt>
      <trkpt lat="48.75264" lon="1.94909">
        <ele>173.1</ele>
        <time>2022-06-14T15:19:22Z</time>
      </trkpt>
      <trkpt lat="48.75266" lon="1.94899">
        <ele>173</ele>
        <time>2022-06-14T15:19:29Z</time>
      </trkpt>
      <trkpt lat="48.75265" lon="1.94888">
        <ele>172.8</ele>
        <time>2022-06-14T15:19:36Z</time>
      </trkpt>
      <trkpt lat="48.7527" lon="1.94878">
        <ele>172.8</ele>
        <time>2022-06-14T15:19:41Z</time>
      </trkpt>
      <trkpt lat="48.75274" lon="1.94869">
        <ele>172.7</ele>
        <time>2022-06-14T15:19:53Z</time>
      </trkpt>
      <trkpt lat="48.75276" lon="1.94859">
        <ele>172.6</ele>
        <time>2022-06-14T15:19:59Z</time>
      </trkpt>
      <trkpt lat="48.7528" lon="1.9485">
        <ele>172.6</ele>
        <time>2022-06-14T15:20:05Z</time>
      </trkpt>
      <trkpt lat="48.75286" lon="1.94842">
        <ele>172.5</ele>
        <time>2022-06-14T15:20:11Z</time>
      </trkpt>
      <trkpt lat="48.7529" lon="1.94832">
        <ele>172.5</ele>
        <time>2022-06-14T15:20:16Z</time>
      </trkpt>
      <trkpt lat="48.75295" lon="1.94826">
        <ele>172.4</ele>
        <time>2022-06-14T15:20:21Z</time>
      </trkpt>
      <trkpt lat="48.753" lon="1.94817">
        <ele>172.3</ele>
        <time>2022-06-14T15:20:26Z</time>
      </trkpt>
      <trkpt lat="48.75304" lon="1.94809">
        <ele>172.2</ele>
        <time>2022-06-14T15:20:32Z</time>
      </trkpt>
      <trkpt lat="48.75306" lon="1.94798">
        <ele>172</ele>
        <time>2022-06-14T15:20:38Z</time>
      </trkpt>
      <trkpt lat="48.75304" lon="1.9481">
        <ele>172.2</ele>
        <time>2022-06-14T15:20:47Z</time>
      </trkpt>
      <trkpt lat="48.75299" lon="1.94822">
        <ele>172.4</ele>
        <time>2022-06-14T15:20:52Z</time>
      </trkpt>
      <trkpt lat="48.75296" lon="1.94831">
        <ele>172.5</ele>
        <time>2022-06-14T15:20:58Z</time>
      </trkpt>
      <trkpt lat="48.75293" lon="1.9484">
        <ele>172.6</ele>
        <time>2022-06-14T15:21:04Z</time>
      </trkpt>
      <trkpt lat="48.75284" lon="1.94852">
        <ele>172.6</ele>
        <time>2022-06-14T15:21:09Z</time>
      </trkpt>
      <trkpt lat="48.75276" lon="1.94865">
        <ele>172.7</ele>
        <time>2022-06-14T15:21:14Z</time>
      </trkpt>
      <trkpt lat="48.75274" lon="1.94876">
        <ele>172.8</ele>
        <time>2022-06-14T15:21:22Z</time>
      </trkpt>
      <trkpt lat="48.75271" lon="1.94885">
        <ele>172.9</ele>
        <time>2022-06-14T15:21:28Z</time>
      </trkpt>
      <trkpt lat="48.75263" lon="1.94894">
        <ele>172.9</ele>
        <time>2022-06-14T15:21:33Z</time>
      </trkpt>
      <trkpt lat="48.75257" lon="1.94889">
        <ele>172.8</ele>
        <time>2022-06-14T15:21:38Z</time>
      </trkpt>
      <trkpt lat="48.75248" lon="1.94885">
        <ele>172.6</ele>
        <time>2022-06-14T15:21:43Z</time>
      </trkpt>
      <trkpt lat="48.75242" lon="1.94879">
        <ele>172.6</ele>
        <time>2022-06-14T15:21:48Z</time>
      </trkpt>
      <trkpt lat="48.75235" lon="1.94874">
        <ele>172.7</ele>
        <time>2022-06-14T15:21:54Z</time>
      </trkpt>
      <trkpt lat="48.7523" lon="1.94868">
        <ele>172.7</ele>
        <time>2022-06-14T15:21:59Z</time>
      </trkpt>
      <trkpt lat="48.75231" lon="1.94858">
        <ele>172.6</ele>
        <time>2022-06-14T15:22:04Z</time>
      </trkpt>
      <trkpt lat="48.75232" lon="1.94847">
        <ele>172.5</ele>
        <time>2022-06-14T15:22:10Z</time>
      </trkpt>
      <trkpt lat="48.75238" lon="1.94838">
        <ele>172.3</ele>
        <time>2022-06-14T15:22:16Z</time>
      </trkpt>
      <trkpt lat="48.75242" lon="1.9483">
        <ele>172.2</ele>
        <time>2022-06-14T15:22:21Z</time>
      </trkpt>
      <trkpt lat="48.75246" lon="1.94819">
        <ele>172.3</ele>
        <time>2022-06-14T15:22:26Z</time>
      </trkpt>
      <trkpt lat="48.75252" lon="1.94809">
        <ele>172.3</ele>
        <time>2022-06-14T15:22:31Z</time>
      </trkpt>
      <trkpt lat="48.75255" lon="1.94799">
        <ele>172.4</ele>
        <time>2022-06-14T15:22:37Z</time>
      </trkpt>
      <trkpt lat="48.75259" lon="1.94789">
        <ele>172.4</ele>
        <time>2022-06-14T15:22:42Z</time>
      </trkpt>
      <trkpt lat="48.75265" lon="1.94783">
        <ele>172.3</ele>
        <time>2022-06-14T15:22:47Z</time>
      </trkpt>
      <trkpt lat="48.7527" lon="1.94772">
        <ele>172.3</ele>
        <time>2022-06-14T15:22:53Z</time>
      </trkpt>
      <trkpt lat="48.75273" lon="1.94762">
        <ele>172.2</ele>
        <time>2022-06-14T15:23:00Z</time>
      </trkpt>
      <trkpt lat="48.75277" lon="1.94753">
        <ele>172</ele>
        <time>2022-06-14T15:23:05Z</time>
      </trkpt>
      <trkpt lat="48.75285" lon="1.94745">
        <ele>171.8</ele>
        <time>2022-06-14T15:23:10Z</time>
      </trkpt>
      <trkpt lat="48.75291" lon="1.94736">
        <ele>171.6</ele>
        <time>2022-06-14T15:23:15Z</time>
      </trkpt>
      <trkpt lat="48.75295" lon="1.94727">
        <ele>171.5</ele>
        <time>2022-06-14T15:23:23Z</time>
      </trkpt>
      <trkpt lat="48.75297" lon="1.94717">
        <ele>171.5</ele>
        <time>2022-06-14T15:23:29Z</time>
      </trkpt>
      <trkpt lat="48.75303" lon="1.94712">
        <ele>171.4</ele>
        <time>2022-06-14T15:23:48Z</time>
      </trkpt>
      <trkpt lat="48.75309" lon="1.947">
        <ele>171.3</ele>
        <time>2022-06-14T15:23:53Z</time>
      </trkpt>
      <trkpt lat="48.75314" lon="1.94693">
        <ele>171.2</ele>
        <time>2022-06-14T15:23:58Z</time>
      </trkpt>
      <trkpt lat="48.75318" lon="1.94684">
        <ele>171.2</ele>
        <time>2022-06-14T15:24:04Z</time>
      </trkpt>
      <trkpt lat="48.7532" lon="1.94674">
        <ele>171.2</ele>
        <time>2022-06-14T15:24:09Z</time>
      </trkpt>
      <trkpt lat="48.75326" lon="1.9468">
        <ele>171</ele>
        <time>2022-06-14T15:24:25Z</time>
      </trkpt>
      <trkpt lat="48.75334" lon="1.94686">
        <ele>170.8</ele>
        <time>2022-06-14T15:24:30Z</time>
      </trkpt>
      <trkpt lat="48.75341" lon="1.94691">
        <ele>170.9</ele>
        <time>2022-06-14T15:24:40Z</time>
      </trkpt>
      <trkpt lat="48.75348" lon="1.94694">
        <ele>171</ele>
        <time>2022-06-14T15:24:45Z</time>
      </trkpt>
      <trkpt lat="48.75352" lon="1.94702">
        <ele>171</ele>
        <time>2022-06-14T15:24:51Z</time>
      </trkpt>
      <trkpt lat="48.75358" lon="1.94712">
        <ele>171.1</ele>
        <time>2022-06-14T15:24:56Z</time>
      </trkpt>
      <trkpt lat="48.75365" lon="1.94716">
        <ele>171.2</ele>
        <time>2022-06-14T15:25:01Z</time>
      </trkpt>
      <trkpt lat="48.75371" lon="1.94724">
        <ele>171.4</ele>
        <time>2022-06-14T15:25:06Z</time>
      </trkpt>
      <trkpt lat="48.75379" lon="1.94732">
        <ele>171.6</ele>
        <time>2022-06-14T15:25:11Z</time>
      </trkpt>
      <trkpt lat="48.75385" lon="1.94739">
        <ele>171.8</ele>
        <time>2022-06-14T15:25:16Z</time>
      </trkpt>
      <trkpt lat="48.75379" lon="1.94732">
        <ele>171.6</ele>
        <time>2022-06-14T15:25:30Z</time>
      </trkpt>
      <trkpt lat="48.75372" lon="1.94726">
        <ele>171.4</ele>
        <time>2022-06-14T15:25:38Z</time>
      </trkpt>
      <trkpt lat="48.75368" lon="1.94717">
        <ele>171.3</ele>
        <time>2022-06-14T15:25:45Z</time>
      </trkpt>
      <trkpt lat="48.75365" lon="1.94708">
        <ele>171.3</ele>
        <time>2022-06-14T15:25:52Z</time>
      </trkpt>
      <trkpt lat="48.7536" lon="1.94699">
        <ele>171.2</ele>
        <time>2022-06-14T15:25:57Z</time>
      </trkpt>
      <trkpt lat="48.75358" lon="1.94686">
        <ele>171.2</ele>
        <time>2022-06-14T15:26:02Z</time>
      </trkpt>
      <trkpt lat="48.75355" lon="1.94674">
        <ele>171.2</ele>
        <time>2022-06-14T15:26:07Z</time>
      </trkpt>
      <trkpt lat="48.75352" lon="1.9466">
        <ele>171.3</ele>
        <time>2022-06-14T15:26:12Z</time>
      </trkpt>
      <trkpt lat="48.75352" lon="1.94649">
        <ele>171.5</ele>
        <time>2022-06-14T15:26:17Z</time>
      </trkpt>
      <trkpt lat="48.75353" lon="1.94637">
        <ele>171.7</ele>
        <time>2022-06-14T15:26:22Z</time>
      </trkpt>
      <trkpt lat="48.75354" lon="1.94626">
        <ele>171.9</ele>
        <time>2022-06-14T15:26:27Z</time>
      </trkpt>
      <trkpt lat="48.75358" lon="1.94617">
        <ele>172</ele>
        <time>2022-06-14T15:26:33Z</time>
      </trkpt>
      <trkpt lat="48.75362" lon="1.94607">
        <ele>172</ele>
        <time>2022-06-14T15:26:38Z</time>
      </trkpt>
      <trkpt lat="48.75367" lon="1.94596">
        <ele>172.1</ele>
        <time>2022-06-14T15:26:43Z</time>
      </trkpt>
      <trkpt lat="48.75373" lon="1.94588">
        <ele>172</ele>
        <time>2022-06-14T15:26:48Z</time>
      </trkpt>
      <trkpt lat="48.75376" lon="1.94578">
        <ele>172</ele>
        <time>2022-06-14T15:26:53Z</time>
      </trkpt>
      <trkpt lat="48.75381" lon="1.9457">
        <ele>171.9</ele>
        <time>2022-06-14T15:26:58Z</time>
      </trkpt>
      <trkpt lat="48.75385" lon="1.94557">
        <ele>171.9</ele>
        <time>2022-06-14T15:27:03Z</time>
      </trkpt>
      <trkpt lat="48.7539" lon="1.94547">
        <ele>171.8</ele>
        <time>2022-06-14T15:27:08Z</time>
      </trkpt>
      <trkpt lat="48.75397" lon="1.94543">
        <ele>171.6</ele>
        <time>2022-06-14T15:27:13Z</time>
      </trkpt>
      <trkpt lat="48.75397" lon="1.94531">
        <ele>171.6</ele>
        <time>2022-06-14T15:27:19Z</time>
      </trkpt>
      <trkpt lat="48.75397" lon="1.94517">
        <ele>171.7</ele>
        <time>2022-06-14T15:27:24Z</time>
      </trkpt>
      <trkpt lat="48.75402" lon="1.94507">
        <ele>171.5</ele>
        <time>2022-06-14T15:27:29Z</time>
      </trkpt>
      <trkpt lat="48.75408" lon="1.94496">
        <ele>171.4</ele>
        <time>2022-06-14T15:27:34Z</time>
      </trkpt>
      <trkpt lat="48.75413" lon="1.94486">
        <ele>171.6</ele>
        <time>2022-06-14T15:27:39Z</time>
      </trkpt>
      <trkpt lat="48.75417" lon="1.94475">
        <ele>171.9</ele>
        <time>2022-06-14T15:27:44Z</time>
      </trkpt>
      <trkpt lat="48.75422" lon="1.94465">
        <ele>172.1</ele>
        <time>2022-06-14T15:27:49Z</time>
      </trkpt>
      <trkpt lat="48.75429" lon="1.94459">
        <ele>172.1</ele>
        <time>2022-06-14T15:27:54Z</time>
      </trkpt>
      <trkpt lat="48.75436" lon="1.94455">
        <ele>172</ele>
        <time>2022-06-14T15:27:59Z</time>
      </trkpt>
      <trkpt lat="48.75441" lon="1.94448">
        <ele>172</ele>
        <time>2022-06-14T15:28:06Z</time>
      </trkpt>
      <trkpt lat="48.75447" lon="1.94441">
        <ele>172</ele>
        <time>2022-06-14T15:28:13Z</time>
      </trkpt>
      <trkpt lat="48.75451" lon="1.94431">
        <ele>172</ele>
        <time>2022-06-14T15:28:18Z</time>
      </trkpt>
      <trkpt lat="48.75456" lon="1.94425">
        <ele>172</ele>
        <time>2022-06-14T15:28:23Z</time>
      </trkpt>
      <trkpt lat="48.7546" lon="1.94417">
        <ele>171.9</ele>
        <time>2022-06-14T15:28:28Z</time>
      </trkpt>
      <trkpt lat="48.75466" lon="1.94412">
        <ele>171.7</ele>
        <time>2022-06-14T15:28:34Z</time>
      </trkpt>
      <trkpt lat="48.75473" lon="1.94413">
        <ele>171.3</ele>
        <time>2022-06-14T15:28:39Z</time>
      </trkpt>
      <trkpt lat="48.7548" lon="1.94408">
        <ele>171.1</ele>
        <time>2022-06-14T15:28:44Z</time>
      </trkpt>
      <trkpt lat="48.75486" lon="1.94404">
        <ele>170.9</ele>
        <time>2022-06-14T15:28:51Z</time>
      </trkpt>
      <trkpt lat="48.75492" lon="1.944">
        <ele>170.7</ele>
        <time>2022-06-14T15:28:58Z</time>
      </trkpt>
      <trkpt lat="48.75502" lon="1.94396">
        <ele>170.5</ele>
        <time>2022-06-14T15:29:03Z</time>
      </trkpt>
      <trkpt lat="48.75509" lon="1.94391">
        <ele>170.5</ele>
        <time>2022-06-14T15:29:08Z</time>
      </trkpt>
      <trkpt lat="48.75516" lon="1.94386">
        <ele>170.6</ele>
        <time>2022-06-14T15:29:14Z</time>
      </trkpt>
      <trkpt lat="48.75521" lon="1.94378">
        <ele>170.7</ele>
        <time>2022-06-14T15:29:20Z</time>
      </trkpt>
      <trkpt lat="48.75515" lon="1.94372">
        <ele>170.9</ele>
        <time>2022-06-14T15:29:33Z</time>
      </trkpt>
      <trkpt lat="48.75512" lon="1.94363">
        <ele>171.1</ele>
        <time>2022-06-14T15:29:38Z</time>
      </trkpt>
      <trkpt lat="48.75521" lon="1.9436">
        <ele>171</ele>
        <time>2022-06-14T15:30:25Z</time>
      </trkpt>
      <trkpt lat="48.7553" lon="1.94367">
        <ele>170.8</ele>
        <time>2022-06-14T15:31:34Z</time>
      </trkpt>
      <trkpt lat="48.75526" lon="1.94376">
        <ele>170.7</ele>
        <time>2022-06-14T15:32:14Z</time>
      </trkpt>
      <trkpt lat="48.75532" lon="1.94382">
        <ele>170.5</ele>
        <time>2022-06-14T15:32:24Z</time>
      </trkpt>
    </trkseg>
  </trk>
</gpx>